<?xml version="1.0" encoding="UTF-8" standalone="no" ?>
<gpx xmlns="http://www.topografix.com/GPX/1/1" xmlns:xsi="http://www.w3.org/2001/XMLSchema-instance" xsi:schemaLocation="http://www.topografix.com/GPX/1/1 http://www.topografix.com/GPX/1/1/gpx.xsd" version="1.1" creator="VisuGPX - https://www.visugpx.com">
  <metadata>
    <name>orival single</name>
    <desc><![CDATA[un max de single en foret 
parcour technique et joueur]]></desc>
  </metadata>
  <trk>
    <name><![CDATA[CA C FAIT]]></name>
    <trkseg>
      <trkpt lat="49.31542" lon="0.99554">
        <ele>4.46</ele>
        <time>2018-08-18T06:29:54Z</time>
      </trkpt>
      <trkpt lat="49.31543" lon="0.99554">
        <ele>6.39</ele>
        <time>2018-08-18T06:29:57Z</time>
      </trkpt>
      <trkpt lat="49.31542" lon="0.99552">
        <ele>6.87</ele>
        <time>2018-08-18T06:30:05Z</time>
      </trkpt>
      <trkpt lat="49.31542" lon="0.99552">
        <ele>7.83</ele>
        <time>2018-08-18T06:30:10Z</time>
      </trkpt>
      <trkpt lat="49.31547" lon="0.99556">
        <ele>8.31</ele>
        <time>2018-08-18T06:30:14Z</time>
      </trkpt>
      <trkpt lat="49.31561" lon="0.99564">
        <ele>7.83</ele>
        <time>2018-08-18T06:30:19Z</time>
      </trkpt>
      <trkpt lat="49.31577" lon="0.99574">
        <ele>8.31</ele>
        <time>2018-08-18T06:30:23Z</time>
      </trkpt>
      <trkpt lat="49.31631" lon="0.99585">
        <ele>8.79</ele>
        <time>2018-08-18T06:30:34Z</time>
      </trkpt>
      <trkpt lat="49.31635" lon="0.99584">
        <ele>8.79</ele>
        <time>2018-08-18T06:30:35Z</time>
      </trkpt>
      <trkpt lat="49.31648" lon="0.9958">
        <ele>11.67</ele>
        <time>2018-08-18T06:30:38Z</time>
      </trkpt>
      <trkpt lat="49.31738" lon="0.99523">
        <ele>8.79</ele>
        <time>2018-08-18T06:30:57Z</time>
      </trkpt>
      <trkpt lat="49.31791" lon="0.99469">
        <ele>9.75</ele>
        <time>2018-08-18T06:31:09Z</time>
      </trkpt>
      <trkpt lat="49.31795" lon="0.99467">
        <ele>9.75</ele>
        <time>2018-08-18T06:31:10Z</time>
      </trkpt>
      <trkpt lat="49.31799" lon="0.99468">
        <ele>9.75</ele>
        <time>2018-08-18T06:31:11Z</time>
      </trkpt>
      <trkpt lat="49.31802" lon="0.99473">
        <ele>10.23</ele>
        <time>2018-08-18T06:31:12Z</time>
      </trkpt>
      <trkpt lat="49.31802" lon="0.99477">
        <ele>10.71</ele>
        <time>2018-08-18T06:31:13Z</time>
      </trkpt>
      <trkpt lat="49.31799" lon="0.99481">
        <ele>11.19</ele>
        <time>2018-08-18T06:31:14Z</time>
      </trkpt>
      <trkpt lat="49.31797" lon="0.99485">
        <ele>11.19</ele>
        <time>2018-08-18T06:31:15Z</time>
      </trkpt>
      <trkpt lat="49.31791" lon="0.99495">
        <ele>11.67</ele>
        <time>2018-08-18T06:31:17Z</time>
      </trkpt>
      <trkpt lat="49.31761" lon="0.9954">
        <ele>13.6</ele>
        <time>2018-08-18T06:31:26Z</time>
      </trkpt>
      <trkpt lat="49.31758" lon="0.99543">
        <ele>14.08</ele>
        <time>2018-08-18T06:31:27Z</time>
      </trkpt>
      <trkpt lat="49.31756" lon="0.99547">
        <ele>14.56</ele>
        <time>2018-08-18T06:31:28Z</time>
      </trkpt>
      <trkpt lat="49.31753" lon="0.99551">
        <ele>14.56</ele>
        <time>2018-08-18T06:31:29Z</time>
      </trkpt>
      <trkpt lat="49.31751" lon="0.99555">
        <ele>15.04</ele>
        <time>2018-08-18T06:31:30Z</time>
      </trkpt>
      <trkpt lat="49.31748" lon="0.9956">
        <ele>15.04</ele>
        <time>2018-08-18T06:31:31Z</time>
      </trkpt>
      <trkpt lat="49.31746" lon="0.99565">
        <ele>15.52</ele>
        <time>2018-08-18T06:31:32Z</time>
      </trkpt>
      <trkpt lat="49.31743" lon="0.99569">
        <ele>15.52</ele>
        <time>2018-08-18T06:31:33Z</time>
      </trkpt>
      <trkpt lat="49.31734" lon="0.99601">
        <ele>18.88</ele>
        <time>2018-08-18T06:31:40Z</time>
      </trkpt>
      <trkpt lat="49.31733" lon="0.99607">
        <ele>19.36</ele>
        <time>2018-08-18T06:31:42Z</time>
      </trkpt>
      <trkpt lat="49.31732" lon="0.99611">
        <ele>19.84</ele>
        <time>2018-08-18T06:31:43Z</time>
      </trkpt>
      <trkpt lat="49.31725" lon="0.99633">
        <ele>22.25</ele>
        <time>2018-08-18T06:31:49Z</time>
      </trkpt>
      <trkpt lat="49.31724" lon="0.99636">
        <ele>22.73</ele>
        <time>2018-08-18T06:31:50Z</time>
      </trkpt>
      <trkpt lat="49.31724" lon="0.99639">
        <ele>23.21</ele>
        <time>2018-08-18T06:31:51Z</time>
      </trkpt>
      <trkpt lat="49.31724" lon="0.99642">
        <ele>23.69</ele>
        <time>2018-08-18T06:31:52Z</time>
      </trkpt>
      <trkpt lat="49.31725" lon="0.99644">
        <ele>23.69</ele>
        <time>2018-08-18T06:31:53Z</time>
      </trkpt>
      <trkpt lat="49.31727" lon="0.99646">
        <ele>25.13</ele>
        <time>2018-08-18T06:31:57Z</time>
      </trkpt>
      <trkpt lat="49.31728" lon="0.99649">
        <ele>25.61</ele>
        <time>2018-08-18T06:31:59Z</time>
      </trkpt>
      <trkpt lat="49.3173" lon="0.99651">
        <ele>26.09</ele>
        <time>2018-08-18T06:32:00Z</time>
      </trkpt>
      <trkpt lat="49.3173" lon="0.99653">
        <ele>26.57</ele>
        <time>2018-08-18T06:32:01Z</time>
      </trkpt>
      <trkpt lat="49.31736" lon="0.99665">
        <ele>29.46</ele>
        <time>2018-08-18T06:32:08Z</time>
      </trkpt>
      <trkpt lat="49.31739" lon="0.99666">
        <ele>30.9</ele>
        <time>2018-08-18T06:32:11Z</time>
      </trkpt>
      <trkpt lat="49.31741" lon="0.99666">
        <ele>31.38</ele>
        <time>2018-08-18T06:32:12Z</time>
      </trkpt>
      <trkpt lat="49.31742" lon="0.99665">
        <ele>31.38</ele>
        <time>2018-08-18T06:32:13Z</time>
      </trkpt>
      <trkpt lat="49.31751" lon="0.99653">
        <ele>32.82</ele>
        <time>2018-08-18T06:32:18Z</time>
      </trkpt>
      <trkpt lat="49.31751" lon="0.9965">
        <ele>32.82</ele>
        <time>2018-08-18T06:32:19Z</time>
      </trkpt>
      <trkpt lat="49.31752" lon="0.99648">
        <ele>33.3</ele>
        <time>2018-08-18T06:32:20Z</time>
      </trkpt>
      <trkpt lat="49.31754" lon="0.99646">
        <ele>33.78</ele>
        <time>2018-08-18T06:32:21Z</time>
      </trkpt>
      <trkpt lat="49.31755" lon="0.99644">
        <ele>34.26</ele>
        <time>2018-08-18T06:32:22Z</time>
      </trkpt>
      <trkpt lat="49.31785" lon="0.99609">
        <ele>35.23</ele>
        <time>2018-08-18T06:32:35Z</time>
      </trkpt>
      <trkpt lat="49.31811" lon="0.99578">
        <ele>35.23</ele>
        <time>2018-08-18T06:32:45Z</time>
      </trkpt>
      <trkpt lat="49.31833" lon="0.99549">
        <ele>34.74</ele>
        <time>2018-08-18T06:32:52Z</time>
      </trkpt>
      <trkpt lat="49.31865" lon="0.99522">
        <ele>34.74</ele>
        <time>2018-08-18T06:33:01Z</time>
      </trkpt>
      <trkpt lat="49.31874" lon="0.99514">
        <ele>34.26</ele>
        <time>2018-08-18T06:33:03Z</time>
      </trkpt>
      <trkpt lat="49.31879" lon="0.99511">
        <ele>34.26</ele>
        <time>2018-08-18T06:33:04Z</time>
      </trkpt>
      <trkpt lat="49.31901" lon="0.99502">
        <ele>34.74</ele>
        <time>2018-08-18T06:33:10Z</time>
      </trkpt>
      <trkpt lat="49.31904" lon="0.99503">
        <ele>35.23</ele>
        <time>2018-08-18T06:33:11Z</time>
      </trkpt>
      <trkpt lat="49.31907" lon="0.99506">
        <ele>35.71</ele>
        <time>2018-08-18T06:33:12Z</time>
      </trkpt>
      <trkpt lat="49.3191" lon="0.99508">
        <ele>36.19</ele>
        <time>2018-08-18T06:33:13Z</time>
      </trkpt>
      <trkpt lat="49.31913" lon="0.9951">
        <ele>36.19</ele>
        <time>2018-08-18T06:33:14Z</time>
      </trkpt>
      <trkpt lat="49.31917" lon="0.99511">
        <ele>36.67</ele>
        <time>2018-08-18T06:33:15Z</time>
      </trkpt>
      <trkpt lat="49.3192" lon="0.99511">
        <ele>36.67</ele>
        <time>2018-08-18T06:33:16Z</time>
      </trkpt>
      <trkpt lat="49.31921" lon="0.99513">
        <ele>36.67</ele>
        <time>2018-08-18T06:33:17Z</time>
      </trkpt>
      <trkpt lat="49.31933" lon="0.99524">
        <ele>39.07</ele>
        <time>2018-08-18T06:33:23Z</time>
      </trkpt>
      <trkpt lat="49.31934" lon="0.99526">
        <ele>39.07</ele>
        <time>2018-08-18T06:33:24Z</time>
      </trkpt>
      <trkpt lat="49.31935" lon="0.99529">
        <ele>40.03</ele>
        <time>2018-08-18T06:33:25Z</time>
      </trkpt>
      <trkpt lat="49.31937" lon="0.99531">
        <ele>40.03</ele>
        <time>2018-08-18T06:33:26Z</time>
      </trkpt>
      <trkpt lat="49.31938" lon="0.99534">
        <ele>40.51</ele>
        <time>2018-08-18T06:33:27Z</time>
      </trkpt>
      <trkpt lat="49.3194" lon="0.99537">
        <ele>40.51</ele>
        <time>2018-08-18T06:33:28Z</time>
      </trkpt>
      <trkpt lat="49.31941" lon="0.9954">
        <ele>40.99</ele>
        <time>2018-08-18T06:33:29Z</time>
      </trkpt>
      <trkpt lat="49.31943" lon="0.99543">
        <ele>41.47</ele>
        <time>2018-08-18T06:33:30Z</time>
      </trkpt>
      <trkpt lat="49.31944" lon="0.99546">
        <ele>41.95</ele>
        <time>2018-08-18T06:33:31Z</time>
      </trkpt>
      <trkpt lat="49.31944" lon="0.99549">
        <ele>42.44</ele>
        <time>2018-08-18T06:33:32Z</time>
      </trkpt>
      <trkpt lat="49.31945" lon="0.99552">
        <ele>42.92</ele>
        <time>2018-08-18T06:33:33Z</time>
      </trkpt>
      <trkpt lat="49.31946" lon="0.99555">
        <ele>42.92</ele>
        <time>2018-08-18T06:33:34Z</time>
      </trkpt>
      <trkpt lat="49.31953" lon="0.9957">
        <ele>44.36</ele>
        <time>2018-08-18T06:33:40Z</time>
      </trkpt>
      <trkpt lat="49.31955" lon="0.99573">
        <ele>44.84</ele>
        <time>2018-08-18T06:33:41Z</time>
      </trkpt>
      <trkpt lat="49.31957" lon="0.99576">
        <ele>44.84</ele>
        <time>2018-08-18T06:33:42Z</time>
      </trkpt>
      <trkpt lat="49.31985" lon="0.99599">
        <ele>48.2</ele>
        <time>2018-08-18T06:33:54Z</time>
      </trkpt>
      <trkpt lat="49.31989" lon="0.99602">
        <ele>48.68</ele>
        <time>2018-08-18T06:33:56Z</time>
      </trkpt>
      <trkpt lat="49.31991" lon="0.99604">
        <ele>48.68</ele>
        <time>2018-08-18T06:33:57Z</time>
      </trkpt>
      <trkpt lat="49.31995" lon="0.99606">
        <ele>49.16</ele>
        <time>2018-08-18T06:33:58Z</time>
      </trkpt>
      <trkpt lat="49.32" lon="0.99608">
        <ele>49.16</ele>
        <time>2018-08-18T06:33:59Z</time>
      </trkpt>
      <trkpt lat="49.32004" lon="0.99611">
        <ele>49.16</ele>
        <time>2018-08-18T06:34:00Z</time>
      </trkpt>
      <trkpt lat="49.32008" lon="0.99614">
        <ele>49.16</ele>
        <time>2018-08-18T06:34:01Z</time>
      </trkpt>
      <trkpt lat="49.32011" lon="0.99617">
        <ele>49.16</ele>
        <time>2018-08-18T06:34:02Z</time>
      </trkpt>
      <trkpt lat="49.32014" lon="0.99619">
        <ele>49.65</ele>
        <time>2018-08-18T06:34:03Z</time>
      </trkpt>
      <trkpt lat="49.32015" lon="0.99621">
        <ele>49.65</ele>
        <time>2018-08-18T06:34:04Z</time>
      </trkpt>
      <trkpt lat="49.32017" lon="0.99624">
        <ele>49.16</ele>
        <time>2018-08-18T06:34:05Z</time>
      </trkpt>
      <trkpt lat="49.3202" lon="0.99626">
        <ele>49.65</ele>
        <time>2018-08-18T06:34:06Z</time>
      </trkpt>
      <trkpt lat="49.32023" lon="0.99627">
        <ele>49.65</ele>
        <time>2018-08-18T06:34:07Z</time>
      </trkpt>
      <trkpt lat="49.32026" lon="0.99629">
        <ele>49.65</ele>
        <time>2018-08-18T06:34:08Z</time>
      </trkpt>
      <trkpt lat="49.32029" lon="0.99631">
        <ele>50.13</ele>
        <time>2018-08-18T06:34:09Z</time>
      </trkpt>
      <trkpt lat="49.32037" lon="0.99637">
        <ele>50.61</ele>
        <time>2018-08-18T06:34:12Z</time>
      </trkpt>
      <trkpt lat="49.3204" lon="0.99639">
        <ele>50.61</ele>
        <time>2018-08-18T06:34:13Z</time>
      </trkpt>
      <trkpt lat="49.32054" lon="0.9965">
        <ele>51.57</ele>
        <time>2018-08-18T06:34:18Z</time>
      </trkpt>
      <trkpt lat="49.32086" lon="0.99666">
        <ele>53.01</ele>
        <time>2018-08-18T06:34:29Z</time>
      </trkpt>
      <trkpt lat="49.32104" lon="0.99677">
        <ele>56.37</ele>
        <time>2018-08-18T06:34:36Z</time>
      </trkpt>
      <trkpt lat="49.32105" lon="0.99677">
        <ele>56.37</ele>
        <time>2018-08-18T06:34:37Z</time>
      </trkpt>
      <trkpt lat="49.32108" lon="0.99678">
        <ele>56.86</ele>
        <time>2018-08-18T06:34:38Z</time>
      </trkpt>
      <trkpt lat="49.3211" lon="0.9968">
        <ele>57.82</ele>
        <time>2018-08-18T06:34:40Z</time>
      </trkpt>
      <trkpt lat="49.32112" lon="0.99682">
        <ele>58.3</ele>
        <time>2018-08-18T06:34:41Z</time>
      </trkpt>
      <trkpt lat="49.32114" lon="0.99683">
        <ele>58.3</ele>
        <time>2018-08-18T06:34:42Z</time>
      </trkpt>
      <trkpt lat="49.32115" lon="0.99684">
        <ele>58.78</ele>
        <time>2018-08-18T06:34:43Z</time>
      </trkpt>
      <trkpt lat="49.32117" lon="0.99685">
        <ele>58.78</ele>
        <time>2018-08-18T06:34:44Z</time>
      </trkpt>
      <trkpt lat="49.32119" lon="0.99686">
        <ele>59.26</ele>
        <time>2018-08-18T06:34:45Z</time>
      </trkpt>
      <trkpt lat="49.32121" lon="0.99687">
        <ele>59.74</ele>
        <time>2018-08-18T06:34:46Z</time>
      </trkpt>
      <trkpt lat="49.3213" lon="0.99691">
        <ele>59.74</ele>
        <time>2018-08-18T06:34:50Z</time>
      </trkpt>
      <trkpt lat="49.32131" lon="0.99691">
        <ele>60.22</ele>
        <time>2018-08-18T06:34:51Z</time>
      </trkpt>
      <trkpt lat="49.32134" lon="0.99692">
        <ele>60.22</ele>
        <time>2018-08-18T06:34:52Z</time>
      </trkpt>
      <trkpt lat="49.32137" lon="0.99694">
        <ele>60.22</ele>
        <time>2018-08-18T06:34:53Z</time>
      </trkpt>
      <trkpt lat="49.3214" lon="0.99694">
        <ele>60.22</ele>
        <time>2018-08-18T06:34:54Z</time>
      </trkpt>
      <trkpt lat="49.32145" lon="0.99695">
        <ele>60.22</ele>
        <time>2018-08-18T06:34:55Z</time>
      </trkpt>
      <trkpt lat="49.32152" lon="0.99698">
        <ele>60.22</ele>
        <time>2018-08-18T06:34:56Z</time>
      </trkpt>
      <trkpt lat="49.32177" lon="0.99708">
        <ele>60.22</ele>
        <time>2018-08-18T06:35:03Z</time>
      </trkpt>
      <trkpt lat="49.32178" lon="0.9971">
        <ele>60.22</ele>
        <time>2018-08-18T06:35:05Z</time>
      </trkpt>
      <trkpt lat="49.3218" lon="0.99712">
        <ele>60.7</ele>
        <time>2018-08-18T06:35:06Z</time>
      </trkpt>
      <trkpt lat="49.32183" lon="0.99713">
        <ele>60.7</ele>
        <time>2018-08-18T06:35:07Z</time>
      </trkpt>
      <trkpt lat="49.32218" lon="0.99739">
        <ele>61.66</ele>
        <time>2018-08-18T06:35:18Z</time>
      </trkpt>
      <trkpt lat="49.3222" lon="0.99741">
        <ele>62.14</ele>
        <time>2018-08-18T06:35:19Z</time>
      </trkpt>
      <trkpt lat="49.32223" lon="0.99743">
        <ele>62.62</ele>
        <time>2018-08-18T06:35:20Z</time>
      </trkpt>
      <trkpt lat="49.32225" lon="0.99745">
        <ele>63.1</ele>
        <time>2018-08-18T06:35:21Z</time>
      </trkpt>
      <trkpt lat="49.32227" lon="0.99748">
        <ele>63.1</ele>
        <time>2018-08-18T06:35:22Z</time>
      </trkpt>
      <trkpt lat="49.32229" lon="0.9975">
        <ele>63.58</ele>
        <time>2018-08-18T06:35:23Z</time>
      </trkpt>
      <trkpt lat="49.3223" lon="0.99753">
        <ele>64.07</ele>
        <time>2018-08-18T06:35:24Z</time>
      </trkpt>
      <trkpt lat="49.32232" lon="0.99754">
        <ele>64.55</ele>
        <time>2018-08-18T06:35:25Z</time>
      </trkpt>
      <trkpt lat="49.32232" lon="0.99756">
        <ele>65.03</ele>
        <time>2018-08-18T06:35:26Z</time>
      </trkpt>
      <trkpt lat="49.32233" lon="0.99759">
        <ele>65.51</ele>
        <time>2018-08-18T06:35:27Z</time>
      </trkpt>
      <trkpt lat="49.32234" lon="0.99761">
        <ele>65.51</ele>
        <time>2018-08-18T06:35:28Z</time>
      </trkpt>
      <trkpt lat="49.32235" lon="0.99763">
        <ele>65.99</ele>
        <time>2018-08-18T06:35:29Z</time>
      </trkpt>
      <trkpt lat="49.3224" lon="0.99769">
        <ele>66.47</ele>
        <time>2018-08-18T06:35:31Z</time>
      </trkpt>
      <trkpt lat="49.32242" lon="0.99771">
        <ele>66.95</ele>
        <time>2018-08-18T06:35:32Z</time>
      </trkpt>
      <trkpt lat="49.32244" lon="0.99774">
        <ele>67.43</ele>
        <time>2018-08-18T06:35:33Z</time>
      </trkpt>
      <trkpt lat="49.32245" lon="0.99777">
        <ele>67.43</ele>
        <time>2018-08-18T06:35:34Z</time>
      </trkpt>
      <trkpt lat="49.32247" lon="0.99779">
        <ele>67.43</ele>
        <time>2018-08-18T06:35:35Z</time>
      </trkpt>
      <trkpt lat="49.32249" lon="0.99782">
        <ele>67.43</ele>
        <time>2018-08-18T06:35:36Z</time>
      </trkpt>
      <trkpt lat="49.32251" lon="0.99785">
        <ele>67.91</ele>
        <time>2018-08-18T06:35:37Z</time>
      </trkpt>
      <trkpt lat="49.32254" lon="0.99788">
        <ele>68.39</ele>
        <time>2018-08-18T06:35:38Z</time>
      </trkpt>
      <trkpt lat="49.32256" lon="0.9979">
        <ele>68.39</ele>
        <time>2018-08-18T06:35:39Z</time>
      </trkpt>
      <trkpt lat="49.32258" lon="0.99794">
        <ele>68.87</ele>
        <time>2018-08-18T06:35:40Z</time>
      </trkpt>
      <trkpt lat="49.3226" lon="0.99797">
        <ele>68.87</ele>
        <time>2018-08-18T06:35:41Z</time>
      </trkpt>
      <trkpt lat="49.32261" lon="0.998">
        <ele>69.35</ele>
        <time>2018-08-18T06:35:42Z</time>
      </trkpt>
      <trkpt lat="49.32263" lon="0.99802">
        <ele>69.35</ele>
        <time>2018-08-18T06:35:43Z</time>
      </trkpt>
      <trkpt lat="49.32264" lon="0.99805">
        <ele>69.35</ele>
        <time>2018-08-18T06:35:44Z</time>
      </trkpt>
      <trkpt lat="49.32265" lon="0.99807">
        <ele>69.83</ele>
        <time>2018-08-18T06:35:45Z</time>
      </trkpt>
      <trkpt lat="49.32266" lon="0.99809">
        <ele>70.31</ele>
        <time>2018-08-18T06:35:46Z</time>
      </trkpt>
      <trkpt lat="49.32269" lon="0.9982">
        <ele>71.76</ele>
        <time>2018-08-18T06:35:50Z</time>
      </trkpt>
      <trkpt lat="49.32269" lon="0.99823">
        <ele>72.24</ele>
        <time>2018-08-18T06:35:51Z</time>
      </trkpt>
      <trkpt lat="49.3227" lon="0.99827">
        <ele>72.24</ele>
        <time>2018-08-18T06:35:52Z</time>
      </trkpt>
      <trkpt lat="49.32271" lon="0.99831">
        <ele>72.24</ele>
        <time>2018-08-18T06:35:53Z</time>
      </trkpt>
      <trkpt lat="49.32271" lon="0.99834">
        <ele>72.24</ele>
        <time>2018-08-18T06:35:54Z</time>
      </trkpt>
      <trkpt lat="49.32272" lon="0.99837">
        <ele>72.24</ele>
        <time>2018-08-18T06:35:55Z</time>
      </trkpt>
      <trkpt lat="49.3227" lon="0.99853">
        <ele>73.68</ele>
        <time>2018-08-18T06:36:00Z</time>
      </trkpt>
      <trkpt lat="49.32269" lon="0.99856">
        <ele>73.68</ele>
        <time>2018-08-18T06:36:01Z</time>
      </trkpt>
      <trkpt lat="49.32269" lon="0.9986">
        <ele>74.16</ele>
        <time>2018-08-18T06:36:02Z</time>
      </trkpt>
      <trkpt lat="49.32269" lon="0.99863">
        <ele>74.64</ele>
        <time>2018-08-18T06:36:03Z</time>
      </trkpt>
      <trkpt lat="49.32269" lon="0.99867">
        <ele>74.64</ele>
        <time>2018-08-18T06:36:04Z</time>
      </trkpt>
      <trkpt lat="49.32268" lon="0.99871">
        <ele>75.12</ele>
        <time>2018-08-18T06:36:05Z</time>
      </trkpt>
      <trkpt lat="49.32268" lon="0.99874">
        <ele>75.6</ele>
        <time>2018-08-18T06:36:06Z</time>
      </trkpt>
      <trkpt lat="49.32265" lon="0.99886">
        <ele>76.08</ele>
        <time>2018-08-18T06:36:10Z</time>
      </trkpt>
      <trkpt lat="49.32266" lon="0.99889">
        <ele>76.56</ele>
        <time>2018-08-18T06:36:11Z</time>
      </trkpt>
      <trkpt lat="49.32268" lon="0.99907">
        <ele>78.97</ele>
        <time>2018-08-18T06:36:19Z</time>
      </trkpt>
      <trkpt lat="49.32268" lon="0.9991">
        <ele>79.45</ele>
        <time>2018-08-18T06:36:20Z</time>
      </trkpt>
      <trkpt lat="49.32268" lon="0.9992">
        <ele>80.89</ele>
        <time>2018-08-18T06:36:24Z</time>
      </trkpt>
      <trkpt lat="49.32272" lon="0.99934">
        <ele>82.81</ele>
        <time>2018-08-18T06:36:31Z</time>
      </trkpt>
      <trkpt lat="49.32274" lon="0.99937">
        <ele>81.85</ele>
        <time>2018-08-18T06:36:32Z</time>
      </trkpt>
      <trkpt lat="49.32277" lon="0.99941">
        <ele>81.37</ele>
        <time>2018-08-18T06:36:33Z</time>
      </trkpt>
      <trkpt lat="49.32279" lon="0.99945">
        <ele>81.85</ele>
        <time>2018-08-18T06:36:34Z</time>
      </trkpt>
      <trkpt lat="49.32281" lon="0.9995">
        <ele>82.33</ele>
        <time>2018-08-18T06:36:35Z</time>
      </trkpt>
      <trkpt lat="49.32283" lon="0.99954">
        <ele>82.33</ele>
        <time>2018-08-18T06:36:36Z</time>
      </trkpt>
      <trkpt lat="49.32286" lon="0.99958">
        <ele>82.33</ele>
        <time>2018-08-18T06:36:37Z</time>
      </trkpt>
      <trkpt lat="49.32287" lon="0.9996">
        <ele>82.33</ele>
        <time>2018-08-18T06:36:38Z</time>
      </trkpt>
      <trkpt lat="49.32289" lon="0.99963">
        <ele>82.33</ele>
        <time>2018-08-18T06:36:39Z</time>
      </trkpt>
      <trkpt lat="49.3229" lon="0.99968">
        <ele>82.33</ele>
        <time>2018-08-18T06:36:40Z</time>
      </trkpt>
      <trkpt lat="49.32291" lon="0.99972">
        <ele>82.33</ele>
        <time>2018-08-18T06:36:41Z</time>
      </trkpt>
      <trkpt lat="49.32292" lon="0.99976">
        <ele>82.33</ele>
        <time>2018-08-18T06:36:42Z</time>
      </trkpt>
      <trkpt lat="49.32293" lon="0.99979">
        <ele>82.33</ele>
        <time>2018-08-18T06:36:43Z</time>
      </trkpt>
      <trkpt lat="49.32295" lon="0.99983">
        <ele>82.33</ele>
        <time>2018-08-18T06:36:44Z</time>
      </trkpt>
      <trkpt lat="49.32298" lon="0.99987">
        <ele>82.33</ele>
        <time>2018-08-18T06:36:45Z</time>
      </trkpt>
      <trkpt lat="49.32315" lon="1.00013">
        <ele>82.81</ele>
        <time>2018-08-18T06:36:52Z</time>
      </trkpt>
      <trkpt lat="49.32322" lon="1.00028">
        <ele>83.29</ele>
        <time>2018-08-18T06:36:56Z</time>
      </trkpt>
      <trkpt lat="49.32332" lon="1.00057">
        <ele>83.29</ele>
        <time>2018-08-18T06:37:03Z</time>
      </trkpt>
      <trkpt lat="49.32333" lon="1.0009">
        <ele>87.14</ele>
        <time>2018-08-18T06:37:12Z</time>
      </trkpt>
      <trkpt lat="49.32331" lon="1.00093">
        <ele>87.62</ele>
        <time>2018-08-18T06:37:13Z</time>
      </trkpt>
      <trkpt lat="49.32328" lon="1.00099">
        <ele>88.58</ele>
        <time>2018-08-18T06:37:16Z</time>
      </trkpt>
      <trkpt lat="49.32329" lon="1.0011">
        <ele>88.58</ele>
        <time>2018-08-18T06:37:18Z</time>
      </trkpt>
      <trkpt lat="49.32329" lon="1.00115">
        <ele>89.54</ele>
        <time>2018-08-18T06:37:20Z</time>
      </trkpt>
      <trkpt lat="49.32326" lon="1.00127">
        <ele>90.98</ele>
        <time>2018-08-18T06:37:24Z</time>
      </trkpt>
      <trkpt lat="49.32322" lon="1.00145">
        <ele>91.94</ele>
        <time>2018-08-18T06:37:29Z</time>
      </trkpt>
      <trkpt lat="49.32322" lon="1.00168">
        <ele>92.42</ele>
        <time>2018-08-18T06:37:35Z</time>
      </trkpt>
      <trkpt lat="49.32323" lon="1.00172">
        <ele>92.42</ele>
        <time>2018-08-18T06:37:36Z</time>
      </trkpt>
      <trkpt lat="49.32328" lon="1.00177">
        <ele>90.5</ele>
        <time>2018-08-18T06:37:38Z</time>
      </trkpt>
      <trkpt lat="49.32331" lon="1.00198">
        <ele>89.06</ele>
        <time>2018-08-18T06:37:41Z</time>
      </trkpt>
      <trkpt lat="49.32335" lon="1.00204">
        <ele>89.06</ele>
        <time>2018-08-18T06:37:42Z</time>
      </trkpt>
      <trkpt lat="49.32348" lon="1.00211">
        <ele>87.14</ele>
        <time>2018-08-18T06:37:45Z</time>
      </trkpt>
      <trkpt lat="49.32365" lon="1.00206">
        <ele>83.29</ele>
        <time>2018-08-18T06:37:48Z</time>
      </trkpt>
      <trkpt lat="49.3237" lon="1.00201">
        <ele>82.81</ele>
        <time>2018-08-18T06:37:49Z</time>
      </trkpt>
      <trkpt lat="49.32378" lon="1.00195">
        <ele>83.77</ele>
        <time>2018-08-18T06:37:51Z</time>
      </trkpt>
      <trkpt lat="49.32388" lon="1.00202">
        <ele>81.37</ele>
        <time>2018-08-18T06:37:55Z</time>
      </trkpt>
      <trkpt lat="49.32401" lon="1.00217">
        <ele>77.04</ele>
        <time>2018-08-18T06:37:59Z</time>
      </trkpt>
      <trkpt lat="49.32403" lon="1.00221">
        <ele>75.6</ele>
        <time>2018-08-18T06:38:00Z</time>
      </trkpt>
      <trkpt lat="49.32406" lon="1.00225">
        <ele>74.64</ele>
        <time>2018-08-18T06:38:01Z</time>
      </trkpt>
      <trkpt lat="49.32408" lon="1.0023">
        <ele>72.72</ele>
        <time>2018-08-18T06:38:02Z</time>
      </trkpt>
      <trkpt lat="49.32412" lon="1.00235">
        <ele>70.79</ele>
        <time>2018-08-18T06:38:03Z</time>
      </trkpt>
      <trkpt lat="49.32415" lon="1.00241">
        <ele>68.87</ele>
        <time>2018-08-18T06:38:04Z</time>
      </trkpt>
      <trkpt lat="49.32422" lon="1.00255">
        <ele>66.47</ele>
        <time>2018-08-18T06:38:06Z</time>
      </trkpt>
      <trkpt lat="49.32426" lon="1.00264">
        <ele>65.03</ele>
        <time>2018-08-18T06:38:07Z</time>
      </trkpt>
      <trkpt lat="49.32428" lon="1.00274">
        <ele>63.58</ele>
        <time>2018-08-18T06:38:08Z</time>
      </trkpt>
      <trkpt lat="49.3243" lon="1.00286">
        <ele>62.62</ele>
        <time>2018-08-18T06:38:09Z</time>
      </trkpt>
      <trkpt lat="49.32438" lon="1.0033">
        <ele>60.7</ele>
        <time>2018-08-18T06:38:13Z</time>
      </trkpt>
      <trkpt lat="49.32448" lon="1.00363">
        <ele>59.26</ele>
        <time>2018-08-18T06:38:17Z</time>
      </trkpt>
      <trkpt lat="49.32451" lon="1.00382">
        <ele>58.78</ele>
        <time>2018-08-18T06:38:20Z</time>
      </trkpt>
      <trkpt lat="49.3245" lon="1.00387">
        <ele>59.26</ele>
        <time>2018-08-18T06:38:21Z</time>
      </trkpt>
      <trkpt lat="49.3245" lon="1.0039">
        <ele>59.26</ele>
        <time>2018-08-18T06:38:22Z</time>
      </trkpt>
      <trkpt lat="49.32449" lon="1.00394">
        <ele>59.26</ele>
        <time>2018-08-18T06:38:23Z</time>
      </trkpt>
      <trkpt lat="49.32448" lon="1.00399">
        <ele>59.74</ele>
        <time>2018-08-18T06:38:24Z</time>
      </trkpt>
      <trkpt lat="49.32447" lon="1.00403">
        <ele>59.74</ele>
        <time>2018-08-18T06:38:25Z</time>
      </trkpt>
      <trkpt lat="49.32447" lon="1.00405">
        <ele>60.22</ele>
        <time>2018-08-18T06:38:26Z</time>
      </trkpt>
      <trkpt lat="49.32446" lon="1.00408">
        <ele>60.22</ele>
        <time>2018-08-18T06:38:27Z</time>
      </trkpt>
      <trkpt lat="49.32445" lon="1.00412">
        <ele>60.22</ele>
        <time>2018-08-18T06:38:28Z</time>
      </trkpt>
      <trkpt lat="49.32443" lon="1.00417">
        <ele>60.7</ele>
        <time>2018-08-18T06:38:29Z</time>
      </trkpt>
      <trkpt lat="49.3243" lon="1.00441">
        <ele>61.66</ele>
        <time>2018-08-18T06:38:34Z</time>
      </trkpt>
      <trkpt lat="49.32403" lon="1.00509">
        <ele>64.07</ele>
        <time>2018-08-18T06:38:49Z</time>
      </trkpt>
      <trkpt lat="49.32399" lon="1.0052">
        <ele>64.55</ele>
        <time>2018-08-18T06:38:51Z</time>
      </trkpt>
      <trkpt lat="49.32399" lon="1.00533">
        <ele>65.03</ele>
        <time>2018-08-18T06:38:53Z</time>
      </trkpt>
      <trkpt lat="49.324" lon="1.00538">
        <ele>65.03</ele>
        <time>2018-08-18T06:38:54Z</time>
      </trkpt>
      <trkpt lat="49.32402" lon="1.00544">
        <ele>65.03</ele>
        <time>2018-08-18T06:38:55Z</time>
      </trkpt>
      <trkpt lat="49.32404" lon="1.00548">
        <ele>65.03</ele>
        <time>2018-08-18T06:38:56Z</time>
      </trkpt>
      <trkpt lat="49.32407" lon="1.00552">
        <ele>65.03</ele>
        <time>2018-08-18T06:38:57Z</time>
      </trkpt>
      <trkpt lat="49.32411" lon="1.00555">
        <ele>65.03</ele>
        <time>2018-08-18T06:38:58Z</time>
      </trkpt>
      <trkpt lat="49.32414" lon="1.00556">
        <ele>65.03</ele>
        <time>2018-08-18T06:38:59Z</time>
      </trkpt>
      <trkpt lat="49.32418" lon="1.00555">
        <ele>65.03</ele>
        <time>2018-08-18T06:39:00Z</time>
      </trkpt>
      <trkpt lat="49.32422" lon="1.00554">
        <ele>65.03</ele>
        <time>2018-08-18T06:39:01Z</time>
      </trkpt>
      <trkpt lat="49.32425" lon="1.00552">
        <ele>65.51</ele>
        <time>2018-08-18T06:39:02Z</time>
      </trkpt>
      <trkpt lat="49.32446" lon="1.00537">
        <ele>66.47</ele>
        <time>2018-08-18T06:39:09Z</time>
      </trkpt>
      <trkpt lat="49.3245" lon="1.00534">
        <ele>66.95</ele>
        <time>2018-08-18T06:39:10Z</time>
      </trkpt>
      <trkpt lat="49.32454" lon="1.00531">
        <ele>67.43</ele>
        <time>2018-08-18T06:39:11Z</time>
      </trkpt>
      <trkpt lat="49.32457" lon="1.00529">
        <ele>67.43</ele>
        <time>2018-08-18T06:39:12Z</time>
      </trkpt>
      <trkpt lat="49.32461" lon="1.00526">
        <ele>67.43</ele>
        <time>2018-08-18T06:39:13Z</time>
      </trkpt>
      <trkpt lat="49.32465" lon="1.00525">
        <ele>67.43</ele>
        <time>2018-08-18T06:39:14Z</time>
      </trkpt>
      <trkpt lat="49.32476" lon="1.00518">
        <ele>68.39</ele>
        <time>2018-08-18T06:39:17Z</time>
      </trkpt>
      <trkpt lat="49.32481" lon="1.00516">
        <ele>68.87</ele>
        <time>2018-08-18T06:39:18Z</time>
      </trkpt>
      <trkpt lat="49.32486" lon="1.00514">
        <ele>68.87</ele>
        <time>2018-08-18T06:39:19Z</time>
      </trkpt>
      <trkpt lat="49.3249" lon="1.00513">
        <ele>68.87</ele>
        <time>2018-08-18T06:39:20Z</time>
      </trkpt>
      <trkpt lat="49.32493" lon="1.0051">
        <ele>69.35</ele>
        <time>2018-08-18T06:39:21Z</time>
      </trkpt>
      <trkpt lat="49.32496" lon="1.00502">
        <ele>69.35</ele>
        <time>2018-08-18T06:39:36Z</time>
      </trkpt>
      <trkpt lat="49.32492" lon="1.00502">
        <ele>69.35</ele>
        <time>2018-08-18T06:40:00Z</time>
      </trkpt>
      <trkpt lat="49.32507" lon="1.00499">
        <ele>69.83</ele>
        <time>2018-08-18T06:40:09Z</time>
      </trkpt>
      <trkpt lat="49.32511" lon="1.00501">
        <ele>70.79</ele>
        <time>2018-08-18T06:40:11Z</time>
      </trkpt>
      <trkpt lat="49.32518" lon="1.005">
        <ele>73.2</ele>
        <time>2018-08-18T06:40:15Z</time>
      </trkpt>
      <trkpt lat="49.32543" lon="1.00485">
        <ele>75.6</ele>
        <time>2018-08-18T06:40:27Z</time>
      </trkpt>
      <trkpt lat="49.32544" lon="1.00486">
        <ele>75.6</ele>
        <time>2018-08-18T06:40:28Z</time>
      </trkpt>
      <trkpt lat="49.32552" lon="1.00475">
        <ele>76.56</ele>
        <time>2018-08-18T06:40:31Z</time>
      </trkpt>
      <trkpt lat="49.3256" lon="1.00454">
        <ele>77.52</ele>
        <time>2018-08-18T06:40:37Z</time>
      </trkpt>
      <trkpt lat="49.3256" lon="1.00449">
        <ele>78</ele>
        <time>2018-08-18T06:40:38Z</time>
      </trkpt>
      <trkpt lat="49.32588" lon="1.00392">
        <ele>80.41</ele>
        <time>2018-08-18T06:40:53Z</time>
      </trkpt>
      <trkpt lat="49.32595" lon="1.00382">
        <ele>81.37</ele>
        <time>2018-08-18T06:40:57Z</time>
      </trkpt>
      <trkpt lat="49.32601" lon="1.00371">
        <ele>82.33</ele>
        <time>2018-08-18T06:41:00Z</time>
      </trkpt>
      <trkpt lat="49.32614" lon="1.00362">
        <ele>84.25</ele>
        <time>2018-08-18T06:41:07Z</time>
      </trkpt>
      <trkpt lat="49.32628" lon="1.00366">
        <ele>85.21</ele>
        <time>2018-08-18T06:41:13Z</time>
      </trkpt>
      <trkpt lat="49.32633" lon="1.00366">
        <ele>85.69</ele>
        <time>2018-08-18T06:41:15Z</time>
      </trkpt>
      <trkpt lat="49.32639" lon="1.00371">
        <ele>86.66</ele>
        <time>2018-08-18T06:41:18Z</time>
      </trkpt>
      <trkpt lat="49.32633" lon="1.0038">
        <ele>88.58</ele>
        <time>2018-08-18T06:41:23Z</time>
      </trkpt>
      <trkpt lat="49.32633" lon="1.00383">
        <ele>89.06</ele>
        <time>2018-08-18T06:41:25Z</time>
      </trkpt>
      <trkpt lat="49.32649" lon="1.00385">
        <ele>87.14</ele>
        <time>2018-08-18T06:41:30Z</time>
      </trkpt>
      <trkpt lat="49.32653" lon="1.00384">
        <ele>86.18</ele>
        <time>2018-08-18T06:41:31Z</time>
      </trkpt>
      <trkpt lat="49.32657" lon="1.00385">
        <ele>85.21</ele>
        <time>2018-08-18T06:41:32Z</time>
      </trkpt>
      <trkpt lat="49.32661" lon="1.00386">
        <ele>85.21</ele>
        <time>2018-08-18T06:41:33Z</time>
      </trkpt>
      <trkpt lat="49.32664" lon="1.00387">
        <ele>84.73</ele>
        <time>2018-08-18T06:41:34Z</time>
      </trkpt>
      <trkpt lat="49.32667" lon="1.00389">
        <ele>85.21</ele>
        <time>2018-08-18T06:41:35Z</time>
      </trkpt>
      <trkpt lat="49.32673" lon="1.0039">
        <ele>84.73</ele>
        <time>2018-08-18T06:41:37Z</time>
      </trkpt>
      <trkpt lat="49.32676" lon="1.00392">
        <ele>84.73</ele>
        <time>2018-08-18T06:41:38Z</time>
      </trkpt>
      <trkpt lat="49.32679" lon="1.00393">
        <ele>85.69</ele>
        <time>2018-08-18T06:41:39Z</time>
      </trkpt>
      <trkpt lat="49.32681" lon="1.00394">
        <ele>85.69</ele>
        <time>2018-08-18T06:41:40Z</time>
      </trkpt>
      <trkpt lat="49.32685" lon="1.00395">
        <ele>86.18</ele>
        <time>2018-08-18T06:41:41Z</time>
      </trkpt>
      <trkpt lat="49.32688" lon="1.00395">
        <ele>86.18</ele>
        <time>2018-08-18T06:41:42Z</time>
      </trkpt>
      <trkpt lat="49.32691" lon="1.00394">
        <ele>85.69</ele>
        <time>2018-08-18T06:41:43Z</time>
      </trkpt>
      <trkpt lat="49.32701" lon="1.00387">
        <ele>84.25</ele>
        <time>2018-08-18T06:41:46Z</time>
      </trkpt>
      <trkpt lat="49.32706" lon="1.00388">
        <ele>84.73</ele>
        <time>2018-08-18T06:41:47Z</time>
      </trkpt>
      <trkpt lat="49.32725" lon="1.00384">
        <ele>87.14</ele>
        <time>2018-08-18T06:41:54Z</time>
      </trkpt>
      <trkpt lat="49.3273" lon="1.00385">
        <ele>88.1</ele>
        <time>2018-08-18T06:41:57Z</time>
      </trkpt>
      <trkpt lat="49.32732" lon="1.00385">
        <ele>88.58</ele>
        <time>2018-08-18T06:41:58Z</time>
      </trkpt>
      <trkpt lat="49.32738" lon="1.00386">
        <ele>89.54</ele>
        <time>2018-08-18T06:42:01Z</time>
      </trkpt>
      <trkpt lat="49.3274" lon="1.00385">
        <ele>89.54</ele>
        <time>2018-08-18T06:42:02Z</time>
      </trkpt>
      <trkpt lat="49.32743" lon="1.00385">
        <ele>89.54</ele>
        <time>2018-08-18T06:42:03Z</time>
      </trkpt>
      <trkpt lat="49.32746" lon="1.00384">
        <ele>89.54</ele>
        <time>2018-08-18T06:42:04Z</time>
      </trkpt>
      <trkpt lat="49.32747" lon="1.00383">
        <ele>89.54</ele>
        <time>2018-08-18T06:42:05Z</time>
      </trkpt>
      <trkpt lat="49.32749" lon="1.00381">
        <ele>89.54</ele>
        <time>2018-08-18T06:42:06Z</time>
      </trkpt>
      <trkpt lat="49.32749" lon="1.0038">
        <ele>89.54</ele>
        <time>2018-08-18T06:42:07Z</time>
      </trkpt>
      <trkpt lat="49.32753" lon="1.00377">
        <ele>89.54</ele>
        <time>2018-08-18T06:42:10Z</time>
      </trkpt>
      <trkpt lat="49.32754" lon="1.00377">
        <ele>89.54</ele>
        <time>2018-08-18T06:42:11Z</time>
      </trkpt>
      <trkpt lat="49.32758" lon="1.00376">
        <ele>89.54</ele>
        <time>2018-08-18T06:42:13Z</time>
      </trkpt>
      <trkpt lat="49.3276" lon="1.00377">
        <ele>89.54</ele>
        <time>2018-08-18T06:42:14Z</time>
      </trkpt>
      <trkpt lat="49.32762" lon="1.00377">
        <ele>90.02</ele>
        <time>2018-08-18T06:42:15Z</time>
      </trkpt>
      <trkpt lat="49.32766" lon="1.00378">
        <ele>90.02</ele>
        <time>2018-08-18T06:42:16Z</time>
      </trkpt>
      <trkpt lat="49.32768" lon="1.00378">
        <ele>90.02</ele>
        <time>2018-08-18T06:42:17Z</time>
      </trkpt>
      <trkpt lat="49.3277" lon="1.00378">
        <ele>89.54</ele>
        <time>2018-08-18T06:42:18Z</time>
      </trkpt>
      <trkpt lat="49.32772" lon="1.00377">
        <ele>89.54</ele>
        <time>2018-08-18T06:42:19Z</time>
      </trkpt>
      <trkpt lat="49.32775" lon="1.00377">
        <ele>90.02</ele>
        <time>2018-08-18T06:42:21Z</time>
      </trkpt>
      <trkpt lat="49.32776" lon="1.00377">
        <ele>89.54</ele>
        <time>2018-08-18T06:42:22Z</time>
      </trkpt>
      <trkpt lat="49.32779" lon="1.00378">
        <ele>89.54</ele>
        <time>2018-08-18T06:42:23Z</time>
      </trkpt>
      <trkpt lat="49.32781" lon="1.00378">
        <ele>90.02</ele>
        <time>2018-08-18T06:42:24Z</time>
      </trkpt>
      <trkpt lat="49.32783" lon="1.00378">
        <ele>90.02</ele>
        <time>2018-08-18T06:42:25Z</time>
      </trkpt>
      <trkpt lat="49.32799" lon="1.0039">
        <ele>93.39</ele>
        <time>2018-08-18T06:42:33Z</time>
      </trkpt>
      <trkpt lat="49.32801" lon="1.0039">
        <ele>92.9</ele>
        <time>2018-08-18T06:42:34Z</time>
      </trkpt>
      <trkpt lat="49.32804" lon="1.00391">
        <ele>92.9</ele>
        <time>2018-08-18T06:42:35Z</time>
      </trkpt>
      <trkpt lat="49.32806" lon="1.00392">
        <ele>92.9</ele>
        <time>2018-08-18T06:42:36Z</time>
      </trkpt>
      <trkpt lat="49.32811" lon="1.00394">
        <ele>93.39</ele>
        <time>2018-08-18T06:42:38Z</time>
      </trkpt>
      <trkpt lat="49.32824" lon="1.00406">
        <ele>94.35</ele>
        <time>2018-08-18T06:42:44Z</time>
      </trkpt>
      <trkpt lat="49.32826" lon="1.00409">
        <ele>94.83</ele>
        <time>2018-08-18T06:42:45Z</time>
      </trkpt>
      <trkpt lat="49.32827" lon="1.00411">
        <ele>94.83</ele>
        <time>2018-08-18T06:42:46Z</time>
      </trkpt>
      <trkpt lat="49.32829" lon="1.00412">
        <ele>95.31</ele>
        <time>2018-08-18T06:42:47Z</time>
      </trkpt>
      <trkpt lat="49.32831" lon="1.00415">
        <ele>95.79</ele>
        <time>2018-08-18T06:42:48Z</time>
      </trkpt>
      <trkpt lat="49.32832" lon="1.00419">
        <ele>95.79</ele>
        <time>2018-08-18T06:42:49Z</time>
      </trkpt>
      <trkpt lat="49.32833" lon="1.00422">
        <ele>96.27</ele>
        <time>2018-08-18T06:42:50Z</time>
      </trkpt>
      <trkpt lat="49.32834" lon="1.00425">
        <ele>96.27</ele>
        <time>2018-08-18T06:42:51Z</time>
      </trkpt>
      <trkpt lat="49.32834" lon="1.00428">
        <ele>96.27</ele>
        <time>2018-08-18T06:42:52Z</time>
      </trkpt>
      <trkpt lat="49.32834" lon="1.00431">
        <ele>96.75</ele>
        <time>2018-08-18T06:42:53Z</time>
      </trkpt>
      <trkpt lat="49.32831" lon="1.00447">
        <ele>98.19</ele>
        <time>2018-08-18T06:42:58Z</time>
      </trkpt>
      <trkpt lat="49.32834" lon="1.00458">
        <ele>98.67</ele>
        <time>2018-08-18T06:43:02Z</time>
      </trkpt>
      <trkpt lat="49.32836" lon="1.00461">
        <ele>99.15</ele>
        <time>2018-08-18T06:43:03Z</time>
      </trkpt>
      <trkpt lat="49.3284" lon="1.00469">
        <ele>99.15</ele>
        <time>2018-08-18T06:43:06Z</time>
      </trkpt>
      <trkpt lat="49.32847" lon="1.00484">
        <ele>100.11</ele>
        <time>2018-08-18T06:43:11Z</time>
      </trkpt>
      <trkpt lat="49.32851" lon="1.00513">
        <ele>102.52</ele>
        <time>2018-08-18T06:43:19Z</time>
      </trkpt>
      <trkpt lat="49.32852" lon="1.00516">
        <ele>102.52</ele>
        <time>2018-08-18T06:43:20Z</time>
      </trkpt>
      <trkpt lat="49.32846" lon="1.00548">
        <ele>105.88</ele>
        <time>2018-08-18T06:43:30Z</time>
      </trkpt>
      <trkpt lat="49.32843" lon="1.0055">
        <ele>105.88</ele>
        <time>2018-08-18T06:43:31Z</time>
      </trkpt>
      <trkpt lat="49.32842" lon="1.00553">
        <ele>106.36</ele>
        <time>2018-08-18T06:43:32Z</time>
      </trkpt>
      <trkpt lat="49.32847" lon="1.00572">
        <ele>106.84</ele>
        <time>2018-08-18T06:43:36Z</time>
      </trkpt>
      <trkpt lat="49.32869" lon="1.0063">
        <ele>107.81</ele>
        <time>2018-08-18T06:43:49Z</time>
      </trkpt>
      <trkpt lat="49.32874" lon="1.00645">
        <ele>108.29</ele>
        <time>2018-08-18T06:43:53Z</time>
      </trkpt>
      <trkpt lat="49.32892" lon="1.00668">
        <ele>107.81</ele>
        <time>2018-08-18T06:44:00Z</time>
      </trkpt>
      <trkpt lat="49.32902" lon="1.00684">
        <ele>108.29</ele>
        <time>2018-08-18T06:44:04Z</time>
      </trkpt>
      <trkpt lat="49.32903" lon="1.00688">
        <ele>108.77</ele>
        <time>2018-08-18T06:44:05Z</time>
      </trkpt>
      <trkpt lat="49.32901" lon="1.00692">
        <ele>108.77</ele>
        <time>2018-08-18T06:44:07Z</time>
      </trkpt>
      <trkpt lat="49.32899" lon="1.00693">
        <ele>109.25</ele>
        <time>2018-08-18T06:44:08Z</time>
      </trkpt>
      <trkpt lat="49.32901" lon="1.00711">
        <ele>109.73</ele>
        <time>2018-08-18T06:44:13Z</time>
      </trkpt>
      <trkpt lat="49.32905" lon="1.00719">
        <ele>110.21</ele>
        <time>2018-08-18T06:44:17Z</time>
      </trkpt>
      <trkpt lat="49.32952" lon="1.00748">
        <ele>108.77</ele>
        <time>2018-08-18T06:44:28Z</time>
      </trkpt>
      <trkpt lat="49.32959" lon="1.00754">
        <ele>109.25</ele>
        <time>2018-08-18T06:44:30Z</time>
      </trkpt>
      <trkpt lat="49.32981" lon="1.00774">
        <ele>110.21</ele>
        <time>2018-08-18T06:44:36Z</time>
      </trkpt>
      <trkpt lat="49.32985" lon="1.00778">
        <ele>110.21</ele>
        <time>2018-08-18T06:44:37Z</time>
      </trkpt>
      <trkpt lat="49.32988" lon="1.00782">
        <ele>110.69</ele>
        <time>2018-08-18T06:44:38Z</time>
      </trkpt>
      <trkpt lat="49.32991" lon="1.00785">
        <ele>110.69</ele>
        <time>2018-08-18T06:44:39Z</time>
      </trkpt>
      <trkpt lat="49.32993" lon="1.00788">
        <ele>110.69</ele>
        <time>2018-08-18T06:44:40Z</time>
      </trkpt>
      <trkpt lat="49.32997" lon="1.00792">
        <ele>111.17</ele>
        <time>2018-08-18T06:44:41Z</time>
      </trkpt>
      <trkpt lat="49.33005" lon="1.00798">
        <ele>111.65</ele>
        <time>2018-08-18T06:44:43Z</time>
      </trkpt>
      <trkpt lat="49.33014" lon="1.00814">
        <ele>111.65</ele>
        <time>2018-08-18T06:44:47Z</time>
      </trkpt>
      <trkpt lat="49.33015" lon="1.00818">
        <ele>112.13</ele>
        <time>2018-08-18T06:44:48Z</time>
      </trkpt>
      <trkpt lat="49.33016" lon="1.00824">
        <ele>111.65</ele>
        <time>2018-08-18T06:44:49Z</time>
      </trkpt>
      <trkpt lat="49.33018" lon="1.00828">
        <ele>112.13</ele>
        <time>2018-08-18T06:44:50Z</time>
      </trkpt>
      <trkpt lat="49.3302" lon="1.00832">
        <ele>112.13</ele>
        <time>2018-08-18T06:44:51Z</time>
      </trkpt>
      <trkpt lat="49.33021" lon="1.00837">
        <ele>112.13</ele>
        <time>2018-08-18T06:44:52Z</time>
      </trkpt>
      <trkpt lat="49.33023" lon="1.00842">
        <ele>112.13</ele>
        <time>2018-08-18T06:44:53Z</time>
      </trkpt>
      <trkpt lat="49.33025" lon="1.00847">
        <ele>112.61</ele>
        <time>2018-08-18T06:44:54Z</time>
      </trkpt>
      <trkpt lat="49.33027" lon="1.00851">
        <ele>112.13</ele>
        <time>2018-08-18T06:44:55Z</time>
      </trkpt>
      <trkpt lat="49.33029" lon="1.00856">
        <ele>112.13</ele>
        <time>2018-08-18T06:44:56Z</time>
      </trkpt>
      <trkpt lat="49.33031" lon="1.00877">
        <ele>113.57</ele>
        <time>2018-08-18T06:45:01Z</time>
      </trkpt>
      <trkpt lat="49.33032" lon="1.00882">
        <ele>113.57</ele>
        <time>2018-08-18T06:45:02Z</time>
      </trkpt>
      <trkpt lat="49.33035" lon="1.00886">
        <ele>113.57</ele>
        <time>2018-08-18T06:45:03Z</time>
      </trkpt>
      <trkpt lat="49.33043" lon="1.00917">
        <ele>113.09</ele>
        <time>2018-08-18T06:45:09Z</time>
      </trkpt>
      <trkpt lat="49.33044" lon="1.00922">
        <ele>113.09</ele>
        <time>2018-08-18T06:45:10Z</time>
      </trkpt>
      <trkpt lat="49.33045" lon="1.00927">
        <ele>113.09</ele>
        <time>2018-08-18T06:45:11Z</time>
      </trkpt>
      <trkpt lat="49.33049" lon="1.0094">
        <ele>113.57</ele>
        <time>2018-08-18T06:45:14Z</time>
      </trkpt>
      <trkpt lat="49.33051" lon="1.00944">
        <ele>113.57</ele>
        <time>2018-08-18T06:45:15Z</time>
      </trkpt>
      <trkpt lat="49.33053" lon="1.00947">
        <ele>113.09</ele>
        <time>2018-08-18T06:45:16Z</time>
      </trkpt>
      <trkpt lat="49.33087" lon="1.00985">
        <ele>115.01</ele>
        <time>2018-08-18T06:45:29Z</time>
      </trkpt>
      <trkpt lat="49.33109" lon="1.01009">
        <ele>116.94</ele>
        <time>2018-08-18T06:45:38Z</time>
      </trkpt>
      <trkpt lat="49.33114" lon="1.01011">
        <ele>116.94</ele>
        <time>2018-08-18T06:45:39Z</time>
      </trkpt>
      <trkpt lat="49.33119" lon="1.01013">
        <ele>117.42</ele>
        <time>2018-08-18T06:45:40Z</time>
      </trkpt>
      <trkpt lat="49.33122" lon="1.01016">
        <ele>117.42</ele>
        <time>2018-08-18T06:45:41Z</time>
      </trkpt>
      <trkpt lat="49.3316" lon="1.01072">
        <ele>118.38</ele>
        <time>2018-08-18T06:45:54Z</time>
      </trkpt>
      <trkpt lat="49.33162" lon="1.01078">
        <ele>118.38</ele>
        <time>2018-08-18T06:45:55Z</time>
      </trkpt>
      <trkpt lat="49.33163" lon="1.01083">
        <ele>118.38</ele>
        <time>2018-08-18T06:45:56Z</time>
      </trkpt>
      <trkpt lat="49.33163" lon="1.01089">
        <ele>118.38</ele>
        <time>2018-08-18T06:45:57Z</time>
      </trkpt>
      <trkpt lat="49.33163" lon="1.01093">
        <ele>118.38</ele>
        <time>2018-08-18T06:45:58Z</time>
      </trkpt>
      <trkpt lat="49.33165" lon="1.0112">
        <ele>118.86</ele>
        <time>2018-08-18T06:46:03Z</time>
      </trkpt>
      <trkpt lat="49.33169" lon="1.01123">
        <ele>118.86</ele>
        <time>2018-08-18T06:46:04Z</time>
      </trkpt>
      <trkpt lat="49.33174" lon="1.01124">
        <ele>118.86</ele>
        <time>2018-08-18T06:46:05Z</time>
      </trkpt>
      <trkpt lat="49.33181" lon="1.01123">
        <ele>118.86</ele>
        <time>2018-08-18T06:46:06Z</time>
      </trkpt>
      <trkpt lat="49.33186" lon="1.01122">
        <ele>118.86</ele>
        <time>2018-08-18T06:46:07Z</time>
      </trkpt>
      <trkpt lat="49.33191" lon="1.01119">
        <ele>118.38</ele>
        <time>2018-08-18T06:46:08Z</time>
      </trkpt>
      <trkpt lat="49.33196" lon="1.01114">
        <ele>118.38</ele>
        <time>2018-08-18T06:46:09Z</time>
      </trkpt>
      <trkpt lat="49.332" lon="1.01109">
        <ele>117.9</ele>
        <time>2018-08-18T06:46:10Z</time>
      </trkpt>
      <trkpt lat="49.3321" lon="1.01098">
        <ele>117.42</ele>
        <time>2018-08-18T06:46:12Z</time>
      </trkpt>
      <trkpt lat="49.33214" lon="1.01091">
        <ele>116.94</ele>
        <time>2018-08-18T06:46:13Z</time>
      </trkpt>
      <trkpt lat="49.33234" lon="1.01071">
        <ele>115.98</ele>
        <time>2018-08-18T06:46:17Z</time>
      </trkpt>
      <trkpt lat="49.33238" lon="1.01068">
        <ele>116.46</ele>
        <time>2018-08-18T06:46:18Z</time>
      </trkpt>
      <trkpt lat="49.3324" lon="1.01066">
        <ele>116.46</ele>
        <time>2018-08-18T06:46:19Z</time>
      </trkpt>
      <trkpt lat="49.33243" lon="1.01064">
        <ele>116.46</ele>
        <time>2018-08-18T06:46:20Z</time>
      </trkpt>
      <trkpt lat="49.33245" lon="1.0106">
        <ele>116.46</ele>
        <time>2018-08-18T06:46:21Z</time>
      </trkpt>
      <trkpt lat="49.33247" lon="1.01056">
        <ele>116.46</ele>
        <time>2018-08-18T06:46:22Z</time>
      </trkpt>
      <trkpt lat="49.33252" lon="1.01044">
        <ele>115.98</ele>
        <time>2018-08-18T06:46:24Z</time>
      </trkpt>
      <trkpt lat="49.33269" lon="1.0101">
        <ele>116.94</ele>
        <time>2018-08-18T06:46:31Z</time>
      </trkpt>
      <trkpt lat="49.33269" lon="1.00995">
        <ele>116.46</ele>
        <time>2018-08-18T06:46:33Z</time>
      </trkpt>
      <trkpt lat="49.3327" lon="1.00969">
        <ele>116.46</ele>
        <time>2018-08-18T06:46:37Z</time>
      </trkpt>
      <trkpt lat="49.33283" lon="1.00913">
        <ele>117.9</ele>
        <time>2018-08-18T06:46:48Z</time>
      </trkpt>
      <trkpt lat="49.33294" lon="1.00885">
        <ele>117.9</ele>
        <time>2018-08-18T06:46:53Z</time>
      </trkpt>
      <trkpt lat="49.33327" lon="1.00894">
        <ele>118.86</ele>
        <time>2018-08-18T06:47:03Z</time>
      </trkpt>
      <trkpt lat="49.33346" lon="1.00898">
        <ele>119.34</ele>
        <time>2018-08-18T06:47:08Z</time>
      </trkpt>
      <trkpt lat="49.33373" lon="1.00892">
        <ele>119.34</ele>
        <time>2018-08-18T06:47:14Z</time>
      </trkpt>
      <trkpt lat="49.33408" lon="1.00914">
        <ele>120.78</ele>
        <time>2018-08-18T06:47:23Z</time>
      </trkpt>
      <trkpt lat="49.33454" lon="1.00955">
        <ele>121.74</ele>
        <time>2018-08-18T06:47:37Z</time>
      </trkpt>
      <trkpt lat="49.33469" lon="1.00964">
        <ele>121.74</ele>
        <time>2018-08-18T06:47:40Z</time>
      </trkpt>
      <trkpt lat="49.33482" lon="1.00975">
        <ele>121.74</ele>
        <time>2018-08-18T06:47:43Z</time>
      </trkpt>
      <trkpt lat="49.33507" lon="1.00987">
        <ele>121.74</ele>
        <time>2018-08-18T06:47:47Z</time>
      </trkpt>
      <trkpt lat="49.33523" lon="1.00996">
        <ele>122.22</ele>
        <time>2018-08-18T06:47:50Z</time>
      </trkpt>
      <trkpt lat="49.33528" lon="1.00997">
        <ele>122.22</ele>
        <time>2018-08-18T06:47:51Z</time>
      </trkpt>
      <trkpt lat="49.33533" lon="1.00997">
        <ele>122.22</ele>
        <time>2018-08-18T06:47:52Z</time>
      </trkpt>
      <trkpt lat="49.33538" lon="1.00998">
        <ele>122.22</ele>
        <time>2018-08-18T06:47:53Z</time>
      </trkpt>
      <trkpt lat="49.33542" lon="1.01">
        <ele>122.22</ele>
        <time>2018-08-18T06:47:54Z</time>
      </trkpt>
      <trkpt lat="49.3355" lon="1.0101">
        <ele>122.22</ele>
        <time>2018-08-18T06:47:56Z</time>
      </trkpt>
      <trkpt lat="49.33554" lon="1.01012">
        <ele>122.22</ele>
        <time>2018-08-18T06:47:57Z</time>
      </trkpt>
      <trkpt lat="49.33558" lon="1.01013">
        <ele>122.22</ele>
        <time>2018-08-18T06:47:58Z</time>
      </trkpt>
      <trkpt lat="49.33562" lon="1.01012">
        <ele>122.22</ele>
        <time>2018-08-18T06:47:59Z</time>
      </trkpt>
      <trkpt lat="49.33566" lon="1.0101">
        <ele>122.22</ele>
        <time>2018-08-18T06:48:00Z</time>
      </trkpt>
      <trkpt lat="49.33582" lon="1.00999">
        <ele>122.22</ele>
        <time>2018-08-18T06:48:04Z</time>
      </trkpt>
      <trkpt lat="49.33645" lon="1.00949">
        <ele>123.19</ele>
        <time>2018-08-18T06:48:18Z</time>
      </trkpt>
      <trkpt lat="49.33648" lon="1.00947">
        <ele>123.19</ele>
        <time>2018-08-18T06:48:19Z</time>
      </trkpt>
      <trkpt lat="49.33653" lon="1.00947">
        <ele>123.19</ele>
        <time>2018-08-18T06:48:20Z</time>
      </trkpt>
      <trkpt lat="49.33657" lon="1.00947">
        <ele>123.19</ele>
        <time>2018-08-18T06:48:21Z</time>
      </trkpt>
      <trkpt lat="49.33666" lon="1.00943">
        <ele>123.19</ele>
        <time>2018-08-18T06:48:23Z</time>
      </trkpt>
      <trkpt lat="49.3367" lon="1.00941">
        <ele>123.67</ele>
        <time>2018-08-18T06:48:24Z</time>
      </trkpt>
      <trkpt lat="49.33675" lon="1.00938">
        <ele>123.19</ele>
        <time>2018-08-18T06:48:25Z</time>
      </trkpt>
      <trkpt lat="49.33689" lon="1.00932">
        <ele>123.19</ele>
        <time>2018-08-18T06:48:28Z</time>
      </trkpt>
      <trkpt lat="49.33696" lon="1.00926">
        <ele>123.67</ele>
        <time>2018-08-18T06:48:30Z</time>
      </trkpt>
      <trkpt lat="49.33698" lon="1.0092">
        <ele>123.19</ele>
        <time>2018-08-18T06:48:31Z</time>
      </trkpt>
      <trkpt lat="49.33699" lon="1.00912">
        <ele>123.19</ele>
        <time>2018-08-18T06:48:32Z</time>
      </trkpt>
      <trkpt lat="49.33699" lon="1.00905">
        <ele>122.71</ele>
        <time>2018-08-18T06:48:33Z</time>
      </trkpt>
      <trkpt lat="49.337" lon="1.00897">
        <ele>122.22</ele>
        <time>2018-08-18T06:48:34Z</time>
      </trkpt>
      <trkpt lat="49.337" lon="1.00889">
        <ele>122.22</ele>
        <time>2018-08-18T06:48:35Z</time>
      </trkpt>
      <trkpt lat="49.337" lon="1.00882">
        <ele>122.22</ele>
        <time>2018-08-18T06:48:36Z</time>
      </trkpt>
      <trkpt lat="49.33697" lon="1.00843">
        <ele>122.71</ele>
        <time>2018-08-18T06:48:41Z</time>
      </trkpt>
      <trkpt lat="49.33696" lon="1.00835">
        <ele>122.71</ele>
        <time>2018-08-18T06:48:42Z</time>
      </trkpt>
      <trkpt lat="49.33696" lon="1.00827">
        <ele>122.71</ele>
        <time>2018-08-18T06:48:43Z</time>
      </trkpt>
      <trkpt lat="49.33696" lon="1.00819">
        <ele>122.71</ele>
        <time>2018-08-18T06:48:44Z</time>
      </trkpt>
      <trkpt lat="49.33696" lon="1.00811">
        <ele>122.71</ele>
        <time>2018-08-18T06:48:45Z</time>
      </trkpt>
      <trkpt lat="49.33695" lon="1.00787">
        <ele>123.19</ele>
        <time>2018-08-18T06:48:48Z</time>
      </trkpt>
      <trkpt lat="49.33696" lon="1.00754">
        <ele>123.19</ele>
        <time>2018-08-18T06:48:52Z</time>
      </trkpt>
      <trkpt lat="49.33699" lon="1.00715">
        <ele>123.19</ele>
        <time>2018-08-18T06:48:57Z</time>
      </trkpt>
      <trkpt lat="49.337" lon="1.00707">
        <ele>123.19</ele>
        <time>2018-08-18T06:48:58Z</time>
      </trkpt>
      <trkpt lat="49.33704" lon="1.00665">
        <ele>123.19</ele>
        <time>2018-08-18T06:49:03Z</time>
      </trkpt>
      <trkpt lat="49.33706" lon="1.00649">
        <ele>123.19</ele>
        <time>2018-08-18T06:49:05Z</time>
      </trkpt>
      <trkpt lat="49.33711" lon="1.00594">
        <ele>123.67</ele>
        <time>2018-08-18T06:49:12Z</time>
      </trkpt>
      <trkpt lat="49.33715" lon="1.00555">
        <ele>124.15</ele>
        <time>2018-08-18T06:49:17Z</time>
      </trkpt>
      <trkpt lat="49.33716" lon="1.00539">
        <ele>124.63</ele>
        <time>2018-08-18T06:49:19Z</time>
      </trkpt>
      <trkpt lat="49.33717" lon="1.00498">
        <ele>124.63</ele>
        <time>2018-08-18T06:49:24Z</time>
      </trkpt>
      <trkpt lat="49.33717" lon="1.00482">
        <ele>124.15</ele>
        <time>2018-08-18T06:49:26Z</time>
      </trkpt>
      <trkpt lat="49.33711" lon="1.00433">
        <ele>124.63</ele>
        <time>2018-08-18T06:49:32Z</time>
      </trkpt>
      <trkpt lat="49.33709" lon="1.00425">
        <ele>124.63</ele>
        <time>2018-08-18T06:49:33Z</time>
      </trkpt>
      <trkpt lat="49.33702" lon="1.00402">
        <ele>124.63</ele>
        <time>2018-08-18T06:49:36Z</time>
      </trkpt>
      <trkpt lat="49.33676" lon="1.00347">
        <ele>124.63</ele>
        <time>2018-08-18T06:49:44Z</time>
      </trkpt>
      <trkpt lat="49.33672" lon="1.00339">
        <ele>124.15</ele>
        <time>2018-08-18T06:49:45Z</time>
      </trkpt>
      <trkpt lat="49.33652" lon="1.00297">
        <ele>124.15</ele>
        <time>2018-08-18T06:49:51Z</time>
      </trkpt>
      <trkpt lat="49.33647" lon="1.00281">
        <ele>124.15</ele>
        <time>2018-08-18T06:49:53Z</time>
      </trkpt>
      <trkpt lat="49.33646" lon="1.00273">
        <ele>124.15</ele>
        <time>2018-08-18T06:49:54Z</time>
      </trkpt>
      <trkpt lat="49.33645" lon="1.00264">
        <ele>124.15</ele>
        <time>2018-08-18T06:49:55Z</time>
      </trkpt>
      <trkpt lat="49.33644" lon="1.00247">
        <ele>124.63</ele>
        <time>2018-08-18T06:49:57Z</time>
      </trkpt>
      <trkpt lat="49.33644" lon="1.00238">
        <ele>124.63</ele>
        <time>2018-08-18T06:49:58Z</time>
      </trkpt>
      <trkpt lat="49.33644" lon="1.00229">
        <ele>124.63</ele>
        <time>2018-08-18T06:49:59Z</time>
      </trkpt>
      <trkpt lat="49.33644" lon="1.0022">
        <ele>124.63</ele>
        <time>2018-08-18T06:50:00Z</time>
      </trkpt>
      <trkpt lat="49.33646" lon="1.00212">
        <ele>124.63</ele>
        <time>2018-08-18T06:50:01Z</time>
      </trkpt>
      <trkpt lat="49.33649" lon="1.00203">
        <ele>124.63</ele>
        <time>2018-08-18T06:50:02Z</time>
      </trkpt>
      <trkpt lat="49.33651" lon="1.00195">
        <ele>124.63</ele>
        <time>2018-08-18T06:50:03Z</time>
      </trkpt>
      <trkpt lat="49.33654" lon="1.00187">
        <ele>124.63</ele>
        <time>2018-08-18T06:50:04Z</time>
      </trkpt>
      <trkpt lat="49.33659" lon="1.00173">
        <ele>125.11</ele>
        <time>2018-08-18T06:50:06Z</time>
      </trkpt>
      <trkpt lat="49.33661" lon="1.00166">
        <ele>125.59</ele>
        <time>2018-08-18T06:50:07Z</time>
      </trkpt>
      <trkpt lat="49.33667" lon="1.00145">
        <ele>125.59</ele>
        <time>2018-08-18T06:50:10Z</time>
      </trkpt>
      <trkpt lat="49.3367" lon="1.0014">
        <ele>126.07</ele>
        <time>2018-08-18T06:50:11Z</time>
      </trkpt>
      <trkpt lat="49.33676" lon="1.00129">
        <ele>126.07</ele>
        <time>2018-08-18T06:50:13Z</time>
      </trkpt>
      <trkpt lat="49.33678" lon="1.00123">
        <ele>126.07</ele>
        <time>2018-08-18T06:50:14Z</time>
      </trkpt>
      <trkpt lat="49.33681" lon="1.00116">
        <ele>126.55</ele>
        <time>2018-08-18T06:50:15Z</time>
      </trkpt>
      <trkpt lat="49.33685" lon="1.00102">
        <ele>126.55</ele>
        <time>2018-08-18T06:50:17Z</time>
      </trkpt>
      <trkpt lat="49.33686" lon="1.00096">
        <ele>126.55</ele>
        <time>2018-08-18T06:50:18Z</time>
      </trkpt>
      <trkpt lat="49.33687" lon="1.00089">
        <ele>127.03</ele>
        <time>2018-08-18T06:50:19Z</time>
      </trkpt>
      <trkpt lat="49.33688" lon="1.00082">
        <ele>127.03</ele>
        <time>2018-08-18T06:50:20Z</time>
      </trkpt>
      <trkpt lat="49.33689" lon="1.00075">
        <ele>127.03</ele>
        <time>2018-08-18T06:50:21Z</time>
      </trkpt>
      <trkpt lat="49.33691" lon="1.00069">
        <ele>127.51</ele>
        <time>2018-08-18T06:50:22Z</time>
      </trkpt>
      <trkpt lat="49.33693" lon="1.00062">
        <ele>127.51</ele>
        <time>2018-08-18T06:50:23Z</time>
      </trkpt>
      <trkpt lat="49.33695" lon="1.00055">
        <ele>127.51</ele>
        <time>2018-08-18T06:50:24Z</time>
      </trkpt>
      <trkpt lat="49.33697" lon="1.00048">
        <ele>127.03</ele>
        <time>2018-08-18T06:50:25Z</time>
      </trkpt>
      <trkpt lat="49.33699" lon="1.0004">
        <ele>127.03</ele>
        <time>2018-08-18T06:50:26Z</time>
      </trkpt>
      <trkpt lat="49.337" lon="1.00033">
        <ele>127.03</ele>
        <time>2018-08-18T06:50:27Z</time>
      </trkpt>
      <trkpt lat="49.33701" lon="1.00025">
        <ele>127.03</ele>
        <time>2018-08-18T06:50:28Z</time>
      </trkpt>
      <trkpt lat="49.33703" lon="1.00018">
        <ele>127.51</ele>
        <time>2018-08-18T06:50:29Z</time>
      </trkpt>
      <trkpt lat="49.33704" lon="1.00012">
        <ele>127.51</ele>
        <time>2018-08-18T06:50:30Z</time>
      </trkpt>
      <trkpt lat="49.33705" lon="1.00004">
        <ele>127.51</ele>
        <time>2018-08-18T06:50:31Z</time>
      </trkpt>
      <trkpt lat="49.33706" lon="0.99997">
        <ele>128.47</ele>
        <time>2018-08-18T06:50:32Z</time>
      </trkpt>
      <trkpt lat="49.33706" lon="0.9999">
        <ele>127.99</ele>
        <time>2018-08-18T06:50:33Z</time>
      </trkpt>
      <trkpt lat="49.33706" lon="0.9997">
        <ele>127.99</ele>
        <time>2018-08-18T06:50:36Z</time>
      </trkpt>
      <trkpt lat="49.33705" lon="0.99963">
        <ele>127.99</ele>
        <time>2018-08-18T06:50:37Z</time>
      </trkpt>
      <trkpt lat="49.33704" lon="0.99956">
        <ele>128.47</ele>
        <time>2018-08-18T06:50:38Z</time>
      </trkpt>
      <trkpt lat="49.33697" lon="0.9993">
        <ele>128.95</ele>
        <time>2018-08-18T06:50:42Z</time>
      </trkpt>
      <trkpt lat="49.33695" lon="0.99924">
        <ele>128.95</ele>
        <time>2018-08-18T06:50:43Z</time>
      </trkpt>
      <trkpt lat="49.33692" lon="0.99918">
        <ele>128.47</ele>
        <time>2018-08-18T06:50:44Z</time>
      </trkpt>
      <trkpt lat="49.33689" lon="0.99913">
        <ele>128.95</ele>
        <time>2018-08-18T06:50:45Z</time>
      </trkpt>
      <trkpt lat="49.33686" lon="0.99907">
        <ele>128.95</ele>
        <time>2018-08-18T06:50:46Z</time>
      </trkpt>
      <trkpt lat="49.33684" lon="0.999">
        <ele>128.95</ele>
        <time>2018-08-18T06:50:47Z</time>
      </trkpt>
      <trkpt lat="49.33682" lon="0.99895">
        <ele>128.95</ele>
        <time>2018-08-18T06:50:48Z</time>
      </trkpt>
      <trkpt lat="49.3368" lon="0.99888">
        <ele>129.43</ele>
        <time>2018-08-18T06:50:49Z</time>
      </trkpt>
      <trkpt lat="49.3368" lon="0.99881">
        <ele>128.95</ele>
        <time>2018-08-18T06:50:50Z</time>
      </trkpt>
      <trkpt lat="49.33693" lon="0.99859">
        <ele>128.47</ele>
        <time>2018-08-18T06:50:58Z</time>
      </trkpt>
      <trkpt lat="49.33711" lon="0.99844">
        <ele>128.47</ele>
        <time>2018-08-18T06:51:07Z</time>
      </trkpt>
      <trkpt lat="49.33714" lon="0.99837">
        <ele>128.47</ele>
        <time>2018-08-18T06:51:08Z</time>
      </trkpt>
      <trkpt lat="49.33716" lon="0.99757">
        <ele>128.47</ele>
        <time>2018-08-18T06:51:20Z</time>
      </trkpt>
      <trkpt lat="49.33715" lon="0.99751">
        <ele>128.47</ele>
        <time>2018-08-18T06:51:21Z</time>
      </trkpt>
      <trkpt lat="49.33714" lon="0.99746">
        <ele>128.95</ele>
        <time>2018-08-18T06:51:22Z</time>
      </trkpt>
      <trkpt lat="49.33714" lon="0.99741">
        <ele>128.95</ele>
        <time>2018-08-18T06:51:23Z</time>
      </trkpt>
      <trkpt lat="49.33713" lon="0.99736">
        <ele>128.95</ele>
        <time>2018-08-18T06:51:24Z</time>
      </trkpt>
      <trkpt lat="49.33713" lon="0.9973">
        <ele>129.43</ele>
        <time>2018-08-18T06:51:25Z</time>
      </trkpt>
      <trkpt lat="49.33714" lon="0.99724">
        <ele>129.43</ele>
        <time>2018-08-18T06:51:26Z</time>
      </trkpt>
      <trkpt lat="49.33715" lon="0.99719">
        <ele>128.95</ele>
        <time>2018-08-18T06:51:27Z</time>
      </trkpt>
      <trkpt lat="49.33714" lon="0.99713">
        <ele>128.95</ele>
        <time>2018-08-18T06:51:28Z</time>
      </trkpt>
      <trkpt lat="49.33714" lon="0.99709">
        <ele>128.95</ele>
        <time>2018-08-18T06:51:29Z</time>
      </trkpt>
      <trkpt lat="49.33714" lon="0.99703">
        <ele>128.95</ele>
        <time>2018-08-18T06:51:31Z</time>
      </trkpt>
      <trkpt lat="49.33717" lon="0.99703">
        <ele>128.95</ele>
        <time>2018-08-18T06:51:33Z</time>
      </trkpt>
      <trkpt lat="49.33718" lon="0.99703">
        <ele>128.95</ele>
        <time>2018-08-18T06:51:34Z</time>
      </trkpt>
      <trkpt lat="49.3372" lon="0.99703">
        <ele>128.95</ele>
        <time>2018-08-18T06:51:35Z</time>
      </trkpt>
      <trkpt lat="49.33723" lon="0.99702">
        <ele>128.47</ele>
        <time>2018-08-18T06:51:36Z</time>
      </trkpt>
      <trkpt lat="49.33726" lon="0.997">
        <ele>128.47</ele>
        <time>2018-08-18T06:51:37Z</time>
      </trkpt>
      <trkpt lat="49.33729" lon="0.99698">
        <ele>128.47</ele>
        <time>2018-08-18T06:51:38Z</time>
      </trkpt>
      <trkpt lat="49.33732" lon="0.99696">
        <ele>128.95</ele>
        <time>2018-08-18T06:51:39Z</time>
      </trkpt>
      <trkpt lat="49.33735" lon="0.99694">
        <ele>129.43</ele>
        <time>2018-08-18T06:51:40Z</time>
      </trkpt>
      <trkpt lat="49.33737" lon="0.99692">
        <ele>129.43</ele>
        <time>2018-08-18T06:51:41Z</time>
      </trkpt>
      <trkpt lat="49.3374" lon="0.99691">
        <ele>128.95</ele>
        <time>2018-08-18T06:51:42Z</time>
      </trkpt>
      <trkpt lat="49.33743" lon="0.99688">
        <ele>129.43</ele>
        <time>2018-08-18T06:51:43Z</time>
      </trkpt>
      <trkpt lat="49.33746" lon="0.99683">
        <ele>129.43</ele>
        <time>2018-08-18T06:51:44Z</time>
      </trkpt>
      <trkpt lat="49.33748" lon="0.99679">
        <ele>129.43</ele>
        <time>2018-08-18T06:51:45Z</time>
      </trkpt>
      <trkpt lat="49.33753" lon="0.99668">
        <ele>129.43</ele>
        <time>2018-08-18T06:51:47Z</time>
      </trkpt>
      <trkpt lat="49.33753" lon="0.9966">
        <ele>129.92</ele>
        <time>2018-08-18T06:51:48Z</time>
      </trkpt>
      <trkpt lat="49.33754" lon="0.99619">
        <ele>129.43</ele>
        <time>2018-08-18T06:51:54Z</time>
      </trkpt>
      <trkpt lat="49.3376" lon="0.9958">
        <ele>129.43</ele>
        <time>2018-08-18T06:52:01Z</time>
      </trkpt>
      <trkpt lat="49.33759" lon="0.99573">
        <ele>129.43</ele>
        <time>2018-08-18T06:52:02Z</time>
      </trkpt>
      <trkpt lat="49.33759" lon="0.99561">
        <ele>129.43</ele>
        <time>2018-08-18T06:52:04Z</time>
      </trkpt>
      <trkpt lat="49.33761" lon="0.99548">
        <ele>128.95</ele>
        <time>2018-08-18T06:52:06Z</time>
      </trkpt>
      <trkpt lat="49.33761" lon="0.99542">
        <ele>129.43</ele>
        <time>2018-08-18T06:52:07Z</time>
      </trkpt>
      <trkpt lat="49.33761" lon="0.99536">
        <ele>129.43</ele>
        <time>2018-08-18T06:52:08Z</time>
      </trkpt>
      <trkpt lat="49.33761" lon="0.9953">
        <ele>129.43</ele>
        <time>2018-08-18T06:52:09Z</time>
      </trkpt>
      <trkpt lat="49.33762" lon="0.99523">
        <ele>129.43</ele>
        <time>2018-08-18T06:52:10Z</time>
      </trkpt>
      <trkpt lat="49.33766" lon="0.99478">
        <ele>128.47</ele>
        <time>2018-08-18T06:52:16Z</time>
      </trkpt>
      <trkpt lat="49.33767" lon="0.9947">
        <ele>128.47</ele>
        <time>2018-08-18T06:52:17Z</time>
      </trkpt>
      <trkpt lat="49.33767" lon="0.99464">
        <ele>127.99</ele>
        <time>2018-08-18T06:52:18Z</time>
      </trkpt>
      <trkpt lat="49.33768" lon="0.99457">
        <ele>128.47</ele>
        <time>2018-08-18T06:52:19Z</time>
      </trkpt>
      <trkpt lat="49.33767" lon="0.9945">
        <ele>128.47</ele>
        <time>2018-08-18T06:52:20Z</time>
      </trkpt>
      <trkpt lat="49.33767" lon="0.99444">
        <ele>128.47</ele>
        <time>2018-08-18T06:52:21Z</time>
      </trkpt>
      <trkpt lat="49.33767" lon="0.99424">
        <ele>128.47</ele>
        <time>2018-08-18T06:52:24Z</time>
      </trkpt>
      <trkpt lat="49.33769" lon="0.99419">
        <ele>127.99</ele>
        <time>2018-08-18T06:52:25Z</time>
      </trkpt>
      <trkpt lat="49.33772" lon="0.99413">
        <ele>128.47</ele>
        <time>2018-08-18T06:52:26Z</time>
      </trkpt>
      <trkpt lat="49.33774" lon="0.99407">
        <ele>127.99</ele>
        <time>2018-08-18T06:52:27Z</time>
      </trkpt>
      <trkpt lat="49.33776" lon="0.99401">
        <ele>128.47</ele>
        <time>2018-08-18T06:52:28Z</time>
      </trkpt>
      <trkpt lat="49.33777" lon="0.99394">
        <ele>128.47</ele>
        <time>2018-08-18T06:52:29Z</time>
      </trkpt>
      <trkpt lat="49.33778" lon="0.99388">
        <ele>127.99</ele>
        <time>2018-08-18T06:52:30Z</time>
      </trkpt>
      <trkpt lat="49.33779" lon="0.99382">
        <ele>128.47</ele>
        <time>2018-08-18T06:52:31Z</time>
      </trkpt>
      <trkpt lat="49.3378" lon="0.99376">
        <ele>128.47</ele>
        <time>2018-08-18T06:52:32Z</time>
      </trkpt>
      <trkpt lat="49.33781" lon="0.99369">
        <ele>128.95</ele>
        <time>2018-08-18T06:52:33Z</time>
      </trkpt>
      <trkpt lat="49.33782" lon="0.99362">
        <ele>128.47</ele>
        <time>2018-08-18T06:52:34Z</time>
      </trkpt>
      <trkpt lat="49.33782" lon="0.99355">
        <ele>128.47</ele>
        <time>2018-08-18T06:52:35Z</time>
      </trkpt>
      <trkpt lat="49.33782" lon="0.99348">
        <ele>128.47</ele>
        <time>2018-08-18T06:52:36Z</time>
      </trkpt>
      <trkpt lat="49.33781" lon="0.99343">
        <ele>128.47</ele>
        <time>2018-08-18T06:52:37Z</time>
      </trkpt>
      <trkpt lat="49.33781" lon="0.99337">
        <ele>128.47</ele>
        <time>2018-08-18T06:52:38Z</time>
      </trkpt>
      <trkpt lat="49.3378" lon="0.99331">
        <ele>128.47</ele>
        <time>2018-08-18T06:52:39Z</time>
      </trkpt>
      <trkpt lat="49.3378" lon="0.99324">
        <ele>128.47</ele>
        <time>2018-08-18T06:52:40Z</time>
      </trkpt>
      <trkpt lat="49.33781" lon="0.99263">
        <ele>128.47</ele>
        <time>2018-08-18T06:52:51Z</time>
      </trkpt>
      <trkpt lat="49.3379" lon="0.99226">
        <ele>128.95</ele>
        <time>2018-08-18T06:52:57Z</time>
      </trkpt>
      <trkpt lat="49.33793" lon="0.99221">
        <ele>128.47</ele>
        <time>2018-08-18T06:52:58Z</time>
      </trkpt>
      <trkpt lat="49.33796" lon="0.99215">
        <ele>128.47</ele>
        <time>2018-08-18T06:52:59Z</time>
      </trkpt>
      <trkpt lat="49.33797" lon="0.99209">
        <ele>128.47</ele>
        <time>2018-08-18T06:53:00Z</time>
      </trkpt>
      <trkpt lat="49.33799" lon="0.99203">
        <ele>128.47</ele>
        <time>2018-08-18T06:53:01Z</time>
      </trkpt>
      <trkpt lat="49.33801" lon="0.99198">
        <ele>128.47</ele>
        <time>2018-08-18T06:53:02Z</time>
      </trkpt>
      <trkpt lat="49.33803" lon="0.99168">
        <ele>128.95</ele>
        <time>2018-08-18T06:53:07Z</time>
      </trkpt>
      <trkpt lat="49.33804" lon="0.99165">
        <ele>128.95</ele>
        <time>2018-08-18T06:53:08Z</time>
      </trkpt>
      <trkpt lat="49.33805" lon="0.99161">
        <ele>128.47</ele>
        <time>2018-08-18T06:53:09Z</time>
      </trkpt>
      <trkpt lat="49.33804" lon="0.99156">
        <ele>128.47</ele>
        <time>2018-08-18T06:53:10Z</time>
      </trkpt>
      <trkpt lat="49.33803" lon="0.99151">
        <ele>128.47</ele>
        <time>2018-08-18T06:53:11Z</time>
      </trkpt>
      <trkpt lat="49.33801" lon="0.99145">
        <ele>128.47</ele>
        <time>2018-08-18T06:53:12Z</time>
      </trkpt>
      <trkpt lat="49.33799" lon="0.99138">
        <ele>127.99</ele>
        <time>2018-08-18T06:53:13Z</time>
      </trkpt>
      <trkpt lat="49.33797" lon="0.99132">
        <ele>127.99</ele>
        <time>2018-08-18T06:53:14Z</time>
      </trkpt>
      <trkpt lat="49.33795" lon="0.99126">
        <ele>127.99</ele>
        <time>2018-08-18T06:53:15Z</time>
      </trkpt>
      <trkpt lat="49.33799" lon="0.99078">
        <ele>127.51</ele>
        <time>2018-08-18T06:53:22Z</time>
      </trkpt>
      <trkpt lat="49.33798" lon="0.99071">
        <ele>127.51</ele>
        <time>2018-08-18T06:53:23Z</time>
      </trkpt>
      <trkpt lat="49.33796" lon="0.99048">
        <ele>127.03</ele>
        <time>2018-08-18T06:53:27Z</time>
      </trkpt>
      <trkpt lat="49.33799" lon="0.99021">
        <ele>127.03</ele>
        <time>2018-08-18T06:53:31Z</time>
      </trkpt>
      <trkpt lat="49.33797" lon="0.99002">
        <ele>126.07</ele>
        <time>2018-08-18T06:53:34Z</time>
      </trkpt>
      <trkpt lat="49.33797" lon="0.98989">
        <ele>126.07</ele>
        <time>2018-08-18T06:53:36Z</time>
      </trkpt>
      <trkpt lat="49.33796" lon="0.98982">
        <ele>125.59</ele>
        <time>2018-08-18T06:53:37Z</time>
      </trkpt>
      <trkpt lat="49.33795" lon="0.98977">
        <ele>125.59</ele>
        <time>2018-08-18T06:53:38Z</time>
      </trkpt>
      <trkpt lat="49.33794" lon="0.98972">
        <ele>125.59</ele>
        <time>2018-08-18T06:53:39Z</time>
      </trkpt>
      <trkpt lat="49.33792" lon="0.98968">
        <ele>125.11</ele>
        <time>2018-08-18T06:53:40Z</time>
      </trkpt>
      <trkpt lat="49.33789" lon="0.98958">
        <ele>125.11</ele>
        <time>2018-08-18T06:53:42Z</time>
      </trkpt>
      <trkpt lat="49.33787" lon="0.98952">
        <ele>125.11</ele>
        <time>2018-08-18T06:53:43Z</time>
      </trkpt>
      <trkpt lat="49.33785" lon="0.98946">
        <ele>125.11</ele>
        <time>2018-08-18T06:53:44Z</time>
      </trkpt>
      <trkpt lat="49.33784" lon="0.98941">
        <ele>125.11</ele>
        <time>2018-08-18T06:53:45Z</time>
      </trkpt>
      <trkpt lat="49.33782" lon="0.98939">
        <ele>125.11</ele>
        <time>2018-08-18T06:53:46Z</time>
      </trkpt>
      <trkpt lat="49.3378" lon="0.98936">
        <ele>125.11</ele>
        <time>2018-08-18T06:53:47Z</time>
      </trkpt>
      <trkpt lat="49.33778" lon="0.98934">
        <ele>124.63</ele>
        <time>2018-08-18T06:53:48Z</time>
      </trkpt>
      <trkpt lat="49.33775" lon="0.98934">
        <ele>124.63</ele>
        <time>2018-08-18T06:53:49Z</time>
      </trkpt>
      <trkpt lat="49.33772" lon="0.98933">
        <ele>125.11</ele>
        <time>2018-08-18T06:53:50Z</time>
      </trkpt>
      <trkpt lat="49.33766" lon="0.98926">
        <ele>125.11</ele>
        <time>2018-08-18T06:53:52Z</time>
      </trkpt>
      <trkpt lat="49.33764" lon="0.9892">
        <ele>124.63</ele>
        <time>2018-08-18T06:53:53Z</time>
      </trkpt>
      <trkpt lat="49.33762" lon="0.98915">
        <ele>124.15</ele>
        <time>2018-08-18T06:53:54Z</time>
      </trkpt>
      <trkpt lat="49.33761" lon="0.9891">
        <ele>124.15</ele>
        <time>2018-08-18T06:53:55Z</time>
      </trkpt>
      <trkpt lat="49.33759" lon="0.98906">
        <ele>124.15</ele>
        <time>2018-08-18T06:53:56Z</time>
      </trkpt>
      <trkpt lat="49.33757" lon="0.98903">
        <ele>124.15</ele>
        <time>2018-08-18T06:53:57Z</time>
      </trkpt>
      <trkpt lat="49.33755" lon="0.98898">
        <ele>124.15</ele>
        <time>2018-08-18T06:53:58Z</time>
      </trkpt>
      <trkpt lat="49.33753" lon="0.98893">
        <ele>124.15</ele>
        <time>2018-08-18T06:53:59Z</time>
      </trkpt>
      <trkpt lat="49.33751" lon="0.98887">
        <ele>124.15</ele>
        <time>2018-08-18T06:54:00Z</time>
      </trkpt>
      <trkpt lat="49.33749" lon="0.9888">
        <ele>123.67</ele>
        <time>2018-08-18T06:54:01Z</time>
      </trkpt>
      <trkpt lat="49.33746" lon="0.98873">
        <ele>123.19</ele>
        <time>2018-08-18T06:54:02Z</time>
      </trkpt>
      <trkpt lat="49.33743" lon="0.98867">
        <ele>123.19</ele>
        <time>2018-08-18T06:54:03Z</time>
      </trkpt>
      <trkpt lat="49.33741" lon="0.98861">
        <ele>122.71</ele>
        <time>2018-08-18T06:54:04Z</time>
      </trkpt>
      <trkpt lat="49.33739" lon="0.98855">
        <ele>122.71</ele>
        <time>2018-08-18T06:54:05Z</time>
      </trkpt>
      <trkpt lat="49.33738" lon="0.98848">
        <ele>122.71</ele>
        <time>2018-08-18T06:54:06Z</time>
      </trkpt>
      <trkpt lat="49.33735" lon="0.98842">
        <ele>122.22</ele>
        <time>2018-08-18T06:54:07Z</time>
      </trkpt>
      <trkpt lat="49.33732" lon="0.98835">
        <ele>122.22</ele>
        <time>2018-08-18T06:54:08Z</time>
      </trkpt>
      <trkpt lat="49.33727" lon="0.98828">
        <ele>122.22</ele>
        <time>2018-08-18T06:54:09Z</time>
      </trkpt>
      <trkpt lat="49.33723" lon="0.9882">
        <ele>122.22</ele>
        <time>2018-08-18T06:54:10Z</time>
      </trkpt>
      <trkpt lat="49.33719" lon="0.98811">
        <ele>122.22</ele>
        <time>2018-08-18T06:54:11Z</time>
      </trkpt>
      <trkpt lat="49.33717" lon="0.98803">
        <ele>121.74</ele>
        <time>2018-08-18T06:54:12Z</time>
      </trkpt>
      <trkpt lat="49.33714" lon="0.98794">
        <ele>121.74</ele>
        <time>2018-08-18T06:54:13Z</time>
      </trkpt>
      <trkpt lat="49.33713" lon="0.98787">
        <ele>121.26</ele>
        <time>2018-08-18T06:54:14Z</time>
      </trkpt>
      <trkpt lat="49.33712" lon="0.98779">
        <ele>121.26</ele>
        <time>2018-08-18T06:54:15Z</time>
      </trkpt>
      <trkpt lat="49.33712" lon="0.98772">
        <ele>121.26</ele>
        <time>2018-08-18T06:54:16Z</time>
      </trkpt>
      <trkpt lat="49.33711" lon="0.98766">
        <ele>121.26</ele>
        <time>2018-08-18T06:54:17Z</time>
      </trkpt>
      <trkpt lat="49.33711" lon="0.9876">
        <ele>120.78</ele>
        <time>2018-08-18T06:54:18Z</time>
      </trkpt>
      <trkpt lat="49.3371" lon="0.98756">
        <ele>120.78</ele>
        <time>2018-08-18T06:54:19Z</time>
      </trkpt>
      <trkpt lat="49.33708" lon="0.9874">
        <ele>120.78</ele>
        <time>2018-08-18T06:54:22Z</time>
      </trkpt>
      <trkpt lat="49.33705" lon="0.98734">
        <ele>120.3</ele>
        <time>2018-08-18T06:54:23Z</time>
      </trkpt>
      <trkpt lat="49.33702" lon="0.98728">
        <ele>120.3</ele>
        <time>2018-08-18T06:54:24Z</time>
      </trkpt>
      <trkpt lat="49.33699" lon="0.98722">
        <ele>120.3</ele>
        <time>2018-08-18T06:54:25Z</time>
      </trkpt>
      <trkpt lat="49.33697" lon="0.98715">
        <ele>119.82</ele>
        <time>2018-08-18T06:54:26Z</time>
      </trkpt>
      <trkpt lat="49.33695" lon="0.98708">
        <ele>119.82</ele>
        <time>2018-08-18T06:54:27Z</time>
      </trkpt>
      <trkpt lat="49.33694" lon="0.98702">
        <ele>119.82</ele>
        <time>2018-08-18T06:54:28Z</time>
      </trkpt>
      <trkpt lat="49.33692" lon="0.98698">
        <ele>119.82</ele>
        <time>2018-08-18T06:54:29Z</time>
      </trkpt>
      <trkpt lat="49.33691" lon="0.98694">
        <ele>119.82</ele>
        <time>2018-08-18T06:54:30Z</time>
      </trkpt>
      <trkpt lat="49.33689" lon="0.98693">
        <ele>119.82</ele>
        <time>2018-08-18T06:54:31Z</time>
      </trkpt>
      <trkpt lat="49.33686" lon="0.98693">
        <ele>119.82</ele>
        <time>2018-08-18T06:54:32Z</time>
      </trkpt>
      <trkpt lat="49.33683" lon="0.98694">
        <ele>120.3</ele>
        <time>2018-08-18T06:54:33Z</time>
      </trkpt>
      <trkpt lat="49.33679" lon="0.98695">
        <ele>119.82</ele>
        <time>2018-08-18T06:54:34Z</time>
      </trkpt>
      <trkpt lat="49.33664" lon="0.98702">
        <ele>119.34</ele>
        <time>2018-08-18T06:54:38Z</time>
      </trkpt>
      <trkpt lat="49.33653" lon="0.98705">
        <ele>119.82</ele>
        <time>2018-08-18T06:54:40Z</time>
      </trkpt>
      <trkpt lat="49.33649" lon="0.98708">
        <ele>119.34</ele>
        <time>2018-08-18T06:54:41Z</time>
      </trkpt>
      <trkpt lat="49.33603" lon="0.98749">
        <ele>119.34</ele>
        <time>2018-08-18T06:54:53Z</time>
      </trkpt>
      <trkpt lat="49.336" lon="0.98754">
        <ele>119.34</ele>
        <time>2018-08-18T06:54:54Z</time>
      </trkpt>
      <trkpt lat="49.33596" lon="0.98757">
        <ele>119.34</ele>
        <time>2018-08-18T06:54:55Z</time>
      </trkpt>
      <trkpt lat="49.33592" lon="0.98761">
        <ele>119.34</ele>
        <time>2018-08-18T06:54:56Z</time>
      </trkpt>
      <trkpt lat="49.33588" lon="0.98765">
        <ele>118.86</ele>
        <time>2018-08-18T06:54:57Z</time>
      </trkpt>
      <trkpt lat="49.33584" lon="0.98768">
        <ele>118.86</ele>
        <time>2018-08-18T06:54:58Z</time>
      </trkpt>
      <trkpt lat="49.3358" lon="0.98769">
        <ele>119.34</ele>
        <time>2018-08-18T06:54:59Z</time>
      </trkpt>
      <trkpt lat="49.33576" lon="0.98772">
        <ele>118.86</ele>
        <time>2018-08-18T06:55:00Z</time>
      </trkpt>
      <trkpt lat="49.33523" lon="0.98813">
        <ele>117.9</ele>
        <time>2018-08-18T06:55:12Z</time>
      </trkpt>
      <trkpt lat="49.33512" lon="0.98823">
        <ele>118.38</ele>
        <time>2018-08-18T06:55:15Z</time>
      </trkpt>
      <trkpt lat="49.33506" lon="0.98825">
        <ele>117.9</ele>
        <time>2018-08-18T06:55:16Z</time>
      </trkpt>
      <trkpt lat="49.33501" lon="0.98829">
        <ele>117.9</ele>
        <time>2018-08-18T06:55:17Z</time>
      </trkpt>
      <trkpt lat="49.33497" lon="0.98831">
        <ele>117.9</ele>
        <time>2018-08-18T06:55:18Z</time>
      </trkpt>
      <trkpt lat="49.33493" lon="0.98834">
        <ele>118.38</ele>
        <time>2018-08-18T06:55:19Z</time>
      </trkpt>
      <trkpt lat="49.33489" lon="0.98837">
        <ele>117.9</ele>
        <time>2018-08-18T06:55:20Z</time>
      </trkpt>
      <trkpt lat="49.33485" lon="0.98839">
        <ele>117.9</ele>
        <time>2018-08-18T06:55:21Z</time>
      </trkpt>
      <trkpt lat="49.33482" lon="0.98839">
        <ele>117.9</ele>
        <time>2018-08-18T06:55:22Z</time>
      </trkpt>
      <trkpt lat="49.33478" lon="0.98836">
        <ele>117.9</ele>
        <time>2018-08-18T06:55:23Z</time>
      </trkpt>
      <trkpt lat="49.33475" lon="0.98831">
        <ele>117.9</ele>
        <time>2018-08-18T06:55:24Z</time>
      </trkpt>
      <trkpt lat="49.33471" lon="0.98826">
        <ele>117.9</ele>
        <time>2018-08-18T06:55:25Z</time>
      </trkpt>
      <trkpt lat="49.33467" lon="0.98825">
        <ele>117.42</ele>
        <time>2018-08-18T06:55:26Z</time>
      </trkpt>
      <trkpt lat="49.33462" lon="0.98827">
        <ele>117.42</ele>
        <time>2018-08-18T06:55:27Z</time>
      </trkpt>
      <trkpt lat="49.33456" lon="0.98831">
        <ele>117.42</ele>
        <time>2018-08-18T06:55:28Z</time>
      </trkpt>
      <trkpt lat="49.33452" lon="0.98838">
        <ele>117.42</ele>
        <time>2018-08-18T06:55:29Z</time>
      </trkpt>
      <trkpt lat="49.33449" lon="0.98844">
        <ele>116.94</ele>
        <time>2018-08-18T06:55:30Z</time>
      </trkpt>
      <trkpt lat="49.33446" lon="0.98851">
        <ele>117.42</ele>
        <time>2018-08-18T06:55:31Z</time>
      </trkpt>
      <trkpt lat="49.33437" lon="0.98873">
        <ele>117.42</ele>
        <time>2018-08-18T06:55:34Z</time>
      </trkpt>
      <trkpt lat="49.33404" lon="0.98985">
        <ele>117.42</ele>
        <time>2018-08-18T06:55:48Z</time>
      </trkpt>
      <trkpt lat="49.33402" lon="0.98992">
        <ele>117.42</ele>
        <time>2018-08-18T06:55:49Z</time>
      </trkpt>
      <trkpt lat="49.33401" lon="0.98999">
        <ele>117.42</ele>
        <time>2018-08-18T06:55:50Z</time>
      </trkpt>
      <trkpt lat="49.33397" lon="0.99014">
        <ele>117.42</ele>
        <time>2018-08-18T06:55:52Z</time>
      </trkpt>
      <trkpt lat="49.33395" lon="0.99021">
        <ele>117.42</ele>
        <time>2018-08-18T06:55:53Z</time>
      </trkpt>
      <trkpt lat="49.33394" lon="0.99028">
        <ele>117.42</ele>
        <time>2018-08-18T06:55:54Z</time>
      </trkpt>
      <trkpt lat="49.33391" lon="0.99035">
        <ele>117.9</ele>
        <time>2018-08-18T06:55:55Z</time>
      </trkpt>
      <trkpt lat="49.3339" lon="0.99042">
        <ele>117.9</ele>
        <time>2018-08-18T06:55:56Z</time>
      </trkpt>
      <trkpt lat="49.33388" lon="0.99049">
        <ele>117.9</ele>
        <time>2018-08-18T06:55:57Z</time>
      </trkpt>
      <trkpt lat="49.33382" lon="0.99071">
        <ele>117.9</ele>
        <time>2018-08-18T06:56:00Z</time>
      </trkpt>
      <trkpt lat="49.3338" lon="0.99077">
        <ele>117.42</ele>
        <time>2018-08-18T06:56:01Z</time>
      </trkpt>
      <trkpt lat="49.33348" lon="0.99184">
        <ele>116.94</ele>
        <time>2018-08-18T06:56:14Z</time>
      </trkpt>
      <trkpt lat="49.33324" lon="0.99313">
        <ele>115.98</ele>
        <time>2018-08-18T06:56:28Z</time>
      </trkpt>
      <trkpt lat="49.33322" lon="0.99322">
        <ele>115.98</ele>
        <time>2018-08-18T06:56:29Z</time>
      </trkpt>
      <trkpt lat="49.33301" lon="0.99441">
        <ele>115.01</ele>
        <time>2018-08-18T06:56:42Z</time>
      </trkpt>
      <trkpt lat="49.33283" lon="0.99538">
        <ele>114.53</ele>
        <time>2018-08-18T06:56:53Z</time>
      </trkpt>
      <trkpt lat="49.3327" lon="0.99599">
        <ele>113.57</ele>
        <time>2018-08-18T06:57:00Z</time>
      </trkpt>
      <trkpt lat="49.33265" lon="0.99623">
        <ele>113.57</ele>
        <time>2018-08-18T06:57:03Z</time>
      </trkpt>
      <trkpt lat="49.33262" lon="0.99629">
        <ele>113.09</ele>
        <time>2018-08-18T06:57:04Z</time>
      </trkpt>
      <trkpt lat="49.33258" lon="0.99634">
        <ele>113.09</ele>
        <time>2018-08-18T06:57:05Z</time>
      </trkpt>
      <trkpt lat="49.33239" lon="0.9965">
        <ele>112.61</ele>
        <time>2018-08-18T06:57:09Z</time>
      </trkpt>
      <trkpt lat="49.33235" lon="0.99657">
        <ele>112.61</ele>
        <time>2018-08-18T06:57:10Z</time>
      </trkpt>
      <trkpt lat="49.33232" lon="0.99664">
        <ele>113.09</ele>
        <time>2018-08-18T06:57:11Z</time>
      </trkpt>
      <trkpt lat="49.33232" lon="0.99669">
        <ele>113.09</ele>
        <time>2018-08-18T06:57:12Z</time>
      </trkpt>
      <trkpt lat="49.33232" lon="0.99675">
        <ele>113.09</ele>
        <time>2018-08-18T06:57:13Z</time>
      </trkpt>
      <trkpt lat="49.33233" lon="0.99682">
        <ele>113.09</ele>
        <time>2018-08-18T06:57:14Z</time>
      </trkpt>
      <trkpt lat="49.33234" lon="0.99689">
        <ele>112.61</ele>
        <time>2018-08-18T06:57:15Z</time>
      </trkpt>
      <trkpt lat="49.33234" lon="0.99696">
        <ele>112.61</ele>
        <time>2018-08-18T06:57:16Z</time>
      </trkpt>
      <trkpt lat="49.33233" lon="0.997">
        <ele>112.61</ele>
        <time>2018-08-18T06:57:17Z</time>
      </trkpt>
      <trkpt lat="49.33231" lon="0.99702">
        <ele>112.13</ele>
        <time>2018-08-18T06:57:18Z</time>
      </trkpt>
      <trkpt lat="49.3323" lon="0.99703">
        <ele>112.61</ele>
        <time>2018-08-18T06:57:19Z</time>
      </trkpt>
      <trkpt lat="49.33228" lon="0.99709">
        <ele>111.65</ele>
        <time>2018-08-18T06:57:22Z</time>
      </trkpt>
      <trkpt lat="49.33227" lon="0.9971">
        <ele>112.13</ele>
        <time>2018-08-18T06:57:24Z</time>
      </trkpt>
      <trkpt lat="49.33226" lon="0.99707">
        <ele>112.13</ele>
        <time>2018-08-18T06:57:25Z</time>
      </trkpt>
      <trkpt lat="49.33224" lon="0.99704">
        <ele>111.65</ele>
        <time>2018-08-18T06:57:26Z</time>
      </trkpt>
      <trkpt lat="49.33223" lon="0.99701">
        <ele>111.65</ele>
        <time>2018-08-18T06:57:27Z</time>
      </trkpt>
      <trkpt lat="49.3322" lon="0.99701">
        <ele>111.65</ele>
        <time>2018-08-18T06:57:28Z</time>
      </trkpt>
      <trkpt lat="49.33214" lon="0.99699">
        <ele>111.17</ele>
        <time>2018-08-18T06:57:31Z</time>
      </trkpt>
      <trkpt lat="49.33198" lon="0.99698">
        <ele>110.69</ele>
        <time>2018-08-18T06:57:40Z</time>
      </trkpt>
      <trkpt lat="49.33197" lon="0.99699">
        <ele>111.17</ele>
        <time>2018-08-18T06:57:41Z</time>
      </trkpt>
      <trkpt lat="49.33195" lon="0.99701">
        <ele>110.69</ele>
        <time>2018-08-18T06:57:42Z</time>
      </trkpt>
      <trkpt lat="49.33194" lon="0.99703">
        <ele>110.69</ele>
        <time>2018-08-18T06:57:43Z</time>
      </trkpt>
      <trkpt lat="49.33192" lon="0.99706">
        <ele>110.21</ele>
        <time>2018-08-18T06:57:44Z</time>
      </trkpt>
      <trkpt lat="49.3319" lon="0.99711">
        <ele>109.73</ele>
        <time>2018-08-18T06:57:45Z</time>
      </trkpt>
      <trkpt lat="49.33184" lon="0.99725">
        <ele>108.77</ele>
        <time>2018-08-18T06:57:48Z</time>
      </trkpt>
      <trkpt lat="49.33172" lon="0.99729">
        <ele>108.77</ele>
        <time>2018-08-18T06:57:53Z</time>
      </trkpt>
      <trkpt lat="49.33167" lon="0.99733">
        <ele>109.25</ele>
        <time>2018-08-18T06:57:55Z</time>
      </trkpt>
      <trkpt lat="49.33161" lon="0.99736">
        <ele>108.77</ele>
        <time>2018-08-18T06:57:56Z</time>
      </trkpt>
      <trkpt lat="49.33155" lon="0.99741">
        <ele>108.29</ele>
        <time>2018-08-18T06:57:57Z</time>
      </trkpt>
      <trkpt lat="49.33152" lon="0.99745">
        <ele>107.81</ele>
        <time>2018-08-18T06:57:58Z</time>
      </trkpt>
      <trkpt lat="49.33149" lon="0.99748">
        <ele>107.32</ele>
        <time>2018-08-18T06:57:59Z</time>
      </trkpt>
      <trkpt lat="49.33149" lon="0.99751">
        <ele>107.32</ele>
        <time>2018-08-18T06:58:00Z</time>
      </trkpt>
      <trkpt lat="49.33145" lon="0.99761">
        <ele>106.84</ele>
        <time>2018-08-18T06:58:03Z</time>
      </trkpt>
      <trkpt lat="49.3314" lon="0.99766">
        <ele>106.36</ele>
        <time>2018-08-18T06:58:04Z</time>
      </trkpt>
      <trkpt lat="49.33135" lon="0.99772">
        <ele>106.36</ele>
        <time>2018-08-18T06:58:05Z</time>
      </trkpt>
      <trkpt lat="49.33131" lon="0.99779">
        <ele>105.88</ele>
        <time>2018-08-18T06:58:06Z</time>
      </trkpt>
      <trkpt lat="49.33127" lon="0.99786">
        <ele>104.92</ele>
        <time>2018-08-18T06:58:07Z</time>
      </trkpt>
      <trkpt lat="49.33122" lon="0.99789">
        <ele>104.92</ele>
        <time>2018-08-18T06:58:08Z</time>
      </trkpt>
      <trkpt lat="49.33118" lon="0.99793">
        <ele>104.44</ele>
        <time>2018-08-18T06:58:09Z</time>
      </trkpt>
      <trkpt lat="49.33116" lon="0.99794">
        <ele>104.44</ele>
        <time>2018-08-18T06:58:10Z</time>
      </trkpt>
      <trkpt lat="49.3311" lon="0.99797">
        <ele>105.88</ele>
        <time>2018-08-18T06:58:15Z</time>
      </trkpt>
      <trkpt lat="49.33107" lon="0.99794">
        <ele>106.36</ele>
        <time>2018-08-18T06:58:17Z</time>
      </trkpt>
      <trkpt lat="49.33102" lon="0.99796">
        <ele>106.36</ele>
        <time>2018-08-18T06:58:19Z</time>
      </trkpt>
      <trkpt lat="49.33099" lon="0.998">
        <ele>106.36</ele>
        <time>2018-08-18T06:58:20Z</time>
      </trkpt>
      <trkpt lat="49.33094" lon="0.99805">
        <ele>105.88</ele>
        <time>2018-08-18T06:58:21Z</time>
      </trkpt>
      <trkpt lat="49.3309" lon="0.99809">
        <ele>105.4</ele>
        <time>2018-08-18T06:58:22Z</time>
      </trkpt>
      <trkpt lat="49.33087" lon="0.9981">
        <ele>104.92</ele>
        <time>2018-08-18T06:58:23Z</time>
      </trkpt>
      <trkpt lat="49.33084" lon="0.99812">
        <ele>104.92</ele>
        <time>2018-08-18T06:58:24Z</time>
      </trkpt>
      <trkpt lat="49.33079" lon="0.99813">
        <ele>105.4</ele>
        <time>2018-08-18T06:58:25Z</time>
      </trkpt>
      <trkpt lat="49.33076" lon="0.99813">
        <ele>105.4</ele>
        <time>2018-08-18T06:58:26Z</time>
      </trkpt>
      <trkpt lat="49.33074" lon="0.99811">
        <ele>105.88</ele>
        <time>2018-08-18T06:58:27Z</time>
      </trkpt>
      <trkpt lat="49.33072" lon="0.99817">
        <ele>105.4</ele>
        <time>2018-08-18T06:58:30Z</time>
      </trkpt>
      <trkpt lat="49.33067" lon="0.99823">
        <ele>104.92</ele>
        <time>2018-08-18T06:58:31Z</time>
      </trkpt>
      <trkpt lat="49.33063" lon="0.9983">
        <ele>104.92</ele>
        <time>2018-08-18T06:58:32Z</time>
      </trkpt>
      <trkpt lat="49.3305" lon="0.99848">
        <ele>103.48</ele>
        <time>2018-08-18T06:58:36Z</time>
      </trkpt>
      <trkpt lat="49.33045" lon="0.9985">
        <ele>103.48</ele>
        <time>2018-08-18T06:58:37Z</time>
      </trkpt>
      <trkpt lat="49.33041" lon="0.99851">
        <ele>103.48</ele>
        <time>2018-08-18T06:58:38Z</time>
      </trkpt>
      <trkpt lat="49.33037" lon="0.99854">
        <ele>103.96</ele>
        <time>2018-08-18T06:58:39Z</time>
      </trkpt>
      <trkpt lat="49.33035" lon="0.99859">
        <ele>103.96</ele>
        <time>2018-08-18T06:58:40Z</time>
      </trkpt>
      <trkpt lat="49.33032" lon="0.99864">
        <ele>103.48</ele>
        <time>2018-08-18T06:58:41Z</time>
      </trkpt>
      <trkpt lat="49.33029" lon="0.99871">
        <ele>103</ele>
        <time>2018-08-18T06:58:42Z</time>
      </trkpt>
      <trkpt lat="49.33027" lon="0.99877">
        <ele>102.52</ele>
        <time>2018-08-18T06:58:43Z</time>
      </trkpt>
      <trkpt lat="49.33024" lon="0.99884">
        <ele>101.56</ele>
        <time>2018-08-18T06:58:44Z</time>
      </trkpt>
      <trkpt lat="49.33021" lon="0.99891">
        <ele>101.56</ele>
        <time>2018-08-18T06:58:45Z</time>
      </trkpt>
      <trkpt lat="49.33018" lon="0.99897">
        <ele>100.6</ele>
        <time>2018-08-18T06:58:46Z</time>
      </trkpt>
      <trkpt lat="49.33015" lon="0.9991">
        <ele>99.63</ele>
        <time>2018-08-18T06:58:48Z</time>
      </trkpt>
      <trkpt lat="49.33013" lon="0.99917">
        <ele>99.63</ele>
        <time>2018-08-18T06:58:49Z</time>
      </trkpt>
      <trkpt lat="49.33009" lon="0.9993">
        <ele>99.15</ele>
        <time>2018-08-18T06:58:51Z</time>
      </trkpt>
      <trkpt lat="49.33006" lon="0.99937">
        <ele>99.15</ele>
        <time>2018-08-18T06:58:52Z</time>
      </trkpt>
      <trkpt lat="49.33004" lon="0.99943">
        <ele>99.15</ele>
        <time>2018-08-18T06:58:53Z</time>
      </trkpt>
      <trkpt lat="49.33001" lon="0.99949">
        <ele>99.15</ele>
        <time>2018-08-18T06:58:54Z</time>
      </trkpt>
      <trkpt lat="49.33" lon="0.99955">
        <ele>98.67</ele>
        <time>2018-08-18T06:58:55Z</time>
      </trkpt>
      <trkpt lat="49.33001" lon="0.99962">
        <ele>97.71</ele>
        <time>2018-08-18T06:58:56Z</time>
      </trkpt>
      <trkpt lat="49.33" lon="0.99969">
        <ele>96.75</ele>
        <time>2018-08-18T06:58:57Z</time>
      </trkpt>
      <trkpt lat="49.32998" lon="0.99976">
        <ele>96.27</ele>
        <time>2018-08-18T06:58:58Z</time>
      </trkpt>
      <trkpt lat="49.32997" lon="0.99983">
        <ele>96.27</ele>
        <time>2018-08-18T06:58:59Z</time>
      </trkpt>
      <trkpt lat="49.32995" lon="0.99989">
        <ele>95.79</ele>
        <time>2018-08-18T06:59:00Z</time>
      </trkpt>
      <trkpt lat="49.32993" lon="0.99994">
        <ele>96.27</ele>
        <time>2018-08-18T06:59:01Z</time>
      </trkpt>
      <trkpt lat="49.32988" lon="1.00021">
        <ele>95.79</ele>
        <time>2018-08-18T06:59:05Z</time>
      </trkpt>
      <trkpt lat="49.32983" lon="1.00059">
        <ele>93.39</ele>
        <time>2018-08-18T06:59:13Z</time>
      </trkpt>
      <trkpt lat="49.32983" lon="1.00066">
        <ele>92.42</ele>
        <time>2018-08-18T06:59:14Z</time>
      </trkpt>
      <trkpt lat="49.32981" lon="1.00072">
        <ele>91.46</ele>
        <time>2018-08-18T06:59:15Z</time>
      </trkpt>
      <trkpt lat="49.3298" lon="1.00077">
        <ele>91.46</ele>
        <time>2018-08-18T06:59:16Z</time>
      </trkpt>
      <trkpt lat="49.32966" lon="1.00099">
        <ele>89.54</ele>
        <time>2018-08-18T06:59:23Z</time>
      </trkpt>
      <trkpt lat="49.32961" lon="1.001">
        <ele>88.58</ele>
        <time>2018-08-18T06:59:27Z</time>
      </trkpt>
      <trkpt lat="49.32951" lon="1.00099">
        <ele>87.62</ele>
        <time>2018-08-18T06:59:29Z</time>
      </trkpt>
      <trkpt lat="49.32931" lon="1.00102">
        <ele>85.21</ele>
        <time>2018-08-18T06:59:39Z</time>
      </trkpt>
      <trkpt lat="49.32924" lon="1.00101">
        <ele>83.77</ele>
        <time>2018-08-18T06:59:41Z</time>
      </trkpt>
      <trkpt lat="49.3292" lon="1.00103">
        <ele>81.85</ele>
        <time>2018-08-18T06:59:42Z</time>
      </trkpt>
      <trkpt lat="49.32909" lon="1.00104">
        <ele>79.45</ele>
        <time>2018-08-18T06:59:45Z</time>
      </trkpt>
      <trkpt lat="49.32907" lon="1.00103">
        <ele>78.97</ele>
        <time>2018-08-18T06:59:46Z</time>
      </trkpt>
      <trkpt lat="49.32905" lon="1.00102">
        <ele>78.97</ele>
        <time>2018-08-18T06:59:47Z</time>
      </trkpt>
      <trkpt lat="49.32903" lon="1.00099">
        <ele>79.45</ele>
        <time>2018-08-18T06:59:49Z</time>
      </trkpt>
      <trkpt lat="49.32902" lon="1.00097">
        <ele>79.93</ele>
        <time>2018-08-18T06:59:50Z</time>
      </trkpt>
      <trkpt lat="49.329" lon="1.00095">
        <ele>79.93</ele>
        <time>2018-08-18T06:59:51Z</time>
      </trkpt>
      <trkpt lat="49.32898" lon="1.00094">
        <ele>79.93</ele>
        <time>2018-08-18T06:59:52Z</time>
      </trkpt>
      <trkpt lat="49.32897" lon="1.00093">
        <ele>79.93</ele>
        <time>2018-08-18T06:59:53Z</time>
      </trkpt>
      <trkpt lat="49.32895" lon="1.0009">
        <ele>79.93</ele>
        <time>2018-08-18T06:59:54Z</time>
      </trkpt>
      <trkpt lat="49.32892" lon="1.00088">
        <ele>80.89</ele>
        <time>2018-08-18T06:59:55Z</time>
      </trkpt>
      <trkpt lat="49.32884" lon="1.00084">
        <ele>82.33</ele>
        <time>2018-08-18T06:59:58Z</time>
      </trkpt>
      <trkpt lat="49.32874" lon="1.00077">
        <ele>84.73</ele>
        <time>2018-08-18T07:00:03Z</time>
      </trkpt>
      <trkpt lat="49.32872" lon="1.00076">
        <ele>85.21</ele>
        <time>2018-08-18T07:00:04Z</time>
      </trkpt>
      <trkpt lat="49.32871" lon="1.00075">
        <ele>85.69</ele>
        <time>2018-08-18T07:00:05Z</time>
      </trkpt>
      <trkpt lat="49.32869" lon="1.00073">
        <ele>86.18</ele>
        <time>2018-08-18T07:00:06Z</time>
      </trkpt>
      <trkpt lat="49.32869" lon="1.00071">
        <ele>87.14</ele>
        <time>2018-08-18T07:00:07Z</time>
      </trkpt>
      <trkpt lat="49.32872" lon="1.00067">
        <ele>88.1</ele>
        <time>2018-08-18T07:00:09Z</time>
      </trkpt>
      <trkpt lat="49.32874" lon="1.00051">
        <ele>91.46</ele>
        <time>2018-08-18T07:00:17Z</time>
      </trkpt>
      <trkpt lat="49.32873" lon="1.00036">
        <ele>92.42</ele>
        <time>2018-08-18T07:00:23Z</time>
      </trkpt>
      <trkpt lat="49.32872" lon="1.00032">
        <ele>92.9</ele>
        <time>2018-08-18T07:00:24Z</time>
      </trkpt>
      <trkpt lat="49.3287" lon="1.0003">
        <ele>92.9</ele>
        <time>2018-08-18T07:00:25Z</time>
      </trkpt>
      <trkpt lat="49.32837" lon="0.99986">
        <ele>95.79</ele>
        <time>2018-08-18T07:00:40Z</time>
      </trkpt>
      <trkpt lat="49.3281" lon="0.99954">
        <ele>99.15</ele>
        <time>2018-08-18T07:00:52Z</time>
      </trkpt>
      <trkpt lat="49.32795" lon="0.99911">
        <ele>102.04</ele>
        <time>2018-08-18T07:01:06Z</time>
      </trkpt>
      <trkpt lat="49.3278" lon="0.99857">
        <ele>104.44</ele>
        <time>2018-08-18T07:01:22Z</time>
      </trkpt>
      <trkpt lat="49.32774" lon="0.99804">
        <ele>105.88</ele>
        <time>2018-08-18T07:01:37Z</time>
      </trkpt>
      <trkpt lat="49.32774" lon="0.99799">
        <ele>105.88</ele>
        <time>2018-08-18T07:01:38Z</time>
      </trkpt>
      <trkpt lat="49.32767" lon="0.99774">
        <ele>105.88</ele>
        <time>2018-08-18T07:01:44Z</time>
      </trkpt>
      <trkpt lat="49.32739" lon="0.99676">
        <ele>106.36</ele>
        <time>2018-08-18T07:02:02Z</time>
      </trkpt>
      <trkpt lat="49.32736" lon="0.99663">
        <ele>106.36</ele>
        <time>2018-08-18T07:02:04Z</time>
      </trkpt>
      <trkpt lat="49.32729" lon="0.99646">
        <ele>105.88</ele>
        <time>2018-08-18T07:02:07Z</time>
      </trkpt>
      <trkpt lat="49.32722" lon="0.99627">
        <ele>105.4</ele>
        <time>2018-08-18T07:02:10Z</time>
      </trkpt>
      <trkpt lat="49.32719" lon="0.9962">
        <ele>105.88</ele>
        <time>2018-08-18T07:02:11Z</time>
      </trkpt>
      <trkpt lat="49.32699" lon="0.99566">
        <ele>104.92</ele>
        <time>2018-08-18T07:02:19Z</time>
      </trkpt>
      <trkpt lat="49.32691" lon="0.9954">
        <ele>104.44</ele>
        <time>2018-08-18T07:02:23Z</time>
      </trkpt>
      <trkpt lat="49.32687" lon="0.99524">
        <ele>103.96</ele>
        <time>2018-08-18T07:02:25Z</time>
      </trkpt>
      <trkpt lat="49.32682" lon="0.99509">
        <ele>103.48</ele>
        <time>2018-08-18T07:02:27Z</time>
      </trkpt>
      <trkpt lat="49.32672" lon="0.9948">
        <ele>102.52</ele>
        <time>2018-08-18T07:02:31Z</time>
      </trkpt>
      <trkpt lat="49.32654" lon="0.99424">
        <ele>100.6</ele>
        <time>2018-08-18T07:02:38Z</time>
      </trkpt>
      <trkpt lat="49.32641" lon="0.99388">
        <ele>97.71</ele>
        <time>2018-08-18T07:02:42Z</time>
      </trkpt>
      <trkpt lat="49.32637" lon="0.99378">
        <ele>97.23</ele>
        <time>2018-08-18T07:02:43Z</time>
      </trkpt>
      <trkpt lat="49.32634" lon="0.99368">
        <ele>97.71</ele>
        <time>2018-08-18T07:02:44Z</time>
      </trkpt>
      <trkpt lat="49.32632" lon="0.99359">
        <ele>97.23</ele>
        <time>2018-08-18T07:02:45Z</time>
      </trkpt>
      <trkpt lat="49.32629" lon="0.99349">
        <ele>97.23</ele>
        <time>2018-08-18T07:02:46Z</time>
      </trkpt>
      <trkpt lat="49.32626" lon="0.9934">
        <ele>96.75</ele>
        <time>2018-08-18T07:02:47Z</time>
      </trkpt>
      <trkpt lat="49.32617" lon="0.99311">
        <ele>95.79</ele>
        <time>2018-08-18T07:02:50Z</time>
      </trkpt>
      <trkpt lat="49.32596" lon="0.99242">
        <ele>92.42</ele>
        <time>2018-08-18T07:02:57Z</time>
      </trkpt>
      <trkpt lat="49.32562" lon="0.99139">
        <ele>89.06</ele>
        <time>2018-08-18T07:03:08Z</time>
      </trkpt>
      <trkpt lat="49.32547" lon="0.99096">
        <ele>85.69</ele>
        <time>2018-08-18T07:03:13Z</time>
      </trkpt>
      <trkpt lat="49.32538" lon="0.99063">
        <ele>80.89</ele>
        <time>2018-08-18T07:03:16Z</time>
      </trkpt>
      <trkpt lat="49.32531" lon="0.9904">
        <ele>79.45</ele>
        <time>2018-08-18T07:03:18Z</time>
      </trkpt>
      <trkpt lat="49.32524" lon="0.99018">
        <ele>83.29</ele>
        <time>2018-08-18T07:03:21Z</time>
      </trkpt>
      <trkpt lat="49.32523" lon="0.99015">
        <ele>85.21</ele>
        <time>2018-08-18T07:03:22Z</time>
      </trkpt>
      <trkpt lat="49.3252" lon="0.99">
        <ele>87.62</ele>
        <time>2018-08-18T07:03:28Z</time>
      </trkpt>
      <trkpt lat="49.32514" lon="0.98986">
        <ele>88.1</ele>
        <time>2018-08-18T07:03:31Z</time>
      </trkpt>
      <trkpt lat="49.32511" lon="0.98978">
        <ele>88.1</ele>
        <time>2018-08-18T07:03:32Z</time>
      </trkpt>
      <trkpt lat="49.32478" lon="0.98887">
        <ele>85.21</ele>
        <time>2018-08-18T07:03:44Z</time>
      </trkpt>
      <trkpt lat="49.32475" lon="0.98878">
        <ele>84.73</ele>
        <time>2018-08-18T07:03:45Z</time>
      </trkpt>
      <trkpt lat="49.32469" lon="0.98862">
        <ele>84.25</ele>
        <time>2018-08-18T07:03:47Z</time>
      </trkpt>
      <trkpt lat="49.32451" lon="0.98809">
        <ele>80.89</ele>
        <time>2018-08-18T07:03:53Z</time>
      </trkpt>
      <trkpt lat="49.32443" lon="0.98781">
        <ele>77.52</ele>
        <time>2018-08-18T07:03:56Z</time>
      </trkpt>
      <trkpt lat="49.32432" lon="0.98743">
        <ele>73.68</ele>
        <time>2018-08-18T07:04:01Z</time>
      </trkpt>
      <trkpt lat="49.32427" lon="0.98728">
        <ele>72.72</ele>
        <time>2018-08-18T07:04:03Z</time>
      </trkpt>
      <trkpt lat="49.32415" lon="0.98701">
        <ele>68.87</ele>
        <time>2018-08-18T07:04:07Z</time>
      </trkpt>
      <trkpt lat="49.32413" lon="0.98694">
        <ele>68.39</ele>
        <time>2018-08-18T07:04:08Z</time>
      </trkpt>
      <trkpt lat="49.32413" lon="0.98689">
        <ele>67.43</ele>
        <time>2018-08-18T07:04:09Z</time>
      </trkpt>
      <trkpt lat="49.32413" lon="0.98684">
        <ele>67.91</ele>
        <time>2018-08-18T07:04:10Z</time>
      </trkpt>
      <trkpt lat="49.32413" lon="0.98678">
        <ele>67.43</ele>
        <time>2018-08-18T07:04:11Z</time>
      </trkpt>
      <trkpt lat="49.32412" lon="0.98671">
        <ele>66.47</ele>
        <time>2018-08-18T07:04:12Z</time>
      </trkpt>
      <trkpt lat="49.32412" lon="0.98664">
        <ele>65.99</ele>
        <time>2018-08-18T07:04:13Z</time>
      </trkpt>
      <trkpt lat="49.32411" lon="0.98657">
        <ele>65.51</ele>
        <time>2018-08-18T07:04:14Z</time>
      </trkpt>
      <trkpt lat="49.32411" lon="0.98632">
        <ele>64.55</ele>
        <time>2018-08-18T07:04:19Z</time>
      </trkpt>
      <trkpt lat="49.32413" lon="0.98628">
        <ele>64.55</ele>
        <time>2018-08-18T07:04:20Z</time>
      </trkpt>
      <trkpt lat="49.32415" lon="0.98624">
        <ele>64.55</ele>
        <time>2018-08-18T07:04:21Z</time>
      </trkpt>
      <trkpt lat="49.32417" lon="0.9862">
        <ele>64.07</ele>
        <time>2018-08-18T07:04:22Z</time>
      </trkpt>
      <trkpt lat="49.32419" lon="0.98616">
        <ele>64.55</ele>
        <time>2018-08-18T07:04:23Z</time>
      </trkpt>
      <trkpt lat="49.32419" lon="0.98613">
        <ele>64.07</ele>
        <time>2018-08-18T07:04:24Z</time>
      </trkpt>
      <trkpt lat="49.32418" lon="0.98609">
        <ele>63.58</ele>
        <time>2018-08-18T07:04:25Z</time>
      </trkpt>
      <trkpt lat="49.32417" lon="0.98603">
        <ele>64.07</ele>
        <time>2018-08-18T07:04:27Z</time>
      </trkpt>
      <trkpt lat="49.3242" lon="0.986">
        <ele>64.55</ele>
        <time>2018-08-18T07:04:29Z</time>
      </trkpt>
      <trkpt lat="49.32421" lon="0.98601">
        <ele>64.55</ele>
        <time>2018-08-18T07:04:30Z</time>
      </trkpt>
      <trkpt lat="49.32422" lon="0.98598">
        <ele>64.07</ele>
        <time>2018-08-18T07:04:33Z</time>
      </trkpt>
      <trkpt lat="49.32422" lon="0.98595">
        <ele>64.55</ele>
        <time>2018-08-18T07:04:34Z</time>
      </trkpt>
      <trkpt lat="49.32423" lon="0.98591">
        <ele>63.58</ele>
        <time>2018-08-18T07:04:35Z</time>
      </trkpt>
      <trkpt lat="49.32423" lon="0.98586">
        <ele>63.1</ele>
        <time>2018-08-18T07:04:36Z</time>
      </trkpt>
      <trkpt lat="49.32423" lon="0.98582">
        <ele>62.14</ele>
        <time>2018-08-18T07:04:37Z</time>
      </trkpt>
      <trkpt lat="49.32428" lon="0.98547">
        <ele>58.78</ele>
        <time>2018-08-18T07:04:42Z</time>
      </trkpt>
      <trkpt lat="49.32433" lon="0.98523">
        <ele>61.18</ele>
        <time>2018-08-18T07:04:46Z</time>
      </trkpt>
      <trkpt lat="49.32447" lon="0.98458">
        <ele>65.03</ele>
        <time>2018-08-18T07:04:58Z</time>
      </trkpt>
      <trkpt lat="49.32449" lon="0.98455">
        <ele>65.03</ele>
        <time>2018-08-18T07:04:59Z</time>
      </trkpt>
      <trkpt lat="49.32456" lon="0.98451">
        <ele>66.95</ele>
        <time>2018-08-18T07:05:03Z</time>
      </trkpt>
      <trkpt lat="49.32472" lon="0.98426">
        <ele>65.51</ele>
        <time>2018-08-18T07:05:09Z</time>
      </trkpt>
      <trkpt lat="49.32481" lon="0.98412">
        <ele>63.58</ele>
        <time>2018-08-18T07:05:12Z</time>
      </trkpt>
      <trkpt lat="49.32493" lon="0.98398">
        <ele>61.66</ele>
        <time>2018-08-18T07:05:15Z</time>
      </trkpt>
      <trkpt lat="49.32497" lon="0.98394">
        <ele>60.22</ele>
        <time>2018-08-18T07:05:16Z</time>
      </trkpt>
      <trkpt lat="49.32503" lon="0.98391">
        <ele>59.74</ele>
        <time>2018-08-18T07:05:17Z</time>
      </trkpt>
      <trkpt lat="49.32509" lon="0.98389">
        <ele>59.74</ele>
        <time>2018-08-18T07:05:18Z</time>
      </trkpt>
      <trkpt lat="49.32516" lon="0.98389">
        <ele>60.7</ele>
        <time>2018-08-18T07:05:19Z</time>
      </trkpt>
      <trkpt lat="49.32522" lon="0.9839">
        <ele>61.18</ele>
        <time>2018-08-18T07:05:20Z</time>
      </trkpt>
      <trkpt lat="49.32527" lon="0.98391">
        <ele>61.66</ele>
        <time>2018-08-18T07:05:21Z</time>
      </trkpt>
      <trkpt lat="49.32564" lon="0.98387">
        <ele>64.07</ele>
        <time>2018-08-18T07:05:31Z</time>
      </trkpt>
      <trkpt lat="49.32567" lon="0.98386">
        <ele>64.55</ele>
        <time>2018-08-18T07:05:32Z</time>
      </trkpt>
      <trkpt lat="49.32598" lon="0.98382">
        <ele>64.07</ele>
        <time>2018-08-18T07:05:41Z</time>
      </trkpt>
      <trkpt lat="49.326" lon="0.98381">
        <ele>64.55</ele>
        <time>2018-08-18T07:05:42Z</time>
      </trkpt>
      <trkpt lat="49.32603" lon="0.9838">
        <ele>65.03</ele>
        <time>2018-08-18T07:05:43Z</time>
      </trkpt>
      <trkpt lat="49.32606" lon="0.98379">
        <ele>65.51</ele>
        <time>2018-08-18T07:05:44Z</time>
      </trkpt>
      <trkpt lat="49.32609" lon="0.98379">
        <ele>65.03</ele>
        <time>2018-08-18T07:05:45Z</time>
      </trkpt>
      <trkpt lat="49.32611" lon="0.98378">
        <ele>65.99</ele>
        <time>2018-08-18T07:05:46Z</time>
      </trkpt>
      <trkpt lat="49.32615" lon="0.98377">
        <ele>66.47</ele>
        <time>2018-08-18T07:05:47Z</time>
      </trkpt>
      <trkpt lat="49.32618" lon="0.98377">
        <ele>66.47</ele>
        <time>2018-08-18T07:05:48Z</time>
      </trkpt>
      <trkpt lat="49.32622" lon="0.98375">
        <ele>66.47</ele>
        <time>2018-08-18T07:05:49Z</time>
      </trkpt>
      <trkpt lat="49.32625" lon="0.98374">
        <ele>65.99</ele>
        <time>2018-08-18T07:05:50Z</time>
      </trkpt>
      <trkpt lat="49.32628" lon="0.98373">
        <ele>65.99</ele>
        <time>2018-08-18T07:05:51Z</time>
      </trkpt>
      <trkpt lat="49.3263" lon="0.98372">
        <ele>66.47</ele>
        <time>2018-08-18T07:05:52Z</time>
      </trkpt>
      <trkpt lat="49.32632" lon="0.9837">
        <ele>66.47</ele>
        <time>2018-08-18T07:05:53Z</time>
      </trkpt>
      <trkpt lat="49.32635" lon="0.98368">
        <ele>65.51</ele>
        <time>2018-08-18T07:05:54Z</time>
      </trkpt>
      <trkpt lat="49.32639" lon="0.98365">
        <ele>65.03</ele>
        <time>2018-08-18T07:05:55Z</time>
      </trkpt>
      <trkpt lat="49.32643" lon="0.98363">
        <ele>64.55</ele>
        <time>2018-08-18T07:05:56Z</time>
      </trkpt>
      <trkpt lat="49.32646" lon="0.9836">
        <ele>65.03</ele>
        <time>2018-08-18T07:05:57Z</time>
      </trkpt>
      <trkpt lat="49.3265" lon="0.98357">
        <ele>65.03</ele>
        <time>2018-08-18T07:05:58Z</time>
      </trkpt>
      <trkpt lat="49.32661" lon="0.9835">
        <ele>65.51</ele>
        <time>2018-08-18T07:06:01Z</time>
      </trkpt>
      <trkpt lat="49.32665" lon="0.98349">
        <ele>65.99</ele>
        <time>2018-08-18T07:06:02Z</time>
      </trkpt>
      <trkpt lat="49.32667" lon="0.98347">
        <ele>65.99</ele>
        <time>2018-08-18T07:06:03Z</time>
      </trkpt>
      <trkpt lat="49.3267" lon="0.98346">
        <ele>66.47</ele>
        <time>2018-08-18T07:06:04Z</time>
      </trkpt>
      <trkpt lat="49.32673" lon="0.98344">
        <ele>66.47</ele>
        <time>2018-08-18T07:06:05Z</time>
      </trkpt>
      <trkpt lat="49.32691" lon="0.98331">
        <ele>63.1</ele>
        <time>2018-08-18T07:06:10Z</time>
      </trkpt>
      <trkpt lat="49.32697" lon="0.98328">
        <ele>62.62</ele>
        <time>2018-08-18T07:06:11Z</time>
      </trkpt>
      <trkpt lat="49.32703" lon="0.98324">
        <ele>62.62</ele>
        <time>2018-08-18T07:06:12Z</time>
      </trkpt>
      <trkpt lat="49.32708" lon="0.9832">
        <ele>62.14</ele>
        <time>2018-08-18T07:06:13Z</time>
      </trkpt>
      <trkpt lat="49.32712" lon="0.98315">
        <ele>62.14</ele>
        <time>2018-08-18T07:06:14Z</time>
      </trkpt>
      <trkpt lat="49.32726" lon="0.98302">
        <ele>64.55</ele>
        <time>2018-08-18T07:06:18Z</time>
      </trkpt>
      <trkpt lat="49.32741" lon="0.98274">
        <ele>66.47</ele>
        <time>2018-08-18T07:06:25Z</time>
      </trkpt>
      <trkpt lat="49.32747" lon="0.98265">
        <ele>66.47</ele>
        <time>2018-08-18T07:06:27Z</time>
      </trkpt>
      <trkpt lat="49.32751" lon="0.98262">
        <ele>66.95</ele>
        <time>2018-08-18T07:06:28Z</time>
      </trkpt>
      <trkpt lat="49.32755" lon="0.98257">
        <ele>66.47</ele>
        <time>2018-08-18T07:06:29Z</time>
      </trkpt>
      <trkpt lat="49.32759" lon="0.98251">
        <ele>65.99</ele>
        <time>2018-08-18T07:06:30Z</time>
      </trkpt>
      <trkpt lat="49.32762" lon="0.98244">
        <ele>65.51</ele>
        <time>2018-08-18T07:06:31Z</time>
      </trkpt>
      <trkpt lat="49.32765" lon="0.98238">
        <ele>65.03</ele>
        <time>2018-08-18T07:06:32Z</time>
      </trkpt>
      <trkpt lat="49.32766" lon="0.98235">
        <ele>64.55</ele>
        <time>2018-08-18T07:06:33Z</time>
      </trkpt>
      <trkpt lat="49.32786" lon="0.9819">
        <ele>64.55</ele>
        <time>2018-08-18T07:06:39Z</time>
      </trkpt>
      <trkpt lat="49.32802" lon="0.98174">
        <ele>66.47</ele>
        <time>2018-08-18T07:06:43Z</time>
      </trkpt>
      <trkpt lat="49.32804" lon="0.98171">
        <ele>66.95</ele>
        <time>2018-08-18T07:06:44Z</time>
      </trkpt>
      <trkpt lat="49.32812" lon="0.98163">
        <ele>67.91</ele>
        <time>2018-08-18T07:06:47Z</time>
      </trkpt>
      <trkpt lat="49.32814" lon="0.98161">
        <ele>68.39</ele>
        <time>2018-08-18T07:06:48Z</time>
      </trkpt>
      <trkpt lat="49.32817" lon="0.98159">
        <ele>68.39</ele>
        <time>2018-08-18T07:06:49Z</time>
      </trkpt>
      <trkpt lat="49.3282" lon="0.98156">
        <ele>68.87</ele>
        <time>2018-08-18T07:06:50Z</time>
      </trkpt>
      <trkpt lat="49.32823" lon="0.98153">
        <ele>68.87</ele>
        <time>2018-08-18T07:06:51Z</time>
      </trkpt>
      <trkpt lat="49.32826" lon="0.98149">
        <ele>69.35</ele>
        <time>2018-08-18T07:06:52Z</time>
      </trkpt>
      <trkpt lat="49.32843" lon="0.98125">
        <ele>70.79</ele>
        <time>2018-08-18T07:07:01Z</time>
      </trkpt>
      <trkpt lat="49.32846" lon="0.98124">
        <ele>70.79</ele>
        <time>2018-08-18T07:07:02Z</time>
      </trkpt>
      <trkpt lat="49.32862" lon="0.98125">
        <ele>72.24</ele>
        <time>2018-08-18T07:07:06Z</time>
      </trkpt>
      <trkpt lat="49.32865" lon="0.9813">
        <ele>73.2</ele>
        <time>2018-08-18T07:07:09Z</time>
      </trkpt>
      <trkpt lat="49.32867" lon="0.98143">
        <ele>76.08</ele>
        <time>2018-08-18T07:07:16Z</time>
      </trkpt>
      <trkpt lat="49.32866" lon="0.98146">
        <ele>76.56</ele>
        <time>2018-08-18T07:07:18Z</time>
      </trkpt>
      <trkpt lat="49.32864" lon="0.98167">
        <ele>79.45</ele>
        <time>2018-08-18T07:07:28Z</time>
      </trkpt>
      <trkpt lat="49.32869" lon="0.98182">
        <ele>81.85</ele>
        <time>2018-08-18T07:07:35Z</time>
      </trkpt>
      <trkpt lat="49.32874" lon="0.98195">
        <ele>83.77</ele>
        <time>2018-08-18T07:07:41Z</time>
      </trkpt>
      <trkpt lat="49.32872" lon="0.98208">
        <ele>85.21</ele>
        <time>2018-08-18T07:07:47Z</time>
      </trkpt>
      <trkpt lat="49.32872" lon="0.98216">
        <ele>86.18</ele>
        <time>2018-08-18T07:07:50Z</time>
      </trkpt>
      <trkpt lat="49.32874" lon="0.98226">
        <ele>87.62</ele>
        <time>2018-08-18T07:07:56Z</time>
      </trkpt>
      <trkpt lat="49.32876" lon="0.98233">
        <ele>88.58</ele>
        <time>2018-08-18T07:08:01Z</time>
      </trkpt>
      <trkpt lat="49.32877" lon="0.98249">
        <ele>90.5</ele>
        <time>2018-08-18T07:08:08Z</time>
      </trkpt>
      <trkpt lat="49.32878" lon="0.98264">
        <ele>91.46</ele>
        <time>2018-08-18T07:08:14Z</time>
      </trkpt>
      <trkpt lat="49.3288" lon="0.98292">
        <ele>92.9</ele>
        <time>2018-08-18T07:08:23Z</time>
      </trkpt>
      <trkpt lat="49.32877" lon="0.98299">
        <ele>92.9</ele>
        <time>2018-08-18T07:08:25Z</time>
      </trkpt>
      <trkpt lat="49.32877" lon="0.98313">
        <ele>93.39</ele>
        <time>2018-08-18T07:08:29Z</time>
      </trkpt>
      <trkpt lat="49.32878" lon="0.98317">
        <ele>93.87</ele>
        <time>2018-08-18T07:08:31Z</time>
      </trkpt>
      <trkpt lat="49.32879" lon="0.98327">
        <ele>94.83</ele>
        <time>2018-08-18T07:08:34Z</time>
      </trkpt>
      <trkpt lat="49.32888" lon="0.98345">
        <ele>94.83</ele>
        <time>2018-08-18T07:08:41Z</time>
      </trkpt>
      <trkpt lat="49.32887" lon="0.98352">
        <ele>95.79</ele>
        <time>2018-08-18T07:08:44Z</time>
      </trkpt>
      <trkpt lat="49.32881" lon="0.98372">
        <ele>96.75</ele>
        <time>2018-08-18T07:08:49Z</time>
      </trkpt>
      <trkpt lat="49.32881" lon="0.98376">
        <ele>97.23</ele>
        <time>2018-08-18T07:08:50Z</time>
      </trkpt>
      <trkpt lat="49.32877" lon="0.9839">
        <ele>97.71</ele>
        <time>2018-08-18T07:08:54Z</time>
      </trkpt>
      <trkpt lat="49.32878" lon="0.98408">
        <ele>98.67</ele>
        <time>2018-08-18T07:08:59Z</time>
      </trkpt>
      <trkpt lat="49.32878" lon="0.98412">
        <ele>98.67</ele>
        <time>2018-08-18T07:09:00Z</time>
      </trkpt>
      <trkpt lat="49.3288" lon="0.98419">
        <ele>98.67</ele>
        <time>2018-08-18T07:09:03Z</time>
      </trkpt>
      <trkpt lat="49.32881" lon="0.98427">
        <ele>99.15</ele>
        <time>2018-08-18T07:09:05Z</time>
      </trkpt>
      <trkpt lat="49.32883" lon="0.98442">
        <ele>99.63</ele>
        <time>2018-08-18T07:09:09Z</time>
      </trkpt>
      <trkpt lat="49.32886" lon="0.98448">
        <ele>99.63</ele>
        <time>2018-08-18T07:09:11Z</time>
      </trkpt>
      <trkpt lat="49.32887" lon="0.98454">
        <ele>100.11</ele>
        <time>2018-08-18T07:09:13Z</time>
      </trkpt>
      <trkpt lat="49.32893" lon="0.98459">
        <ele>100.11</ele>
        <time>2018-08-18T07:09:17Z</time>
      </trkpt>
      <trkpt lat="49.3289" lon="0.98485">
        <ele>101.08</ele>
        <time>2018-08-18T07:09:26Z</time>
      </trkpt>
      <trkpt lat="49.32902" lon="0.98521">
        <ele>100.11</ele>
        <time>2018-08-18T07:09:38Z</time>
      </trkpt>
      <trkpt lat="49.3291" lon="0.98534">
        <ele>100.11</ele>
        <time>2018-08-18T07:09:42Z</time>
      </trkpt>
      <trkpt lat="49.32914" lon="0.98541">
        <ele>99.63</ele>
        <time>2018-08-18T07:09:44Z</time>
      </trkpt>
      <trkpt lat="49.32916" lon="0.98548">
        <ele>98.19</ele>
        <time>2018-08-18T07:09:47Z</time>
      </trkpt>
      <trkpt lat="49.32916" lon="0.98549">
        <ele>97.71</ele>
        <time>2018-08-18T07:09:48Z</time>
      </trkpt>
      <trkpt lat="49.32919" lon="0.98548">
        <ele>97.23</ele>
        <time>2018-08-18T07:09:49Z</time>
      </trkpt>
      <trkpt lat="49.32937" lon="0.98554">
        <ele>96.75</ele>
        <time>2018-08-18T07:09:53Z</time>
      </trkpt>
      <trkpt lat="49.32944" lon="0.98561">
        <ele>96.75</ele>
        <time>2018-08-18T07:09:56Z</time>
      </trkpt>
      <trkpt lat="49.32953" lon="0.98603">
        <ele>99.15</ele>
        <time>2018-08-18T07:10:07Z</time>
      </trkpt>
      <trkpt lat="49.3296" lon="0.98625">
        <ele>98.67</ele>
        <time>2018-08-18T07:10:14Z</time>
      </trkpt>
      <trkpt lat="49.32976" lon="0.98671">
        <ele>100.11</ele>
        <time>2018-08-18T07:10:26Z</time>
      </trkpt>
      <trkpt lat="49.32976" lon="0.98676">
        <ele>100.6</ele>
        <time>2018-08-18T07:10:28Z</time>
      </trkpt>
      <trkpt lat="49.32979" lon="0.98679">
        <ele>100.11</ele>
        <time>2018-08-18T07:10:31Z</time>
      </trkpt>
      <trkpt lat="49.32983" lon="0.98689">
        <ele>100.11</ele>
        <time>2018-08-18T07:10:34Z</time>
      </trkpt>
      <trkpt lat="49.32988" lon="0.98698">
        <ele>100.11</ele>
        <time>2018-08-18T07:10:37Z</time>
      </trkpt>
      <trkpt lat="49.32992" lon="0.98706">
        <ele>100.6</ele>
        <time>2018-08-18T07:10:40Z</time>
      </trkpt>
      <trkpt lat="49.32999" lon="0.98737">
        <ele>101.08</ele>
        <time>2018-08-18T07:10:48Z</time>
      </trkpt>
      <trkpt lat="49.33005" lon="0.98753">
        <ele>101.08</ele>
        <time>2018-08-18T07:10:51Z</time>
      </trkpt>
      <trkpt lat="49.33006" lon="0.9876">
        <ele>101.08</ele>
        <time>2018-08-18T07:10:52Z</time>
      </trkpt>
      <trkpt lat="49.33007" lon="0.98771">
        <ele>100.11</ele>
        <time>2018-08-18T07:10:56Z</time>
      </trkpt>
      <trkpt lat="49.33015" lon="0.98769">
        <ele>99.15</ele>
        <time>2018-08-18T07:10:59Z</time>
      </trkpt>
      <trkpt lat="49.33028" lon="0.98762">
        <ele>98.19</ele>
        <time>2018-08-18T07:11:01Z</time>
      </trkpt>
      <trkpt lat="49.33034" lon="0.98757">
        <ele>96.75</ele>
        <time>2018-08-18T07:11:02Z</time>
      </trkpt>
      <trkpt lat="49.3304" lon="0.98751">
        <ele>94.35</ele>
        <time>2018-08-18T07:11:03Z</time>
      </trkpt>
      <trkpt lat="49.33062" lon="0.98734">
        <ele>91.46</ele>
        <time>2018-08-18T07:11:06Z</time>
      </trkpt>
      <trkpt lat="49.33071" lon="0.98722">
        <ele>91.46</ele>
        <time>2018-08-18T07:11:08Z</time>
      </trkpt>
      <trkpt lat="49.33073" lon="0.98717">
        <ele>92.42</ele>
        <time>2018-08-18T07:11:09Z</time>
      </trkpt>
      <trkpt lat="49.33078" lon="0.98683">
        <ele>94.83</ele>
        <time>2018-08-18T07:11:16Z</time>
      </trkpt>
      <trkpt lat="49.33079" lon="0.9868">
        <ele>95.31</ele>
        <time>2018-08-18T07:11:17Z</time>
      </trkpt>
      <trkpt lat="49.3308" lon="0.98677">
        <ele>96.27</ele>
        <time>2018-08-18T07:11:18Z</time>
      </trkpt>
      <trkpt lat="49.33081" lon="0.98674">
        <ele>96.75</ele>
        <time>2018-08-18T07:11:19Z</time>
      </trkpt>
      <trkpt lat="49.33082" lon="0.98671">
        <ele>97.23</ele>
        <time>2018-08-18T07:11:20Z</time>
      </trkpt>
      <trkpt lat="49.33083" lon="0.98667">
        <ele>97.23</ele>
        <time>2018-08-18T07:11:21Z</time>
      </trkpt>
      <trkpt lat="49.33083" lon="0.98664">
        <ele>97.23</ele>
        <time>2018-08-18T07:11:22Z</time>
      </trkpt>
      <trkpt lat="49.33083" lon="0.9866">
        <ele>97.23</ele>
        <time>2018-08-18T07:11:23Z</time>
      </trkpt>
      <trkpt lat="49.33077" lon="0.98642">
        <ele>96.27</ele>
        <time>2018-08-18T07:11:27Z</time>
      </trkpt>
      <trkpt lat="49.33076" lon="0.986">
        <ele>94.35</ele>
        <time>2018-08-18T07:11:34Z</time>
      </trkpt>
      <trkpt lat="49.33076" lon="0.98594">
        <ele>94.35</ele>
        <time>2018-08-18T07:11:35Z</time>
      </trkpt>
      <trkpt lat="49.3309" lon="0.98523">
        <ele>94.83</ele>
        <time>2018-08-18T07:11:49Z</time>
      </trkpt>
      <trkpt lat="49.33094" lon="0.98499">
        <ele>96.27</ele>
        <time>2018-08-18T07:11:54Z</time>
      </trkpt>
      <trkpt lat="49.33102" lon="0.98498">
        <ele>97.71</ele>
        <time>2018-08-18T07:11:57Z</time>
      </trkpt>
      <trkpt lat="49.33105" lon="0.98497">
        <ele>98.19</ele>
        <time>2018-08-18T07:11:58Z</time>
      </trkpt>
      <trkpt lat="49.33103" lon="0.98425">
        <ele>97.71</ele>
        <time>2018-08-18T07:12:11Z</time>
      </trkpt>
      <trkpt lat="49.33099" lon="0.98389">
        <ele>98.19</ele>
        <time>2018-08-18T07:12:17Z</time>
      </trkpt>
      <trkpt lat="49.33109" lon="0.98377">
        <ele>99.63</ele>
        <time>2018-08-18T07:12:25Z</time>
      </trkpt>
      <trkpt lat="49.33097" lon="0.98304">
        <ele>99.63</ele>
        <time>2018-08-18T07:12:37Z</time>
      </trkpt>
      <trkpt lat="49.33096" lon="0.98298">
        <ele>99.63</ele>
        <time>2018-08-18T07:12:38Z</time>
      </trkpt>
      <trkpt lat="49.33095" lon="0.98279">
        <ele>99.63</ele>
        <time>2018-08-18T07:12:41Z</time>
      </trkpt>
      <trkpt lat="49.33104" lon="0.98249">
        <ele>98.19</ele>
        <time>2018-08-18T07:12:47Z</time>
      </trkpt>
      <trkpt lat="49.33105" lon="0.98234">
        <ele>97.23</ele>
        <time>2018-08-18T07:12:49Z</time>
      </trkpt>
      <trkpt lat="49.33105" lon="0.98218">
        <ele>96.75</ele>
        <time>2018-08-18T07:12:51Z</time>
      </trkpt>
      <trkpt lat="49.331" lon="0.98181">
        <ele>95.31</ele>
        <time>2018-08-18T07:12:55Z</time>
      </trkpt>
      <trkpt lat="49.33105" lon="0.98152">
        <ele>94.83</ele>
        <time>2018-08-18T07:12:59Z</time>
      </trkpt>
      <trkpt lat="49.33115" lon="0.98118">
        <ele>92.9</ele>
        <time>2018-08-18T07:13:04Z</time>
      </trkpt>
      <trkpt lat="49.33115" lon="0.98085">
        <ele>88.58</ele>
        <time>2018-08-18T07:13:08Z</time>
      </trkpt>
      <trkpt lat="49.33119" lon="0.98072">
        <ele>86.66</ele>
        <time>2018-08-18T07:13:10Z</time>
      </trkpt>
      <trkpt lat="49.3312" lon="0.98066">
        <ele>85.69</ele>
        <time>2018-08-18T07:13:11Z</time>
      </trkpt>
      <trkpt lat="49.33119" lon="0.9806">
        <ele>85.21</ele>
        <time>2018-08-18T07:13:12Z</time>
      </trkpt>
      <trkpt lat="49.33117" lon="0.98055">
        <ele>84.25</ele>
        <time>2018-08-18T07:13:13Z</time>
      </trkpt>
      <trkpt lat="49.33116" lon="0.9805">
        <ele>83.29</ele>
        <time>2018-08-18T07:13:14Z</time>
      </trkpt>
      <trkpt lat="49.33114" lon="0.98044">
        <ele>82.33</ele>
        <time>2018-08-18T07:13:15Z</time>
      </trkpt>
      <trkpt lat="49.33114" lon="0.98036">
        <ele>80.89</ele>
        <time>2018-08-18T07:13:16Z</time>
      </trkpt>
      <trkpt lat="49.33114" lon="0.98027">
        <ele>79.45</ele>
        <time>2018-08-18T07:13:17Z</time>
      </trkpt>
      <trkpt lat="49.33114" lon="0.98018">
        <ele>78.48</ele>
        <time>2018-08-18T07:13:18Z</time>
      </trkpt>
      <trkpt lat="49.33112" lon="0.98009">
        <ele>77.52</ele>
        <time>2018-08-18T07:13:19Z</time>
      </trkpt>
      <trkpt lat="49.3311" lon="0.97993">
        <ele>75.12</ele>
        <time>2018-08-18T07:13:21Z</time>
      </trkpt>
      <trkpt lat="49.3311" lon="0.97987">
        <ele>74.16</ele>
        <time>2018-08-18T07:13:22Z</time>
      </trkpt>
      <trkpt lat="49.33124" lon="0.97966">
        <ele>71.76</ele>
        <time>2018-08-18T07:13:27Z</time>
      </trkpt>
      <trkpt lat="49.33135" lon="0.9797">
        <ele>70.31</ele>
        <time>2018-08-18T07:13:32Z</time>
      </trkpt>
      <trkpt lat="49.33138" lon="0.97975">
        <ele>70.79</ele>
        <time>2018-08-18T07:13:34Z</time>
      </trkpt>
      <trkpt lat="49.33142" lon="0.97981">
        <ele>72.24</ele>
        <time>2018-08-18T07:13:37Z</time>
      </trkpt>
      <trkpt lat="49.33147" lon="0.97983">
        <ele>73.2</ele>
        <time>2018-08-18T07:13:40Z</time>
      </trkpt>
      <trkpt lat="49.33155" lon="0.98011">
        <ele>75.12</ele>
        <time>2018-08-18T07:13:46Z</time>
      </trkpt>
      <trkpt lat="49.33164" lon="0.98034">
        <ele>77.04</ele>
        <time>2018-08-18T07:13:51Z</time>
      </trkpt>
      <trkpt lat="49.3318" lon="0.98074">
        <ele>80.41</ele>
        <time>2018-08-18T07:14:01Z</time>
      </trkpt>
      <trkpt lat="49.33182" lon="0.98084">
        <ele>80.89</ele>
        <time>2018-08-18T07:14:03Z</time>
      </trkpt>
      <trkpt lat="49.33185" lon="0.98113">
        <ele>82.81</ele>
        <time>2018-08-18T07:14:11Z</time>
      </trkpt>
      <trkpt lat="49.3319" lon="0.98149">
        <ele>84.25</ele>
        <time>2018-08-18T07:14:19Z</time>
      </trkpt>
      <trkpt lat="49.33196" lon="0.98183">
        <ele>85.21</ele>
        <time>2018-08-18T07:14:25Z</time>
      </trkpt>
      <trkpt lat="49.33205" lon="0.98216">
        <ele>84.73</ele>
        <time>2018-08-18T07:14:31Z</time>
      </trkpt>
      <trkpt lat="49.33211" lon="0.98232">
        <ele>85.69</ele>
        <time>2018-08-18T07:14:35Z</time>
      </trkpt>
      <trkpt lat="49.33214" lon="0.98244">
        <ele>85.21</ele>
        <time>2018-08-18T07:14:37Z</time>
      </trkpt>
      <trkpt lat="49.33227" lon="0.98273">
        <ele>86.66</ele>
        <time>2018-08-18T07:14:45Z</time>
      </trkpt>
      <trkpt lat="49.33235" lon="0.98296">
        <ele>88.1</ele>
        <time>2018-08-18T07:14:49Z</time>
      </trkpt>
      <trkpt lat="49.33242" lon="0.98309">
        <ele>89.54</ele>
        <time>2018-08-18T07:14:52Z</time>
      </trkpt>
      <trkpt lat="49.33249" lon="0.98329">
        <ele>90.5</ele>
        <time>2018-08-18T07:14:57Z</time>
      </trkpt>
      <trkpt lat="49.33257" lon="0.98349">
        <ele>91.46</ele>
        <time>2018-08-18T07:15:02Z</time>
      </trkpt>
      <trkpt lat="49.33263" lon="0.9836">
        <ele>92.42</ele>
        <time>2018-08-18T07:15:05Z</time>
      </trkpt>
      <trkpt lat="49.33264" lon="0.98366">
        <ele>93.39</ele>
        <time>2018-08-18T07:15:07Z</time>
      </trkpt>
      <trkpt lat="49.33271" lon="0.98379">
        <ele>94.35</ele>
        <time>2018-08-18T07:15:11Z</time>
      </trkpt>
      <trkpt lat="49.33289" lon="0.98427">
        <ele>97.71</ele>
        <time>2018-08-18T07:15:25Z</time>
      </trkpt>
      <trkpt lat="49.33295" lon="0.98445">
        <ele>99.15</ele>
        <time>2018-08-18T07:15:31Z</time>
      </trkpt>
      <trkpt lat="49.33296" lon="0.98452">
        <ele>99.63</ele>
        <time>2018-08-18T07:15:33Z</time>
      </trkpt>
      <trkpt lat="49.33307" lon="0.98482">
        <ele>102.04</ele>
        <time>2018-08-18T07:15:42Z</time>
      </trkpt>
      <trkpt lat="49.33313" lon="0.98504">
        <ele>103.48</ele>
        <time>2018-08-18T07:15:49Z</time>
      </trkpt>
      <trkpt lat="49.33317" lon="0.98511">
        <ele>103.96</ele>
        <time>2018-08-18T07:15:51Z</time>
      </trkpt>
      <trkpt lat="49.33319" lon="0.98518">
        <ele>104.44</ele>
        <time>2018-08-18T07:15:53Z</time>
      </trkpt>
      <trkpt lat="49.33322" lon="0.98533">
        <ele>105.88</ele>
        <time>2018-08-18T07:15:58Z</time>
      </trkpt>
      <trkpt lat="49.33323" lon="0.98536">
        <ele>105.88</ele>
        <time>2018-08-18T07:15:59Z</time>
      </trkpt>
      <trkpt lat="49.33337" lon="0.9856">
        <ele>107.32</ele>
        <time>2018-08-18T07:16:08Z</time>
      </trkpt>
      <trkpt lat="49.33355" lon="0.98554">
        <ele>106.36</ele>
        <time>2018-08-18T07:16:15Z</time>
      </trkpt>
      <trkpt lat="49.33363" lon="0.98545">
        <ele>105.4</ele>
        <time>2018-08-18T07:16:18Z</time>
      </trkpt>
      <trkpt lat="49.33372" lon="0.98537">
        <ele>104.44</ele>
        <time>2018-08-18T07:16:20Z</time>
      </trkpt>
      <trkpt lat="49.33376" lon="0.98534">
        <ele>104.44</ele>
        <time>2018-08-18T07:16:21Z</time>
      </trkpt>
      <trkpt lat="49.33392" lon="0.98521">
        <ele>103.48</ele>
        <time>2018-08-18T07:16:25Z</time>
      </trkpt>
      <trkpt lat="49.33396" lon="0.9852">
        <ele>103</ele>
        <time>2018-08-18T07:16:26Z</time>
      </trkpt>
      <trkpt lat="49.33399" lon="0.98517">
        <ele>103.48</ele>
        <time>2018-08-18T07:16:27Z</time>
      </trkpt>
      <trkpt lat="49.33414" lon="0.98504">
        <ele>102.52</ele>
        <time>2018-08-18T07:16:31Z</time>
      </trkpt>
      <trkpt lat="49.33418" lon="0.98501">
        <ele>102.52</ele>
        <time>2018-08-18T07:16:32Z</time>
      </trkpt>
      <trkpt lat="49.33428" lon="0.98494">
        <ele>102.04</ele>
        <time>2018-08-18T07:16:34Z</time>
      </trkpt>
      <trkpt lat="49.33432" lon="0.98491">
        <ele>101.56</ele>
        <time>2018-08-18T07:16:35Z</time>
      </trkpt>
      <trkpt lat="49.33437" lon="0.98487">
        <ele>100.6</ele>
        <time>2018-08-18T07:16:36Z</time>
      </trkpt>
      <trkpt lat="49.33445" lon="0.98478">
        <ele>99.63</ele>
        <time>2018-08-18T07:16:38Z</time>
      </trkpt>
      <trkpt lat="49.33449" lon="0.98475">
        <ele>99.63</ele>
        <time>2018-08-18T07:16:39Z</time>
      </trkpt>
      <trkpt lat="49.33453" lon="0.98473">
        <ele>99.63</ele>
        <time>2018-08-18T07:16:40Z</time>
      </trkpt>
      <trkpt lat="49.3346" lon="0.98469">
        <ele>98.67</ele>
        <time>2018-08-18T07:16:42Z</time>
      </trkpt>
      <trkpt lat="49.33464" lon="0.98464">
        <ele>96.27</ele>
        <time>2018-08-18T07:16:43Z</time>
      </trkpt>
      <trkpt lat="49.33468" lon="0.98461">
        <ele>95.31</ele>
        <time>2018-08-18T07:16:44Z</time>
      </trkpt>
      <trkpt lat="49.33471" lon="0.98459">
        <ele>95.79</ele>
        <time>2018-08-18T07:16:45Z</time>
      </trkpt>
      <trkpt lat="49.33474" lon="0.98456">
        <ele>95.31</ele>
        <time>2018-08-18T07:16:46Z</time>
      </trkpt>
      <trkpt lat="49.33479" lon="0.98453">
        <ele>95.79</ele>
        <time>2018-08-18T07:16:47Z</time>
      </trkpt>
      <trkpt lat="49.33484" lon="0.98449">
        <ele>94.83</ele>
        <time>2018-08-18T07:16:48Z</time>
      </trkpt>
      <trkpt lat="49.33489" lon="0.98447">
        <ele>94.35</ele>
        <time>2018-08-18T07:16:49Z</time>
      </trkpt>
      <trkpt lat="49.33494" lon="0.98444">
        <ele>94.35</ele>
        <time>2018-08-18T07:16:50Z</time>
      </trkpt>
      <trkpt lat="49.33511" lon="0.98433">
        <ele>92.42</ele>
        <time>2018-08-18T07:16:55Z</time>
      </trkpt>
      <trkpt lat="49.33512" lon="0.98429">
        <ele>91.94</ele>
        <time>2018-08-18T07:16:56Z</time>
      </trkpt>
      <trkpt lat="49.33514" lon="0.98426">
        <ele>90.98</ele>
        <time>2018-08-18T07:16:57Z</time>
      </trkpt>
      <trkpt lat="49.33517" lon="0.98424">
        <ele>89.54</ele>
        <time>2018-08-18T07:16:58Z</time>
      </trkpt>
      <trkpt lat="49.3352" lon="0.98421">
        <ele>88.58</ele>
        <time>2018-08-18T07:16:59Z</time>
      </trkpt>
      <trkpt lat="49.33531" lon="0.98415">
        <ele>85.21</ele>
        <time>2018-08-18T07:17:02Z</time>
      </trkpt>
      <trkpt lat="49.33535" lon="0.98413">
        <ele>85.21</ele>
        <time>2018-08-18T07:17:03Z</time>
      </trkpt>
      <trkpt lat="49.33554" lon="0.98396">
        <ele>87.62</ele>
        <time>2018-08-18T07:17:06Z</time>
      </trkpt>
      <trkpt lat="49.33566" lon="0.98384">
        <ele>90.98</ele>
        <time>2018-08-18T07:17:09Z</time>
      </trkpt>
      <trkpt lat="49.33573" lon="0.98374">
        <ele>91.94</ele>
        <time>2018-08-18T07:17:11Z</time>
      </trkpt>
      <trkpt lat="49.33584" lon="0.98335">
        <ele>95.31</ele>
        <time>2018-08-18T07:17:22Z</time>
      </trkpt>
      <trkpt lat="49.33592" lon="0.98321">
        <ele>99.15</ele>
        <time>2018-08-18T07:17:29Z</time>
      </trkpt>
      <trkpt lat="49.33592" lon="0.983">
        <ele>102.04</ele>
        <time>2018-08-18T07:17:38Z</time>
      </trkpt>
      <trkpt lat="49.33588" lon="0.98291">
        <ele>103</ele>
        <time>2018-08-18T07:17:42Z</time>
      </trkpt>
      <trkpt lat="49.33576" lon="0.98267">
        <ele>103.96</ele>
        <time>2018-08-18T07:17:53Z</time>
      </trkpt>
      <trkpt lat="49.33567" lon="0.98253">
        <ele>103.48</ele>
        <time>2018-08-18T07:17:58Z</time>
      </trkpt>
      <trkpt lat="49.33552" lon="0.98233">
        <ele>102.52</ele>
        <time>2018-08-18T07:18:04Z</time>
      </trkpt>
      <trkpt lat="49.33543" lon="0.98226">
        <ele>102.52</ele>
        <time>2018-08-18T07:18:07Z</time>
      </trkpt>
      <trkpt lat="49.33528" lon="0.98174">
        <ele>103</ele>
        <time>2018-08-18T07:18:17Z</time>
      </trkpt>
      <trkpt lat="49.33524" lon="0.98138">
        <ele>103</ele>
        <time>2018-08-18T07:18:24Z</time>
      </trkpt>
      <trkpt lat="49.33524" lon="0.98089">
        <ele>99.63</ele>
        <time>2018-08-18T07:18:33Z</time>
      </trkpt>
      <trkpt lat="49.33527" lon="0.98083">
        <ele>99.63</ele>
        <time>2018-08-18T07:18:34Z</time>
      </trkpt>
      <trkpt lat="49.3353" lon="0.98079">
        <ele>100.6</ele>
        <time>2018-08-18T07:18:35Z</time>
      </trkpt>
      <trkpt lat="49.33533" lon="0.98075">
        <ele>101.08</ele>
        <time>2018-08-18T07:18:36Z</time>
      </trkpt>
      <trkpt lat="49.33551" lon="0.98049">
        <ele>104.44</ele>
        <time>2018-08-18T07:18:45Z</time>
      </trkpt>
      <trkpt lat="49.33575" lon="0.98025">
        <ele>107.32</ele>
        <time>2018-08-18T07:18:57Z</time>
      </trkpt>
      <trkpt lat="49.33577" lon="0.98023">
        <ele>107.32</ele>
        <time>2018-08-18T07:18:58Z</time>
      </trkpt>
      <trkpt lat="49.33584" lon="0.98017">
        <ele>108.29</ele>
        <time>2018-08-18T07:19:01Z</time>
      </trkpt>
      <trkpt lat="49.33587" lon="0.98016">
        <ele>108.29</ele>
        <time>2018-08-18T07:19:02Z</time>
      </trkpt>
      <trkpt lat="49.3359" lon="0.98014">
        <ele>108.77</ele>
        <time>2018-08-18T07:19:03Z</time>
      </trkpt>
      <trkpt lat="49.33592" lon="0.98013">
        <ele>108.77</ele>
        <time>2018-08-18T07:19:04Z</time>
      </trkpt>
      <trkpt lat="49.33595" lon="0.98011">
        <ele>109.25</ele>
        <time>2018-08-18T07:19:05Z</time>
      </trkpt>
      <trkpt lat="49.33598" lon="0.98009">
        <ele>109.25</ele>
        <time>2018-08-18T07:19:06Z</time>
      </trkpt>
      <trkpt lat="49.33601" lon="0.98007">
        <ele>109.25</ele>
        <time>2018-08-18T07:19:07Z</time>
      </trkpt>
      <trkpt lat="49.33603" lon="0.98005">
        <ele>109.73</ele>
        <time>2018-08-18T07:19:08Z</time>
      </trkpt>
      <trkpt lat="49.33624" lon="0.98">
        <ele>111.65</ele>
        <time>2018-08-18T07:19:16Z</time>
      </trkpt>
      <trkpt lat="49.33625" lon="0.98006">
        <ele>112.13</ele>
        <time>2018-08-18T07:19:18Z</time>
      </trkpt>
      <trkpt lat="49.33626" lon="0.98008">
        <ele>112.13</ele>
        <time>2018-08-18T07:19:19Z</time>
      </trkpt>
      <trkpt lat="49.33628" lon="0.98011">
        <ele>112.61</ele>
        <time>2018-08-18T07:19:21Z</time>
      </trkpt>
      <trkpt lat="49.33628" lon="0.98014">
        <ele>113.09</ele>
        <time>2018-08-18T07:19:22Z</time>
      </trkpt>
      <trkpt lat="49.33628" lon="0.98016">
        <ele>113.57</ele>
        <time>2018-08-18T07:19:23Z</time>
      </trkpt>
      <trkpt lat="49.3363" lon="0.98018">
        <ele>113.57</ele>
        <time>2018-08-18T07:19:24Z</time>
      </trkpt>
      <trkpt lat="49.33631" lon="0.98022">
        <ele>114.05</ele>
        <time>2018-08-18T07:19:25Z</time>
      </trkpt>
      <trkpt lat="49.33632" lon="0.98025">
        <ele>114.05</ele>
        <time>2018-08-18T07:19:26Z</time>
      </trkpt>
      <trkpt lat="49.33633" lon="0.9803">
        <ele>114.53</ele>
        <time>2018-08-18T07:19:27Z</time>
      </trkpt>
      <trkpt lat="49.33636" lon="0.98033">
        <ele>114.53</ele>
        <time>2018-08-18T07:19:28Z</time>
      </trkpt>
      <trkpt lat="49.33639" lon="0.98036">
        <ele>115.01</ele>
        <time>2018-08-18T07:19:29Z</time>
      </trkpt>
      <trkpt lat="49.33641" lon="0.9804">
        <ele>115.01</ele>
        <time>2018-08-18T07:19:30Z</time>
      </trkpt>
      <trkpt lat="49.33643" lon="0.98044">
        <ele>115.01</ele>
        <time>2018-08-18T07:19:31Z</time>
      </trkpt>
      <trkpt lat="49.33645" lon="0.98047">
        <ele>115.5</ele>
        <time>2018-08-18T07:19:32Z</time>
      </trkpt>
      <trkpt lat="49.33646" lon="0.98052">
        <ele>115.5</ele>
        <time>2018-08-18T07:19:33Z</time>
      </trkpt>
      <trkpt lat="49.33647" lon="0.98056">
        <ele>115.5</ele>
        <time>2018-08-18T07:19:34Z</time>
      </trkpt>
      <trkpt lat="49.33648" lon="0.98061">
        <ele>115.98</ele>
        <time>2018-08-18T07:19:35Z</time>
      </trkpt>
      <trkpt lat="49.33649" lon="0.98064">
        <ele>115.98</ele>
        <time>2018-08-18T07:19:36Z</time>
      </trkpt>
      <trkpt lat="49.3365" lon="0.98067">
        <ele>115.98</ele>
        <time>2018-08-18T07:19:37Z</time>
      </trkpt>
      <trkpt lat="49.33651" lon="0.98071">
        <ele>115.98</ele>
        <time>2018-08-18T07:19:38Z</time>
      </trkpt>
      <trkpt lat="49.33653" lon="0.98076">
        <ele>115.98</ele>
        <time>2018-08-18T07:19:39Z</time>
      </trkpt>
      <trkpt lat="49.33667" lon="0.98097">
        <ele>116.94</ele>
        <time>2018-08-18T07:19:45Z</time>
      </trkpt>
      <trkpt lat="49.33688" lon="0.9808">
        <ele>116.94</ele>
        <time>2018-08-18T07:19:53Z</time>
      </trkpt>
      <trkpt lat="49.33705" lon="0.98063">
        <ele>116.94</ele>
        <time>2018-08-18T07:19:58Z</time>
      </trkpt>
      <trkpt lat="49.33708" lon="0.98034">
        <ele>115.98</ele>
        <time>2018-08-18T07:20:03Z</time>
      </trkpt>
      <trkpt lat="49.33714" lon="0.98015">
        <ele>115.01</ele>
        <time>2018-08-18T07:20:06Z</time>
      </trkpt>
      <trkpt lat="49.33727" lon="0.98003">
        <ele>114.53</ele>
        <time>2018-08-18T07:20:10Z</time>
      </trkpt>
      <trkpt lat="49.33743" lon="0.97986">
        <ele>113.57</ele>
        <time>2018-08-18T07:20:14Z</time>
      </trkpt>
      <trkpt lat="49.3375" lon="0.97975">
        <ele>113.09</ele>
        <time>2018-08-18T07:20:16Z</time>
      </trkpt>
      <trkpt lat="49.33756" lon="0.97949">
        <ele>110.21</ele>
        <time>2018-08-18T07:20:20Z</time>
      </trkpt>
      <trkpt lat="49.33758" lon="0.97936">
        <ele>109.25</ele>
        <time>2018-08-18T07:20:22Z</time>
      </trkpt>
      <trkpt lat="49.33766" lon="0.97909">
        <ele>106.84</ele>
        <time>2018-08-18T07:20:27Z</time>
      </trkpt>
      <trkpt lat="49.33774" lon="0.97864">
        <ele>103</ele>
        <time>2018-08-18T07:20:34Z</time>
      </trkpt>
      <trkpt lat="49.33774" lon="0.97858">
        <ele>103</ele>
        <time>2018-08-18T07:20:35Z</time>
      </trkpt>
      <trkpt lat="49.33775" lon="0.97852">
        <ele>102.04</ele>
        <time>2018-08-18T07:20:36Z</time>
      </trkpt>
      <trkpt lat="49.33777" lon="0.97845">
        <ele>100.6</ele>
        <time>2018-08-18T07:20:37Z</time>
      </trkpt>
      <trkpt lat="49.33779" lon="0.97837">
        <ele>99.63</ele>
        <time>2018-08-18T07:20:38Z</time>
      </trkpt>
      <trkpt lat="49.33781" lon="0.9783">
        <ele>99.15</ele>
        <time>2018-08-18T07:20:39Z</time>
      </trkpt>
      <trkpt lat="49.33782" lon="0.97824">
        <ele>98.67</ele>
        <time>2018-08-18T07:20:40Z</time>
      </trkpt>
      <trkpt lat="49.33781" lon="0.97818">
        <ele>97.23</ele>
        <time>2018-08-18T07:20:41Z</time>
      </trkpt>
      <trkpt lat="49.33781" lon="0.97813">
        <ele>96.27</ele>
        <time>2018-08-18T07:20:42Z</time>
      </trkpt>
      <trkpt lat="49.33779" lon="0.97807">
        <ele>95.79</ele>
        <time>2018-08-18T07:20:43Z</time>
      </trkpt>
      <trkpt lat="49.33775" lon="0.97802">
        <ele>94.83</ele>
        <time>2018-08-18T07:20:44Z</time>
      </trkpt>
      <trkpt lat="49.33772" lon="0.97799">
        <ele>94.35</ele>
        <time>2018-08-18T07:20:45Z</time>
      </trkpt>
      <trkpt lat="49.33771" lon="0.97795">
        <ele>93.87</ele>
        <time>2018-08-18T07:20:46Z</time>
      </trkpt>
      <trkpt lat="49.33769" lon="0.97792">
        <ele>93.39</ele>
        <time>2018-08-18T07:20:47Z</time>
      </trkpt>
      <trkpt lat="49.33768" lon="0.97788">
        <ele>93.39</ele>
        <time>2018-08-18T07:20:48Z</time>
      </trkpt>
      <trkpt lat="49.33769" lon="0.97784">
        <ele>92.9</ele>
        <time>2018-08-18T07:20:49Z</time>
      </trkpt>
      <trkpt lat="49.33768" lon="0.97778">
        <ele>92.9</ele>
        <time>2018-08-18T07:20:50Z</time>
      </trkpt>
      <trkpt lat="49.33767" lon="0.97772">
        <ele>92.9</ele>
        <time>2018-08-18T07:20:51Z</time>
      </trkpt>
      <trkpt lat="49.33765" lon="0.97767">
        <ele>91.94</ele>
        <time>2018-08-18T07:20:52Z</time>
      </trkpt>
      <trkpt lat="49.33763" lon="0.97762">
        <ele>90.98</ele>
        <time>2018-08-18T07:20:53Z</time>
      </trkpt>
      <trkpt lat="49.33762" lon="0.97755">
        <ele>90.5</ele>
        <time>2018-08-18T07:20:54Z</time>
      </trkpt>
      <trkpt lat="49.33763" lon="0.97748">
        <ele>90.02</ele>
        <time>2018-08-18T07:20:55Z</time>
      </trkpt>
      <trkpt lat="49.33765" lon="0.97742">
        <ele>90.02</ele>
        <time>2018-08-18T07:20:56Z</time>
      </trkpt>
      <trkpt lat="49.33766" lon="0.97734">
        <ele>89.54</ele>
        <time>2018-08-18T07:20:57Z</time>
      </trkpt>
      <trkpt lat="49.33768" lon="0.97728">
        <ele>90.02</ele>
        <time>2018-08-18T07:20:58Z</time>
      </trkpt>
      <trkpt lat="49.33767" lon="0.97706">
        <ele>91.94</ele>
        <time>2018-08-18T07:21:02Z</time>
      </trkpt>
      <trkpt lat="49.33752" lon="0.97668">
        <ele>95.31</ele>
        <time>2018-08-18T07:21:11Z</time>
      </trkpt>
      <trkpt lat="49.33727" lon="0.97618">
        <ele>96.75</ele>
        <time>2018-08-18T07:21:23Z</time>
      </trkpt>
      <trkpt lat="49.33728" lon="0.97615">
        <ele>96.75</ele>
        <time>2018-08-18T07:21:24Z</time>
      </trkpt>
      <trkpt lat="49.3373" lon="0.97613">
        <ele>96.75</ele>
        <time>2018-08-18T07:21:25Z</time>
      </trkpt>
      <trkpt lat="49.33732" lon="0.97609">
        <ele>97.23</ele>
        <time>2018-08-18T07:21:26Z</time>
      </trkpt>
      <trkpt lat="49.33733" lon="0.97604">
        <ele>97.71</ele>
        <time>2018-08-18T07:21:27Z</time>
      </trkpt>
      <trkpt lat="49.33734" lon="0.97598">
        <ele>97.71</ele>
        <time>2018-08-18T07:21:28Z</time>
      </trkpt>
      <trkpt lat="49.33734" lon="0.97595">
        <ele>98.19</ele>
        <time>2018-08-18T07:21:29Z</time>
      </trkpt>
      <trkpt lat="49.3373" lon="0.97586">
        <ele>98.67</ele>
        <time>2018-08-18T07:21:32Z</time>
      </trkpt>
      <trkpt lat="49.33716" lon="0.97578">
        <ele>94.83</ele>
        <time>2018-08-18T07:21:39Z</time>
      </trkpt>
      <trkpt lat="49.3371" lon="0.97577">
        <ele>93.87</ele>
        <time>2018-08-18T07:21:41Z</time>
      </trkpt>
      <trkpt lat="49.33702" lon="0.97554">
        <ele>93.39</ele>
        <time>2018-08-18T07:21:47Z</time>
      </trkpt>
      <trkpt lat="49.33701" lon="0.97537">
        <ele>93.87</ele>
        <time>2018-08-18T07:21:50Z</time>
      </trkpt>
      <trkpt lat="49.33695" lon="0.97505">
        <ele>93.87</ele>
        <time>2018-08-18T07:21:55Z</time>
      </trkpt>
      <trkpt lat="49.33688" lon="0.97469">
        <ele>95.31</ele>
        <time>2018-08-18T07:22:01Z</time>
      </trkpt>
      <trkpt lat="49.33686" lon="0.97459">
        <ele>95.79</ele>
        <time>2018-08-18T07:22:03Z</time>
      </trkpt>
      <trkpt lat="49.33669" lon="0.97389">
        <ele>97.23</ele>
        <time>2018-08-18T07:22:15Z</time>
      </trkpt>
      <trkpt lat="49.33668" lon="0.97384">
        <ele>97.23</ele>
        <time>2018-08-18T07:22:16Z</time>
      </trkpt>
      <trkpt lat="49.33659" lon="0.97333">
        <ele>97.23</ele>
        <time>2018-08-18T07:22:24Z</time>
      </trkpt>
      <trkpt lat="49.33657" lon="0.97319">
        <ele>96.75</ele>
        <time>2018-08-18T07:22:26Z</time>
      </trkpt>
      <trkpt lat="49.33654" lon="0.97296">
        <ele>95.31</ele>
        <time>2018-08-18T07:22:29Z</time>
      </trkpt>
      <trkpt lat="49.33652" lon="0.97289">
        <ele>94.83</ele>
        <time>2018-08-18T07:22:30Z</time>
      </trkpt>
      <trkpt lat="49.33662" lon="0.9723">
        <ele>92.42</ele>
        <time>2018-08-18T07:22:41Z</time>
      </trkpt>
      <trkpt lat="49.33664" lon="0.97192">
        <ele>91.94</ele>
        <time>2018-08-18T07:22:46Z</time>
      </trkpt>
      <trkpt lat="49.33671" lon="0.97173">
        <ele>90.98</ele>
        <time>2018-08-18T07:22:49Z</time>
      </trkpt>
      <trkpt lat="49.33681" lon="0.97143">
        <ele>92.42</ele>
        <time>2018-08-18T07:22:54Z</time>
      </trkpt>
      <trkpt lat="49.33683" lon="0.97106">
        <ele>91.94</ele>
        <time>2018-08-18T07:23:01Z</time>
      </trkpt>
      <trkpt lat="49.33691" lon="0.97071">
        <ele>92.42</ele>
        <time>2018-08-18T07:23:07Z</time>
      </trkpt>
      <trkpt lat="49.33702" lon="0.97027">
        <ele>90.5</ele>
        <time>2018-08-18T07:23:14Z</time>
      </trkpt>
      <trkpt lat="49.33706" lon="0.97002">
        <ele>91.94</ele>
        <time>2018-08-18T07:23:18Z</time>
      </trkpt>
      <trkpt lat="49.33713" lon="0.96978">
        <ele>90.98</ele>
        <time>2018-08-18T07:23:22Z</time>
      </trkpt>
      <trkpt lat="49.33713" lon="0.96954">
        <ele>89.54</ele>
        <time>2018-08-18T07:23:25Z</time>
      </trkpt>
      <trkpt lat="49.33714" lon="0.96947">
        <ele>89.54</ele>
        <time>2018-08-18T07:23:26Z</time>
      </trkpt>
      <trkpt lat="49.33717" lon="0.9689">
        <ele>89.06</ele>
        <time>2018-08-18T07:23:34Z</time>
      </trkpt>
      <trkpt lat="49.33717" lon="0.96872">
        <ele>88.1</ele>
        <time>2018-08-18T07:23:36Z</time>
      </trkpt>
      <trkpt lat="49.3372" lon="0.96846">
        <ele>88.58</ele>
        <time>2018-08-18T07:23:39Z</time>
      </trkpt>
      <trkpt lat="49.33722" lon="0.96838">
        <ele>88.1</ele>
        <time>2018-08-18T07:23:40Z</time>
      </trkpt>
      <trkpt lat="49.33727" lon="0.96811">
        <ele>88.58</ele>
        <time>2018-08-18T07:23:44Z</time>
      </trkpt>
      <trkpt lat="49.33729" lon="0.96806">
        <ele>88.1</ele>
        <time>2018-08-18T07:23:45Z</time>
      </trkpt>
      <trkpt lat="49.33729" lon="0.968">
        <ele>88.1</ele>
        <time>2018-08-18T07:23:46Z</time>
      </trkpt>
      <trkpt lat="49.33729" lon="0.96796">
        <ele>88.58</ele>
        <time>2018-08-18T07:23:47Z</time>
      </trkpt>
      <trkpt lat="49.33729" lon="0.96792">
        <ele>88.1</ele>
        <time>2018-08-18T07:23:48Z</time>
      </trkpt>
      <trkpt lat="49.3373" lon="0.96789">
        <ele>88.1</ele>
        <time>2018-08-18T07:23:49Z</time>
      </trkpt>
      <trkpt lat="49.33727" lon="0.96735">
        <ele>87.62</ele>
        <time>2018-08-18T07:23:56Z</time>
      </trkpt>
      <trkpt lat="49.33719" lon="0.96691">
        <ele>86.66</ele>
        <time>2018-08-18T07:24:01Z</time>
      </trkpt>
      <trkpt lat="49.33715" lon="0.9666">
        <ele>85.69</ele>
        <time>2018-08-18T07:24:06Z</time>
      </trkpt>
      <trkpt lat="49.33715" lon="0.96652">
        <ele>85.69</ele>
        <time>2018-08-18T07:24:07Z</time>
      </trkpt>
      <trkpt lat="49.33716" lon="0.96644">
        <ele>86.18</ele>
        <time>2018-08-18T07:24:08Z</time>
      </trkpt>
      <trkpt lat="49.33717" lon="0.96637">
        <ele>86.66</ele>
        <time>2018-08-18T07:24:09Z</time>
      </trkpt>
      <trkpt lat="49.33718" lon="0.9663">
        <ele>87.14</ele>
        <time>2018-08-18T07:24:10Z</time>
      </trkpt>
      <trkpt lat="49.3372" lon="0.96624">
        <ele>87.62</ele>
        <time>2018-08-18T07:24:11Z</time>
      </trkpt>
      <trkpt lat="49.3372" lon="0.96616">
        <ele>87.62</ele>
        <time>2018-08-18T07:24:12Z</time>
      </trkpt>
      <trkpt lat="49.3372" lon="0.96608">
        <ele>88.1</ele>
        <time>2018-08-18T07:24:13Z</time>
      </trkpt>
      <trkpt lat="49.3372" lon="0.96602">
        <ele>88.1</ele>
        <time>2018-08-18T07:24:14Z</time>
      </trkpt>
      <trkpt lat="49.3372" lon="0.96596">
        <ele>88.1</ele>
        <time>2018-08-18T07:24:15Z</time>
      </trkpt>
      <trkpt lat="49.33721" lon="0.96591">
        <ele>89.06</ele>
        <time>2018-08-18T07:24:16Z</time>
      </trkpt>
      <trkpt lat="49.3372" lon="0.96586">
        <ele>89.06</ele>
        <time>2018-08-18T07:24:17Z</time>
      </trkpt>
      <trkpt lat="49.3372" lon="0.9658">
        <ele>89.06</ele>
        <time>2018-08-18T07:24:18Z</time>
      </trkpt>
      <trkpt lat="49.33718" lon="0.9654">
        <ele>90.02</ele>
        <time>2018-08-18T07:24:25Z</time>
      </trkpt>
      <trkpt lat="49.33719" lon="0.96537">
        <ele>90.5</ele>
        <time>2018-08-18T07:24:26Z</time>
      </trkpt>
      <trkpt lat="49.3372" lon="0.96533">
        <ele>90.5</ele>
        <time>2018-08-18T07:24:28Z</time>
      </trkpt>
      <trkpt lat="49.3372" lon="0.96531">
        <ele>90.02</ele>
        <time>2018-08-18T07:24:29Z</time>
      </trkpt>
      <trkpt lat="49.33718" lon="0.96527">
        <ele>89.54</ele>
        <time>2018-08-18T07:24:30Z</time>
      </trkpt>
      <trkpt lat="49.3372" lon="0.96521">
        <ele>88.58</ele>
        <time>2018-08-18T07:24:32Z</time>
      </trkpt>
      <trkpt lat="49.33723" lon="0.96518">
        <ele>88.58</ele>
        <time>2018-08-18T07:24:33Z</time>
      </trkpt>
      <trkpt lat="49.33725" lon="0.96516">
        <ele>88.1</ele>
        <time>2018-08-18T07:24:34Z</time>
      </trkpt>
      <trkpt lat="49.33728" lon="0.96513">
        <ele>88.1</ele>
        <time>2018-08-18T07:24:35Z</time>
      </trkpt>
      <trkpt lat="49.33749" lon="0.96497">
        <ele>90.02</ele>
        <time>2018-08-18T07:24:41Z</time>
      </trkpt>
      <trkpt lat="49.33752" lon="0.96484">
        <ele>91.94</ele>
        <time>2018-08-18T07:24:43Z</time>
      </trkpt>
      <trkpt lat="49.33762" lon="0.96465">
        <ele>93.39</ele>
        <time>2018-08-18T07:24:49Z</time>
      </trkpt>
      <trkpt lat="49.33772" lon="0.96485">
        <ele>97.23</ele>
        <time>2018-08-18T07:24:59Z</time>
      </trkpt>
      <trkpt lat="49.33773" lon="0.96513">
        <ele>98.67</ele>
        <time>2018-08-18T07:25:09Z</time>
      </trkpt>
      <trkpt lat="49.3378" lon="0.96505">
        <ele>100.11</ele>
        <time>2018-08-18T07:25:16Z</time>
      </trkpt>
      <trkpt lat="49.33788" lon="0.96508">
        <ele>101.56</ele>
        <time>2018-08-18T07:25:22Z</time>
      </trkpt>
      <trkpt lat="49.33794" lon="0.96525">
        <ele>103.48</ele>
        <time>2018-08-18T07:25:30Z</time>
      </trkpt>
      <trkpt lat="49.33795" lon="0.96539">
        <ele>103.48</ele>
        <time>2018-08-18T07:25:34Z</time>
      </trkpt>
      <trkpt lat="49.33792" lon="0.96548">
        <ele>103.48</ele>
        <time>2018-08-18T07:25:36Z</time>
      </trkpt>
      <trkpt lat="49.33791" lon="0.96552">
        <ele>103.48</ele>
        <time>2018-08-18T07:25:37Z</time>
      </trkpt>
      <trkpt lat="49.3379" lon="0.96555">
        <ele>103.48</ele>
        <time>2018-08-18T07:25:38Z</time>
      </trkpt>
      <trkpt lat="49.33795" lon="0.96569">
        <ele>104.44</ele>
        <time>2018-08-18T07:25:43Z</time>
      </trkpt>
      <trkpt lat="49.33796" lon="0.96569">
        <ele>104.44</ele>
        <time>2018-08-18T07:25:44Z</time>
      </trkpt>
      <trkpt lat="49.33799" lon="0.96564">
        <ele>105.4</ele>
        <time>2018-08-18T07:25:48Z</time>
      </trkpt>
      <trkpt lat="49.33802" lon="0.96566">
        <ele>105.88</ele>
        <time>2018-08-18T07:25:50Z</time>
      </trkpt>
      <trkpt lat="49.33805" lon="0.9657">
        <ele>106.36</ele>
        <time>2018-08-18T07:25:52Z</time>
      </trkpt>
      <trkpt lat="49.33806" lon="0.96589">
        <ele>106.84</ele>
        <time>2018-08-18T07:25:59Z</time>
      </trkpt>
      <trkpt lat="49.33803" lon="0.96599">
        <ele>105.88</ele>
        <time>2018-08-18T07:26:01Z</time>
      </trkpt>
      <trkpt lat="49.33804" lon="0.96637">
        <ele>105.4</ele>
        <time>2018-08-18T07:26:09Z</time>
      </trkpt>
      <trkpt lat="49.33803" lon="0.96647">
        <ele>104.92</ele>
        <time>2018-08-18T07:26:11Z</time>
      </trkpt>
      <trkpt lat="49.33804" lon="0.96674">
        <ele>104.44</ele>
        <time>2018-08-18T07:26:16Z</time>
      </trkpt>
      <trkpt lat="49.33802" lon="0.96689">
        <ele>103.96</ele>
        <time>2018-08-18T07:26:19Z</time>
      </trkpt>
      <trkpt lat="49.33807" lon="0.96712">
        <ele>104.92</ele>
        <time>2018-08-18T07:26:25Z</time>
      </trkpt>
      <trkpt lat="49.33809" lon="0.96723">
        <ele>104.92</ele>
        <time>2018-08-18T07:26:28Z</time>
      </trkpt>
      <trkpt lat="49.33813" lon="0.9672">
        <ele>105.4</ele>
        <time>2018-08-18T07:26:32Z</time>
      </trkpt>
      <trkpt lat="49.33816" lon="0.96704">
        <ele>105.4</ele>
        <time>2018-08-18T07:26:36Z</time>
      </trkpt>
      <trkpt lat="49.33824" lon="0.96693">
        <ele>105.4</ele>
        <time>2018-08-18T07:26:41Z</time>
      </trkpt>
      <trkpt lat="49.33829" lon="0.96673">
        <ele>105.4</ele>
        <time>2018-08-18T07:26:44Z</time>
      </trkpt>
      <trkpt lat="49.33828" lon="0.96668">
        <ele>105.88</ele>
        <time>2018-08-18T07:26:45Z</time>
      </trkpt>
      <trkpt lat="49.33827" lon="0.96661">
        <ele>105.88</ele>
        <time>2018-08-18T07:26:47Z</time>
      </trkpt>
      <trkpt lat="49.33827" lon="0.96637">
        <ele>106.84</ele>
        <time>2018-08-18T07:26:53Z</time>
      </trkpt>
      <trkpt lat="49.33829" lon="0.96628">
        <ele>107.32</ele>
        <time>2018-08-18T07:26:56Z</time>
      </trkpt>
      <trkpt lat="49.3383" lon="0.96611">
        <ele>107.81</ele>
        <time>2018-08-18T07:27:01Z</time>
      </trkpt>
      <trkpt lat="49.33834" lon="0.96605">
        <ele>107.81</ele>
        <time>2018-08-18T07:27:03Z</time>
      </trkpt>
      <trkpt lat="49.33838" lon="0.96589">
        <ele>108.29</ele>
        <time>2018-08-18T07:27:06Z</time>
      </trkpt>
      <trkpt lat="49.33842" lon="0.96576">
        <ele>108.29</ele>
        <time>2018-08-18T07:27:08Z</time>
      </trkpt>
      <trkpt lat="49.33842" lon="0.9657">
        <ele>108.77</ele>
        <time>2018-08-18T07:27:09Z</time>
      </trkpt>
      <trkpt lat="49.33841" lon="0.96566">
        <ele>108.77</ele>
        <time>2018-08-18T07:27:10Z</time>
      </trkpt>
      <trkpt lat="49.33839" lon="0.96565">
        <ele>108.77</ele>
        <time>2018-08-18T07:27:11Z</time>
      </trkpt>
      <trkpt lat="49.33837" lon="0.96562">
        <ele>108.29</ele>
        <time>2018-08-18T07:27:12Z</time>
      </trkpt>
      <trkpt lat="49.33837" lon="0.96555">
        <ele>108.29</ele>
        <time>2018-08-18T07:27:14Z</time>
      </trkpt>
      <trkpt lat="49.33836" lon="0.96542">
        <ele>108.29</ele>
        <time>2018-08-18T07:27:17Z</time>
      </trkpt>
      <trkpt lat="49.33846" lon="0.96521">
        <ele>107.81</ele>
        <time>2018-08-18T07:27:22Z</time>
      </trkpt>
      <trkpt lat="49.33848" lon="0.96484">
        <ele>104.92</ele>
        <time>2018-08-18T07:27:28Z</time>
      </trkpt>
      <trkpt lat="49.33851" lon="0.96477">
        <ele>104.44</ele>
        <time>2018-08-18T07:27:29Z</time>
      </trkpt>
      <trkpt lat="49.33854" lon="0.96472">
        <ele>104.92</ele>
        <time>2018-08-18T07:27:30Z</time>
      </trkpt>
      <trkpt lat="49.33856" lon="0.96465">
        <ele>104.44</ele>
        <time>2018-08-18T07:27:31Z</time>
      </trkpt>
      <trkpt lat="49.33858" lon="0.9646">
        <ele>103.96</ele>
        <time>2018-08-18T07:27:32Z</time>
      </trkpt>
      <trkpt lat="49.33861" lon="0.96453">
        <ele>103.48</ele>
        <time>2018-08-18T07:27:33Z</time>
      </trkpt>
      <trkpt lat="49.33863" lon="0.96449">
        <ele>103</ele>
        <time>2018-08-18T07:27:34Z</time>
      </trkpt>
      <trkpt lat="49.33866" lon="0.96445">
        <ele>103</ele>
        <time>2018-08-18T07:27:35Z</time>
      </trkpt>
      <trkpt lat="49.33868" lon="0.96441">
        <ele>103</ele>
        <time>2018-08-18T07:27:36Z</time>
      </trkpt>
      <trkpt lat="49.3387" lon="0.96437">
        <ele>102.52</ele>
        <time>2018-08-18T07:27:37Z</time>
      </trkpt>
      <trkpt lat="49.33872" lon="0.96432">
        <ele>101.56</ele>
        <time>2018-08-18T07:27:38Z</time>
      </trkpt>
      <trkpt lat="49.33874" lon="0.96427">
        <ele>100.6</ele>
        <time>2018-08-18T07:27:39Z</time>
      </trkpt>
      <trkpt lat="49.33875" lon="0.96422">
        <ele>99.15</ele>
        <time>2018-08-18T07:27:40Z</time>
      </trkpt>
      <trkpt lat="49.33878" lon="0.96413">
        <ele>98.67</ele>
        <time>2018-08-18T07:27:41Z</time>
      </trkpt>
      <trkpt lat="49.33885" lon="0.96383">
        <ele>95.31</ele>
        <time>2018-08-18T07:27:45Z</time>
      </trkpt>
      <trkpt lat="49.33882" lon="0.96377">
        <ele>93.87</ele>
        <time>2018-08-18T07:27:46Z</time>
      </trkpt>
      <trkpt lat="49.33879" lon="0.96371">
        <ele>93.39</ele>
        <time>2018-08-18T07:27:47Z</time>
      </trkpt>
      <trkpt lat="49.33877" lon="0.96366">
        <ele>92.42</ele>
        <time>2018-08-18T07:27:48Z</time>
      </trkpt>
      <trkpt lat="49.33878" lon="0.96361">
        <ele>91.94</ele>
        <time>2018-08-18T07:27:49Z</time>
      </trkpt>
      <trkpt lat="49.33879" lon="0.96355">
        <ele>90.98</ele>
        <time>2018-08-18T07:27:50Z</time>
      </trkpt>
      <trkpt lat="49.33882" lon="0.96349">
        <ele>90.02</ele>
        <time>2018-08-18T07:27:51Z</time>
      </trkpt>
      <trkpt lat="49.33884" lon="0.96343">
        <ele>89.06</ele>
        <time>2018-08-18T07:27:52Z</time>
      </trkpt>
      <trkpt lat="49.33891" lon="0.9632">
        <ele>87.14</ele>
        <time>2018-08-18T07:27:55Z</time>
      </trkpt>
      <trkpt lat="49.33892" lon="0.96313">
        <ele>86.18</ele>
        <time>2018-08-18T07:27:56Z</time>
      </trkpt>
      <trkpt lat="49.33892" lon="0.96308">
        <ele>85.21</ele>
        <time>2018-08-18T07:27:57Z</time>
      </trkpt>
      <trkpt lat="49.33892" lon="0.96303">
        <ele>84.73</ele>
        <time>2018-08-18T07:27:58Z</time>
      </trkpt>
      <trkpt lat="49.33891" lon="0.96301">
        <ele>84.25</ele>
        <time>2018-08-18T07:27:59Z</time>
      </trkpt>
      <trkpt lat="49.33889" lon="0.963">
        <ele>83.77</ele>
        <time>2018-08-18T07:28:00Z</time>
      </trkpt>
      <trkpt lat="49.33885" lon="0.96299">
        <ele>82.81</ele>
        <time>2018-08-18T07:28:01Z</time>
      </trkpt>
      <trkpt lat="49.33881" lon="0.96297">
        <ele>81.85</ele>
        <time>2018-08-18T07:28:02Z</time>
      </trkpt>
      <trkpt lat="49.33869" lon="0.96295">
        <ele>79.93</ele>
        <time>2018-08-18T07:28:04Z</time>
      </trkpt>
      <trkpt lat="49.33862" lon="0.96296">
        <ele>79.45</ele>
        <time>2018-08-18T07:28:05Z</time>
      </trkpt>
      <trkpt lat="49.33856" lon="0.96298">
        <ele>78.48</ele>
        <time>2018-08-18T07:28:06Z</time>
      </trkpt>
      <trkpt lat="49.3385" lon="0.96298">
        <ele>78</ele>
        <time>2018-08-18T07:28:07Z</time>
      </trkpt>
      <trkpt lat="49.33845" lon="0.96299">
        <ele>78</ele>
        <time>2018-08-18T07:28:08Z</time>
      </trkpt>
      <trkpt lat="49.33839" lon="0.963">
        <ele>77.52</ele>
        <time>2018-08-18T07:28:09Z</time>
      </trkpt>
      <trkpt lat="49.33834" lon="0.963">
        <ele>77.52</ele>
        <time>2018-08-18T07:28:10Z</time>
      </trkpt>
      <trkpt lat="49.3383" lon="0.96297">
        <ele>77.52</ele>
        <time>2018-08-18T07:28:11Z</time>
      </trkpt>
      <trkpt lat="49.33821" lon="0.96276">
        <ele>77.04</ele>
        <time>2018-08-18T07:28:21Z</time>
      </trkpt>
      <trkpt lat="49.33825" lon="0.9626">
        <ele>76.56</ele>
        <time>2018-08-18T07:28:38Z</time>
      </trkpt>
      <trkpt lat="49.33827" lon="0.96255">
        <ele>75.12</ele>
        <time>2018-08-18T07:28:39Z</time>
      </trkpt>
      <trkpt lat="49.33831" lon="0.96249">
        <ele>74.16</ele>
        <time>2018-08-18T07:28:40Z</time>
      </trkpt>
      <trkpt lat="49.33844" lon="0.96232">
        <ele>71.76</ele>
        <time>2018-08-18T07:28:43Z</time>
      </trkpt>
      <trkpt lat="49.33849" lon="0.96227">
        <ele>71.27</ele>
        <time>2018-08-18T07:28:44Z</time>
      </trkpt>
      <trkpt lat="49.33858" lon="0.96214">
        <ele>69.83</ele>
        <time>2018-08-18T07:28:46Z</time>
      </trkpt>
      <trkpt lat="49.3386" lon="0.96207">
        <ele>69.83</ele>
        <time>2018-08-18T07:28:47Z</time>
      </trkpt>
      <trkpt lat="49.33861" lon="0.96201">
        <ele>69.35</ele>
        <time>2018-08-18T07:28:48Z</time>
      </trkpt>
      <trkpt lat="49.33861" lon="0.96195">
        <ele>68.87</ele>
        <time>2018-08-18T07:28:49Z</time>
      </trkpt>
      <trkpt lat="49.3386" lon="0.96189">
        <ele>69.35</ele>
        <time>2018-08-18T07:28:50Z</time>
      </trkpt>
      <trkpt lat="49.33861" lon="0.96183">
        <ele>69.35</ele>
        <time>2018-08-18T07:28:51Z</time>
      </trkpt>
      <trkpt lat="49.33863" lon="0.96177">
        <ele>68.39</ele>
        <time>2018-08-18T07:28:52Z</time>
      </trkpt>
      <trkpt lat="49.33864" lon="0.9617">
        <ele>67.91</ele>
        <time>2018-08-18T07:28:53Z</time>
      </trkpt>
      <trkpt lat="49.33865" lon="0.96161">
        <ele>67.43</ele>
        <time>2018-08-18T07:28:54Z</time>
      </trkpt>
      <trkpt lat="49.33867" lon="0.96142">
        <ele>65.51</ele>
        <time>2018-08-18T07:28:56Z</time>
      </trkpt>
      <trkpt lat="49.33867" lon="0.96133">
        <ele>64.55</ele>
        <time>2018-08-18T07:28:57Z</time>
      </trkpt>
      <trkpt lat="49.33866" lon="0.96125">
        <ele>64.55</ele>
        <time>2018-08-18T07:28:58Z</time>
      </trkpt>
      <trkpt lat="49.33864" lon="0.96117">
        <ele>63.58</ele>
        <time>2018-08-18T07:28:59Z</time>
      </trkpt>
      <trkpt lat="49.33863" lon="0.96109">
        <ele>63.1</ele>
        <time>2018-08-18T07:29:00Z</time>
      </trkpt>
      <trkpt lat="49.33864" lon="0.96104">
        <ele>63.1</ele>
        <time>2018-08-18T07:29:01Z</time>
      </trkpt>
      <trkpt lat="49.33865" lon="0.961">
        <ele>63.1</ele>
        <time>2018-08-18T07:29:02Z</time>
      </trkpt>
      <trkpt lat="49.33865" lon="0.96098">
        <ele>64.07</ele>
        <time>2018-08-18T07:29:03Z</time>
      </trkpt>
      <trkpt lat="49.33866" lon="0.96093">
        <ele>65.03</ele>
        <time>2018-08-18T07:29:05Z</time>
      </trkpt>
      <trkpt lat="49.33865" lon="0.9609">
        <ele>65.03</ele>
        <time>2018-08-18T07:29:06Z</time>
      </trkpt>
      <trkpt lat="49.33863" lon="0.96066">
        <ele>64.55</ele>
        <time>2018-08-18T07:29:12Z</time>
      </trkpt>
      <trkpt lat="49.33864" lon="0.96062">
        <ele>65.03</ele>
        <time>2018-08-18T07:29:13Z</time>
      </trkpt>
      <trkpt lat="49.33862" lon="0.96053">
        <ele>65.99</ele>
        <time>2018-08-18T07:29:14Z</time>
      </trkpt>
      <trkpt lat="49.33865" lon="0.96042">
        <ele>67.43</ele>
        <time>2018-08-18T07:29:17Z</time>
      </trkpt>
      <trkpt lat="49.33865" lon="0.96039">
        <ele>67.43</ele>
        <time>2018-08-18T07:29:18Z</time>
      </trkpt>
      <trkpt lat="49.33866" lon="0.96035">
        <ele>67.91</ele>
        <time>2018-08-18T07:29:19Z</time>
      </trkpt>
      <trkpt lat="49.33867" lon="0.96031">
        <ele>67.91</ele>
        <time>2018-08-18T07:29:20Z</time>
      </trkpt>
      <trkpt lat="49.33868" lon="0.96028">
        <ele>68.87</ele>
        <time>2018-08-18T07:29:21Z</time>
      </trkpt>
      <trkpt lat="49.33869" lon="0.96025">
        <ele>68.87</ele>
        <time>2018-08-18T07:29:22Z</time>
      </trkpt>
      <trkpt lat="49.3387" lon="0.95983">
        <ele>70.79</ele>
        <time>2018-08-18T07:29:33Z</time>
      </trkpt>
      <trkpt lat="49.33863" lon="0.95916">
        <ele>71.27</ele>
        <time>2018-08-18T07:29:46Z</time>
      </trkpt>
      <trkpt lat="49.33863" lon="0.95898">
        <ele>71.27</ele>
        <time>2018-08-18T07:29:50Z</time>
      </trkpt>
      <trkpt lat="49.33863" lon="0.95893">
        <ele>71.27</ele>
        <time>2018-08-18T07:29:51Z</time>
      </trkpt>
      <trkpt lat="49.33862" lon="0.95882">
        <ele>71.76</ele>
        <time>2018-08-18T07:29:53Z</time>
      </trkpt>
      <trkpt lat="49.33861" lon="0.95877">
        <ele>72.24</ele>
        <time>2018-08-18T07:29:54Z</time>
      </trkpt>
      <trkpt lat="49.3386" lon="0.95869">
        <ele>72.24</ele>
        <time>2018-08-18T07:29:55Z</time>
      </trkpt>
      <trkpt lat="49.3386" lon="0.95785">
        <ele>73.68</ele>
        <time>2018-08-18T07:30:08Z</time>
      </trkpt>
      <trkpt lat="49.3386" lon="0.95761">
        <ele>74.64</ele>
        <time>2018-08-18T07:30:12Z</time>
      </trkpt>
      <trkpt lat="49.3386" lon="0.95757">
        <ele>74.64</ele>
        <time>2018-08-18T07:30:13Z</time>
      </trkpt>
      <trkpt lat="49.3386" lon="0.95752">
        <ele>75.12</ele>
        <time>2018-08-18T07:30:14Z</time>
      </trkpt>
      <trkpt lat="49.3386" lon="0.95747">
        <ele>75.6</ele>
        <time>2018-08-18T07:30:15Z</time>
      </trkpt>
      <trkpt lat="49.3386" lon="0.95743">
        <ele>76.56</ele>
        <time>2018-08-18T07:30:16Z</time>
      </trkpt>
      <trkpt lat="49.3386" lon="0.95739">
        <ele>77.04</ele>
        <time>2018-08-18T07:30:17Z</time>
      </trkpt>
      <trkpt lat="49.3386" lon="0.95733">
        <ele>77.04</ele>
        <time>2018-08-18T07:30:18Z</time>
      </trkpt>
      <trkpt lat="49.3386" lon="0.95728">
        <ele>77.52</ele>
        <time>2018-08-18T07:30:19Z</time>
      </trkpt>
      <trkpt lat="49.3386" lon="0.95723">
        <ele>78</ele>
        <time>2018-08-18T07:30:20Z</time>
      </trkpt>
      <trkpt lat="49.3386" lon="0.95719">
        <ele>78.48</ele>
        <time>2018-08-18T07:30:21Z</time>
      </trkpt>
      <trkpt lat="49.3386" lon="0.95715">
        <ele>78.48</ele>
        <time>2018-08-18T07:30:22Z</time>
      </trkpt>
      <trkpt lat="49.33861" lon="0.95713">
        <ele>78.97</ele>
        <time>2018-08-18T07:30:23Z</time>
      </trkpt>
      <trkpt lat="49.33862" lon="0.95711">
        <ele>79.45</ele>
        <time>2018-08-18T07:30:24Z</time>
      </trkpt>
      <trkpt lat="49.33863" lon="0.95708">
        <ele>79.45</ele>
        <time>2018-08-18T07:30:25Z</time>
      </trkpt>
      <trkpt lat="49.33862" lon="0.95702">
        <ele>79.93</ele>
        <time>2018-08-18T07:30:26Z</time>
      </trkpt>
      <trkpt lat="49.3386" lon="0.95697">
        <ele>79.93</ele>
        <time>2018-08-18T07:30:27Z</time>
      </trkpt>
      <trkpt lat="49.33859" lon="0.95692">
        <ele>80.41</ele>
        <time>2018-08-18T07:30:28Z</time>
      </trkpt>
      <trkpt lat="49.33859" lon="0.95687">
        <ele>80.41</ele>
        <time>2018-08-18T07:30:29Z</time>
      </trkpt>
      <trkpt lat="49.33859" lon="0.95684">
        <ele>80.89</ele>
        <time>2018-08-18T07:30:30Z</time>
      </trkpt>
      <trkpt lat="49.33859" lon="0.95675">
        <ele>81.37</ele>
        <time>2018-08-18T07:30:32Z</time>
      </trkpt>
      <trkpt lat="49.3386" lon="0.95672">
        <ele>81.85</ele>
        <time>2018-08-18T07:30:33Z</time>
      </trkpt>
      <trkpt lat="49.33861" lon="0.95668">
        <ele>81.85</ele>
        <time>2018-08-18T07:30:34Z</time>
      </trkpt>
      <trkpt lat="49.33862" lon="0.95665">
        <ele>82.33</ele>
        <time>2018-08-18T07:30:35Z</time>
      </trkpt>
      <trkpt lat="49.33864" lon="0.95661">
        <ele>82.81</ele>
        <time>2018-08-18T07:30:36Z</time>
      </trkpt>
      <trkpt lat="49.33865" lon="0.95658">
        <ele>83.77</ele>
        <time>2018-08-18T07:30:37Z</time>
      </trkpt>
      <trkpt lat="49.33868" lon="0.95645">
        <ele>84.73</ele>
        <time>2018-08-18T07:30:41Z</time>
      </trkpt>
      <trkpt lat="49.33868" lon="0.95642">
        <ele>85.21</ele>
        <time>2018-08-18T07:30:42Z</time>
      </trkpt>
      <trkpt lat="49.33867" lon="0.95639">
        <ele>85.69</ele>
        <time>2018-08-18T07:30:43Z</time>
      </trkpt>
      <trkpt lat="49.33867" lon="0.95637">
        <ele>86.18</ele>
        <time>2018-08-18T07:30:44Z</time>
      </trkpt>
      <trkpt lat="49.33866" lon="0.95634">
        <ele>86.66</ele>
        <time>2018-08-18T07:30:45Z</time>
      </trkpt>
      <trkpt lat="49.33864" lon="0.9562">
        <ele>86.66</ele>
        <time>2018-08-18T07:30:49Z</time>
      </trkpt>
      <trkpt lat="49.33864" lon="0.95617">
        <ele>86.66</ele>
        <time>2018-08-18T07:30:50Z</time>
      </trkpt>
      <trkpt lat="49.33863" lon="0.95613">
        <ele>86.66</ele>
        <time>2018-08-18T07:30:51Z</time>
      </trkpt>
      <trkpt lat="49.33862" lon="0.9561">
        <ele>86.66</ele>
        <time>2018-08-18T07:30:52Z</time>
      </trkpt>
      <trkpt lat="49.33861" lon="0.95607">
        <ele>86.66</ele>
        <time>2018-08-18T07:30:53Z</time>
      </trkpt>
      <trkpt lat="49.33858" lon="0.95595">
        <ele>86.66</ele>
        <time>2018-08-18T07:30:56Z</time>
      </trkpt>
      <trkpt lat="49.33857" lon="0.9559">
        <ele>87.14</ele>
        <time>2018-08-18T07:30:57Z</time>
      </trkpt>
      <trkpt lat="49.33855" lon="0.95585">
        <ele>87.14</ele>
        <time>2018-08-18T07:30:58Z</time>
      </trkpt>
      <trkpt lat="49.33854" lon="0.95581">
        <ele>87.14</ele>
        <time>2018-08-18T07:30:59Z</time>
      </trkpt>
      <trkpt lat="49.33852" lon="0.95576">
        <ele>87.14</ele>
        <time>2018-08-18T07:31:00Z</time>
      </trkpt>
      <trkpt lat="49.3384" lon="0.95543">
        <ele>87.62</ele>
        <time>2018-08-18T07:31:07Z</time>
      </trkpt>
      <trkpt lat="49.33837" lon="0.95539">
        <ele>87.62</ele>
        <time>2018-08-18T07:31:08Z</time>
      </trkpt>
      <trkpt lat="49.33834" lon="0.95535">
        <ele>87.62</ele>
        <time>2018-08-18T07:31:09Z</time>
      </trkpt>
      <trkpt lat="49.33832" lon="0.95532">
        <ele>88.1</ele>
        <time>2018-08-18T07:31:10Z</time>
      </trkpt>
      <trkpt lat="49.33832" lon="0.95528">
        <ele>88.1</ele>
        <time>2018-08-18T07:31:11Z</time>
      </trkpt>
      <trkpt lat="49.33831" lon="0.95523">
        <ele>88.1</ele>
        <time>2018-08-18T07:31:12Z</time>
      </trkpt>
      <trkpt lat="49.33826" lon="0.95433">
        <ele>89.54</ele>
        <time>2018-08-18T07:31:27Z</time>
      </trkpt>
      <trkpt lat="49.33828" lon="0.95408">
        <ele>90.02</ele>
        <time>2018-08-18T07:31:31Z</time>
      </trkpt>
      <trkpt lat="49.33826" lon="0.95397">
        <ele>90.02</ele>
        <time>2018-08-18T07:31:33Z</time>
      </trkpt>
      <trkpt lat="49.33825" lon="0.95391">
        <ele>90.02</ele>
        <time>2018-08-18T07:31:34Z</time>
      </trkpt>
      <trkpt lat="49.33826" lon="0.95385">
        <ele>90.02</ele>
        <time>2018-08-18T07:31:35Z</time>
      </trkpt>
      <trkpt lat="49.33826" lon="0.95379">
        <ele>90.02</ele>
        <time>2018-08-18T07:31:36Z</time>
      </trkpt>
      <trkpt lat="49.33826" lon="0.95373">
        <ele>90.5</ele>
        <time>2018-08-18T07:31:37Z</time>
      </trkpt>
      <trkpt lat="49.33826" lon="0.95368">
        <ele>90.5</ele>
        <time>2018-08-18T07:31:38Z</time>
      </trkpt>
      <trkpt lat="49.33822" lon="0.95312">
        <ele>90.98</ele>
        <time>2018-08-18T07:31:46Z</time>
      </trkpt>
      <trkpt lat="49.33822" lon="0.95306">
        <ele>90.98</ele>
        <time>2018-08-18T07:31:47Z</time>
      </trkpt>
      <trkpt lat="49.33821" lon="0.95299">
        <ele>91.46</ele>
        <time>2018-08-18T07:31:48Z</time>
      </trkpt>
      <trkpt lat="49.33821" lon="0.95293">
        <ele>91.46</ele>
        <time>2018-08-18T07:31:49Z</time>
      </trkpt>
      <trkpt lat="49.33813" lon="0.95205">
        <ele>93.39</ele>
        <time>2018-08-18T07:32:03Z</time>
      </trkpt>
      <trkpt lat="49.33808" lon="0.95134">
        <ele>94.35</ele>
        <time>2018-08-18T07:32:14Z</time>
      </trkpt>
      <trkpt lat="49.33814" lon="0.95105">
        <ele>94.83</ele>
        <time>2018-08-18T07:32:18Z</time>
      </trkpt>
      <trkpt lat="49.33845" lon="0.95052">
        <ele>95.79</ele>
        <time>2018-08-18T07:32:29Z</time>
      </trkpt>
      <trkpt lat="49.33869" lon="0.95028">
        <ele>96.75</ele>
        <time>2018-08-18T07:32:36Z</time>
      </trkpt>
      <trkpt lat="49.33886" lon="0.95018">
        <ele>98.19</ele>
        <time>2018-08-18T07:32:44Z</time>
      </trkpt>
      <trkpt lat="49.33898" lon="0.94967">
        <ele>98.19</ele>
        <time>2018-08-18T07:32:57Z</time>
      </trkpt>
      <trkpt lat="49.33904" lon="0.94936">
        <ele>95.31</ele>
        <time>2018-08-18T07:33:04Z</time>
      </trkpt>
      <trkpt lat="49.33906" lon="0.94909">
        <ele>94.83</ele>
        <time>2018-08-18T07:33:09Z</time>
      </trkpt>
      <trkpt lat="49.33911" lon="0.94856">
        <ele>98.19</ele>
        <time>2018-08-18T07:33:20Z</time>
      </trkpt>
      <trkpt lat="49.33911" lon="0.94845">
        <ele>98.19</ele>
        <time>2018-08-18T07:33:24Z</time>
      </trkpt>
      <trkpt lat="49.3391" lon="0.94818">
        <ele>100.11</ele>
        <time>2018-08-18T07:33:29Z</time>
      </trkpt>
      <trkpt lat="49.33912" lon="0.94803">
        <ele>102.04</ele>
        <time>2018-08-18T07:33:33Z</time>
      </trkpt>
      <trkpt lat="49.33915" lon="0.9478">
        <ele>103.48</ele>
        <time>2018-08-18T07:33:39Z</time>
      </trkpt>
      <trkpt lat="49.33901" lon="0.94769">
        <ele>103.48</ele>
        <time>2018-08-18T07:33:46Z</time>
      </trkpt>
      <trkpt lat="49.33898" lon="0.94767">
        <ele>103.96</ele>
        <time>2018-08-18T07:33:48Z</time>
      </trkpt>
      <trkpt lat="49.33892" lon="0.94736">
        <ele>105.4</ele>
        <time>2018-08-18T07:33:56Z</time>
      </trkpt>
      <trkpt lat="49.33895" lon="0.94725">
        <ele>106.36</ele>
        <time>2018-08-18T07:34:00Z</time>
      </trkpt>
      <trkpt lat="49.33896" lon="0.94723">
        <ele>106.84</ele>
        <time>2018-08-18T07:34:01Z</time>
      </trkpt>
      <trkpt lat="49.33899" lon="0.94707">
        <ele>107.81</ele>
        <time>2018-08-18T07:34:06Z</time>
      </trkpt>
      <trkpt lat="49.33899" lon="0.94691">
        <ele>108.29</ele>
        <time>2018-08-18T07:34:09Z</time>
      </trkpt>
      <trkpt lat="49.33897" lon="0.94674">
        <ele>108.77</ele>
        <time>2018-08-18T07:34:13Z</time>
      </trkpt>
      <trkpt lat="49.33899" lon="0.94657">
        <ele>109.73</ele>
        <time>2018-08-18T07:34:17Z</time>
      </trkpt>
      <trkpt lat="49.33897" lon="0.94643">
        <ele>110.69</ele>
        <time>2018-08-18T07:34:21Z</time>
      </trkpt>
      <trkpt lat="49.33892" lon="0.94642">
        <ele>110.69</ele>
        <time>2018-08-18T07:34:23Z</time>
      </trkpt>
      <trkpt lat="49.33885" lon="0.94627">
        <ele>110.69</ele>
        <time>2018-08-18T07:34:27Z</time>
      </trkpt>
      <trkpt lat="49.33881" lon="0.94623">
        <ele>111.17</ele>
        <time>2018-08-18T07:34:29Z</time>
      </trkpt>
      <trkpt lat="49.33877" lon="0.94635">
        <ele>110.69</ele>
        <time>2018-08-18T07:34:32Z</time>
      </trkpt>
      <trkpt lat="49.33871" lon="0.94664">
        <ele>109.25</ele>
        <time>2018-08-18T07:34:37Z</time>
      </trkpt>
      <trkpt lat="49.3387" lon="0.94671">
        <ele>108.77</ele>
        <time>2018-08-18T07:34:38Z</time>
      </trkpt>
      <trkpt lat="49.33869" lon="0.94678">
        <ele>108.29</ele>
        <time>2018-08-18T07:34:39Z</time>
      </trkpt>
      <trkpt lat="49.33868" lon="0.94686">
        <ele>107.32</ele>
        <time>2018-08-18T07:34:40Z</time>
      </trkpt>
      <trkpt lat="49.33867" lon="0.94702">
        <ele>106.36</ele>
        <time>2018-08-18T07:34:42Z</time>
      </trkpt>
      <trkpt lat="49.33865" lon="0.94709">
        <ele>105.88</ele>
        <time>2018-08-18T07:34:43Z</time>
      </trkpt>
      <trkpt lat="49.3386" lon="0.94737">
        <ele>103.96</ele>
        <time>2018-08-18T07:34:47Z</time>
      </trkpt>
      <trkpt lat="49.33859" lon="0.94744">
        <ele>103.48</ele>
        <time>2018-08-18T07:34:48Z</time>
      </trkpt>
      <trkpt lat="49.33858" lon="0.94752">
        <ele>103</ele>
        <time>2018-08-18T07:34:49Z</time>
      </trkpt>
      <trkpt lat="49.33857" lon="0.94756">
        <ele>102.52</ele>
        <time>2018-08-18T07:34:50Z</time>
      </trkpt>
      <trkpt lat="49.33855" lon="0.94758">
        <ele>102.52</ele>
        <time>2018-08-18T07:34:51Z</time>
      </trkpt>
      <trkpt lat="49.33853" lon="0.94761">
        <ele>102.04</ele>
        <time>2018-08-18T07:34:52Z</time>
      </trkpt>
      <trkpt lat="49.33849" lon="0.94764">
        <ele>101.56</ele>
        <time>2018-08-18T07:34:53Z</time>
      </trkpt>
      <trkpt lat="49.33844" lon="0.94766">
        <ele>101.08</ele>
        <time>2018-08-18T07:34:54Z</time>
      </trkpt>
      <trkpt lat="49.33836" lon="0.94765">
        <ele>100.11</ele>
        <time>2018-08-18T07:34:56Z</time>
      </trkpt>
      <trkpt lat="49.33822" lon="0.94761">
        <ele>99.15</ele>
        <time>2018-08-18T07:34:59Z</time>
      </trkpt>
      <trkpt lat="49.3381" lon="0.94759">
        <ele>98.67</ele>
        <time>2018-08-18T07:35:02Z</time>
      </trkpt>
      <trkpt lat="49.33785" lon="0.94761">
        <ele>96.75</ele>
        <time>2018-08-18T07:35:08Z</time>
      </trkpt>
      <trkpt lat="49.33758" lon="0.94764">
        <ele>93.39</ele>
        <time>2018-08-18T07:35:12Z</time>
      </trkpt>
      <trkpt lat="49.33726" lon="0.94757">
        <ele>91.46</ele>
        <time>2018-08-18T07:35:19Z</time>
      </trkpt>
      <trkpt lat="49.33723" lon="0.94755">
        <ele>90.5</ele>
        <time>2018-08-18T07:35:20Z</time>
      </trkpt>
      <trkpt lat="49.33706" lon="0.94746">
        <ele>88.58</ele>
        <time>2018-08-18T07:35:23Z</time>
      </trkpt>
      <trkpt lat="49.33698" lon="0.94737">
        <ele>88.1</ele>
        <time>2018-08-18T07:35:25Z</time>
      </trkpt>
      <trkpt lat="49.33672" lon="0.94705">
        <ele>84.25</ele>
        <time>2018-08-18T07:35:31Z</time>
      </trkpt>
      <trkpt lat="49.33667" lon="0.94698">
        <ele>84.25</ele>
        <time>2018-08-18T07:35:32Z</time>
      </trkpt>
      <trkpt lat="49.33663" lon="0.94692">
        <ele>83.77</ele>
        <time>2018-08-18T07:35:33Z</time>
      </trkpt>
      <trkpt lat="49.33649" lon="0.94678">
        <ele>80.89</ele>
        <time>2018-08-18T07:35:36Z</time>
      </trkpt>
      <trkpt lat="49.3363" lon="0.94661">
        <ele>75.6</ele>
        <time>2018-08-18T07:35:40Z</time>
      </trkpt>
      <trkpt lat="49.33618" lon="0.94647">
        <ele>71.76</ele>
        <time>2018-08-18T07:35:43Z</time>
      </trkpt>
      <trkpt lat="49.33614" lon="0.9464">
        <ele>70.79</ele>
        <time>2018-08-18T07:35:45Z</time>
      </trkpt>
      <trkpt lat="49.3361" lon="0.9463">
        <ele>72.24</ele>
        <time>2018-08-18T07:36:02Z</time>
      </trkpt>
      <trkpt lat="49.33612" lon="0.94622">
        <ele>72.72</ele>
        <time>2018-08-18T07:36:06Z</time>
      </trkpt>
      <trkpt lat="49.33619" lon="0.94607">
        <ele>76.08</ele>
        <time>2018-08-18T07:36:13Z</time>
      </trkpt>
      <trkpt lat="49.33622" lon="0.94597">
        <ele>77.52</ele>
        <time>2018-08-18T07:36:17Z</time>
      </trkpt>
      <trkpt lat="49.33625" lon="0.94588">
        <ele>78.97</ele>
        <time>2018-08-18T07:36:21Z</time>
      </trkpt>
      <trkpt lat="49.33627" lon="0.94582">
        <ele>79.45</ele>
        <time>2018-08-18T07:36:23Z</time>
      </trkpt>
      <trkpt lat="49.33638" lon="0.94561">
        <ele>82.81</ele>
        <time>2018-08-18T07:36:32Z</time>
      </trkpt>
      <trkpt lat="49.33642" lon="0.94544">
        <ele>85.21</ele>
        <time>2018-08-18T07:36:38Z</time>
      </trkpt>
      <trkpt lat="49.33645" lon="0.94534">
        <ele>86.66</ele>
        <time>2018-08-18T07:36:43Z</time>
      </trkpt>
      <trkpt lat="49.33646" lon="0.94529">
        <ele>87.14</ele>
        <time>2018-08-18T07:36:45Z</time>
      </trkpt>
      <trkpt lat="49.33656" lon="0.94504">
        <ele>90.02</ele>
        <time>2018-08-18T07:36:56Z</time>
      </trkpt>
      <trkpt lat="49.33656" lon="0.94502">
        <ele>90.5</ele>
        <time>2018-08-18T07:36:57Z</time>
      </trkpt>
      <trkpt lat="49.3366" lon="0.94471">
        <ele>93.39</ele>
        <time>2018-08-18T07:37:10Z</time>
      </trkpt>
      <trkpt lat="49.33659" lon="0.94462">
        <ele>94.35</ele>
        <time>2018-08-18T07:37:14Z</time>
      </trkpt>
      <trkpt lat="49.33658" lon="0.94445">
        <ele>95.79</ele>
        <time>2018-08-18T07:37:21Z</time>
      </trkpt>
      <trkpt lat="49.3366" lon="0.94438">
        <ele>96.75</ele>
        <time>2018-08-18T07:37:24Z</time>
      </trkpt>
      <trkpt lat="49.33661" lon="0.94431">
        <ele>97.23</ele>
        <time>2018-08-18T07:37:26Z</time>
      </trkpt>
      <trkpt lat="49.33663" lon="0.94426">
        <ele>97.71</ele>
        <time>2018-08-18T07:37:28Z</time>
      </trkpt>
      <trkpt lat="49.33663" lon="0.94412">
        <ele>98.67</ele>
        <time>2018-08-18T07:37:34Z</time>
      </trkpt>
      <trkpt lat="49.33664" lon="0.94407">
        <ele>99.15</ele>
        <time>2018-08-18T07:37:36Z</time>
      </trkpt>
      <trkpt lat="49.33665" lon="0.94398">
        <ele>99.63</ele>
        <time>2018-08-18T07:37:39Z</time>
      </trkpt>
      <trkpt lat="49.33665" lon="0.94393">
        <ele>100.11</ele>
        <time>2018-08-18T07:37:41Z</time>
      </trkpt>
      <trkpt lat="49.33667" lon="0.94384">
        <ele>100.6</ele>
        <time>2018-08-18T07:37:45Z</time>
      </trkpt>
      <trkpt lat="49.33671" lon="0.94344">
        <ele>102.52</ele>
        <time>2018-08-18T07:38:02Z</time>
      </trkpt>
      <trkpt lat="49.33675" lon="0.94331">
        <ele>104.44</ele>
        <time>2018-08-18T07:38:08Z</time>
      </trkpt>
      <trkpt lat="49.33674" lon="0.94317">
        <ele>104.92</ele>
        <time>2018-08-18T07:38:12Z</time>
      </trkpt>
      <trkpt lat="49.33673" lon="0.943">
        <ele>105.88</ele>
        <time>2018-08-18T07:38:17Z</time>
      </trkpt>
      <trkpt lat="49.33669" lon="0.94247">
        <ele>106.84</ele>
        <time>2018-08-18T07:38:28Z</time>
      </trkpt>
      <trkpt lat="49.33666" lon="0.94232">
        <ele>107.32</ele>
        <time>2018-08-18T07:38:31Z</time>
      </trkpt>
      <trkpt lat="49.33667" lon="0.94196">
        <ele>108.77</ele>
        <time>2018-08-18T07:38:40Z</time>
      </trkpt>
      <trkpt lat="49.3367" lon="0.9418">
        <ele>109.73</ele>
        <time>2018-08-18T07:38:45Z</time>
      </trkpt>
      <trkpt lat="49.33671" lon="0.94166">
        <ele>110.21</ele>
        <time>2018-08-18T07:38:49Z</time>
      </trkpt>
      <trkpt lat="49.33674" lon="0.94162">
        <ele>110.69</ele>
        <time>2018-08-18T07:38:51Z</time>
      </trkpt>
      <trkpt lat="49.33678" lon="0.94159">
        <ele>111.17</ele>
        <time>2018-08-18T07:38:53Z</time>
      </trkpt>
      <trkpt lat="49.33679" lon="0.94156">
        <ele>111.65</ele>
        <time>2018-08-18T07:38:54Z</time>
      </trkpt>
      <trkpt lat="49.33684" lon="0.94119">
        <ele>112.13</ele>
        <time>2018-08-18T07:39:04Z</time>
      </trkpt>
      <trkpt lat="49.33695" lon="0.94102">
        <ele>113.57</ele>
        <time>2018-08-18T07:39:11Z</time>
      </trkpt>
      <trkpt lat="49.33698" lon="0.94076">
        <ele>113.57</ele>
        <time>2018-08-18T07:39:15Z</time>
      </trkpt>
      <trkpt lat="49.33702" lon="0.94057">
        <ele>114.05</ele>
        <time>2018-08-18T07:39:19Z</time>
      </trkpt>
      <trkpt lat="49.33704" lon="0.94048">
        <ele>114.05</ele>
        <time>2018-08-18T07:39:22Z</time>
      </trkpt>
      <trkpt lat="49.33706" lon="0.94038">
        <ele>114.05</ele>
        <time>2018-08-18T07:39:25Z</time>
      </trkpt>
      <trkpt lat="49.33679" lon="0.93954">
        <ele>110.69</ele>
        <time>2018-08-18T07:39:38Z</time>
      </trkpt>
      <trkpt lat="49.33677" lon="0.93937">
        <ele>110.69</ele>
        <time>2018-08-18T07:39:41Z</time>
      </trkpt>
      <trkpt lat="49.33683" lon="0.93907">
        <ele>111.65</ele>
        <time>2018-08-18T07:39:46Z</time>
      </trkpt>
      <trkpt lat="49.33674" lon="0.93899">
        <ele>110.21</ele>
        <time>2018-08-18T07:39:50Z</time>
      </trkpt>
      <trkpt lat="49.33672" lon="0.93898">
        <ele>109.73</ele>
        <time>2018-08-18T07:39:51Z</time>
      </trkpt>
      <trkpt lat="49.33661" lon="0.93869">
        <ele>106.84</ele>
        <time>2018-08-18T07:39:57Z</time>
      </trkpt>
      <trkpt lat="49.33644" lon="0.93848">
        <ele>103.96</ele>
        <time>2018-08-18T07:40:01Z</time>
      </trkpt>
      <trkpt lat="49.33622" lon="0.93829">
        <ele>99.15</ele>
        <time>2018-08-18T07:40:07Z</time>
      </trkpt>
      <trkpt lat="49.33617" lon="0.93825">
        <ele>97.71</ele>
        <time>2018-08-18T07:40:08Z</time>
      </trkpt>
      <trkpt lat="49.33601" lon="0.93815">
        <ele>93.87</ele>
        <time>2018-08-18T07:40:15Z</time>
      </trkpt>
      <trkpt lat="49.33604" lon="0.93798">
        <ele>94.35</ele>
        <time>2018-08-18T07:40:20Z</time>
      </trkpt>
      <trkpt lat="49.33606" lon="0.93782">
        <ele>94.35</ele>
        <time>2018-08-18T07:40:24Z</time>
      </trkpt>
      <trkpt lat="49.33604" lon="0.9378">
        <ele>92.9</ele>
        <time>2018-08-18T07:40:26Z</time>
      </trkpt>
      <trkpt lat="49.33602" lon="0.93778">
        <ele>91.94</ele>
        <time>2018-08-18T07:40:27Z</time>
      </trkpt>
      <trkpt lat="49.33601" lon="0.93761">
        <ele>91.46</ele>
        <time>2018-08-18T07:40:31Z</time>
      </trkpt>
      <trkpt lat="49.33614" lon="0.93719">
        <ele>88.1</ele>
        <time>2018-08-18T07:40:38Z</time>
      </trkpt>
      <trkpt lat="49.33615" lon="0.93714">
        <ele>88.1</ele>
        <time>2018-08-18T07:40:39Z</time>
      </trkpt>
      <trkpt lat="49.33617" lon="0.93689">
        <ele>86.66</ele>
        <time>2018-08-18T07:40:43Z</time>
      </trkpt>
      <trkpt lat="49.3362" lon="0.93686">
        <ele>86.66</ele>
        <time>2018-08-18T07:40:44Z</time>
      </trkpt>
      <trkpt lat="49.33628" lon="0.93681">
        <ele>89.54</ele>
        <time>2018-08-18T07:40:48Z</time>
      </trkpt>
      <trkpt lat="49.33639" lon="0.93681">
        <ele>92.9</ele>
        <time>2018-08-18T07:40:54Z</time>
      </trkpt>
      <trkpt lat="49.33641" lon="0.93681">
        <ele>92.9</ele>
        <time>2018-08-18T07:40:55Z</time>
      </trkpt>
      <trkpt lat="49.33648" lon="0.93682">
        <ele>94.35</ele>
        <time>2018-08-18T07:40:58Z</time>
      </trkpt>
      <trkpt lat="49.33657" lon="0.93684">
        <ele>95.31</ele>
        <time>2018-08-18T07:41:02Z</time>
      </trkpt>
      <trkpt lat="49.33658" lon="0.93685">
        <ele>95.31</ele>
        <time>2018-08-18T07:41:03Z</time>
      </trkpt>
      <trkpt lat="49.33665" lon="0.93688">
        <ele>96.27</ele>
        <time>2018-08-18T07:41:06Z</time>
      </trkpt>
      <trkpt lat="49.33671" lon="0.93688">
        <ele>96.27</ele>
        <time>2018-08-18T07:41:08Z</time>
      </trkpt>
      <trkpt lat="49.33689" lon="0.93695">
        <ele>94.83</ele>
        <time>2018-08-18T07:41:15Z</time>
      </trkpt>
      <trkpt lat="49.33703" lon="0.93695">
        <ele>93.87</ele>
        <time>2018-08-18T07:41:17Z</time>
      </trkpt>
      <trkpt lat="49.3371" lon="0.93698">
        <ele>92.9</ele>
        <time>2018-08-18T07:41:20Z</time>
      </trkpt>
      <trkpt lat="49.33715" lon="0.93703">
        <ele>93.87</ele>
        <time>2018-08-18T07:41:22Z</time>
      </trkpt>
      <trkpt lat="49.33718" lon="0.93704">
        <ele>94.35</ele>
        <time>2018-08-18T07:41:24Z</time>
      </trkpt>
      <trkpt lat="49.33734" lon="0.93709">
        <ele>95.79</ele>
        <time>2018-08-18T07:41:28Z</time>
      </trkpt>
      <trkpt lat="49.33755" lon="0.93714">
        <ele>99.63</ele>
        <time>2018-08-18T07:41:36Z</time>
      </trkpt>
      <trkpt lat="49.33758" lon="0.93714">
        <ele>100.6</ele>
        <time>2018-08-18T07:41:39Z</time>
      </trkpt>
      <trkpt lat="49.33773" lon="0.93716">
        <ele>101.08</ele>
        <time>2018-08-18T07:41:44Z</time>
      </trkpt>
      <trkpt lat="49.33791" lon="0.93724">
        <ele>102.52</ele>
        <time>2018-08-18T07:41:53Z</time>
      </trkpt>
      <trkpt lat="49.33801" lon="0.93724">
        <ele>103.96</ele>
        <time>2018-08-18T07:41:58Z</time>
      </trkpt>
      <trkpt lat="49.33818" lon="0.9373">
        <ele>107.32</ele>
        <time>2018-08-18T07:42:07Z</time>
      </trkpt>
      <trkpt lat="49.33825" lon="0.93731">
        <ele>107.81</ele>
        <time>2018-08-18T07:42:14Z</time>
      </trkpt>
      <trkpt lat="49.33834" lon="0.93734">
        <ele>109.25</ele>
        <time>2018-08-18T07:42:18Z</time>
      </trkpt>
      <trkpt lat="49.33842" lon="0.9373">
        <ele>110.21</ele>
        <time>2018-08-18T07:42:23Z</time>
      </trkpt>
      <trkpt lat="49.33857" lon="0.93719">
        <ele>110.21</ele>
        <time>2018-08-18T07:42:30Z</time>
      </trkpt>
      <trkpt lat="49.3387" lon="0.93715">
        <ele>110.21</ele>
        <time>2018-08-18T07:42:35Z</time>
      </trkpt>
      <trkpt lat="49.33881" lon="0.93701">
        <ele>109.73</ele>
        <time>2018-08-18T07:42:41Z</time>
      </trkpt>
      <trkpt lat="49.33891" lon="0.93669">
        <ele>106.84</ele>
        <time>2018-08-18T07:42:47Z</time>
      </trkpt>
      <trkpt lat="49.33898" lon="0.9364">
        <ele>104.92</ele>
        <time>2018-08-18T07:42:53Z</time>
      </trkpt>
      <trkpt lat="49.33899" lon="0.93633">
        <ele>104.44</ele>
        <time>2018-08-18T07:42:54Z</time>
      </trkpt>
      <trkpt lat="49.33904" lon="0.93615">
        <ele>105.88</ele>
        <time>2018-08-18T07:42:57Z</time>
      </trkpt>
      <trkpt lat="49.33905" lon="0.93608">
        <ele>105.88</ele>
        <time>2018-08-18T07:42:58Z</time>
      </trkpt>
      <trkpt lat="49.33912" lon="0.93571">
        <ele>103.96</ele>
        <time>2018-08-18T07:43:04Z</time>
      </trkpt>
      <trkpt lat="49.33912" lon="0.93564">
        <ele>103</ele>
        <time>2018-08-18T07:43:05Z</time>
      </trkpt>
      <trkpt lat="49.33924" lon="0.93523">
        <ele>101.56</ele>
        <time>2018-08-18T07:43:11Z</time>
      </trkpt>
      <trkpt lat="49.3393" lon="0.93507">
        <ele>99.15</ele>
        <time>2018-08-18T07:43:14Z</time>
      </trkpt>
      <trkpt lat="49.33933" lon="0.935">
        <ele>98.67</ele>
        <time>2018-08-18T07:43:15Z</time>
      </trkpt>
      <trkpt lat="49.33944" lon="0.9345">
        <ele>99.15</ele>
        <time>2018-08-18T07:43:23Z</time>
      </trkpt>
      <trkpt lat="49.33947" lon="0.93437">
        <ele>99.63</ele>
        <time>2018-08-18T07:43:25Z</time>
      </trkpt>
      <trkpt lat="49.33948" lon="0.93429">
        <ele>100.11</ele>
        <time>2018-08-18T07:43:26Z</time>
      </trkpt>
      <trkpt lat="49.33949" lon="0.93424">
        <ele>101.08</ele>
        <time>2018-08-18T07:43:27Z</time>
      </trkpt>
      <trkpt lat="49.33949" lon="0.93417">
        <ele>101.08</ele>
        <time>2018-08-18T07:43:28Z</time>
      </trkpt>
      <trkpt lat="49.33949" lon="0.93411">
        <ele>101.56</ele>
        <time>2018-08-18T07:43:29Z</time>
      </trkpt>
      <trkpt lat="49.33954" lon="0.93354">
        <ele>103</ele>
        <time>2018-08-18T07:43:40Z</time>
      </trkpt>
      <trkpt lat="49.33956" lon="0.93342">
        <ele>103.96</ele>
        <time>2018-08-18T07:43:44Z</time>
      </trkpt>
      <trkpt lat="49.33961" lon="0.93317">
        <ele>104.92</ele>
        <time>2018-08-18T07:43:51Z</time>
      </trkpt>
      <trkpt lat="49.33968" lon="0.93276">
        <ele>107.32</ele>
        <time>2018-08-18T07:44:03Z</time>
      </trkpt>
      <trkpt lat="49.33973" lon="0.93232">
        <ele>108.77</ele>
        <time>2018-08-18T07:44:15Z</time>
      </trkpt>
      <trkpt lat="49.33973" lon="0.93227">
        <ele>108.77</ele>
        <time>2018-08-18T07:44:17Z</time>
      </trkpt>
      <trkpt lat="49.33968" lon="0.9321">
        <ele>107.32</ele>
        <time>2018-08-18T07:44:21Z</time>
      </trkpt>
      <trkpt lat="49.33951" lon="0.93188">
        <ele>103.96</ele>
        <time>2018-08-18T07:44:30Z</time>
      </trkpt>
      <trkpt lat="49.33947" lon="0.93182">
        <ele>102.52</ele>
        <time>2018-08-18T07:44:32Z</time>
      </trkpt>
      <trkpt lat="49.33939" lon="0.93147">
        <ele>101.08</ele>
        <time>2018-08-18T07:44:41Z</time>
      </trkpt>
      <trkpt lat="49.33923" lon="0.93097">
        <ele>98.67</ele>
        <time>2018-08-18T07:44:53Z</time>
      </trkpt>
      <trkpt lat="49.33913" lon="0.93075">
        <ele>101.08</ele>
        <time>2018-08-18T07:45:00Z</time>
      </trkpt>
      <trkpt lat="49.33907" lon="0.9305">
        <ele>101.56</ele>
        <time>2018-08-18T07:45:07Z</time>
      </trkpt>
      <trkpt lat="49.33905" lon="0.93023">
        <ele>103.96</ele>
        <time>2018-08-18T07:45:12Z</time>
      </trkpt>
      <trkpt lat="49.33909" lon="0.9302">
        <ele>105.4</ele>
        <time>2018-08-18T07:45:16Z</time>
      </trkpt>
      <trkpt lat="49.33912" lon="0.9302">
        <ele>105.88</ele>
        <time>2018-08-18T07:45:18Z</time>
      </trkpt>
      <trkpt lat="49.33917" lon="0.93018">
        <ele>106.84</ele>
        <time>2018-08-18T07:45:21Z</time>
      </trkpt>
      <trkpt lat="49.33919" lon="0.93007">
        <ele>108.29</ele>
        <time>2018-08-18T07:45:26Z</time>
      </trkpt>
      <trkpt lat="49.33918" lon="0.92999">
        <ele>108.29</ele>
        <time>2018-08-18T07:45:28Z</time>
      </trkpt>
      <trkpt lat="49.33912" lon="0.92981">
        <ele>108.29</ele>
        <time>2018-08-18T07:45:32Z</time>
      </trkpt>
      <trkpt lat="49.33912" lon="0.92969">
        <ele>109.25</ele>
        <time>2018-08-18T07:45:35Z</time>
      </trkpt>
      <trkpt lat="49.33907" lon="0.92945">
        <ele>109.73</ele>
        <time>2018-08-18T07:45:39Z</time>
      </trkpt>
      <trkpt lat="49.33887" lon="0.92899">
        <ele>108.77</ele>
        <time>2018-08-18T07:45:47Z</time>
      </trkpt>
      <trkpt lat="49.33886" lon="0.9289">
        <ele>109.25</ele>
        <time>2018-08-18T07:45:48Z</time>
      </trkpt>
      <trkpt lat="49.33888" lon="0.92886">
        <ele>110.21</ele>
        <time>2018-08-18T07:45:50Z</time>
      </trkpt>
      <trkpt lat="49.33886" lon="0.92878">
        <ele>110.21</ele>
        <time>2018-08-18T07:45:51Z</time>
      </trkpt>
      <trkpt lat="49.33884" lon="0.92873">
        <ele>109.73</ele>
        <time>2018-08-18T07:45:52Z</time>
      </trkpt>
      <trkpt lat="49.33883" lon="0.92866">
        <ele>110.21</ele>
        <time>2018-08-18T07:45:53Z</time>
      </trkpt>
      <trkpt lat="49.33884" lon="0.92861">
        <ele>110.21</ele>
        <time>2018-08-18T07:45:54Z</time>
      </trkpt>
      <trkpt lat="49.33885" lon="0.92854">
        <ele>111.17</ele>
        <time>2018-08-18T07:45:56Z</time>
      </trkpt>
      <trkpt lat="49.33884" lon="0.92842">
        <ele>112.13</ele>
        <time>2018-08-18T07:46:00Z</time>
      </trkpt>
      <trkpt lat="49.33884" lon="0.92831">
        <ele>112.61</ele>
        <time>2018-08-18T07:46:03Z</time>
      </trkpt>
      <trkpt lat="49.33886" lon="0.92818">
        <ele>113.09</ele>
        <time>2018-08-18T07:46:07Z</time>
      </trkpt>
      <trkpt lat="49.33889" lon="0.92812">
        <ele>114.53</ele>
        <time>2018-08-18T07:46:12Z</time>
      </trkpt>
      <trkpt lat="49.33895" lon="0.92814">
        <ele>114.53</ele>
        <time>2018-08-18T07:46:15Z</time>
      </trkpt>
      <trkpt lat="49.33898" lon="0.92814">
        <ele>115.01</ele>
        <time>2018-08-18T07:46:17Z</time>
      </trkpt>
      <trkpt lat="49.33906" lon="0.92813">
        <ele>114.05</ele>
        <time>2018-08-18T07:46:24Z</time>
      </trkpt>
      <trkpt lat="49.33907" lon="0.92807">
        <ele>114.53</ele>
        <time>2018-08-18T07:46:26Z</time>
      </trkpt>
      <trkpt lat="49.33905" lon="0.92803">
        <ele>114.53</ele>
        <time>2018-08-18T07:46:27Z</time>
      </trkpt>
      <trkpt lat="49.33905" lon="0.92801">
        <ele>114.53</ele>
        <time>2018-08-18T07:46:28Z</time>
      </trkpt>
      <trkpt lat="49.33906" lon="0.92797">
        <ele>114.53</ele>
        <time>2018-08-18T07:46:29Z</time>
      </trkpt>
      <trkpt lat="49.33907" lon="0.92796">
        <ele>114.53</ele>
        <time>2018-08-18T07:46:30Z</time>
      </trkpt>
      <trkpt lat="49.33908" lon="0.92794">
        <ele>114.53</ele>
        <time>2018-08-18T07:46:31Z</time>
      </trkpt>
      <trkpt lat="49.33926" lon="0.92763">
        <ele>114.05</ele>
        <time>2018-08-18T07:46:39Z</time>
      </trkpt>
      <trkpt lat="49.33948" lon="0.92743">
        <ele>114.53</ele>
        <time>2018-08-18T07:46:50Z</time>
      </trkpt>
      <trkpt lat="49.3396" lon="0.9274">
        <ele>114.05</ele>
        <time>2018-08-18T07:46:54Z</time>
      </trkpt>
      <trkpt lat="49.33983" lon="0.92717">
        <ele>113.57</ele>
        <time>2018-08-18T07:47:06Z</time>
      </trkpt>
      <trkpt lat="49.33984" lon="0.92717">
        <ele>113.57</ele>
        <time>2018-08-18T07:47:07Z</time>
      </trkpt>
      <trkpt lat="49.33995" lon="0.92711">
        <ele>113.09</ele>
        <time>2018-08-18T07:47:10Z</time>
      </trkpt>
      <trkpt lat="49.34002" lon="0.92696">
        <ele>113.09</ele>
        <time>2018-08-18T07:47:14Z</time>
      </trkpt>
      <trkpt lat="49.34001" lon="0.92686">
        <ele>113.09</ele>
        <time>2018-08-18T07:47:16Z</time>
      </trkpt>
      <trkpt lat="49.34002" lon="0.92682">
        <ele>113.09</ele>
        <time>2018-08-18T07:47:17Z</time>
      </trkpt>
      <trkpt lat="49.34003" lon="0.92679">
        <ele>113.09</ele>
        <time>2018-08-18T07:47:18Z</time>
      </trkpt>
      <trkpt lat="49.34006" lon="0.9267">
        <ele>112.61</ele>
        <time>2018-08-18T07:47:20Z</time>
      </trkpt>
      <trkpt lat="49.34009" lon="0.92658">
        <ele>112.61</ele>
        <time>2018-08-18T07:47:24Z</time>
      </trkpt>
      <trkpt lat="49.3401" lon="0.92656">
        <ele>112.13</ele>
        <time>2018-08-18T07:47:25Z</time>
      </trkpt>
      <trkpt lat="49.34022" lon="0.92643">
        <ele>112.61</ele>
        <time>2018-08-18T07:47:29Z</time>
      </trkpt>
      <trkpt lat="49.34029" lon="0.92642">
        <ele>112.13</ele>
        <time>2018-08-18T07:47:31Z</time>
      </trkpt>
      <trkpt lat="49.34042" lon="0.9263">
        <ele>110.21</ele>
        <time>2018-08-18T07:47:35Z</time>
      </trkpt>
      <trkpt lat="49.3405" lon="0.92623">
        <ele>109.73</ele>
        <time>2018-08-18T07:47:39Z</time>
      </trkpt>
      <trkpt lat="49.34055" lon="0.92598">
        <ele>109.73</ele>
        <time>2018-08-18T07:47:45Z</time>
      </trkpt>
      <trkpt lat="49.34055" lon="0.92589">
        <ele>109.73</ele>
        <time>2018-08-18T07:47:47Z</time>
      </trkpt>
      <trkpt lat="49.34038" lon="0.92532">
        <ele>108.29</ele>
        <time>2018-08-18T07:47:59Z</time>
      </trkpt>
      <trkpt lat="49.34019" lon="0.9251">
        <ele>107.32</ele>
        <time>2018-08-18T07:48:04Z</time>
      </trkpt>
      <trkpt lat="49.34008" lon="0.92493">
        <ele>106.36</ele>
        <time>2018-08-18T07:48:07Z</time>
      </trkpt>
      <trkpt lat="49.34" lon="0.9248">
        <ele>104.92</ele>
        <time>2018-08-18T07:48:09Z</time>
      </trkpt>
      <trkpt lat="49.33987" lon="0.92455">
        <ele>102.04</ele>
        <time>2018-08-18T07:48:13Z</time>
      </trkpt>
      <trkpt lat="49.33983" lon="0.9245">
        <ele>101.08</ele>
        <time>2018-08-18T07:48:14Z</time>
      </trkpt>
      <trkpt lat="49.33975" lon="0.92441">
        <ele>99.15</ele>
        <time>2018-08-18T07:48:16Z</time>
      </trkpt>
      <trkpt lat="49.33949" lon="0.92416">
        <ele>98.67</ele>
        <time>2018-08-18T07:48:22Z</time>
      </trkpt>
      <trkpt lat="49.33931" lon="0.92398">
        <ele>97.71</ele>
        <time>2018-08-18T07:48:27Z</time>
      </trkpt>
      <trkpt lat="49.33926" lon="0.92387">
        <ele>97.23</ele>
        <time>2018-08-18T07:48:29Z</time>
      </trkpt>
      <trkpt lat="49.33923" lon="0.92368">
        <ele>96.27</ele>
        <time>2018-08-18T07:48:33Z</time>
      </trkpt>
      <trkpt lat="49.33921" lon="0.92363">
        <ele>95.79</ele>
        <time>2018-08-18T07:48:34Z</time>
      </trkpt>
      <trkpt lat="49.33919" lon="0.92359">
        <ele>95.79</ele>
        <time>2018-08-18T07:48:35Z</time>
      </trkpt>
      <trkpt lat="49.33915" lon="0.92344">
        <ele>92.42</ele>
        <time>2018-08-18T07:48:38Z</time>
      </trkpt>
      <trkpt lat="49.33895" lon="0.92295">
        <ele>94.83</ele>
        <time>2018-08-18T07:48:47Z</time>
      </trkpt>
      <trkpt lat="49.33894" lon="0.92289">
        <ele>94.83</ele>
        <time>2018-08-18T07:48:48Z</time>
      </trkpt>
      <trkpt lat="49.33893" lon="0.92282">
        <ele>94.35</ele>
        <time>2018-08-18T07:48:49Z</time>
      </trkpt>
      <trkpt lat="49.33885" lon="0.92251">
        <ele>93.39</ele>
        <time>2018-08-18T07:48:54Z</time>
      </trkpt>
      <trkpt lat="49.33883" lon="0.92249">
        <ele>93.39</ele>
        <time>2018-08-18T07:48:55Z</time>
      </trkpt>
      <trkpt lat="49.33869" lon="0.92207">
        <ele>93.39</ele>
        <time>2018-08-18T07:49:02Z</time>
      </trkpt>
      <trkpt lat="49.33867" lon="0.92202">
        <ele>93.39</ele>
        <time>2018-08-18T07:49:03Z</time>
      </trkpt>
      <trkpt lat="49.33865" lon="0.92199">
        <ele>93.39</ele>
        <time>2018-08-18T07:49:04Z</time>
      </trkpt>
      <trkpt lat="49.3385" lon="0.92179">
        <ele>90.02</ele>
        <time>2018-08-18T07:49:09Z</time>
      </trkpt>
      <trkpt lat="49.33836" lon="0.92159">
        <ele>87.62</ele>
        <time>2018-08-18T07:49:20Z</time>
      </trkpt>
      <trkpt lat="49.33825" lon="0.92143">
        <ele>84.25</ele>
        <time>2018-08-18T07:49:24Z</time>
      </trkpt>
      <trkpt lat="49.3382" lon="0.92138">
        <ele>83.29</ele>
        <time>2018-08-18T07:49:26Z</time>
      </trkpt>
      <trkpt lat="49.33812" lon="0.92133">
        <ele>83.29</ele>
        <time>2018-08-18T07:49:29Z</time>
      </trkpt>
      <trkpt lat="49.33798" lon="0.92119">
        <ele>81.37</ele>
        <time>2018-08-18T07:49:33Z</time>
      </trkpt>
      <trkpt lat="49.33794" lon="0.92116">
        <ele>81.37</ele>
        <time>2018-08-18T07:49:34Z</time>
      </trkpt>
      <trkpt lat="49.3377" lon="0.92105">
        <ele>80.89</ele>
        <time>2018-08-18T07:49:39Z</time>
      </trkpt>
      <trkpt lat="49.33761" lon="0.92101">
        <ele>81.37</ele>
        <time>2018-08-18T07:49:41Z</time>
      </trkpt>
      <trkpt lat="49.33757" lon="0.92102">
        <ele>81.37</ele>
        <time>2018-08-18T07:49:42Z</time>
      </trkpt>
      <trkpt lat="49.33749" lon="0.92101">
        <ele>81.85</ele>
        <time>2018-08-18T07:49:44Z</time>
      </trkpt>
      <trkpt lat="49.33714" lon="0.92076">
        <ele>78.97</ele>
        <time>2018-08-18T07:49:53Z</time>
      </trkpt>
      <trkpt lat="49.3371" lon="0.92073">
        <ele>78</ele>
        <time>2018-08-18T07:49:54Z</time>
      </trkpt>
      <trkpt lat="49.33705" lon="0.9207">
        <ele>77.52</ele>
        <time>2018-08-18T07:49:55Z</time>
      </trkpt>
      <trkpt lat="49.33699" lon="0.92069">
        <ele>76.56</ele>
        <time>2018-08-18T07:49:56Z</time>
      </trkpt>
      <trkpt lat="49.33688" lon="0.92069">
        <ele>75.6</ele>
        <time>2018-08-18T07:49:58Z</time>
      </trkpt>
      <trkpt lat="49.33677" lon="0.92067">
        <ele>73.68</ele>
        <time>2018-08-18T07:50:00Z</time>
      </trkpt>
      <trkpt lat="49.33671" lon="0.92066">
        <ele>73.2</ele>
        <time>2018-08-18T07:50:01Z</time>
      </trkpt>
      <trkpt lat="49.33666" lon="0.92066">
        <ele>72.72</ele>
        <time>2018-08-18T07:50:02Z</time>
      </trkpt>
      <trkpt lat="49.33661" lon="0.92066">
        <ele>73.2</ele>
        <time>2018-08-18T07:50:03Z</time>
      </trkpt>
      <trkpt lat="49.33657" lon="0.92066">
        <ele>73.2</ele>
        <time>2018-08-18T07:50:04Z</time>
      </trkpt>
      <trkpt lat="49.33654" lon="0.92066">
        <ele>73.2</ele>
        <time>2018-08-18T07:50:05Z</time>
      </trkpt>
      <trkpt lat="49.33652" lon="0.92067">
        <ele>72.24</ele>
        <time>2018-08-18T07:50:06Z</time>
      </trkpt>
      <trkpt lat="49.33646" lon="0.92066">
        <ele>71.27</ele>
        <time>2018-08-18T07:50:07Z</time>
      </trkpt>
      <trkpt lat="49.33641" lon="0.92064">
        <ele>69.83</ele>
        <time>2018-08-18T07:50:08Z</time>
      </trkpt>
      <trkpt lat="49.33636" lon="0.92063">
        <ele>68.87</ele>
        <time>2018-08-18T07:50:09Z</time>
      </trkpt>
      <trkpt lat="49.3363" lon="0.92063">
        <ele>67.91</ele>
        <time>2018-08-18T07:50:10Z</time>
      </trkpt>
      <trkpt lat="49.33625" lon="0.92064">
        <ele>67.91</ele>
        <time>2018-08-18T07:50:11Z</time>
      </trkpt>
      <trkpt lat="49.33621" lon="0.92064">
        <ele>68.39</ele>
        <time>2018-08-18T07:50:12Z</time>
      </trkpt>
      <trkpt lat="49.33603" lon="0.92061">
        <ele>67.43</ele>
        <time>2018-08-18T07:50:18Z</time>
      </trkpt>
      <trkpt lat="49.33591" lon="0.92057">
        <ele>66.95</ele>
        <time>2018-08-18T07:50:25Z</time>
      </trkpt>
      <trkpt lat="49.33582" lon="0.92061">
        <ele>66.47</ele>
        <time>2018-08-18T07:50:32Z</time>
      </trkpt>
      <trkpt lat="49.33578" lon="0.92071">
        <ele>67.43</ele>
        <time>2018-08-18T07:50:35Z</time>
      </trkpt>
      <trkpt lat="49.33562" lon="0.92109">
        <ele>67.43</ele>
        <time>2018-08-18T07:50:44Z</time>
      </trkpt>
      <trkpt lat="49.3355" lon="0.92124">
        <ele>63.58</ele>
        <time>2018-08-18T07:50:47Z</time>
      </trkpt>
      <trkpt lat="49.33538" lon="0.92139">
        <ele>60.7</ele>
        <time>2018-08-18T07:50:51Z</time>
      </trkpt>
      <trkpt lat="49.33536" lon="0.92143">
        <ele>60.22</ele>
        <time>2018-08-18T07:50:52Z</time>
      </trkpt>
      <trkpt lat="49.33526" lon="0.9216">
        <ele>57.34</ele>
        <time>2018-08-18T07:50:59Z</time>
      </trkpt>
      <trkpt lat="49.33523" lon="0.92161">
        <ele>56.37</ele>
        <time>2018-08-18T07:51:00Z</time>
      </trkpt>
      <trkpt lat="49.33519" lon="0.92163">
        <ele>54.93</ele>
        <time>2018-08-18T07:51:01Z</time>
      </trkpt>
      <trkpt lat="49.33507" lon="0.92174">
        <ele>55.89</ele>
        <time>2018-08-18T07:51:15Z</time>
      </trkpt>
      <trkpt lat="49.33506" lon="0.92178">
        <ele>56.37</ele>
        <time>2018-08-18T07:51:32Z</time>
      </trkpt>
      <trkpt lat="49.33504" lon="0.9218">
        <ele>56.37</ele>
        <time>2018-08-18T07:52:00Z</time>
      </trkpt>
      <trkpt lat="49.33509" lon="0.92185">
        <ele>57.34</ele>
        <time>2018-08-18T07:52:49Z</time>
      </trkpt>
      <trkpt lat="49.33509" lon="0.92187">
        <ele>58.78</ele>
        <time>2018-08-18T07:53:32Z</time>
      </trkpt>
      <trkpt lat="49.33509" lon="0.92183">
        <ele>59.74</ele>
        <time>2018-08-18T07:54:21Z</time>
      </trkpt>
      <trkpt lat="49.3351" lon="0.92182">
        <ele>60.22</ele>
        <time>2018-08-18T07:55:03Z</time>
      </trkpt>
      <trkpt lat="49.33513" lon="0.92184">
        <ele>61.18</ele>
        <time>2018-08-18T07:55:47Z</time>
      </trkpt>
      <trkpt lat="49.33515" lon="0.92183">
        <ele>61.66</ele>
        <time>2018-08-18T07:56:34Z</time>
      </trkpt>
      <trkpt lat="49.33514" lon="0.92183">
        <ele>62.14</ele>
        <time>2018-08-18T07:57:20Z</time>
      </trkpt>
      <trkpt lat="49.33512" lon="0.92187">
        <ele>62.62</ele>
        <time>2018-08-18T07:58:12Z</time>
      </trkpt>
      <trkpt lat="49.3351" lon="0.92189">
        <ele>63.1</ele>
        <time>2018-08-18T07:59:00Z</time>
      </trkpt>
      <trkpt lat="49.3351" lon="0.92185">
        <ele>63.1</ele>
        <time>2018-08-18T07:59:23Z</time>
      </trkpt>
      <trkpt lat="49.33509" lon="0.92183">
        <ele>63.58</ele>
        <time>2018-08-18T07:59:56Z</time>
      </trkpt>
      <trkpt lat="49.33509" lon="0.92184">
        <ele>64.07</ele>
        <time>2018-08-18T08:00:21Z</time>
      </trkpt>
      <trkpt lat="49.33507" lon="0.92187">
        <ele>63.1</ele>
        <time>2018-08-18T08:00:45Z</time>
      </trkpt>
      <trkpt lat="49.33507" lon="0.92188">
        <ele>64.55</ele>
        <time>2018-08-18T08:01:34Z</time>
      </trkpt>
      <trkpt lat="49.33506" lon="0.92188">
        <ele>64.55</ele>
        <time>2018-08-18T08:02:21Z</time>
      </trkpt>
      <trkpt lat="49.33503" lon="0.92186">
        <ele>64.07</ele>
        <time>2018-08-18T08:02:33Z</time>
      </trkpt>
      <trkpt lat="49.33501" lon="0.92185">
        <ele>63.1</ele>
        <time>2018-08-18T08:02:35Z</time>
      </trkpt>
      <trkpt lat="49.33498" lon="0.92191">
        <ele>63.58</ele>
        <time>2018-08-18T08:02:54Z</time>
      </trkpt>
      <trkpt lat="49.33495" lon="0.92191">
        <ele>63.58</ele>
        <time>2018-08-18T08:03:03Z</time>
      </trkpt>
      <trkpt lat="49.33489" lon="0.92199">
        <ele>65.03</ele>
        <time>2018-08-18T08:03:08Z</time>
      </trkpt>
      <trkpt lat="49.33467" lon="0.92229">
        <ele>68.39</ele>
        <time>2018-08-18T08:03:22Z</time>
      </trkpt>
      <trkpt lat="49.33449" lon="0.92245">
        <ele>71.27</ele>
        <time>2018-08-18T08:03:30Z</time>
      </trkpt>
      <trkpt lat="49.33438" lon="0.92252">
        <ele>72.72</ele>
        <time>2018-08-18T08:03:35Z</time>
      </trkpt>
      <trkpt lat="49.33429" lon="0.92258">
        <ele>72.24</ele>
        <time>2018-08-18T08:03:39Z</time>
      </trkpt>
      <trkpt lat="49.33419" lon="0.92259">
        <ele>72.24</ele>
        <time>2018-08-18T08:03:43Z</time>
      </trkpt>
      <trkpt lat="49.33399" lon="0.92266">
        <ele>72.24</ele>
        <time>2018-08-18T08:03:49Z</time>
      </trkpt>
      <trkpt lat="49.33396" lon="0.92303">
        <ele>73.68</ele>
        <time>2018-08-18T08:03:57Z</time>
      </trkpt>
      <trkpt lat="49.33388" lon="0.92324">
        <ele>73.2</ele>
        <time>2018-08-18T08:04:02Z</time>
      </trkpt>
      <trkpt lat="49.33378" lon="0.92336">
        <ele>71.27</ele>
        <time>2018-08-18T08:04:05Z</time>
      </trkpt>
      <trkpt lat="49.33374" lon="0.92338">
        <ele>69.83</ele>
        <time>2018-08-18T08:04:07Z</time>
      </trkpt>
      <trkpt lat="49.33366" lon="0.92318">
        <ele>67.91</ele>
        <time>2018-08-18T08:04:13Z</time>
      </trkpt>
      <trkpt lat="49.33367" lon="0.92311">
        <ele>66.47</ele>
        <time>2018-08-18T08:04:15Z</time>
      </trkpt>
      <trkpt lat="49.33363" lon="0.9231">
        <ele>63.58</ele>
        <time>2018-08-18T08:04:24Z</time>
      </trkpt>
      <trkpt lat="49.33361" lon="0.92324">
        <ele>63.1</ele>
        <time>2018-08-18T08:04:27Z</time>
      </trkpt>
      <trkpt lat="49.33359" lon="0.92347">
        <ele>63.1</ele>
        <time>2018-08-18T08:04:34Z</time>
      </trkpt>
      <trkpt lat="49.33358" lon="0.92359">
        <ele>62.14</ele>
        <time>2018-08-18T08:04:37Z</time>
      </trkpt>
      <trkpt lat="49.33357" lon="0.92363">
        <ele>62.14</ele>
        <time>2018-08-18T08:04:38Z</time>
      </trkpt>
      <trkpt lat="49.33358" lon="0.9237">
        <ele>62.62</ele>
        <time>2018-08-18T08:04:40Z</time>
      </trkpt>
      <trkpt lat="49.33367" lon="0.92395">
        <ele>61.66</ele>
        <time>2018-08-18T08:04:47Z</time>
      </trkpt>
      <trkpt lat="49.33369" lon="0.92406">
        <ele>60.22</ele>
        <time>2018-08-18T08:04:49Z</time>
      </trkpt>
      <trkpt lat="49.33372" lon="0.92419">
        <ele>59.74</ele>
        <time>2018-08-18T08:04:52Z</time>
      </trkpt>
      <trkpt lat="49.33383" lon="0.92431">
        <ele>58.3</ele>
        <time>2018-08-18T08:04:57Z</time>
      </trkpt>
      <trkpt lat="49.33387" lon="0.92441">
        <ele>58.3</ele>
        <time>2018-08-18T08:04:59Z</time>
      </trkpt>
      <trkpt lat="49.33354" lon="0.92478">
        <ele>57.34</ele>
        <time>2018-08-18T08:05:11Z</time>
      </trkpt>
      <trkpt lat="49.33336" lon="0.92485">
        <ele>57.82</ele>
        <time>2018-08-18T08:05:16Z</time>
      </trkpt>
      <trkpt lat="49.33332" lon="0.92497">
        <ele>58.3</ele>
        <time>2018-08-18T08:05:20Z</time>
      </trkpt>
      <trkpt lat="49.33334" lon="0.92514">
        <ele>58.3</ele>
        <time>2018-08-18T08:05:23Z</time>
      </trkpt>
      <trkpt lat="49.33336" lon="0.9252">
        <ele>58.3</ele>
        <time>2018-08-18T08:05:24Z</time>
      </trkpt>
      <trkpt lat="49.33341" lon="0.92532">
        <ele>58.3</ele>
        <time>2018-08-18T08:05:26Z</time>
      </trkpt>
      <trkpt lat="49.33348" lon="0.92543">
        <ele>57.82</ele>
        <time>2018-08-18T08:05:28Z</time>
      </trkpt>
      <trkpt lat="49.33355" lon="0.92553">
        <ele>57.34</ele>
        <time>2018-08-18T08:05:30Z</time>
      </trkpt>
      <trkpt lat="49.33359" lon="0.92557">
        <ele>57.34</ele>
        <time>2018-08-18T08:05:31Z</time>
      </trkpt>
      <trkpt lat="49.33362" lon="0.92562">
        <ele>57.34</ele>
        <time>2018-08-18T08:05:32Z</time>
      </trkpt>
      <trkpt lat="49.33379" lon="0.92574">
        <ele>57.34</ele>
        <time>2018-08-18T08:05:36Z</time>
      </trkpt>
      <trkpt lat="49.33382" lon="0.92576">
        <ele>57.34</ele>
        <time>2018-08-18T08:05:37Z</time>
      </trkpt>
      <trkpt lat="49.33384" lon="0.9258">
        <ele>57.34</ele>
        <time>2018-08-18T08:05:38Z</time>
      </trkpt>
      <trkpt lat="49.33385" lon="0.92584">
        <ele>57.82</ele>
        <time>2018-08-18T08:05:39Z</time>
      </trkpt>
      <trkpt lat="49.33384" lon="0.92587">
        <ele>57.82</ele>
        <time>2018-08-18T08:05:40Z</time>
      </trkpt>
      <trkpt lat="49.33385" lon="0.9259">
        <ele>57.82</ele>
        <time>2018-08-18T08:05:41Z</time>
      </trkpt>
      <trkpt lat="49.33384" lon="0.92593">
        <ele>57.82</ele>
        <time>2018-08-18T08:05:42Z</time>
      </trkpt>
      <trkpt lat="49.33383" lon="0.92596">
        <ele>57.82</ele>
        <time>2018-08-18T08:05:43Z</time>
      </trkpt>
      <trkpt lat="49.33383" lon="0.92599">
        <ele>57.82</ele>
        <time>2018-08-18T08:05:44Z</time>
      </trkpt>
      <trkpt lat="49.33377" lon="0.9265">
        <ele>61.18</ele>
        <time>2018-08-18T08:05:55Z</time>
      </trkpt>
      <trkpt lat="49.33375" lon="0.92663">
        <ele>63.1</ele>
        <time>2018-08-18T08:05:59Z</time>
      </trkpt>
      <trkpt lat="49.33373" lon="0.92693">
        <ele>66.47</ele>
        <time>2018-08-18T08:06:09Z</time>
      </trkpt>
      <trkpt lat="49.33374" lon="0.92699">
        <ele>67.43</ele>
        <time>2018-08-18T08:06:12Z</time>
      </trkpt>
      <trkpt lat="49.33374" lon="0.92702">
        <ele>67.43</ele>
        <time>2018-08-18T08:06:13Z</time>
      </trkpt>
      <trkpt lat="49.33374" lon="0.92705">
        <ele>67.43</ele>
        <time>2018-08-18T08:06:14Z</time>
      </trkpt>
      <trkpt lat="49.33373" lon="0.92708">
        <ele>67.91</ele>
        <time>2018-08-18T08:06:15Z</time>
      </trkpt>
      <trkpt lat="49.3337" lon="0.92726">
        <ele>69.35</ele>
        <time>2018-08-18T08:06:20Z</time>
      </trkpt>
      <trkpt lat="49.33369" lon="0.92731">
        <ele>69.35</ele>
        <time>2018-08-18T08:06:21Z</time>
      </trkpt>
      <trkpt lat="49.33367" lon="0.9275">
        <ele>71.27</ele>
        <time>2018-08-18T08:06:27Z</time>
      </trkpt>
      <trkpt lat="49.33367" lon="0.92752">
        <ele>71.27</ele>
        <time>2018-08-18T08:06:28Z</time>
      </trkpt>
      <trkpt lat="49.33367" lon="0.92756">
        <ele>71.76</ele>
        <time>2018-08-18T08:06:29Z</time>
      </trkpt>
      <trkpt lat="49.33366" lon="0.9276">
        <ele>71.76</ele>
        <time>2018-08-18T08:06:30Z</time>
      </trkpt>
      <trkpt lat="49.33365" lon="0.92762">
        <ele>72.24</ele>
        <time>2018-08-18T08:06:31Z</time>
      </trkpt>
      <trkpt lat="49.33361" lon="0.92791">
        <ele>75.6</ele>
        <time>2018-08-18T08:06:40Z</time>
      </trkpt>
      <trkpt lat="49.33361" lon="0.92794">
        <ele>75.6</ele>
        <time>2018-08-18T08:06:41Z</time>
      </trkpt>
      <trkpt lat="49.33362" lon="0.92805">
        <ele>77.04</ele>
        <time>2018-08-18T08:06:47Z</time>
      </trkpt>
      <trkpt lat="49.33361" lon="0.92812">
        <ele>77.52</ele>
        <time>2018-08-18T08:06:50Z</time>
      </trkpt>
      <trkpt lat="49.3336" lon="0.92815">
        <ele>78</ele>
        <time>2018-08-18T08:06:51Z</time>
      </trkpt>
      <trkpt lat="49.33354" lon="0.92828">
        <ele>78</ele>
        <time>2018-08-18T08:06:52Z</time>
      </trkpt>
      <trkpt lat="49.33353" lon="0.92831">
        <ele>78.48</ele>
        <time>2018-08-18T08:06:53Z</time>
      </trkpt>
      <trkpt lat="49.33351" lon="0.92838">
        <ele>78.48</ele>
        <time>2018-08-18T08:06:54Z</time>
      </trkpt>
      <trkpt lat="49.3335" lon="0.92843">
        <ele>78.97</ele>
        <time>2018-08-18T08:06:55Z</time>
      </trkpt>
      <trkpt lat="49.33349" lon="0.92849">
        <ele>78.97</ele>
        <time>2018-08-18T08:06:56Z</time>
      </trkpt>
      <trkpt lat="49.33344" lon="0.9288">
        <ele>81.85</ele>
        <time>2018-08-18T08:07:08Z</time>
      </trkpt>
      <trkpt lat="49.33342" lon="0.92883">
        <ele>82.33</ele>
        <time>2018-08-18T08:07:09Z</time>
      </trkpt>
      <trkpt lat="49.33341" lon="0.92885">
        <ele>82.33</ele>
        <time>2018-08-18T08:07:10Z</time>
      </trkpt>
      <trkpt lat="49.33337" lon="0.92898">
        <ele>85.69</ele>
        <time>2018-08-18T08:07:18Z</time>
      </trkpt>
      <trkpt lat="49.33337" lon="0.92913">
        <ele>88.58</ele>
        <time>2018-08-18T08:07:27Z</time>
      </trkpt>
      <trkpt lat="49.33338" lon="0.92915">
        <ele>88.58</ele>
        <time>2018-08-18T08:07:28Z</time>
      </trkpt>
      <trkpt lat="49.33332" lon="0.9293">
        <ele>91.94</ele>
        <time>2018-08-18T08:07:37Z</time>
      </trkpt>
      <trkpt lat="49.3333" lon="0.92935">
        <ele>92.9</ele>
        <time>2018-08-18T08:07:41Z</time>
      </trkpt>
      <trkpt lat="49.3333" lon="0.92937">
        <ele>92.9</ele>
        <time>2018-08-18T08:07:42Z</time>
      </trkpt>
      <trkpt lat="49.33329" lon="0.92939">
        <ele>93.39</ele>
        <time>2018-08-18T08:07:43Z</time>
      </trkpt>
      <trkpt lat="49.3333" lon="0.92942">
        <ele>93.39</ele>
        <time>2018-08-18T08:07:44Z</time>
      </trkpt>
      <trkpt lat="49.33329" lon="0.92945">
        <ele>93.39</ele>
        <time>2018-08-18T08:07:45Z</time>
      </trkpt>
      <trkpt lat="49.33329" lon="0.92947">
        <ele>93.87</ele>
        <time>2018-08-18T08:07:46Z</time>
      </trkpt>
      <trkpt lat="49.33326" lon="0.92957">
        <ele>94.83</ele>
        <time>2018-08-18T08:07:52Z</time>
      </trkpt>
      <trkpt lat="49.33325" lon="0.92959">
        <ele>94.83</ele>
        <time>2018-08-18T08:07:53Z</time>
      </trkpt>
      <trkpt lat="49.33324" lon="0.92961">
        <ele>95.31</ele>
        <time>2018-08-18T08:07:54Z</time>
      </trkpt>
      <trkpt lat="49.33324" lon="0.9297">
        <ele>95.79</ele>
        <time>2018-08-18T08:07:58Z</time>
      </trkpt>
      <trkpt lat="49.33324" lon="0.92972">
        <ele>95.79</ele>
        <time>2018-08-18T08:07:59Z</time>
      </trkpt>
      <trkpt lat="49.33323" lon="0.92974">
        <ele>96.27</ele>
        <time>2018-08-18T08:08:00Z</time>
      </trkpt>
      <trkpt lat="49.33323" lon="0.92977">
        <ele>96.27</ele>
        <time>2018-08-18T08:08:01Z</time>
      </trkpt>
      <trkpt lat="49.33322" lon="0.92979">
        <ele>96.75</ele>
        <time>2018-08-18T08:08:02Z</time>
      </trkpt>
      <trkpt lat="49.33321" lon="0.92981">
        <ele>96.75</ele>
        <time>2018-08-18T08:08:03Z</time>
      </trkpt>
      <trkpt lat="49.33321" lon="0.92983">
        <ele>97.23</ele>
        <time>2018-08-18T08:08:04Z</time>
      </trkpt>
      <trkpt lat="49.33321" lon="0.92985">
        <ele>97.23</ele>
        <time>2018-08-18T08:08:05Z</time>
      </trkpt>
      <trkpt lat="49.33316" lon="0.93019">
        <ele>99.15</ele>
        <time>2018-08-18T08:08:19Z</time>
      </trkpt>
      <trkpt lat="49.33316" lon="0.93022">
        <ele>99.63</ele>
        <time>2018-08-18T08:08:20Z</time>
      </trkpt>
      <trkpt lat="49.33316" lon="0.93025">
        <ele>99.63</ele>
        <time>2018-08-18T08:08:21Z</time>
      </trkpt>
      <trkpt lat="49.33305" lon="0.93078">
        <ele>101.08</ele>
        <time>2018-08-18T08:08:36Z</time>
      </trkpt>
      <trkpt lat="49.33302" lon="0.93086">
        <ele>101.08</ele>
        <time>2018-08-18T08:08:38Z</time>
      </trkpt>
      <trkpt lat="49.33302" lon="0.9309">
        <ele>101.08</ele>
        <time>2018-08-18T08:08:39Z</time>
      </trkpt>
      <trkpt lat="49.33302" lon="0.93093">
        <ele>101.56</ele>
        <time>2018-08-18T08:08:40Z</time>
      </trkpt>
      <trkpt lat="49.33301" lon="0.93096">
        <ele>101.56</ele>
        <time>2018-08-18T08:08:41Z</time>
      </trkpt>
      <trkpt lat="49.33301" lon="0.931">
        <ele>101.08</ele>
        <time>2018-08-18T08:08:42Z</time>
      </trkpt>
      <trkpt lat="49.333" lon="0.93103">
        <ele>101.56</ele>
        <time>2018-08-18T08:08:43Z</time>
      </trkpt>
      <trkpt lat="49.33299" lon="0.93107">
        <ele>101.56</ele>
        <time>2018-08-18T08:08:44Z</time>
      </trkpt>
      <trkpt lat="49.33265" lon="0.93156">
        <ele>103.48</ele>
        <time>2018-08-18T08:09:01Z</time>
      </trkpt>
      <trkpt lat="49.33252" lon="0.93166">
        <ele>104.44</ele>
        <time>2018-08-18T08:09:07Z</time>
      </trkpt>
      <trkpt lat="49.3325" lon="0.93168">
        <ele>104.44</ele>
        <time>2018-08-18T08:09:08Z</time>
      </trkpt>
      <trkpt lat="49.33248" lon="0.9317">
        <ele>104.92</ele>
        <time>2018-08-18T08:09:09Z</time>
      </trkpt>
      <trkpt lat="49.33246" lon="0.93172">
        <ele>104.92</ele>
        <time>2018-08-18T08:09:10Z</time>
      </trkpt>
      <trkpt lat="49.33244" lon="0.93175">
        <ele>104.92</ele>
        <time>2018-08-18T08:09:11Z</time>
      </trkpt>
      <trkpt lat="49.33243" lon="0.93178">
        <ele>104.92</ele>
        <time>2018-08-18T08:09:12Z</time>
      </trkpt>
      <trkpt lat="49.33241" lon="0.9318">
        <ele>104.92</ele>
        <time>2018-08-18T08:09:13Z</time>
      </trkpt>
      <trkpt lat="49.33239" lon="0.93182">
        <ele>105.4</ele>
        <time>2018-08-18T08:09:14Z</time>
      </trkpt>
      <trkpt lat="49.33237" lon="0.93185">
        <ele>105.4</ele>
        <time>2018-08-18T08:09:15Z</time>
      </trkpt>
      <trkpt lat="49.33235" lon="0.93189">
        <ele>105.4</ele>
        <time>2018-08-18T08:09:16Z</time>
      </trkpt>
      <trkpt lat="49.33233" lon="0.93192">
        <ele>105.4</ele>
        <time>2018-08-18T08:09:17Z</time>
      </trkpt>
      <trkpt lat="49.33232" lon="0.93196">
        <ele>105.4</ele>
        <time>2018-08-18T08:09:18Z</time>
      </trkpt>
      <trkpt lat="49.33225" lon="0.9322">
        <ele>103.96</ele>
        <time>2018-08-18T08:09:23Z</time>
      </trkpt>
      <trkpt lat="49.33221" lon="0.93233">
        <ele>103</ele>
        <time>2018-08-18T08:09:25Z</time>
      </trkpt>
      <trkpt lat="49.33182" lon="0.93277">
        <ele>101.56</ele>
        <time>2018-08-18T08:09:37Z</time>
      </trkpt>
      <trkpt lat="49.33158" lon="0.9327">
        <ele>103.96</ele>
        <time>2018-08-18T08:09:44Z</time>
      </trkpt>
      <trkpt lat="49.33127" lon="0.93264">
        <ele>107.32</ele>
        <time>2018-08-18T08:09:54Z</time>
      </trkpt>
      <trkpt lat="49.33121" lon="0.93265">
        <ele>109.25</ele>
        <time>2018-08-18T08:09:58Z</time>
      </trkpt>
      <trkpt lat="49.33088" lon="0.93257">
        <ele>112.13</ele>
        <time>2018-08-18T08:10:11Z</time>
      </trkpt>
      <trkpt lat="49.33068" lon="0.93286">
        <ele>111.17</ele>
        <time>2018-08-18T08:10:20Z</time>
      </trkpt>
      <trkpt lat="49.3305" lon="0.93336">
        <ele>107.81</ele>
        <time>2018-08-18T08:10:28Z</time>
      </trkpt>
      <trkpt lat="49.3304" lon="0.93373">
        <ele>104.92</ele>
        <time>2018-08-18T08:10:31Z</time>
      </trkpt>
      <trkpt lat="49.3303" lon="0.93394">
        <ele>105.88</ele>
        <time>2018-08-18T08:10:34Z</time>
      </trkpt>
      <trkpt lat="49.33024" lon="0.93407">
        <ele>106.36</ele>
        <time>2018-08-18T08:10:36Z</time>
      </trkpt>
      <trkpt lat="49.32988" lon="0.93473">
        <ele>109.73</ele>
        <time>2018-08-18T08:10:51Z</time>
      </trkpt>
      <trkpt lat="49.32961" lon="0.9353">
        <ele>111.65</ele>
        <time>2018-08-18T08:11:04Z</time>
      </trkpt>
      <trkpt lat="49.32952" lon="0.93554">
        <ele>112.13</ele>
        <time>2018-08-18T08:11:09Z</time>
      </trkpt>
      <trkpt lat="49.32917" lon="0.93604">
        <ele>114.05</ele>
        <time>2018-08-18T08:11:24Z</time>
      </trkpt>
      <trkpt lat="49.32893" lon="0.93634">
        <ele>114.53</ele>
        <time>2018-08-18T08:11:33Z</time>
      </trkpt>
      <trkpt lat="49.32835" lon="0.93649">
        <ele>116.94</ele>
        <time>2018-08-18T08:11:49Z</time>
      </trkpt>
      <trkpt lat="49.32799" lon="0.93654">
        <ele>117.9</ele>
        <time>2018-08-18T08:11:59Z</time>
      </trkpt>
      <trkpt lat="49.32796" lon="0.93654">
        <ele>117.42</ele>
        <time>2018-08-18T08:12:00Z</time>
      </trkpt>
      <trkpt lat="49.32743" lon="0.93674">
        <ele>117.9</ele>
        <time>2018-08-18T08:12:12Z</time>
      </trkpt>
      <trkpt lat="49.32713" lon="0.93682">
        <ele>117.9</ele>
        <time>2018-08-18T08:12:19Z</time>
      </trkpt>
      <trkpt lat="49.32708" lon="0.93682">
        <ele>118.38</ele>
        <time>2018-08-18T08:12:20Z</time>
      </trkpt>
      <trkpt lat="49.32687" lon="0.93689">
        <ele>118.38</ele>
        <time>2018-08-18T08:12:25Z</time>
      </trkpt>
      <trkpt lat="49.32682" lon="0.93691">
        <ele>118.38</ele>
        <time>2018-08-18T08:12:26Z</time>
      </trkpt>
      <trkpt lat="49.3266" lon="0.93697">
        <ele>117.9</ele>
        <time>2018-08-18T08:12:31Z</time>
      </trkpt>
      <trkpt lat="49.32644" lon="0.93698">
        <ele>117.9</ele>
        <time>2018-08-18T08:12:34Z</time>
      </trkpt>
      <trkpt lat="49.32634" lon="0.93701">
        <ele>117.9</ele>
        <time>2018-08-18T08:12:36Z</time>
      </trkpt>
      <trkpt lat="49.3261" lon="0.93707">
        <ele>117.9</ele>
        <time>2018-08-18T08:12:41Z</time>
      </trkpt>
      <trkpt lat="49.32575" lon="0.93716">
        <ele>116.94</ele>
        <time>2018-08-18T08:12:48Z</time>
      </trkpt>
      <trkpt lat="49.3257" lon="0.93717">
        <ele>116.46</ele>
        <time>2018-08-18T08:12:49Z</time>
      </trkpt>
      <trkpt lat="49.32564" lon="0.93718">
        <ele>116.46</ele>
        <time>2018-08-18T08:12:50Z</time>
      </trkpt>
      <trkpt lat="49.32545" lon="0.93723">
        <ele>115.98</ele>
        <time>2018-08-18T08:12:54Z</time>
      </trkpt>
      <trkpt lat="49.32453" lon="0.93741">
        <ele>113.57</ele>
        <time>2018-08-18T08:13:10Z</time>
      </trkpt>
      <trkpt lat="49.32436" lon="0.93744">
        <ele>113.09</ele>
        <time>2018-08-18T08:13:13Z</time>
      </trkpt>
      <trkpt lat="49.32395" lon="0.93752">
        <ele>111.65</ele>
        <time>2018-08-18T08:13:20Z</time>
      </trkpt>
      <trkpt lat="49.32389" lon="0.93753">
        <ele>111.17</ele>
        <time>2018-08-18T08:13:21Z</time>
      </trkpt>
      <trkpt lat="49.32383" lon="0.93755">
        <ele>110.69</ele>
        <time>2018-08-18T08:13:22Z</time>
      </trkpt>
      <trkpt lat="49.32375" lon="0.93757">
        <ele>110.21</ele>
        <time>2018-08-18T08:13:23Z</time>
      </trkpt>
      <trkpt lat="49.32352" lon="0.93763">
        <ele>107.32</ele>
        <time>2018-08-18T08:13:26Z</time>
      </trkpt>
      <trkpt lat="49.32343" lon="0.9377">
        <ele>106.36</ele>
        <time>2018-08-18T08:13:27Z</time>
      </trkpt>
      <trkpt lat="49.32336" lon="0.93778">
        <ele>106.36</ele>
        <time>2018-08-18T08:13:28Z</time>
      </trkpt>
      <trkpt lat="49.32332" lon="0.93788">
        <ele>105.88</ele>
        <time>2018-08-18T08:13:29Z</time>
      </trkpt>
      <trkpt lat="49.32329" lon="0.93799">
        <ele>105.88</ele>
        <time>2018-08-18T08:13:30Z</time>
      </trkpt>
      <trkpt lat="49.32328" lon="0.9381">
        <ele>105.88</ele>
        <time>2018-08-18T08:13:31Z</time>
      </trkpt>
      <trkpt lat="49.32329" lon="0.9382">
        <ele>105.88</ele>
        <time>2018-08-18T08:13:32Z</time>
      </trkpt>
      <trkpt lat="49.32331" lon="0.93826">
        <ele>105.88</ele>
        <time>2018-08-18T08:13:33Z</time>
      </trkpt>
      <trkpt lat="49.32333" lon="0.93831">
        <ele>106.36</ele>
        <time>2018-08-18T08:13:34Z</time>
      </trkpt>
      <trkpt lat="49.32335" lon="0.93844">
        <ele>107.32</ele>
        <time>2018-08-18T08:13:36Z</time>
      </trkpt>
      <trkpt lat="49.32335" lon="0.93849">
        <ele>107.32</ele>
        <time>2018-08-18T08:13:37Z</time>
      </trkpt>
      <trkpt lat="49.32335" lon="0.93852">
        <ele>107.81</ele>
        <time>2018-08-18T08:13:38Z</time>
      </trkpt>
      <trkpt lat="49.32335" lon="0.93855">
        <ele>107.81</ele>
        <time>2018-08-18T08:13:39Z</time>
      </trkpt>
      <trkpt lat="49.32335" lon="0.9386">
        <ele>107.81</ele>
        <time>2018-08-18T08:13:40Z</time>
      </trkpt>
      <trkpt lat="49.32334" lon="0.93864">
        <ele>107.32</ele>
        <time>2018-08-18T08:13:41Z</time>
      </trkpt>
      <trkpt lat="49.32334" lon="0.9387">
        <ele>107.32</ele>
        <time>2018-08-18T08:13:42Z</time>
      </trkpt>
      <trkpt lat="49.32335" lon="0.93887">
        <ele>107.32</ele>
        <time>2018-08-18T08:13:45Z</time>
      </trkpt>
      <trkpt lat="49.32335" lon="0.93893">
        <ele>106.36</ele>
        <time>2018-08-18T08:13:46Z</time>
      </trkpt>
      <trkpt lat="49.32334" lon="0.93932">
        <ele>106.36</ele>
        <time>2018-08-18T08:13:53Z</time>
      </trkpt>
      <trkpt lat="49.32335" lon="0.93938">
        <ele>106.36</ele>
        <time>2018-08-18T08:13:54Z</time>
      </trkpt>
      <trkpt lat="49.32335" lon="0.93944">
        <ele>106.36</ele>
        <time>2018-08-18T08:13:55Z</time>
      </trkpt>
      <trkpt lat="49.32359" lon="0.94019">
        <ele>104.92</ele>
        <time>2018-08-18T08:14:08Z</time>
      </trkpt>
      <trkpt lat="49.32406" lon="0.94073">
        <ele>106.36</ele>
        <time>2018-08-18T08:14:22Z</time>
      </trkpt>
      <trkpt lat="49.32418" lon="0.94089">
        <ele>106.84</ele>
        <time>2018-08-18T08:14:26Z</time>
      </trkpt>
      <trkpt lat="49.3242" lon="0.94092">
        <ele>106.84</ele>
        <time>2018-08-18T08:14:27Z</time>
      </trkpt>
      <trkpt lat="49.32424" lon="0.94095">
        <ele>106.36</ele>
        <time>2018-08-18T08:14:28Z</time>
      </trkpt>
      <trkpt lat="49.32452" lon="0.9412">
        <ele>107.32</ele>
        <time>2018-08-18T08:14:36Z</time>
      </trkpt>
      <trkpt lat="49.32455" lon="0.94124">
        <ele>106.84</ele>
        <time>2018-08-18T08:14:37Z</time>
      </trkpt>
      <trkpt lat="49.3246" lon="0.94125">
        <ele>107.32</ele>
        <time>2018-08-18T08:14:39Z</time>
      </trkpt>
      <trkpt lat="49.32462" lon="0.94123">
        <ele>107.81</ele>
        <time>2018-08-18T08:14:40Z</time>
      </trkpt>
      <trkpt lat="49.32467" lon="0.94125">
        <ele>108.77</ele>
        <time>2018-08-18T08:14:42Z</time>
      </trkpt>
      <trkpt lat="49.32475" lon="0.94135">
        <ele>107.32</ele>
        <time>2018-08-18T08:14:45Z</time>
      </trkpt>
      <trkpt lat="49.32478" lon="0.94137">
        <ele>107.32</ele>
        <time>2018-08-18T08:14:46Z</time>
      </trkpt>
      <trkpt lat="49.32484" lon="0.94141">
        <ele>107.81</ele>
        <time>2018-08-18T08:14:49Z</time>
      </trkpt>
      <trkpt lat="49.32503" lon="0.94162">
        <ele>108.77</ele>
        <time>2018-08-18T08:14:57Z</time>
      </trkpt>
      <trkpt lat="49.32524" lon="0.94181">
        <ele>109.73</ele>
        <time>2018-08-18T08:15:03Z</time>
      </trkpt>
      <trkpt lat="49.32532" lon="0.94193">
        <ele>109.25</ele>
        <time>2018-08-18T08:15:06Z</time>
      </trkpt>
      <trkpt lat="49.32547" lon="0.9421">
        <ele>108.77</ele>
        <time>2018-08-18T08:15:10Z</time>
      </trkpt>
      <trkpt lat="49.32549" lon="0.94215">
        <ele>108.77</ele>
        <time>2018-08-18T08:15:11Z</time>
      </trkpt>
      <trkpt lat="49.32553" lon="0.94219">
        <ele>108.77</ele>
        <time>2018-08-18T08:15:12Z</time>
      </trkpt>
      <trkpt lat="49.32556" lon="0.94223">
        <ele>109.73</ele>
        <time>2018-08-18T08:15:13Z</time>
      </trkpt>
      <trkpt lat="49.32559" lon="0.94228">
        <ele>109.25</ele>
        <time>2018-08-18T08:15:14Z</time>
      </trkpt>
      <trkpt lat="49.3256" lon="0.94233">
        <ele>109.25</ele>
        <time>2018-08-18T08:15:15Z</time>
      </trkpt>
      <trkpt lat="49.32562" lon="0.94238">
        <ele>108.77</ele>
        <time>2018-08-18T08:15:16Z</time>
      </trkpt>
      <trkpt lat="49.32565" lon="0.94244">
        <ele>108.77</ele>
        <time>2018-08-18T08:15:17Z</time>
      </trkpt>
      <trkpt lat="49.32581" lon="0.9429">
        <ele>107.81</ele>
        <time>2018-08-18T08:15:25Z</time>
      </trkpt>
      <trkpt lat="49.32583" lon="0.94296">
        <ele>107.32</ele>
        <time>2018-08-18T08:15:26Z</time>
      </trkpt>
      <trkpt lat="49.32585" lon="0.943">
        <ele>107.81</ele>
        <time>2018-08-18T08:15:27Z</time>
      </trkpt>
      <trkpt lat="49.32596" lon="0.94319">
        <ele>108.77</ele>
        <time>2018-08-18T08:15:32Z</time>
      </trkpt>
      <trkpt lat="49.32596" lon="0.94322">
        <ele>108.77</ele>
        <time>2018-08-18T08:15:33Z</time>
      </trkpt>
      <trkpt lat="49.32597" lon="0.94325">
        <ele>108.29</ele>
        <time>2018-08-18T08:15:34Z</time>
      </trkpt>
      <trkpt lat="49.32596" lon="0.94326">
        <ele>107.81</ele>
        <time>2018-08-18T08:15:35Z</time>
      </trkpt>
      <trkpt lat="49.32595" lon="0.94328">
        <ele>106.84</ele>
        <time>2018-08-18T08:15:36Z</time>
      </trkpt>
      <trkpt lat="49.32597" lon="0.94337">
        <ele>106.36</ele>
        <time>2018-08-18T08:15:38Z</time>
      </trkpt>
      <trkpt lat="49.32603" lon="0.94341">
        <ele>107.81</ele>
        <time>2018-08-18T08:15:40Z</time>
      </trkpt>
      <trkpt lat="49.32611" lon="0.94351">
        <ele>108.77</ele>
        <time>2018-08-18T08:15:46Z</time>
      </trkpt>
      <trkpt lat="49.32616" lon="0.94364">
        <ele>108.29</ele>
        <time>2018-08-18T08:15:48Z</time>
      </trkpt>
      <trkpt lat="49.32615" lon="0.94389">
        <ele>106.84</ele>
        <time>2018-08-18T08:15:51Z</time>
      </trkpt>
      <trkpt lat="49.32624" lon="0.94443">
        <ele>109.25</ele>
        <time>2018-08-18T08:16:00Z</time>
      </trkpt>
      <trkpt lat="49.32623" lon="0.9446">
        <ele>108.29</ele>
        <time>2018-08-18T08:16:03Z</time>
      </trkpt>
      <trkpt lat="49.32625" lon="0.94529">
        <ele>106.84</ele>
        <time>2018-08-18T08:16:12Z</time>
      </trkpt>
      <trkpt lat="49.32636" lon="0.94605">
        <ele>104.92</ele>
        <time>2018-08-18T08:16:22Z</time>
      </trkpt>
      <trkpt lat="49.32636" lon="0.94619">
        <ele>106.36</ele>
        <time>2018-08-18T08:16:24Z</time>
      </trkpt>
      <trkpt lat="49.32636" lon="0.9463">
        <ele>107.32</ele>
        <time>2018-08-18T08:16:26Z</time>
      </trkpt>
      <trkpt lat="49.32642" lon="0.94658">
        <ele>109.25</ele>
        <time>2018-08-18T08:16:34Z</time>
      </trkpt>
      <trkpt lat="49.32648" lon="0.94675">
        <ele>110.21</ele>
        <time>2018-08-18T08:16:39Z</time>
      </trkpt>
      <trkpt lat="49.32649" lon="0.94683">
        <ele>110.21</ele>
        <time>2018-08-18T08:16:41Z</time>
      </trkpt>
      <trkpt lat="49.32655" lon="0.9471">
        <ele>108.77</ele>
        <time>2018-08-18T08:16:46Z</time>
      </trkpt>
      <trkpt lat="49.3266" lon="0.94717">
        <ele>108.77</ele>
        <time>2018-08-18T08:16:47Z</time>
      </trkpt>
      <trkpt lat="49.32664" lon="0.94723">
        <ele>108.77</ele>
        <time>2018-08-18T08:16:48Z</time>
      </trkpt>
      <trkpt lat="49.32668" lon="0.94728">
        <ele>109.25</ele>
        <time>2018-08-18T08:16:49Z</time>
      </trkpt>
      <trkpt lat="49.32671" lon="0.94732">
        <ele>109.73</ele>
        <time>2018-08-18T08:16:50Z</time>
      </trkpt>
      <trkpt lat="49.32674" lon="0.94734">
        <ele>110.21</ele>
        <time>2018-08-18T08:16:51Z</time>
      </trkpt>
      <trkpt lat="49.32697" lon="0.94755">
        <ele>113.57</ele>
        <time>2018-08-18T08:16:58Z</time>
      </trkpt>
      <trkpt lat="49.32713" lon="0.94781">
        <ele>115.98</ele>
        <time>2018-08-18T08:17:06Z</time>
      </trkpt>
      <trkpt lat="49.32715" lon="0.94785">
        <ele>115.98</ele>
        <time>2018-08-18T08:17:07Z</time>
      </trkpt>
      <trkpt lat="49.32717" lon="0.94789">
        <ele>115.98</ele>
        <time>2018-08-18T08:17:08Z</time>
      </trkpt>
      <trkpt lat="49.32719" lon="0.94799">
        <ele>115.98</ele>
        <time>2018-08-18T08:17:10Z</time>
      </trkpt>
      <trkpt lat="49.32718" lon="0.94804">
        <ele>115.98</ele>
        <time>2018-08-18T08:17:11Z</time>
      </trkpt>
      <trkpt lat="49.32717" lon="0.94809">
        <ele>115.5</ele>
        <time>2018-08-18T08:17:12Z</time>
      </trkpt>
      <trkpt lat="49.32714" lon="0.94826">
        <ele>115.01</ele>
        <time>2018-08-18T08:17:15Z</time>
      </trkpt>
      <trkpt lat="49.32712" lon="0.94832">
        <ele>114.53</ele>
        <time>2018-08-18T08:17:16Z</time>
      </trkpt>
      <trkpt lat="49.32708" lon="0.94846">
        <ele>114.05</ele>
        <time>2018-08-18T08:17:18Z</time>
      </trkpt>
      <trkpt lat="49.32706" lon="0.94853">
        <ele>114.05</ele>
        <time>2018-08-18T08:17:19Z</time>
      </trkpt>
      <trkpt lat="49.32703" lon="0.9486">
        <ele>113.57</ele>
        <time>2018-08-18T08:17:20Z</time>
      </trkpt>
      <trkpt lat="49.32701" lon="0.94867">
        <ele>113.57</ele>
        <time>2018-08-18T08:17:21Z</time>
      </trkpt>
      <trkpt lat="49.327" lon="0.94876">
        <ele>113.57</ele>
        <time>2018-08-18T08:17:22Z</time>
      </trkpt>
      <trkpt lat="49.32698" lon="0.94884">
        <ele>113.57</ele>
        <time>2018-08-18T08:17:23Z</time>
      </trkpt>
      <trkpt lat="49.32695" lon="0.94892">
        <ele>112.61</ele>
        <time>2018-08-18T08:17:24Z</time>
      </trkpt>
      <trkpt lat="49.32682" lon="0.94937">
        <ele>112.61</ele>
        <time>2018-08-18T08:17:29Z</time>
      </trkpt>
      <trkpt lat="49.32679" lon="0.94955">
        <ele>112.61</ele>
        <time>2018-08-18T08:17:31Z</time>
      </trkpt>
      <trkpt lat="49.32679" lon="0.94965">
        <ele>112.61</ele>
        <time>2018-08-18T08:17:32Z</time>
      </trkpt>
      <trkpt lat="49.3268" lon="0.94974">
        <ele>112.13</ele>
        <time>2018-08-18T08:17:33Z</time>
      </trkpt>
      <trkpt lat="49.32682" lon="0.94984">
        <ele>112.61</ele>
        <time>2018-08-18T08:17:34Z</time>
      </trkpt>
      <trkpt lat="49.32685" lon="0.94993">
        <ele>112.61</ele>
        <time>2018-08-18T08:17:35Z</time>
      </trkpt>
      <trkpt lat="49.32688" lon="0.95002">
        <ele>112.13</ele>
        <time>2018-08-18T08:17:36Z</time>
      </trkpt>
      <trkpt lat="49.32709" lon="0.95069">
        <ele>112.61</ele>
        <time>2018-08-18T08:17:44Z</time>
      </trkpt>
      <trkpt lat="49.32711" lon="0.95076">
        <ele>113.09</ele>
        <time>2018-08-18T08:17:45Z</time>
      </trkpt>
      <trkpt lat="49.32713" lon="0.95083">
        <ele>113.09</ele>
        <time>2018-08-18T08:17:46Z</time>
      </trkpt>
      <trkpt lat="49.32715" lon="0.95089">
        <ele>113.57</ele>
        <time>2018-08-18T08:17:47Z</time>
      </trkpt>
      <trkpt lat="49.32714" lon="0.95096">
        <ele>113.09</ele>
        <time>2018-08-18T08:17:48Z</time>
      </trkpt>
      <trkpt lat="49.32713" lon="0.95102">
        <ele>113.57</ele>
        <time>2018-08-18T08:17:49Z</time>
      </trkpt>
      <trkpt lat="49.32711" lon="0.95108">
        <ele>114.05</ele>
        <time>2018-08-18T08:17:50Z</time>
      </trkpt>
      <trkpt lat="49.32708" lon="0.95113">
        <ele>114.05</ele>
        <time>2018-08-18T08:17:51Z</time>
      </trkpt>
      <trkpt lat="49.32677" lon="0.95175">
        <ele>115.5</ele>
        <time>2018-08-18T08:18:03Z</time>
      </trkpt>
      <trkpt lat="49.32673" lon="0.95181">
        <ele>115.98</ele>
        <time>2018-08-18T08:18:04Z</time>
      </trkpt>
      <trkpt lat="49.3267" lon="0.95186">
        <ele>115.98</ele>
        <time>2018-08-18T08:18:05Z</time>
      </trkpt>
      <trkpt lat="49.32664" lon="0.95197">
        <ele>116.94</ele>
        <time>2018-08-18T08:18:07Z</time>
      </trkpt>
      <trkpt lat="49.32661" lon="0.95202">
        <ele>116.94</ele>
        <time>2018-08-18T08:18:08Z</time>
      </trkpt>
      <trkpt lat="49.32658" lon="0.95208">
        <ele>117.42</ele>
        <time>2018-08-18T08:18:09Z</time>
      </trkpt>
      <trkpt lat="49.32654" lon="0.95211">
        <ele>117.42</ele>
        <time>2018-08-18T08:18:10Z</time>
      </trkpt>
      <trkpt lat="49.32651" lon="0.95216">
        <ele>117.42</ele>
        <time>2018-08-18T08:18:11Z</time>
      </trkpt>
      <trkpt lat="49.32648" lon="0.95221">
        <ele>117.42</ele>
        <time>2018-08-18T08:18:12Z</time>
      </trkpt>
      <trkpt lat="49.32645" lon="0.95225">
        <ele>117.42</ele>
        <time>2018-08-18T08:18:13Z</time>
      </trkpt>
      <trkpt lat="49.32642" lon="0.9523">
        <ele>117.42</ele>
        <time>2018-08-18T08:18:14Z</time>
      </trkpt>
      <trkpt lat="49.3264" lon="0.95233">
        <ele>117.9</ele>
        <time>2018-08-18T08:18:15Z</time>
      </trkpt>
      <trkpt lat="49.32615" lon="0.95303">
        <ele>118.38</ele>
        <time>2018-08-18T08:18:27Z</time>
      </trkpt>
      <trkpt lat="49.32613" lon="0.9531">
        <ele>118.86</ele>
        <time>2018-08-18T08:18:28Z</time>
      </trkpt>
      <trkpt lat="49.32611" lon="0.95316">
        <ele>118.86</ele>
        <time>2018-08-18T08:18:29Z</time>
      </trkpt>
      <trkpt lat="49.32608" lon="0.95323">
        <ele>118.86</ele>
        <time>2018-08-18T08:18:30Z</time>
      </trkpt>
      <trkpt lat="49.32606" lon="0.95331">
        <ele>118.86</ele>
        <time>2018-08-18T08:18:31Z</time>
      </trkpt>
      <trkpt lat="49.32605" lon="0.95338">
        <ele>118.86</ele>
        <time>2018-08-18T08:18:32Z</time>
      </trkpt>
      <trkpt lat="49.32605" lon="0.95344">
        <ele>119.34</ele>
        <time>2018-08-18T08:18:33Z</time>
      </trkpt>
      <trkpt lat="49.32596" lon="0.95384">
        <ele>119.34</ele>
        <time>2018-08-18T08:18:39Z</time>
      </trkpt>
      <trkpt lat="49.32592" lon="0.9539">
        <ele>119.34</ele>
        <time>2018-08-18T08:18:40Z</time>
      </trkpt>
      <trkpt lat="49.32589" lon="0.95397">
        <ele>119.34</ele>
        <time>2018-08-18T08:18:41Z</time>
      </trkpt>
      <trkpt lat="49.32549" lon="0.95485">
        <ele>118.86</ele>
        <time>2018-08-18T08:18:55Z</time>
      </trkpt>
      <trkpt lat="49.32546" lon="0.95491">
        <ele>118.86</ele>
        <time>2018-08-18T08:18:56Z</time>
      </trkpt>
      <trkpt lat="49.32522" lon="0.95555">
        <ele>117.9</ele>
        <time>2018-08-18T08:19:04Z</time>
      </trkpt>
      <trkpt lat="49.3252" lon="0.95564">
        <ele>117.9</ele>
        <time>2018-08-18T08:19:05Z</time>
      </trkpt>
      <trkpt lat="49.32517" lon="0.95572">
        <ele>117.42</ele>
        <time>2018-08-18T08:19:06Z</time>
      </trkpt>
      <trkpt lat="49.32514" lon="0.9558">
        <ele>117.42</ele>
        <time>2018-08-18T08:19:07Z</time>
      </trkpt>
      <trkpt lat="49.32511" lon="0.95588">
        <ele>117.42</ele>
        <time>2018-08-18T08:19:08Z</time>
      </trkpt>
      <trkpt lat="49.32508" lon="0.95595">
        <ele>117.42</ele>
        <time>2018-08-18T08:19:09Z</time>
      </trkpt>
      <trkpt lat="49.32503" lon="0.95611">
        <ele>117.42</ele>
        <time>2018-08-18T08:19:11Z</time>
      </trkpt>
      <trkpt lat="49.32501" lon="0.95618">
        <ele>117.42</ele>
        <time>2018-08-18T08:19:12Z</time>
      </trkpt>
      <trkpt lat="49.32497" lon="0.95632">
        <ele>117.42</ele>
        <time>2018-08-18T08:19:14Z</time>
      </trkpt>
      <trkpt lat="49.32494" lon="0.95646">
        <ele>116.94</ele>
        <time>2018-08-18T08:19:16Z</time>
      </trkpt>
      <trkpt lat="49.32491" lon="0.95654">
        <ele>116.46</ele>
        <time>2018-08-18T08:19:17Z</time>
      </trkpt>
      <trkpt lat="49.32481" lon="0.95686">
        <ele>116.94</ele>
        <time>2018-08-18T08:19:21Z</time>
      </trkpt>
      <trkpt lat="49.32479" lon="0.95694">
        <ele>116.46</ele>
        <time>2018-08-18T08:19:22Z</time>
      </trkpt>
      <trkpt lat="49.32477" lon="0.95701">
        <ele>116.94</ele>
        <time>2018-08-18T08:19:23Z</time>
      </trkpt>
      <trkpt lat="49.32475" lon="0.9571">
        <ele>116.94</ele>
        <time>2018-08-18T08:19:24Z</time>
      </trkpt>
      <trkpt lat="49.32473" lon="0.95718">
        <ele>116.46</ele>
        <time>2018-08-18T08:19:25Z</time>
      </trkpt>
      <trkpt lat="49.32471" lon="0.95727">
        <ele>116.94</ele>
        <time>2018-08-18T08:19:26Z</time>
      </trkpt>
      <trkpt lat="49.32469" lon="0.95734">
        <ele>116.94</ele>
        <time>2018-08-18T08:19:27Z</time>
      </trkpt>
      <trkpt lat="49.32464" lon="0.95749">
        <ele>116.94</ele>
        <time>2018-08-18T08:19:29Z</time>
      </trkpt>
      <trkpt lat="49.32462" lon="0.95757">
        <ele>116.94</ele>
        <time>2018-08-18T08:19:30Z</time>
      </trkpt>
      <trkpt lat="49.32459" lon="0.95765">
        <ele>116.94</ele>
        <time>2018-08-18T08:19:31Z</time>
      </trkpt>
      <trkpt lat="49.32455" lon="0.95773">
        <ele>116.46</ele>
        <time>2018-08-18T08:19:32Z</time>
      </trkpt>
      <trkpt lat="49.32452" lon="0.95781">
        <ele>116.46</ele>
        <time>2018-08-18T08:19:33Z</time>
      </trkpt>
      <trkpt lat="49.32449" lon="0.95788">
        <ele>116.46</ele>
        <time>2018-08-18T08:19:34Z</time>
      </trkpt>
      <trkpt lat="49.32447" lon="0.95797">
        <ele>116.46</ele>
        <time>2018-08-18T08:19:35Z</time>
      </trkpt>
      <trkpt lat="49.32445" lon="0.95805">
        <ele>115.98</ele>
        <time>2018-08-18T08:19:36Z</time>
      </trkpt>
      <trkpt lat="49.32444" lon="0.95821">
        <ele>115.98</ele>
        <time>2018-08-18T08:19:38Z</time>
      </trkpt>
      <trkpt lat="49.32445" lon="0.95829">
        <ele>115.98</ele>
        <time>2018-08-18T08:19:39Z</time>
      </trkpt>
      <trkpt lat="49.32445" lon="0.95837">
        <ele>115.98</ele>
        <time>2018-08-18T08:19:40Z</time>
      </trkpt>
      <trkpt lat="49.32444" lon="0.95846">
        <ele>115.98</ele>
        <time>2018-08-18T08:19:41Z</time>
      </trkpt>
      <trkpt lat="49.32444" lon="0.95855">
        <ele>115.98</ele>
        <time>2018-08-18T08:19:42Z</time>
      </trkpt>
      <trkpt lat="49.32445" lon="0.95863">
        <ele>115.98</ele>
        <time>2018-08-18T08:19:43Z</time>
      </trkpt>
      <trkpt lat="49.32446" lon="0.95881">
        <ele>115.5</ele>
        <time>2018-08-18T08:19:45Z</time>
      </trkpt>
      <trkpt lat="49.32444" lon="0.95889">
        <ele>115.5</ele>
        <time>2018-08-18T08:19:46Z</time>
      </trkpt>
      <trkpt lat="49.32438" lon="0.95928">
        <ele>114.05</ele>
        <time>2018-08-18T08:19:50Z</time>
      </trkpt>
      <trkpt lat="49.32437" lon="0.95938">
        <ele>114.05</ele>
        <time>2018-08-18T08:19:51Z</time>
      </trkpt>
      <trkpt lat="49.32432" lon="0.9599">
        <ele>112.13</ele>
        <time>2018-08-18T08:19:56Z</time>
      </trkpt>
      <trkpt lat="49.32431" lon="0.96">
        <ele>112.13</ele>
        <time>2018-08-18T08:19:57Z</time>
      </trkpt>
      <trkpt lat="49.32429" lon="0.96011">
        <ele>111.65</ele>
        <time>2018-08-18T08:19:58Z</time>
      </trkpt>
      <trkpt lat="49.32426" lon="0.9602">
        <ele>111.17</ele>
        <time>2018-08-18T08:19:59Z</time>
      </trkpt>
      <trkpt lat="49.32422" lon="0.96028">
        <ele>111.17</ele>
        <time>2018-08-18T08:20:00Z</time>
      </trkpt>
      <trkpt lat="49.32416" lon="0.96045">
        <ele>110.21</ele>
        <time>2018-08-18T08:20:02Z</time>
      </trkpt>
      <trkpt lat="49.32413" lon="0.96053">
        <ele>109.73</ele>
        <time>2018-08-18T08:20:03Z</time>
      </trkpt>
      <trkpt lat="49.32409" lon="0.96062">
        <ele>109.73</ele>
        <time>2018-08-18T08:20:04Z</time>
      </trkpt>
      <trkpt lat="49.32405" lon="0.96072">
        <ele>109.25</ele>
        <time>2018-08-18T08:20:05Z</time>
      </trkpt>
      <trkpt lat="49.32403" lon="0.96083">
        <ele>108.77</ele>
        <time>2018-08-18T08:20:06Z</time>
      </trkpt>
      <trkpt lat="49.32401" lon="0.96095">
        <ele>108.77</ele>
        <time>2018-08-18T08:20:07Z</time>
      </trkpt>
      <trkpt lat="49.324" lon="0.96106">
        <ele>108.29</ele>
        <time>2018-08-18T08:20:08Z</time>
      </trkpt>
      <trkpt lat="49.32397" lon="0.96126">
        <ele>108.29</ele>
        <time>2018-08-18T08:20:10Z</time>
      </trkpt>
      <trkpt lat="49.32394" lon="0.96134">
        <ele>107.81</ele>
        <time>2018-08-18T08:20:11Z</time>
      </trkpt>
      <trkpt lat="49.32391" lon="0.96144">
        <ele>107.32</ele>
        <time>2018-08-18T08:20:12Z</time>
      </trkpt>
      <trkpt lat="49.32388" lon="0.96154">
        <ele>106.84</ele>
        <time>2018-08-18T08:20:13Z</time>
      </trkpt>
      <trkpt lat="49.32386" lon="0.96165">
        <ele>106.36</ele>
        <time>2018-08-18T08:20:14Z</time>
      </trkpt>
      <trkpt lat="49.32384" lon="0.96176">
        <ele>106.36</ele>
        <time>2018-08-18T08:20:15Z</time>
      </trkpt>
      <trkpt lat="49.32382" lon="0.96187">
        <ele>105.88</ele>
        <time>2018-08-18T08:20:16Z</time>
      </trkpt>
      <trkpt lat="49.32379" lon="0.96197">
        <ele>105.88</ele>
        <time>2018-08-18T08:20:17Z</time>
      </trkpt>
      <trkpt lat="49.32372" lon="0.96226">
        <ele>105.4</ele>
        <time>2018-08-18T08:20:20Z</time>
      </trkpt>
      <trkpt lat="49.32369" lon="0.96235">
        <ele>104.92</ele>
        <time>2018-08-18T08:20:21Z</time>
      </trkpt>
      <trkpt lat="49.32367" lon="0.96245">
        <ele>104.92</ele>
        <time>2018-08-18T08:20:22Z</time>
      </trkpt>
      <trkpt lat="49.32365" lon="0.96256">
        <ele>104.92</ele>
        <time>2018-08-18T08:20:23Z</time>
      </trkpt>
      <trkpt lat="49.32365" lon="0.96266">
        <ele>104.44</ele>
        <time>2018-08-18T08:20:24Z</time>
      </trkpt>
      <trkpt lat="49.32365" lon="0.96276">
        <ele>104.92</ele>
        <time>2018-08-18T08:20:25Z</time>
      </trkpt>
      <trkpt lat="49.32363" lon="0.96286">
        <ele>104.92</ele>
        <time>2018-08-18T08:20:26Z</time>
      </trkpt>
      <trkpt lat="49.32361" lon="0.96295">
        <ele>104.92</ele>
        <time>2018-08-18T08:20:27Z</time>
      </trkpt>
      <trkpt lat="49.32359" lon="0.96304">
        <ele>104.92</ele>
        <time>2018-08-18T08:20:28Z</time>
      </trkpt>
      <trkpt lat="49.32357" lon="0.96314">
        <ele>104.92</ele>
        <time>2018-08-18T08:20:29Z</time>
      </trkpt>
      <trkpt lat="49.32354" lon="0.96324">
        <ele>104.92</ele>
        <time>2018-08-18T08:20:30Z</time>
      </trkpt>
      <trkpt lat="49.32353" lon="0.96335">
        <ele>104.44</ele>
        <time>2018-08-18T08:20:31Z</time>
      </trkpt>
      <trkpt lat="49.32351" lon="0.96345">
        <ele>104.44</ele>
        <time>2018-08-18T08:20:32Z</time>
      </trkpt>
      <trkpt lat="49.3234" lon="0.96414">
        <ele>103.48</ele>
        <time>2018-08-18T08:20:39Z</time>
      </trkpt>
      <trkpt lat="49.32338" lon="0.96431">
        <ele>103</ele>
        <time>2018-08-18T08:20:41Z</time>
      </trkpt>
      <trkpt lat="49.32337" lon="0.9644">
        <ele>103.48</ele>
        <time>2018-08-18T08:20:42Z</time>
      </trkpt>
      <trkpt lat="49.32337" lon="0.96449">
        <ele>103</ele>
        <time>2018-08-18T08:20:43Z</time>
      </trkpt>
      <trkpt lat="49.32336" lon="0.96468">
        <ele>103</ele>
        <time>2018-08-18T08:20:45Z</time>
      </trkpt>
      <trkpt lat="49.32336" lon="0.96479">
        <ele>102.52</ele>
        <time>2018-08-18T08:20:46Z</time>
      </trkpt>
      <trkpt lat="49.32336" lon="0.96491">
        <ele>102.52</ele>
        <time>2018-08-18T08:20:47Z</time>
      </trkpt>
      <trkpt lat="49.32336" lon="0.96503">
        <ele>102.52</ele>
        <time>2018-08-18T08:20:48Z</time>
      </trkpt>
      <trkpt lat="49.32336" lon="0.96514">
        <ele>102.04</ele>
        <time>2018-08-18T08:20:49Z</time>
      </trkpt>
      <trkpt lat="49.32335" lon="0.96525">
        <ele>101.56</ele>
        <time>2018-08-18T08:20:50Z</time>
      </trkpt>
      <trkpt lat="49.32333" lon="0.96537">
        <ele>101.08</ele>
        <time>2018-08-18T08:20:51Z</time>
      </trkpt>
      <trkpt lat="49.32331" lon="0.96549">
        <ele>100.6</ele>
        <time>2018-08-18T08:20:52Z</time>
      </trkpt>
      <trkpt lat="49.32332" lon="0.96598">
        <ele>98.19</ele>
        <time>2018-08-18T08:20:56Z</time>
      </trkpt>
      <trkpt lat="49.32335" lon="0.96609">
        <ele>98.19</ele>
        <time>2018-08-18T08:20:57Z</time>
      </trkpt>
      <trkpt lat="49.32337" lon="0.9662">
        <ele>98.19</ele>
        <time>2018-08-18T08:20:58Z</time>
      </trkpt>
      <trkpt lat="49.32345" lon="0.96667">
        <ele>99.15</ele>
        <time>2018-08-18T08:21:03Z</time>
      </trkpt>
      <trkpt lat="49.32348" lon="0.96675">
        <ele>99.15</ele>
        <time>2018-08-18T08:21:04Z</time>
      </trkpt>
      <trkpt lat="49.32354" lon="0.96713">
        <ele>101.08</ele>
        <time>2018-08-18T08:21:09Z</time>
      </trkpt>
      <trkpt lat="49.32357" lon="0.96742">
        <ele>101.56</ele>
        <time>2018-08-18T08:21:13Z</time>
      </trkpt>
      <trkpt lat="49.32357" lon="0.96749">
        <ele>101.56</ele>
        <time>2018-08-18T08:21:14Z</time>
      </trkpt>
      <trkpt lat="49.32358" lon="0.96755">
        <ele>102.04</ele>
        <time>2018-08-18T08:21:15Z</time>
      </trkpt>
      <trkpt lat="49.32359" lon="0.9676">
        <ele>102.04</ele>
        <time>2018-08-18T08:21:16Z</time>
      </trkpt>
      <trkpt lat="49.3236" lon="0.96763">
        <ele>103</ele>
        <time>2018-08-18T08:21:17Z</time>
      </trkpt>
      <trkpt lat="49.3236" lon="0.96768">
        <ele>103</ele>
        <time>2018-08-18T08:21:18Z</time>
      </trkpt>
      <trkpt lat="49.3236" lon="0.96774">
        <ele>103</ele>
        <time>2018-08-18T08:21:19Z</time>
      </trkpt>
      <trkpt lat="49.3236" lon="0.9678">
        <ele>103</ele>
        <time>2018-08-18T08:21:20Z</time>
      </trkpt>
      <trkpt lat="49.3236" lon="0.96787">
        <ele>103</ele>
        <time>2018-08-18T08:21:21Z</time>
      </trkpt>
      <trkpt lat="49.32361" lon="0.96812">
        <ele>103.96</ele>
        <time>2018-08-18T08:21:26Z</time>
      </trkpt>
      <trkpt lat="49.32359" lon="0.96815">
        <ele>103.96</ele>
        <time>2018-08-18T08:21:27Z</time>
      </trkpt>
      <trkpt lat="49.32357" lon="0.96817">
        <ele>103.48</ele>
        <time>2018-08-18T08:21:28Z</time>
      </trkpt>
      <trkpt lat="49.32356" lon="0.9682">
        <ele>103</ele>
        <time>2018-08-18T08:21:29Z</time>
      </trkpt>
      <trkpt lat="49.32355" lon="0.96823">
        <ele>103</ele>
        <time>2018-08-18T08:21:30Z</time>
      </trkpt>
      <trkpt lat="49.32354" lon="0.96827">
        <ele>102.52</ele>
        <time>2018-08-18T08:21:31Z</time>
      </trkpt>
      <trkpt lat="49.32355" lon="0.96831">
        <ele>102.52</ele>
        <time>2018-08-18T08:21:32Z</time>
      </trkpt>
      <trkpt lat="49.32355" lon="0.96835">
        <ele>102.52</ele>
        <time>2018-08-18T08:21:33Z</time>
      </trkpt>
      <trkpt lat="49.32356" lon="0.96839">
        <ele>103</ele>
        <time>2018-08-18T08:21:34Z</time>
      </trkpt>
      <trkpt lat="49.32356" lon="0.96843">
        <ele>103</ele>
        <time>2018-08-18T08:21:35Z</time>
      </trkpt>
      <trkpt lat="49.32356" lon="0.96849">
        <ele>103</ele>
        <time>2018-08-18T08:21:36Z</time>
      </trkpt>
      <trkpt lat="49.32354" lon="0.96853">
        <ele>103</ele>
        <time>2018-08-18T08:21:37Z</time>
      </trkpt>
      <trkpt lat="49.32354" lon="0.96859">
        <ele>102.52</ele>
        <time>2018-08-18T08:21:39Z</time>
      </trkpt>
      <trkpt lat="49.32355" lon="0.96862">
        <ele>102.52</ele>
        <time>2018-08-18T08:21:40Z</time>
      </trkpt>
      <trkpt lat="49.32355" lon="0.96867">
        <ele>102.52</ele>
        <time>2018-08-18T08:21:42Z</time>
      </trkpt>
      <trkpt lat="49.32343" lon="0.96941">
        <ele>101.56</ele>
        <time>2018-08-18T08:21:53Z</time>
      </trkpt>
      <trkpt lat="49.32345" lon="0.96965">
        <ele>102.52</ele>
        <time>2018-08-18T08:21:57Z</time>
      </trkpt>
      <trkpt lat="49.32344" lon="0.9697">
        <ele>102.52</ele>
        <time>2018-08-18T08:21:58Z</time>
      </trkpt>
      <trkpt lat="49.32345" lon="0.96974">
        <ele>102.04</ele>
        <time>2018-08-18T08:21:59Z</time>
      </trkpt>
      <trkpt lat="49.32344" lon="0.96984">
        <ele>102.04</ele>
        <time>2018-08-18T08:22:01Z</time>
      </trkpt>
      <trkpt lat="49.32342" lon="0.96987">
        <ele>101.56</ele>
        <time>2018-08-18T08:22:02Z</time>
      </trkpt>
      <trkpt lat="49.32342" lon="0.96991">
        <ele>101.08</ele>
        <time>2018-08-18T08:22:03Z</time>
      </trkpt>
      <trkpt lat="49.32334" lon="0.9704">
        <ele>98.19</ele>
        <time>2018-08-18T08:22:12Z</time>
      </trkpt>
      <trkpt lat="49.32335" lon="0.97044">
        <ele>98.19</ele>
        <time>2018-08-18T08:22:13Z</time>
      </trkpt>
      <trkpt lat="49.32336" lon="0.97053">
        <ele>97.23</ele>
        <time>2018-08-18T08:22:15Z</time>
      </trkpt>
      <trkpt lat="49.32337" lon="0.97064">
        <ele>96.27</ele>
        <time>2018-08-18T08:22:17Z</time>
      </trkpt>
      <trkpt lat="49.32345" lon="0.97097">
        <ele>91.94</ele>
        <time>2018-08-18T08:22:24Z</time>
      </trkpt>
      <trkpt lat="49.32347" lon="0.97103">
        <ele>90.98</ele>
        <time>2018-08-18T08:22:25Z</time>
      </trkpt>
      <trkpt lat="49.32354" lon="0.97124">
        <ele>87.62</ele>
        <time>2018-08-18T08:22:29Z</time>
      </trkpt>
      <trkpt lat="49.32355" lon="0.9713">
        <ele>86.66</ele>
        <time>2018-08-18T08:22:30Z</time>
      </trkpt>
      <trkpt lat="49.32359" lon="0.97142">
        <ele>85.69</ele>
        <time>2018-08-18T08:22:31Z</time>
      </trkpt>
      <trkpt lat="49.32369" lon="0.97179">
        <ele>83.77</ele>
        <time>2018-08-18T08:22:36Z</time>
      </trkpt>
      <trkpt lat="49.3238" lon="0.97197">
        <ele>83.29</ele>
        <time>2018-08-18T08:22:41Z</time>
      </trkpt>
      <trkpt lat="49.32389" lon="0.97207">
        <ele>83.29</ele>
        <time>2018-08-18T08:22:45Z</time>
      </trkpt>
      <trkpt lat="49.32415" lon="0.97232">
        <ele>79.93</ele>
        <time>2018-08-18T08:22:53Z</time>
      </trkpt>
      <trkpt lat="49.32431" lon="0.97247">
        <ele>76.56</ele>
        <time>2018-08-18T08:22:59Z</time>
      </trkpt>
      <trkpt lat="49.32447" lon="0.97302">
        <ele>73.2</ele>
        <time>2018-08-18T08:23:08Z</time>
      </trkpt>
      <trkpt lat="49.32451" lon="0.97315">
        <ele>70.79</ele>
        <time>2018-08-18T08:23:11Z</time>
      </trkpt>
      <trkpt lat="49.32456" lon="0.97328">
        <ele>68.39</ele>
        <time>2018-08-18T08:23:14Z</time>
      </trkpt>
      <trkpt lat="49.32461" lon="0.97338">
        <ele>66.95</ele>
        <time>2018-08-18T08:23:17Z</time>
      </trkpt>
      <trkpt lat="49.3246" lon="0.97349">
        <ele>65.99</ele>
        <time>2018-08-18T08:23:19Z</time>
      </trkpt>
      <trkpt lat="49.32455" lon="0.97359">
        <ele>63.1</ele>
        <time>2018-08-18T08:23:23Z</time>
      </trkpt>
      <trkpt lat="49.32448" lon="0.97368">
        <ele>58.78</ele>
        <time>2018-08-18T08:23:27Z</time>
      </trkpt>
      <trkpt lat="49.32443" lon="0.97375">
        <ele>56.86</ele>
        <time>2018-08-18T08:23:29Z</time>
      </trkpt>
      <trkpt lat="49.32439" lon="0.97377">
        <ele>54.93</ele>
        <time>2018-08-18T08:23:31Z</time>
      </trkpt>
      <trkpt lat="49.32431" lon="0.9738">
        <ele>53.01</ele>
        <time>2018-08-18T08:23:33Z</time>
      </trkpt>
      <trkpt lat="49.32425" lon="0.97385">
        <ele>50.13</ele>
        <time>2018-08-18T08:23:36Z</time>
      </trkpt>
      <trkpt lat="49.32427" lon="0.97393">
        <ele>51.57</ele>
        <time>2018-08-18T08:23:47Z</time>
      </trkpt>
      <trkpt lat="49.3246" lon="0.97424">
        <ele>52.05</ele>
        <time>2018-08-18T08:23:58Z</time>
      </trkpt>
      <trkpt lat="49.32462" lon="0.97428">
        <ele>52.05</ele>
        <time>2018-08-18T08:24:00Z</time>
      </trkpt>
      <trkpt lat="49.32474" lon="0.97442">
        <ele>53.49</ele>
        <time>2018-08-18T08:24:16Z</time>
      </trkpt>
      <trkpt lat="49.32484" lon="0.97447">
        <ele>52.53</ele>
        <time>2018-08-18T08:24:21Z</time>
      </trkpt>
      <trkpt lat="49.32488" lon="0.97456">
        <ele>52.05</ele>
        <time>2018-08-18T08:24:23Z</time>
      </trkpt>
      <trkpt lat="49.32493" lon="0.97475">
        <ele>48.68</ele>
        <time>2018-08-18T08:24:27Z</time>
      </trkpt>
      <trkpt lat="49.32497" lon="0.97485">
        <ele>47.24</ele>
        <time>2018-08-18T08:24:29Z</time>
      </trkpt>
      <trkpt lat="49.32498" lon="0.9749">
        <ele>46.76</ele>
        <time>2018-08-18T08:24:30Z</time>
      </trkpt>
      <trkpt lat="49.32498" lon="0.97495">
        <ele>45.8</ele>
        <time>2018-08-18T08:24:31Z</time>
      </trkpt>
      <trkpt lat="49.32499" lon="0.97506">
        <ele>45.32</ele>
        <time>2018-08-18T08:24:33Z</time>
      </trkpt>
      <trkpt lat="49.32502" lon="0.97511">
        <ele>44.84</ele>
        <time>2018-08-18T08:24:34Z</time>
      </trkpt>
      <trkpt lat="49.32506" lon="0.97516">
        <ele>44.36</ele>
        <time>2018-08-18T08:24:35Z</time>
      </trkpt>
      <trkpt lat="49.3251" lon="0.97522">
        <ele>43.4</ele>
        <time>2018-08-18T08:24:36Z</time>
      </trkpt>
      <trkpt lat="49.32513" lon="0.97528">
        <ele>42.92</ele>
        <time>2018-08-18T08:24:37Z</time>
      </trkpt>
      <trkpt lat="49.32522" lon="0.97554">
        <ele>40.03</ele>
        <time>2018-08-18T08:24:41Z</time>
      </trkpt>
      <trkpt lat="49.32525" lon="0.97562">
        <ele>39.55</ele>
        <time>2018-08-18T08:24:42Z</time>
      </trkpt>
      <trkpt lat="49.32534" lon="0.97582">
        <ele>36.19</ele>
        <time>2018-08-18T08:24:45Z</time>
      </trkpt>
      <trkpt lat="49.32537" lon="0.97588">
        <ele>36.19</ele>
        <time>2018-08-18T08:24:46Z</time>
      </trkpt>
      <trkpt lat="49.32547" lon="0.97617">
        <ele>32.34</ele>
        <time>2018-08-18T08:24:51Z</time>
      </trkpt>
      <trkpt lat="49.32555" lon="0.97635">
        <ele>30.42</ele>
        <time>2018-08-18T08:24:54Z</time>
      </trkpt>
      <trkpt lat="49.32556" lon="0.97638">
        <ele>29.94</ele>
        <time>2018-08-18T08:24:55Z</time>
      </trkpt>
      <trkpt lat="49.32559" lon="0.9764">
        <ele>29.94</ele>
        <time>2018-08-18T08:24:56Z</time>
      </trkpt>
      <trkpt lat="49.32568" lon="0.97649">
        <ele>27.53</ele>
        <time>2018-08-18T08:25:01Z</time>
      </trkpt>
      <trkpt lat="49.32571" lon="0.9765">
        <ele>27.05</ele>
        <time>2018-08-18T08:25:02Z</time>
      </trkpt>
      <trkpt lat="49.32573" lon="0.9765">
        <ele>26.09</ele>
        <time>2018-08-18T08:25:03Z</time>
      </trkpt>
      <trkpt lat="49.32576" lon="0.97652">
        <ele>25.61</ele>
        <time>2018-08-18T08:25:04Z</time>
      </trkpt>
      <trkpt lat="49.32582" lon="0.97653">
        <ele>24.65</ele>
        <time>2018-08-18T08:25:05Z</time>
      </trkpt>
      <trkpt lat="49.32588" lon="0.97654">
        <ele>24.17</ele>
        <time>2018-08-18T08:25:06Z</time>
      </trkpt>
      <trkpt lat="49.32596" lon="0.97654">
        <ele>24.17</ele>
        <time>2018-08-18T08:25:07Z</time>
      </trkpt>
      <trkpt lat="49.32612" lon="0.97651">
        <ele>23.69</ele>
        <time>2018-08-18T08:25:09Z</time>
      </trkpt>
      <trkpt lat="49.32618" lon="0.97649">
        <ele>23.21</ele>
        <time>2018-08-18T08:25:10Z</time>
      </trkpt>
      <trkpt lat="49.32631" lon="0.97646">
        <ele>23.21</ele>
        <time>2018-08-18T08:25:12Z</time>
      </trkpt>
      <trkpt lat="49.32653" lon="0.97642">
        <ele>22.73</ele>
        <time>2018-08-18T08:25:15Z</time>
      </trkpt>
      <trkpt lat="49.32662" lon="0.9764">
        <ele>22.73</ele>
        <time>2018-08-18T08:25:16Z</time>
      </trkpt>
      <trkpt lat="49.3267" lon="0.97638">
        <ele>23.21</ele>
        <time>2018-08-18T08:25:17Z</time>
      </trkpt>
      <trkpt lat="49.32677" lon="0.97633">
        <ele>23.21</ele>
        <time>2018-08-18T08:25:18Z</time>
      </trkpt>
      <trkpt lat="49.32682" lon="0.97629">
        <ele>23.69</ele>
        <time>2018-08-18T08:25:19Z</time>
      </trkpt>
      <trkpt lat="49.32686" lon="0.97625">
        <ele>23.69</ele>
        <time>2018-08-18T08:25:20Z</time>
      </trkpt>
      <trkpt lat="49.3269" lon="0.97622">
        <ele>23.69</ele>
        <time>2018-08-18T08:25:21Z</time>
      </trkpt>
      <trkpt lat="49.32692" lon="0.97613">
        <ele>23.69</ele>
        <time>2018-08-18T08:25:23Z</time>
      </trkpt>
      <trkpt lat="49.32691" lon="0.97606">
        <ele>23.69</ele>
        <time>2018-08-18T08:25:24Z</time>
      </trkpt>
      <trkpt lat="49.32691" lon="0.97549">
        <ele>24.17</ele>
        <time>2018-08-18T08:25:32Z</time>
      </trkpt>
      <trkpt lat="49.32693" lon="0.97525">
        <ele>25.13</ele>
        <time>2018-08-18T08:25:35Z</time>
      </trkpt>
      <trkpt lat="49.32704" lon="0.97466">
        <ele>25.61</ele>
        <time>2018-08-18T08:25:43Z</time>
      </trkpt>
      <trkpt lat="49.32715" lon="0.97429">
        <ele>26.09</ele>
        <time>2018-08-18T08:25:48Z</time>
      </trkpt>
      <trkpt lat="49.32723" lon="0.97407">
        <ele>26.09</ele>
        <time>2018-08-18T08:25:51Z</time>
      </trkpt>
      <trkpt lat="49.32726" lon="0.97401">
        <ele>26.57</ele>
        <time>2018-08-18T08:25:52Z</time>
      </trkpt>
      <trkpt lat="49.32729" lon="0.97394">
        <ele>26.57</ele>
        <time>2018-08-18T08:25:53Z</time>
      </trkpt>
      <trkpt lat="49.3275" lon="0.97364">
        <ele>25.61</ele>
        <time>2018-08-18T08:25:58Z</time>
      </trkpt>
      <trkpt lat="49.32759" lon="0.97356">
        <ele>25.13</ele>
        <time>2018-08-18T08:26:00Z</time>
      </trkpt>
      <trkpt lat="49.32764" lon="0.97352">
        <ele>25.13</ele>
        <time>2018-08-18T08:26:01Z</time>
      </trkpt>
      <trkpt lat="49.32768" lon="0.9735">
        <ele>25.13</ele>
        <time>2018-08-18T08:26:02Z</time>
      </trkpt>
      <trkpt lat="49.32774" lon="0.97349">
        <ele>25.13</ele>
        <time>2018-08-18T08:26:03Z</time>
      </trkpt>
      <trkpt lat="49.32779" lon="0.97349">
        <ele>25.13</ele>
        <time>2018-08-18T08:26:04Z</time>
      </trkpt>
      <trkpt lat="49.32784" lon="0.9735">
        <ele>25.13</ele>
        <time>2018-08-18T08:26:05Z</time>
      </trkpt>
      <trkpt lat="49.32812" lon="0.97358">
        <ele>25.13</ele>
        <time>2018-08-18T08:26:10Z</time>
      </trkpt>
      <trkpt lat="49.32817" lon="0.97359">
        <ele>25.13</ele>
        <time>2018-08-18T08:26:11Z</time>
      </trkpt>
      <trkpt lat="49.32823" lon="0.9736">
        <ele>25.13</ele>
        <time>2018-08-18T08:26:12Z</time>
      </trkpt>
      <trkpt lat="49.32829" lon="0.97361">
        <ele>25.13</ele>
        <time>2018-08-18T08:26:13Z</time>
      </trkpt>
      <trkpt lat="49.32834" lon="0.97362">
        <ele>25.13</ele>
        <time>2018-08-18T08:26:14Z</time>
      </trkpt>
      <trkpt lat="49.32839" lon="0.97364">
        <ele>24.65</ele>
        <time>2018-08-18T08:26:15Z</time>
      </trkpt>
      <trkpt lat="49.32878" lon="0.97374">
        <ele>25.13</ele>
        <time>2018-08-18T08:26:23Z</time>
      </trkpt>
      <trkpt lat="49.32916" lon="0.97392">
        <ele>26.57</ele>
        <time>2018-08-18T08:26:33Z</time>
      </trkpt>
      <trkpt lat="49.32919" lon="0.97392">
        <ele>27.05</ele>
        <time>2018-08-18T08:26:34Z</time>
      </trkpt>
      <trkpt lat="49.32962" lon="0.97403">
        <ele>28.02</ele>
        <time>2018-08-18T08:26:42Z</time>
      </trkpt>
      <trkpt lat="49.32967" lon="0.97404">
        <ele>28.02</ele>
        <time>2018-08-18T08:26:43Z</time>
      </trkpt>
      <trkpt lat="49.32977" lon="0.97407">
        <ele>27.53</ele>
        <time>2018-08-18T08:26:45Z</time>
      </trkpt>
      <trkpt lat="49.33005" lon="0.97419">
        <ele>27.05</ele>
        <time>2018-08-18T08:26:51Z</time>
      </trkpt>
      <trkpt lat="49.3301" lon="0.97423">
        <ele>27.05</ele>
        <time>2018-08-18T08:26:52Z</time>
      </trkpt>
      <trkpt lat="49.33014" lon="0.97427">
        <ele>26.57</ele>
        <time>2018-08-18T08:26:53Z</time>
      </trkpt>
      <trkpt lat="49.33032" lon="0.97445">
        <ele>27.05</ele>
        <time>2018-08-18T08:26:56Z</time>
      </trkpt>
      <trkpt lat="49.33044" lon="0.97462">
        <ele>27.05</ele>
        <time>2018-08-18T08:26:59Z</time>
      </trkpt>
      <trkpt lat="49.33048" lon="0.97468">
        <ele>27.05</ele>
        <time>2018-08-18T08:27:00Z</time>
      </trkpt>
      <trkpt lat="49.33052" lon="0.97473">
        <ele>27.53</ele>
        <time>2018-08-18T08:27:01Z</time>
      </trkpt>
      <trkpt lat="49.33056" lon="0.97476">
        <ele>27.53</ele>
        <time>2018-08-18T08:27:02Z</time>
      </trkpt>
      <trkpt lat="49.3306" lon="0.97479">
        <ele>27.53</ele>
        <time>2018-08-18T08:27:03Z</time>
      </trkpt>
      <trkpt lat="49.331" lon="0.97474">
        <ele>28.98</ele>
        <time>2018-08-18T08:27:14Z</time>
      </trkpt>
      <trkpt lat="49.33103" lon="0.97474">
        <ele>28.5</ele>
        <time>2018-08-18T08:27:15Z</time>
      </trkpt>
      <trkpt lat="49.33116" lon="0.97472">
        <ele>29.94</ele>
        <time>2018-08-18T08:27:19Z</time>
      </trkpt>
      <trkpt lat="49.33119" lon="0.97469">
        <ele>29.94</ele>
        <time>2018-08-18T08:27:20Z</time>
      </trkpt>
      <trkpt lat="49.33126" lon="0.97466">
        <ele>29.94</ele>
        <time>2018-08-18T08:27:22Z</time>
      </trkpt>
      <trkpt lat="49.33131" lon="0.97464">
        <ele>29.94</ele>
        <time>2018-08-18T08:27:23Z</time>
      </trkpt>
      <trkpt lat="49.33135" lon="0.97462">
        <ele>29.94</ele>
        <time>2018-08-18T08:27:24Z</time>
      </trkpt>
      <trkpt lat="49.33138" lon="0.9746">
        <ele>30.42</ele>
        <time>2018-08-18T08:27:25Z</time>
      </trkpt>
      <trkpt lat="49.33141" lon="0.97459">
        <ele>30.42</ele>
        <time>2018-08-18T08:27:26Z</time>
      </trkpt>
      <trkpt lat="49.33144" lon="0.97457">
        <ele>29.94</ele>
        <time>2018-08-18T08:27:27Z</time>
      </trkpt>
      <trkpt lat="49.33146" lon="0.97455">
        <ele>29.94</ele>
        <time>2018-08-18T08:27:28Z</time>
      </trkpt>
      <trkpt lat="49.33164" lon="0.97435">
        <ele>28.5</ele>
        <time>2018-08-18T08:27:32Z</time>
      </trkpt>
      <trkpt lat="49.33172" lon="0.97426">
        <ele>28.5</ele>
        <time>2018-08-18T08:27:34Z</time>
      </trkpt>
      <trkpt lat="49.33183" lon="0.97412">
        <ele>28.02</ele>
        <time>2018-08-18T08:27:37Z</time>
      </trkpt>
      <trkpt lat="49.33187" lon="0.97408">
        <ele>28.02</ele>
        <time>2018-08-18T08:27:38Z</time>
      </trkpt>
      <trkpt lat="49.33207" lon="0.97388">
        <ele>28.02</ele>
        <time>2018-08-18T08:27:43Z</time>
      </trkpt>
      <trkpt lat="49.33217" lon="0.97371">
        <ele>26.57</ele>
        <time>2018-08-18T08:27:46Z</time>
      </trkpt>
      <trkpt lat="49.33221" lon="0.97368">
        <ele>26.57</ele>
        <time>2018-08-18T08:27:47Z</time>
      </trkpt>
      <trkpt lat="49.33225" lon="0.97366">
        <ele>27.05</ele>
        <time>2018-08-18T08:27:48Z</time>
      </trkpt>
      <trkpt lat="49.33229" lon="0.97364">
        <ele>27.05</ele>
        <time>2018-08-18T08:27:49Z</time>
      </trkpt>
      <trkpt lat="49.33233" lon="0.97361">
        <ele>27.05</ele>
        <time>2018-08-18T08:27:50Z</time>
      </trkpt>
      <trkpt lat="49.33235" lon="0.97359">
        <ele>27.05</ele>
        <time>2018-08-18T08:27:51Z</time>
      </trkpt>
      <trkpt lat="49.33237" lon="0.97358">
        <ele>27.05</ele>
        <time>2018-08-18T08:27:52Z</time>
      </trkpt>
      <trkpt lat="49.33238" lon="0.97357">
        <ele>27.05</ele>
        <time>2018-08-18T08:27:53Z</time>
      </trkpt>
      <trkpt lat="49.33252" lon="0.97345">
        <ele>28.02</ele>
        <time>2018-08-18T08:27:58Z</time>
      </trkpt>
      <trkpt lat="49.33266" lon="0.97333">
        <ele>27.53</ele>
        <time>2018-08-18T08:28:18Z</time>
      </trkpt>
      <trkpt lat="49.33306" lon="0.97218">
        <ele>28.5</ele>
        <time>2018-08-18T08:29:01Z</time>
      </trkpt>
      <trkpt lat="49.3331" lon="0.97219">
        <ele>28.5</ele>
        <time>2018-08-18T08:29:03Z</time>
      </trkpt>
      <trkpt lat="49.33318" lon="0.97226">
        <ele>28.02</ele>
        <time>2018-08-18T08:29:20Z</time>
      </trkpt>
      <trkpt lat="49.33322" lon="0.97223">
        <ele>27.05</ele>
        <time>2018-08-18T08:29:24Z</time>
      </trkpt>
      <trkpt lat="49.33328" lon="0.9723">
        <ele>27.05</ele>
        <time>2018-08-18T08:29:28Z</time>
      </trkpt>
      <trkpt lat="49.33344" lon="0.97235">
        <ele>27.53</ele>
        <time>2018-08-18T08:29:34Z</time>
      </trkpt>
      <trkpt lat="49.3335" lon="0.97231">
        <ele>28.98</ele>
        <time>2018-08-18T08:29:37Z</time>
      </trkpt>
      <trkpt lat="49.33364" lon="0.97223">
        <ele>28.98</ele>
        <time>2018-08-18T08:29:42Z</time>
      </trkpt>
      <trkpt lat="49.33392" lon="0.97203">
        <ele>28.98</ele>
        <time>2018-08-18T08:29:51Z</time>
      </trkpt>
      <trkpt lat="49.33406" lon="0.97182">
        <ele>28.5</ele>
        <time>2018-08-18T08:29:56Z</time>
      </trkpt>
      <trkpt lat="49.33418" lon="0.97158">
        <ele>29.46</ele>
        <time>2018-08-18T08:30:02Z</time>
      </trkpt>
      <trkpt lat="49.33422" lon="0.97156">
        <ele>29.46</ele>
        <time>2018-08-18T08:30:03Z</time>
      </trkpt>
      <trkpt lat="49.33425" lon="0.97151">
        <ele>29.46</ele>
        <time>2018-08-18T08:30:04Z</time>
      </trkpt>
      <trkpt lat="49.33427" lon="0.97145">
        <ele>29.46</ele>
        <time>2018-08-18T08:30:05Z</time>
      </trkpt>
      <trkpt lat="49.33429" lon="0.97138">
        <ele>29.46</ele>
        <time>2018-08-18T08:30:06Z</time>
      </trkpt>
      <trkpt lat="49.33432" lon="0.97133">
        <ele>29.46</ele>
        <time>2018-08-18T08:30:07Z</time>
      </trkpt>
      <trkpt lat="49.33434" lon="0.9713">
        <ele>29.46</ele>
        <time>2018-08-18T08:30:08Z</time>
      </trkpt>
      <trkpt lat="49.33437" lon="0.97125">
        <ele>29.46</ele>
        <time>2018-08-18T08:30:09Z</time>
      </trkpt>
      <trkpt lat="49.33439" lon="0.97121">
        <ele>28.98</ele>
        <time>2018-08-18T08:30:10Z</time>
      </trkpt>
      <trkpt lat="49.33441" lon="0.97116">
        <ele>28.98</ele>
        <time>2018-08-18T08:30:11Z</time>
      </trkpt>
      <trkpt lat="49.33443" lon="0.9711">
        <ele>28.98</ele>
        <time>2018-08-18T08:30:12Z</time>
      </trkpt>
      <trkpt lat="49.33451" lon="0.97089">
        <ele>28.5</ele>
        <time>2018-08-18T08:30:16Z</time>
      </trkpt>
      <trkpt lat="49.33451" lon="0.97083">
        <ele>28.02</ele>
        <time>2018-08-18T08:30:17Z</time>
      </trkpt>
      <trkpt lat="49.33449" lon="0.97077">
        <ele>28.5</ele>
        <time>2018-08-18T08:30:18Z</time>
      </trkpt>
      <trkpt lat="49.33447" lon="0.97051">
        <ele>28.5</ele>
        <time>2018-08-18T08:30:23Z</time>
      </trkpt>
      <trkpt lat="49.3345" lon="0.97049">
        <ele>28.5</ele>
        <time>2018-08-18T08:30:24Z</time>
      </trkpt>
      <trkpt lat="49.33457" lon="0.97044">
        <ele>28.5</ele>
        <time>2018-08-18T08:30:26Z</time>
      </trkpt>
      <trkpt lat="49.33461" lon="0.97042">
        <ele>28.98</ele>
        <time>2018-08-18T08:30:27Z</time>
      </trkpt>
      <trkpt lat="49.33466" lon="0.97038">
        <ele>28.98</ele>
        <time>2018-08-18T08:30:28Z</time>
      </trkpt>
      <trkpt lat="49.3347" lon="0.97035">
        <ele>28.98</ele>
        <time>2018-08-18T08:30:29Z</time>
      </trkpt>
      <trkpt lat="49.33474" lon="0.97033">
        <ele>29.46</ele>
        <time>2018-08-18T08:30:30Z</time>
      </trkpt>
      <trkpt lat="49.33488" lon="0.97025">
        <ele>29.46</ele>
        <time>2018-08-18T08:30:33Z</time>
      </trkpt>
      <trkpt lat="49.33495" lon="0.97018">
        <ele>29.46</ele>
        <time>2018-08-18T08:30:35Z</time>
      </trkpt>
      <trkpt lat="49.33506" lon="0.9699">
        <ele>30.9</ele>
        <time>2018-08-18T08:30:42Z</time>
      </trkpt>
      <trkpt lat="49.33508" lon="0.96987">
        <ele>30.9</ele>
        <time>2018-08-18T08:30:43Z</time>
      </trkpt>
      <trkpt lat="49.3351" lon="0.96984">
        <ele>31.38</ele>
        <time>2018-08-18T08:30:44Z</time>
      </trkpt>
      <trkpt lat="49.33513" lon="0.96974">
        <ele>31.86</ele>
        <time>2018-08-18T08:30:46Z</time>
      </trkpt>
      <trkpt lat="49.33515" lon="0.96969">
        <ele>31.86</ele>
        <time>2018-08-18T08:30:47Z</time>
      </trkpt>
      <trkpt lat="49.33516" lon="0.96963">
        <ele>32.34</ele>
        <time>2018-08-18T08:30:48Z</time>
      </trkpt>
      <trkpt lat="49.33518" lon="0.96958">
        <ele>32.34</ele>
        <time>2018-08-18T08:30:49Z</time>
      </trkpt>
      <trkpt lat="49.3352" lon="0.96955">
        <ele>32.82</ele>
        <time>2018-08-18T08:30:50Z</time>
      </trkpt>
      <trkpt lat="49.33534" lon="0.96909">
        <ele>36.19</ele>
        <time>2018-08-18T08:31:01Z</time>
      </trkpt>
      <trkpt lat="49.33538" lon="0.96902">
        <ele>37.15</ele>
        <time>2018-08-18T08:31:04Z</time>
      </trkpt>
      <trkpt lat="49.3354" lon="0.96899">
        <ele>37.63</ele>
        <time>2018-08-18T08:31:05Z</time>
      </trkpt>
      <trkpt lat="49.33541" lon="0.96896">
        <ele>37.63</ele>
        <time>2018-08-18T08:31:06Z</time>
      </trkpt>
      <trkpt lat="49.33545" lon="0.9686">
        <ele>39.55</ele>
        <time>2018-08-18T08:31:15Z</time>
      </trkpt>
      <trkpt lat="49.33546" lon="0.96856">
        <ele>39.55</ele>
        <time>2018-08-18T08:31:16Z</time>
      </trkpt>
      <trkpt lat="49.33547" lon="0.96853">
        <ele>40.03</ele>
        <time>2018-08-18T08:31:17Z</time>
      </trkpt>
      <trkpt lat="49.33548" lon="0.9685">
        <ele>40.03</ele>
        <time>2018-08-18T08:31:18Z</time>
      </trkpt>
      <trkpt lat="49.33549" lon="0.96847">
        <ele>40.51</ele>
        <time>2018-08-18T08:31:19Z</time>
      </trkpt>
      <trkpt lat="49.3355" lon="0.96846">
        <ele>40.99</ele>
        <time>2018-08-18T08:31:20Z</time>
      </trkpt>
      <trkpt lat="49.33553" lon="0.9683">
        <ele>41.95</ele>
        <time>2018-08-18T08:31:25Z</time>
      </trkpt>
      <trkpt lat="49.33554" lon="0.96822">
        <ele>42.44</ele>
        <time>2018-08-18T08:31:27Z</time>
      </trkpt>
      <trkpt lat="49.33557" lon="0.96817">
        <ele>43.4</ele>
        <time>2018-08-18T08:31:30Z</time>
      </trkpt>
      <trkpt lat="49.33559" lon="0.96815">
        <ele>43.88</ele>
        <time>2018-08-18T08:31:31Z</time>
      </trkpt>
      <trkpt lat="49.3356" lon="0.96813">
        <ele>43.88</ele>
        <time>2018-08-18T08:31:32Z</time>
      </trkpt>
      <trkpt lat="49.33561" lon="0.96811">
        <ele>44.36</ele>
        <time>2018-08-18T08:31:33Z</time>
      </trkpt>
      <trkpt lat="49.33569" lon="0.96799">
        <ele>46.76</ele>
        <time>2018-08-18T08:31:40Z</time>
      </trkpt>
      <trkpt lat="49.33573" lon="0.96791">
        <ele>47.72</ele>
        <time>2018-08-18T08:31:44Z</time>
      </trkpt>
      <trkpt lat="49.33574" lon="0.96789">
        <ele>48.2</ele>
        <time>2018-08-18T08:31:45Z</time>
      </trkpt>
      <trkpt lat="49.33575" lon="0.96786">
        <ele>48.2</ele>
        <time>2018-08-18T08:31:46Z</time>
      </trkpt>
      <trkpt lat="49.33575" lon="0.96784">
        <ele>48.68</ele>
        <time>2018-08-18T08:31:47Z</time>
      </trkpt>
      <trkpt lat="49.33576" lon="0.96781">
        <ele>48.68</ele>
        <time>2018-08-18T08:31:48Z</time>
      </trkpt>
      <trkpt lat="49.33577" lon="0.96779">
        <ele>48.68</ele>
        <time>2018-08-18T08:31:49Z</time>
      </trkpt>
      <trkpt lat="49.33583" lon="0.96726">
        <ele>51.09</ele>
        <time>2018-08-18T08:32:03Z</time>
      </trkpt>
      <trkpt lat="49.33587" lon="0.96703">
        <ele>52.05</ele>
        <time>2018-08-18T08:32:09Z</time>
      </trkpt>
      <trkpt lat="49.33588" lon="0.967">
        <ele>52.53</ele>
        <time>2018-08-18T08:32:10Z</time>
      </trkpt>
      <trkpt lat="49.33589" lon="0.96697">
        <ele>53.01</ele>
        <time>2018-08-18T08:32:11Z</time>
      </trkpt>
      <trkpt lat="49.33588" lon="0.9669">
        <ele>53.49</ele>
        <time>2018-08-18T08:32:12Z</time>
      </trkpt>
      <trkpt lat="49.33587" lon="0.96687">
        <ele>53.49</ele>
        <time>2018-08-18T08:32:13Z</time>
      </trkpt>
      <trkpt lat="49.33588" lon="0.96664">
        <ele>54.45</ele>
        <time>2018-08-18T08:32:19Z</time>
      </trkpt>
      <trkpt lat="49.33589" lon="0.96662">
        <ele>54.93</ele>
        <time>2018-08-18T08:32:20Z</time>
      </trkpt>
      <trkpt lat="49.33589" lon="0.96659">
        <ele>55.41</ele>
        <time>2018-08-18T08:32:21Z</time>
      </trkpt>
      <trkpt lat="49.3359" lon="0.96657">
        <ele>56.37</ele>
        <time>2018-08-18T08:32:23Z</time>
      </trkpt>
      <trkpt lat="49.33592" lon="0.96638">
        <ele>57.82</ele>
        <time>2018-08-18T08:32:31Z</time>
      </trkpt>
      <trkpt lat="49.33593" lon="0.96636">
        <ele>57.82</ele>
        <time>2018-08-18T08:32:32Z</time>
      </trkpt>
      <trkpt lat="49.33594" lon="0.96633">
        <ele>58.3</ele>
        <time>2018-08-18T08:32:35Z</time>
      </trkpt>
      <trkpt lat="49.33594" lon="0.9663">
        <ele>58.3</ele>
        <time>2018-08-18T08:32:36Z</time>
      </trkpt>
      <trkpt lat="49.33595" lon="0.96627">
        <ele>58.3</ele>
        <time>2018-08-18T08:32:38Z</time>
      </trkpt>
      <trkpt lat="49.33595" lon="0.96624">
        <ele>58.78</ele>
        <time>2018-08-18T08:32:39Z</time>
      </trkpt>
      <trkpt lat="49.33595" lon="0.9662">
        <ele>58.78</ele>
        <time>2018-08-18T08:32:40Z</time>
      </trkpt>
      <trkpt lat="49.33595" lon="0.96603">
        <ele>59.74</ele>
        <time>2018-08-18T08:32:46Z</time>
      </trkpt>
      <trkpt lat="49.33592" lon="0.96594">
        <ele>60.22</ele>
        <time>2018-08-18T08:32:55Z</time>
      </trkpt>
      <trkpt lat="49.33592" lon="0.96582">
        <ele>60.7</ele>
        <time>2018-08-18T08:33:05Z</time>
      </trkpt>
      <trkpt lat="49.33593" lon="0.9658">
        <ele>60.7</ele>
        <time>2018-08-18T08:33:06Z</time>
      </trkpt>
      <trkpt lat="49.33594" lon="0.96577">
        <ele>60.7</ele>
        <time>2018-08-18T08:33:07Z</time>
      </trkpt>
      <trkpt lat="49.33597" lon="0.96553">
        <ele>63.58</ele>
        <time>2018-08-18T08:33:16Z</time>
      </trkpt>
      <trkpt lat="49.33598" lon="0.96551">
        <ele>64.07</ele>
        <time>2018-08-18T08:33:17Z</time>
      </trkpt>
      <trkpt lat="49.33598" lon="0.9655">
        <ele>64.07</ele>
        <time>2018-08-18T08:33:19Z</time>
      </trkpt>
      <trkpt lat="49.33595" lon="0.96501">
        <ele>65.51</ele>
        <time>2018-08-18T08:33:33Z</time>
      </trkpt>
      <trkpt lat="49.33595" lon="0.96496">
        <ele>65.99</ele>
        <time>2018-08-18T08:33:35Z</time>
      </trkpt>
      <trkpt lat="49.33594" lon="0.96494">
        <ele>65.99</ele>
        <time>2018-08-18T08:33:36Z</time>
      </trkpt>
      <trkpt lat="49.33592" lon="0.96473">
        <ele>66.47</ele>
        <time>2018-08-18T08:33:42Z</time>
      </trkpt>
      <trkpt lat="49.33592" lon="0.96468">
        <ele>66.95</ele>
        <time>2018-08-18T08:33:43Z</time>
      </trkpt>
      <trkpt lat="49.33593" lon="0.96466">
        <ele>66.95</ele>
        <time>2018-08-18T08:33:44Z</time>
      </trkpt>
      <trkpt lat="49.33599" lon="0.96441">
        <ele>68.87</ele>
        <time>2018-08-18T08:33:55Z</time>
      </trkpt>
      <trkpt lat="49.33601" lon="0.9644">
        <ele>69.35</ele>
        <time>2018-08-18T08:33:56Z</time>
      </trkpt>
      <trkpt lat="49.33605" lon="0.96433">
        <ele>70.31</ele>
        <time>2018-08-18T08:34:00Z</time>
      </trkpt>
      <trkpt lat="49.33613" lon="0.96404">
        <ele>72.24</ele>
        <time>2018-08-18T08:34:10Z</time>
      </trkpt>
      <trkpt lat="49.33616" lon="0.96403">
        <ele>73.2</ele>
        <time>2018-08-18T08:34:15Z</time>
      </trkpt>
      <trkpt lat="49.33616" lon="0.96424">
        <ele>73.68</ele>
        <time>2018-08-18T08:34:25Z</time>
      </trkpt>
      <trkpt lat="49.33616" lon="0.96428">
        <ele>74.16</ele>
        <time>2018-08-18T08:34:26Z</time>
      </trkpt>
      <trkpt lat="49.33614" lon="0.96435">
        <ele>73.2</ele>
        <time>2018-08-18T08:34:28Z</time>
      </trkpt>
      <trkpt lat="49.33617" lon="0.96451">
        <ele>73.2</ele>
        <time>2018-08-18T08:34:32Z</time>
      </trkpt>
      <trkpt lat="49.3362" lon="0.96476">
        <ele>73.2</ele>
        <time>2018-08-18T08:34:37Z</time>
      </trkpt>
      <trkpt lat="49.33628" lon="0.96514">
        <ele>74.64</ele>
        <time>2018-08-18T08:34:44Z</time>
      </trkpt>
      <trkpt lat="49.33635" lon="0.96533">
        <ele>74.64</ele>
        <time>2018-08-18T08:34:48Z</time>
      </trkpt>
      <trkpt lat="49.33634" lon="0.96556">
        <ele>73.68</ele>
        <time>2018-08-18T08:34:52Z</time>
      </trkpt>
      <trkpt lat="49.33631" lon="0.96566">
        <ele>72.72</ele>
        <time>2018-08-18T08:34:54Z</time>
      </trkpt>
      <trkpt lat="49.33633" lon="0.96602">
        <ele>69.35</ele>
        <time>2018-08-18T08:35:03Z</time>
      </trkpt>
      <trkpt lat="49.33642" lon="0.96649">
        <ele>65.99</ele>
        <time>2018-08-18T08:35:11Z</time>
      </trkpt>
      <trkpt lat="49.33642" lon="0.96656">
        <ele>65.99</ele>
        <time>2018-08-18T08:35:12Z</time>
      </trkpt>
      <trkpt lat="49.33641" lon="0.96666">
        <ele>65.03</ele>
        <time>2018-08-18T08:35:13Z</time>
      </trkpt>
      <trkpt lat="49.3364" lon="0.96675">
        <ele>64.55</ele>
        <time>2018-08-18T08:35:14Z</time>
      </trkpt>
      <trkpt lat="49.33638" lon="0.96685">
        <ele>63.58</ele>
        <time>2018-08-18T08:35:15Z</time>
      </trkpt>
      <trkpt lat="49.33637" lon="0.96696">
        <ele>63.58</ele>
        <time>2018-08-18T08:35:16Z</time>
      </trkpt>
      <trkpt lat="49.33639" lon="0.96735">
        <ele>65.99</ele>
        <time>2018-08-18T08:35:22Z</time>
      </trkpt>
      <trkpt lat="49.33645" lon="0.96759">
        <ele>68.39</ele>
        <time>2018-08-18T08:35:28Z</time>
      </trkpt>
      <trkpt lat="49.33644" lon="0.96764">
        <ele>68.39</ele>
        <time>2018-08-18T08:35:29Z</time>
      </trkpt>
      <trkpt lat="49.33642" lon="0.96768">
        <ele>67.91</ele>
        <time>2018-08-18T08:35:30Z</time>
      </trkpt>
      <trkpt lat="49.33635" lon="0.96774">
        <ele>65.99</ele>
        <time>2018-08-18T08:35:32Z</time>
      </trkpt>
      <trkpt lat="49.33631" lon="0.96778">
        <ele>64.55</ele>
        <time>2018-08-18T08:35:33Z</time>
      </trkpt>
      <trkpt lat="49.33629" lon="0.96783">
        <ele>63.58</ele>
        <time>2018-08-18T08:35:34Z</time>
      </trkpt>
      <trkpt lat="49.33628" lon="0.96789">
        <ele>63.1</ele>
        <time>2018-08-18T08:35:35Z</time>
      </trkpt>
      <trkpt lat="49.33627" lon="0.96796">
        <ele>62.62</ele>
        <time>2018-08-18T08:35:36Z</time>
      </trkpt>
      <trkpt lat="49.33627" lon="0.96803">
        <ele>62.62</ele>
        <time>2018-08-18T08:35:37Z</time>
      </trkpt>
      <trkpt lat="49.33627" lon="0.96809">
        <ele>62.62</ele>
        <time>2018-08-18T08:35:38Z</time>
      </trkpt>
      <trkpt lat="49.3363" lon="0.96845">
        <ele>63.58</ele>
        <time>2018-08-18T08:35:45Z</time>
      </trkpt>
      <trkpt lat="49.3363" lon="0.96851">
        <ele>63.58</ele>
        <time>2018-08-18T08:35:46Z</time>
      </trkpt>
      <trkpt lat="49.33629" lon="0.96858">
        <ele>63.58</ele>
        <time>2018-08-18T08:35:47Z</time>
      </trkpt>
      <trkpt lat="49.33628" lon="0.96864">
        <ele>63.58</ele>
        <time>2018-08-18T08:35:48Z</time>
      </trkpt>
      <trkpt lat="49.33626" lon="0.96871">
        <ele>63.1</ele>
        <time>2018-08-18T08:35:49Z</time>
      </trkpt>
      <trkpt lat="49.33624" lon="0.96878">
        <ele>63.1</ele>
        <time>2018-08-18T08:35:50Z</time>
      </trkpt>
      <trkpt lat="49.33622" lon="0.96884">
        <ele>62.62</ele>
        <time>2018-08-18T08:35:51Z</time>
      </trkpt>
      <trkpt lat="49.33622" lon="0.9689">
        <ele>63.1</ele>
        <time>2018-08-18T08:35:52Z</time>
      </trkpt>
      <trkpt lat="49.33622" lon="0.96897">
        <ele>63.1</ele>
        <time>2018-08-18T08:35:53Z</time>
      </trkpt>
      <trkpt lat="49.33611" lon="0.96934">
        <ele>62.14</ele>
        <time>2018-08-18T08:35:59Z</time>
      </trkpt>
      <trkpt lat="49.33607" lon="0.96941">
        <ele>61.66</ele>
        <time>2018-08-18T08:36:00Z</time>
      </trkpt>
      <trkpt lat="49.33594" lon="0.96977">
        <ele>61.66</ele>
        <time>2018-08-18T08:36:06Z</time>
      </trkpt>
      <trkpt lat="49.33593" lon="0.96984">
        <ele>61.66</ele>
        <time>2018-08-18T08:36:07Z</time>
      </trkpt>
      <trkpt lat="49.33585" lon="0.97022">
        <ele>61.18</ele>
        <time>2018-08-18T08:36:14Z</time>
      </trkpt>
      <trkpt lat="49.33584" lon="0.97027">
        <ele>60.22</ele>
        <time>2018-08-18T08:36:15Z</time>
      </trkpt>
      <trkpt lat="49.33583" lon="0.97034">
        <ele>59.74</ele>
        <time>2018-08-18T08:36:16Z</time>
      </trkpt>
      <trkpt lat="49.33582" lon="0.9704">
        <ele>60.22</ele>
        <time>2018-08-18T08:36:17Z</time>
      </trkpt>
      <trkpt lat="49.33581" lon="0.97044">
        <ele>60.22</ele>
        <time>2018-08-18T08:36:18Z</time>
      </trkpt>
      <trkpt lat="49.3358" lon="0.97049">
        <ele>60.22</ele>
        <time>2018-08-18T08:36:19Z</time>
      </trkpt>
      <trkpt lat="49.3358" lon="0.97054">
        <ele>59.74</ele>
        <time>2018-08-18T08:36:20Z</time>
      </trkpt>
      <trkpt lat="49.3358" lon="0.9706">
        <ele>59.74</ele>
        <time>2018-08-18T08:36:21Z</time>
      </trkpt>
      <trkpt lat="49.33579" lon="0.97067">
        <ele>59.74</ele>
        <time>2018-08-18T08:36:22Z</time>
      </trkpt>
      <trkpt lat="49.33578" lon="0.97074">
        <ele>60.22</ele>
        <time>2018-08-18T08:36:23Z</time>
      </trkpt>
      <trkpt lat="49.33577" lon="0.9708">
        <ele>60.7</ele>
        <time>2018-08-18T08:36:24Z</time>
      </trkpt>
      <trkpt lat="49.33573" lon="0.97093">
        <ele>60.7</ele>
        <time>2018-08-18T08:36:26Z</time>
      </trkpt>
      <trkpt lat="49.33569" lon="0.971">
        <ele>60.22</ele>
        <time>2018-08-18T08:36:27Z</time>
      </trkpt>
      <trkpt lat="49.33557" lon="0.97118">
        <ele>57.34</ele>
        <time>2018-08-18T08:36:30Z</time>
      </trkpt>
      <trkpt lat="49.33552" lon="0.97131">
        <ele>56.86</ele>
        <time>2018-08-18T08:36:32Z</time>
      </trkpt>
      <trkpt lat="49.33549" lon="0.97143">
        <ele>58.3</ele>
        <time>2018-08-18T08:36:34Z</time>
      </trkpt>
      <trkpt lat="49.3354" lon="0.97166">
        <ele>56.86</ele>
        <time>2018-08-18T08:36:40Z</time>
      </trkpt>
      <trkpt lat="49.33531" lon="0.97185">
        <ele>56.86</ele>
        <time>2018-08-18T08:36:43Z</time>
      </trkpt>
      <trkpt lat="49.33511" lon="0.97217">
        <ele>57.82</ele>
        <time>2018-08-18T08:36:49Z</time>
      </trkpt>
      <trkpt lat="49.33497" lon="0.97229">
        <ele>55.89</ele>
        <time>2018-08-18T08:36:52Z</time>
      </trkpt>
      <trkpt lat="49.33482" lon="0.97243">
        <ele>53.97</ele>
        <time>2018-08-18T08:36:55Z</time>
      </trkpt>
      <trkpt lat="49.33469" lon="0.97255">
        <ele>53.01</ele>
        <time>2018-08-18T08:36:58Z</time>
      </trkpt>
      <trkpt lat="49.33453" lon="0.97266">
        <ele>49.65</ele>
        <time>2018-08-18T08:37:02Z</time>
      </trkpt>
      <trkpt lat="49.3345" lon="0.97272">
        <ele>51.09</ele>
        <time>2018-08-18T08:37:04Z</time>
      </trkpt>
      <trkpt lat="49.33444" lon="0.97287">
        <ele>52.53</ele>
        <time>2018-08-18T08:37:13Z</time>
      </trkpt>
      <trkpt lat="49.33447" lon="0.97291">
        <ele>53.97</ele>
        <time>2018-08-18T08:37:16Z</time>
      </trkpt>
      <trkpt lat="49.33452" lon="0.97304">
        <ele>57.34</ele>
        <time>2018-08-18T08:37:24Z</time>
      </trkpt>
      <trkpt lat="49.3346" lon="0.97333">
        <ele>61.18</ele>
        <time>2018-08-18T08:37:38Z</time>
      </trkpt>
      <trkpt lat="49.33464" lon="0.9734">
        <ele>62.14</ele>
        <time>2018-08-18T08:37:42Z</time>
      </trkpt>
      <trkpt lat="49.33467" lon="0.97343">
        <ele>62.62</ele>
        <time>2018-08-18T08:37:44Z</time>
      </trkpt>
      <trkpt lat="49.33479" lon="0.97366">
        <ele>65.99</ele>
        <time>2018-08-18T08:37:57Z</time>
      </trkpt>
      <trkpt lat="49.3348" lon="0.97365">
        <ele>66.47</ele>
        <time>2018-08-18T08:38:00Z</time>
      </trkpt>
      <trkpt lat="49.33487" lon="0.97366">
        <ele>67.43</ele>
        <time>2018-08-18T08:38:04Z</time>
      </trkpt>
      <trkpt lat="49.33489" lon="0.97373">
        <ele>67.91</ele>
        <time>2018-08-18T08:38:08Z</time>
      </trkpt>
      <trkpt lat="49.33491" lon="0.97375">
        <ele>67.91</ele>
        <time>2018-08-18T08:38:09Z</time>
      </trkpt>
      <trkpt lat="49.33495" lon="0.97381">
        <ele>68.39</ele>
        <time>2018-08-18T08:38:12Z</time>
      </trkpt>
      <trkpt lat="49.335" lon="0.97392">
        <ele>66.95</ele>
        <time>2018-08-18T08:38:16Z</time>
      </trkpt>
      <trkpt lat="49.3352" lon="0.97422">
        <ele>66.47</ele>
        <time>2018-08-18T08:38:26Z</time>
      </trkpt>
      <trkpt lat="49.33538" lon="0.97438">
        <ele>67.43</ele>
        <time>2018-08-18T08:38:32Z</time>
      </trkpt>
      <trkpt lat="49.33555" lon="0.97446">
        <ele>69.35</ele>
        <time>2018-08-18T08:38:40Z</time>
      </trkpt>
      <trkpt lat="49.33574" lon="0.97455">
        <ele>71.76</ele>
        <time>2018-08-18T08:38:49Z</time>
      </trkpt>
      <trkpt lat="49.3358" lon="0.97457">
        <ele>72.72</ele>
        <time>2018-08-18T08:38:53Z</time>
      </trkpt>
      <trkpt lat="49.33591" lon="0.97459">
        <ele>74.64</ele>
        <time>2018-08-18T08:38:59Z</time>
      </trkpt>
      <trkpt lat="49.33605" lon="0.97499">
        <ele>74.16</ele>
        <time>2018-08-18T08:39:14Z</time>
      </trkpt>
      <trkpt lat="49.33606" lon="0.97509">
        <ele>73.2</ele>
        <time>2018-08-18T08:39:16Z</time>
      </trkpt>
      <trkpt lat="49.33603" lon="0.97513">
        <ele>71.76</ele>
        <time>2018-08-18T08:39:19Z</time>
      </trkpt>
      <trkpt lat="49.33605" lon="0.97516">
        <ele>71.76</ele>
        <time>2018-08-18T08:39:20Z</time>
      </trkpt>
      <trkpt lat="49.33608" lon="0.97521">
        <ele>72.24</ele>
        <time>2018-08-18T08:39:22Z</time>
      </trkpt>
      <trkpt lat="49.33612" lon="0.97535">
        <ele>73.68</ele>
        <time>2018-08-18T08:39:27Z</time>
      </trkpt>
      <trkpt lat="49.33613" lon="0.97537">
        <ele>73.68</ele>
        <time>2018-08-18T08:39:28Z</time>
      </trkpt>
      <trkpt lat="49.33615" lon="0.97547">
        <ele>74.64</ele>
        <time>2018-08-18T08:39:32Z</time>
      </trkpt>
      <trkpt lat="49.33616" lon="0.97553">
        <ele>74.64</ele>
        <time>2018-08-18T08:39:33Z</time>
      </trkpt>
      <trkpt lat="49.33615" lon="0.97563">
        <ele>75.6</ele>
        <time>2018-08-18T08:39:36Z</time>
      </trkpt>
      <trkpt lat="49.33613" lon="0.97564">
        <ele>75.12</ele>
        <time>2018-08-18T08:39:38Z</time>
      </trkpt>
      <trkpt lat="49.33609" lon="0.9757">
        <ele>74.64</ele>
        <time>2018-08-18T08:39:40Z</time>
      </trkpt>
      <trkpt lat="49.33601" lon="0.97575">
        <ele>73.68</ele>
        <time>2018-08-18T08:39:43Z</time>
      </trkpt>
      <trkpt lat="49.3359" lon="0.97571">
        <ele>73.2</ele>
        <time>2018-08-18T08:39:48Z</time>
      </trkpt>
      <trkpt lat="49.33575" lon="0.97569">
        <ele>70.79</ele>
        <time>2018-08-18T08:39:54Z</time>
      </trkpt>
      <trkpt lat="49.33572" lon="0.9757">
        <ele>71.27</ele>
        <time>2018-08-18T08:39:55Z</time>
      </trkpt>
      <trkpt lat="49.3357" lon="0.97576">
        <ele>72.72</ele>
        <time>2018-08-18T08:39:57Z</time>
      </trkpt>
      <trkpt lat="49.33568" lon="0.97576">
        <ele>73.68</ele>
        <time>2018-08-18T08:39:59Z</time>
      </trkpt>
      <trkpt lat="49.33565" lon="0.97569">
        <ele>73.2</ele>
        <time>2018-08-18T08:40:01Z</time>
      </trkpt>
      <trkpt lat="49.33562" lon="0.97569">
        <ele>72.72</ele>
        <time>2018-08-18T08:40:02Z</time>
      </trkpt>
      <trkpt lat="49.33552" lon="0.9757">
        <ele>72.72</ele>
        <time>2018-08-18T08:40:04Z</time>
      </trkpt>
      <trkpt lat="49.33545" lon="0.97572">
        <ele>72.24</ele>
        <time>2018-08-18T08:40:06Z</time>
      </trkpt>
      <trkpt lat="49.33538" lon="0.97568">
        <ele>72.24</ele>
        <time>2018-08-18T08:40:07Z</time>
      </trkpt>
      <trkpt lat="49.33535" lon="0.97564">
        <ele>71.27</ele>
        <time>2018-08-18T08:40:08Z</time>
      </trkpt>
      <trkpt lat="49.33532" lon="0.97561">
        <ele>70.31</ele>
        <time>2018-08-18T08:40:09Z</time>
      </trkpt>
      <trkpt lat="49.33527" lon="0.97558">
        <ele>69.83</ele>
        <time>2018-08-18T08:40:10Z</time>
      </trkpt>
      <trkpt lat="49.33522" lon="0.97554">
        <ele>68.87</ele>
        <time>2018-08-18T08:40:11Z</time>
      </trkpt>
      <trkpt lat="49.33517" lon="0.97549">
        <ele>67.91</ele>
        <time>2018-08-18T08:40:12Z</time>
      </trkpt>
      <trkpt lat="49.33512" lon="0.97545">
        <ele>66.95</ele>
        <time>2018-08-18T08:40:13Z</time>
      </trkpt>
      <trkpt lat="49.33508" lon="0.97542">
        <ele>66.47</ele>
        <time>2018-08-18T08:40:14Z</time>
      </trkpt>
      <trkpt lat="49.33503" lon="0.97539">
        <ele>66.47</ele>
        <time>2018-08-18T08:40:15Z</time>
      </trkpt>
      <trkpt lat="49.33492" lon="0.97538">
        <ele>65.51</ele>
        <time>2018-08-18T08:40:18Z</time>
      </trkpt>
      <trkpt lat="49.33488" lon="0.9754">
        <ele>65.51</ele>
        <time>2018-08-18T08:40:19Z</time>
      </trkpt>
      <trkpt lat="49.33477" lon="0.97545">
        <ele>64.07</ele>
        <time>2018-08-18T08:40:22Z</time>
      </trkpt>
      <trkpt lat="49.33467" lon="0.97551">
        <ele>62.62</ele>
        <time>2018-08-18T08:40:25Z</time>
      </trkpt>
      <trkpt lat="49.33456" lon="0.97562">
        <ele>61.66</ele>
        <time>2018-08-18T08:40:27Z</time>
      </trkpt>
      <trkpt lat="49.33431" lon="0.97582">
        <ele>58.78</ele>
        <time>2018-08-18T08:40:31Z</time>
      </trkpt>
      <trkpt lat="49.3341" lon="0.97619">
        <ele>58.78</ele>
        <time>2018-08-18T08:40:38Z</time>
      </trkpt>
      <trkpt lat="49.33409" lon="0.97632">
        <ele>60.22</ele>
        <time>2018-08-18T08:40:41Z</time>
      </trkpt>
      <trkpt lat="49.33411" lon="0.9764">
        <ele>60.7</ele>
        <time>2018-08-18T08:40:43Z</time>
      </trkpt>
      <trkpt lat="49.33413" lon="0.97647">
        <ele>62.14</ele>
        <time>2018-08-18T08:40:46Z</time>
      </trkpt>
      <trkpt lat="49.33415" lon="0.9765">
        <ele>63.1</ele>
        <time>2018-08-18T08:40:48Z</time>
      </trkpt>
      <trkpt lat="49.33415" lon="0.97663">
        <ele>63.1</ele>
        <time>2018-08-18T08:40:51Z</time>
      </trkpt>
      <trkpt lat="49.33412" lon="0.97666">
        <ele>63.58</ele>
        <time>2018-08-18T08:40:53Z</time>
      </trkpt>
      <trkpt lat="49.33419" lon="0.97689">
        <ele>64.55</ele>
        <time>2018-08-18T08:40:57Z</time>
      </trkpt>
      <trkpt lat="49.33418" lon="0.97703">
        <ele>64.55</ele>
        <time>2018-08-18T08:41:02Z</time>
      </trkpt>
      <trkpt lat="49.33417" lon="0.97712">
        <ele>65.03</ele>
        <time>2018-08-18T08:41:05Z</time>
      </trkpt>
      <trkpt lat="49.33421" lon="0.97729">
        <ele>64.07</ele>
        <time>2018-08-18T08:41:09Z</time>
      </trkpt>
      <trkpt lat="49.33423" lon="0.97743">
        <ele>64.55</ele>
        <time>2018-08-18T08:41:12Z</time>
      </trkpt>
      <trkpt lat="49.33422" lon="0.97749">
        <ele>63.1</ele>
        <time>2018-08-18T08:41:13Z</time>
      </trkpt>
      <trkpt lat="49.33423" lon="0.97754">
        <ele>63.1</ele>
        <time>2018-08-18T08:41:14Z</time>
      </trkpt>
      <trkpt lat="49.33424" lon="0.97781">
        <ele>63.58</ele>
        <time>2018-08-18T08:41:21Z</time>
      </trkpt>
      <trkpt lat="49.33423" lon="0.97787">
        <ele>63.1</ele>
        <time>2018-08-18T08:41:22Z</time>
      </trkpt>
      <trkpt lat="49.3342" lon="0.97801">
        <ele>63.58</ele>
        <time>2018-08-18T08:41:25Z</time>
      </trkpt>
      <trkpt lat="49.33418" lon="0.97807">
        <ele>63.58</ele>
        <time>2018-08-18T08:41:26Z</time>
      </trkpt>
      <trkpt lat="49.33416" lon="0.97813">
        <ele>63.1</ele>
        <time>2018-08-18T08:41:27Z</time>
      </trkpt>
      <trkpt lat="49.33415" lon="0.97818">
        <ele>62.62</ele>
        <time>2018-08-18T08:41:28Z</time>
      </trkpt>
      <trkpt lat="49.33413" lon="0.97822">
        <ele>62.62</ele>
        <time>2018-08-18T08:41:29Z</time>
      </trkpt>
      <trkpt lat="49.33412" lon="0.97823">
        <ele>62.62</ele>
        <time>2018-08-18T08:41:30Z</time>
      </trkpt>
      <trkpt lat="49.33412" lon="0.97826">
        <ele>61.66</ele>
        <time>2018-08-18T08:41:31Z</time>
      </trkpt>
      <trkpt lat="49.33409" lon="0.97831">
        <ele>61.66</ele>
        <time>2018-08-18T08:41:33Z</time>
      </trkpt>
      <trkpt lat="49.33401" lon="0.97857">
        <ele>63.1</ele>
        <time>2018-08-18T08:41:37Z</time>
      </trkpt>
      <trkpt lat="49.33384" lon="0.97882">
        <ele>61.66</ele>
        <time>2018-08-18T08:41:41Z</time>
      </trkpt>
      <trkpt lat="49.33375" lon="0.97895">
        <ele>61.18</ele>
        <time>2018-08-18T08:41:43Z</time>
      </trkpt>
      <trkpt lat="49.33364" lon="0.97947">
        <ele>59.74</ele>
        <time>2018-08-18T08:41:51Z</time>
      </trkpt>
      <trkpt lat="49.33365" lon="0.97952">
        <ele>60.22</ele>
        <time>2018-08-18T08:41:52Z</time>
      </trkpt>
      <trkpt lat="49.33365" lon="0.97958">
        <ele>60.22</ele>
        <time>2018-08-18T08:41:53Z</time>
      </trkpt>
      <trkpt lat="49.3336" lon="0.97984">
        <ele>60.22</ele>
        <time>2018-08-18T08:41:58Z</time>
      </trkpt>
      <trkpt lat="49.33361" lon="0.97995">
        <ele>61.66</ele>
        <time>2018-08-18T08:42:01Z</time>
      </trkpt>
      <trkpt lat="49.33361" lon="0.98004">
        <ele>64.07</ele>
        <time>2018-08-18T08:42:05Z</time>
      </trkpt>
      <trkpt lat="49.33362" lon="0.98005">
        <ele>64.55</ele>
        <time>2018-08-18T08:42:06Z</time>
      </trkpt>
      <trkpt lat="49.33363" lon="0.98024">
        <ele>66.47</ele>
        <time>2018-08-18T08:42:12Z</time>
      </trkpt>
      <trkpt lat="49.33362" lon="0.9803">
        <ele>66.47</ele>
        <time>2018-08-18T08:42:13Z</time>
      </trkpt>
      <trkpt lat="49.33359" lon="0.98037">
        <ele>66.95</ele>
        <time>2018-08-18T08:42:15Z</time>
      </trkpt>
      <trkpt lat="49.33358" lon="0.98049">
        <ele>67.91</ele>
        <time>2018-08-18T08:42:18Z</time>
      </trkpt>
      <trkpt lat="49.33354" lon="0.98071">
        <ele>67.91</ele>
        <time>2018-08-18T08:42:23Z</time>
      </trkpt>
      <trkpt lat="49.33355" lon="0.98077">
        <ele>68.39</ele>
        <time>2018-08-18T08:42:25Z</time>
      </trkpt>
      <trkpt lat="49.3335" lon="0.98095">
        <ele>66.95</ele>
        <time>2018-08-18T08:42:30Z</time>
      </trkpt>
      <trkpt lat="49.33353" lon="0.98107">
        <ele>66.95</ele>
        <time>2018-08-18T08:42:34Z</time>
      </trkpt>
      <trkpt lat="49.33353" lon="0.98123">
        <ele>66.95</ele>
        <time>2018-08-18T08:42:37Z</time>
      </trkpt>
      <trkpt lat="49.33354" lon="0.98133">
        <ele>67.91</ele>
        <time>2018-08-18T08:42:39Z</time>
      </trkpt>
      <trkpt lat="49.33351" lon="0.98162">
        <ele>67.91</ele>
        <time>2018-08-18T08:42:45Z</time>
      </trkpt>
      <trkpt lat="49.33351" lon="0.98166">
        <ele>68.39</ele>
        <time>2018-08-18T08:42:47Z</time>
      </trkpt>
      <trkpt lat="49.3334" lon="0.9818">
        <ele>67.43</ele>
        <time>2018-08-18T08:42:59Z</time>
      </trkpt>
      <trkpt lat="49.33338" lon="0.98189">
        <ele>67.43</ele>
        <time>2018-08-18T08:43:19Z</time>
      </trkpt>
      <trkpt lat="49.33342" lon="0.98189">
        <ele>65.99</ele>
        <time>2018-08-18T08:43:34Z</time>
      </trkpt>
      <trkpt lat="49.33347" lon="0.98183">
        <ele>64.07</ele>
        <time>2018-08-18T08:43:37Z</time>
      </trkpt>
      <trkpt lat="49.33347" lon="0.98178">
        <ele>64.55</ele>
        <time>2018-08-18T08:43:38Z</time>
      </trkpt>
      <trkpt lat="49.33346" lon="0.98173">
        <ele>64.07</ele>
        <time>2018-08-18T08:43:39Z</time>
      </trkpt>
      <trkpt lat="49.33345" lon="0.98167">
        <ele>63.58</ele>
        <time>2018-08-18T08:43:40Z</time>
      </trkpt>
      <trkpt lat="49.33344" lon="0.98161">
        <ele>63.58</ele>
        <time>2018-08-18T08:43:41Z</time>
      </trkpt>
      <trkpt lat="49.33343" lon="0.98153">
        <ele>63.1</ele>
        <time>2018-08-18T08:43:42Z</time>
      </trkpt>
      <trkpt lat="49.33342" lon="0.98146">
        <ele>62.62</ele>
        <time>2018-08-18T08:43:43Z</time>
      </trkpt>
      <trkpt lat="49.33342" lon="0.98139">
        <ele>62.14</ele>
        <time>2018-08-18T08:43:44Z</time>
      </trkpt>
      <trkpt lat="49.33336" lon="0.98107">
        <ele>60.22</ele>
        <time>2018-08-18T08:43:48Z</time>
      </trkpt>
      <trkpt lat="49.33334" lon="0.981">
        <ele>59.74</ele>
        <time>2018-08-18T08:43:49Z</time>
      </trkpt>
      <trkpt lat="49.33333" lon="0.98096">
        <ele>59.26</ele>
        <time>2018-08-18T08:43:50Z</time>
      </trkpt>
      <trkpt lat="49.3333" lon="0.98093">
        <ele>58.78</ele>
        <time>2018-08-18T08:43:51Z</time>
      </trkpt>
      <trkpt lat="49.33329" lon="0.98091">
        <ele>58.78</ele>
        <time>2018-08-18T08:43:52Z</time>
      </trkpt>
      <trkpt lat="49.33307" lon="0.98061">
        <ele>58.78</ele>
        <time>2018-08-18T08:44:01Z</time>
      </trkpt>
      <trkpt lat="49.33297" lon="0.98029">
        <ele>56.86</ele>
        <time>2018-08-18T08:44:08Z</time>
      </trkpt>
      <trkpt lat="49.33287" lon="0.98007">
        <ele>55.41</ele>
        <time>2018-08-18T08:44:12Z</time>
      </trkpt>
      <trkpt lat="49.33282" lon="0.97997">
        <ele>55.41</ele>
        <time>2018-08-18T08:44:14Z</time>
      </trkpt>
      <trkpt lat="49.33267" lon="0.97975">
        <ele>54.45</ele>
        <time>2018-08-18T08:44:19Z</time>
      </trkpt>
      <trkpt lat="49.33254" lon="0.97959">
        <ele>53.97</ele>
        <time>2018-08-18T08:44:23Z</time>
      </trkpt>
      <trkpt lat="49.3324" lon="0.97936">
        <ele>53.01</ele>
        <time>2018-08-18T08:44:28Z</time>
      </trkpt>
      <trkpt lat="49.33237" lon="0.97931">
        <ele>52.53</ele>
        <time>2018-08-18T08:44:29Z</time>
      </trkpt>
      <trkpt lat="49.33235" lon="0.97926">
        <ele>52.05</ele>
        <time>2018-08-18T08:44:30Z</time>
      </trkpt>
      <trkpt lat="49.33231" lon="0.97923">
        <ele>52.05</ele>
        <time>2018-08-18T08:44:31Z</time>
      </trkpt>
      <trkpt lat="49.33228" lon="0.9792">
        <ele>51.57</ele>
        <time>2018-08-18T08:44:32Z</time>
      </trkpt>
      <trkpt lat="49.3322" lon="0.97913">
        <ele>52.05</ele>
        <time>2018-08-18T08:44:34Z</time>
      </trkpt>
      <trkpt lat="49.33217" lon="0.97909">
        <ele>52.05</ele>
        <time>2018-08-18T08:44:35Z</time>
      </trkpt>
      <trkpt lat="49.33215" lon="0.97906">
        <ele>52.53</ele>
        <time>2018-08-18T08:44:36Z</time>
      </trkpt>
      <trkpt lat="49.33213" lon="0.97904">
        <ele>53.01</ele>
        <time>2018-08-18T08:44:37Z</time>
      </trkpt>
      <trkpt lat="49.33211" lon="0.97902">
        <ele>53.49</ele>
        <time>2018-08-18T08:44:38Z</time>
      </trkpt>
      <trkpt lat="49.33209" lon="0.97899">
        <ele>53.97</ele>
        <time>2018-08-18T08:44:39Z</time>
      </trkpt>
      <trkpt lat="49.33208" lon="0.97898">
        <ele>53.97</ele>
        <time>2018-08-18T08:44:40Z</time>
      </trkpt>
      <trkpt lat="49.332" lon="0.97889">
        <ele>53.97</ele>
        <time>2018-08-18T08:44:43Z</time>
      </trkpt>
      <trkpt lat="49.33199" lon="0.97886">
        <ele>53.97</ele>
        <time>2018-08-18T08:44:44Z</time>
      </trkpt>
      <trkpt lat="49.33197" lon="0.97882">
        <ele>53.97</ele>
        <time>2018-08-18T08:44:45Z</time>
      </trkpt>
      <trkpt lat="49.33194" lon="0.97878">
        <ele>53.49</ele>
        <time>2018-08-18T08:44:46Z</time>
      </trkpt>
      <trkpt lat="49.33166" lon="0.9786">
        <ele>53.97</ele>
        <time>2018-08-18T08:44:53Z</time>
      </trkpt>
      <trkpt lat="49.33159" lon="0.9786">
        <ele>55.41</ele>
        <time>2018-08-18T08:44:56Z</time>
      </trkpt>
      <trkpt lat="49.33148" lon="0.97852">
        <ele>55.89</ele>
        <time>2018-08-18T08:45:00Z</time>
      </trkpt>
      <trkpt lat="49.33145" lon="0.97853">
        <ele>56.37</ele>
        <time>2018-08-18T08:45:01Z</time>
      </trkpt>
      <trkpt lat="49.33142" lon="0.97854">
        <ele>56.86</ele>
        <time>2018-08-18T08:45:02Z</time>
      </trkpt>
      <trkpt lat="49.33138" lon="0.97856">
        <ele>57.34</ele>
        <time>2018-08-18T08:45:04Z</time>
      </trkpt>
      <trkpt lat="49.33134" lon="0.97863">
        <ele>58.78</ele>
        <time>2018-08-18T08:45:07Z</time>
      </trkpt>
      <trkpt lat="49.3312" lon="0.9786">
        <ele>60.22</ele>
        <time>2018-08-18T08:45:12Z</time>
      </trkpt>
      <trkpt lat="49.33112" lon="0.97856">
        <ele>59.26</ele>
        <time>2018-08-18T08:45:15Z</time>
      </trkpt>
      <trkpt lat="49.33109" lon="0.97853">
        <ele>58.78</ele>
        <time>2018-08-18T08:45:16Z</time>
      </trkpt>
      <trkpt lat="49.33094" lon="0.97852">
        <ele>59.26</ele>
        <time>2018-08-18T08:45:21Z</time>
      </trkpt>
      <trkpt lat="49.33084" lon="0.97866">
        <ele>58.78</ele>
        <time>2018-08-18T08:45:25Z</time>
      </trkpt>
      <trkpt lat="49.3308" lon="0.97867">
        <ele>58.3</ele>
        <time>2018-08-18T08:45:26Z</time>
      </trkpt>
      <trkpt lat="49.33068" lon="0.97868">
        <ele>56.37</ele>
        <time>2018-08-18T08:45:29Z</time>
      </trkpt>
      <trkpt lat="49.33065" lon="0.97871">
        <ele>55.41</ele>
        <time>2018-08-18T08:45:30Z</time>
      </trkpt>
      <trkpt lat="49.33054" lon="0.97881">
        <ele>54.45</ele>
        <time>2018-08-18T08:45:33Z</time>
      </trkpt>
      <trkpt lat="49.33052" lon="0.97885">
        <ele>54.93</ele>
        <time>2018-08-18T08:45:34Z</time>
      </trkpt>
      <trkpt lat="49.33051" lon="0.97888">
        <ele>55.41</ele>
        <time>2018-08-18T08:45:35Z</time>
      </trkpt>
      <trkpt lat="49.33051" lon="0.97891">
        <ele>55.89</ele>
        <time>2018-08-18T08:45:36Z</time>
      </trkpt>
      <trkpt lat="49.33051" lon="0.97894">
        <ele>56.37</ele>
        <time>2018-08-18T08:45:37Z</time>
      </trkpt>
      <trkpt lat="49.3305" lon="0.97897">
        <ele>56.86</ele>
        <time>2018-08-18T08:45:38Z</time>
      </trkpt>
      <trkpt lat="49.33041" lon="0.97912">
        <ele>57.34</ele>
        <time>2018-08-18T08:45:43Z</time>
      </trkpt>
      <trkpt lat="49.33036" lon="0.97916">
        <ele>56.86</ele>
        <time>2018-08-18T08:45:45Z</time>
      </trkpt>
      <trkpt lat="49.33034" lon="0.97917">
        <ele>55.89</ele>
        <time>2018-08-18T08:45:46Z</time>
      </trkpt>
      <trkpt lat="49.33025" lon="0.97927">
        <ele>53.49</ele>
        <time>2018-08-18T08:45:50Z</time>
      </trkpt>
      <trkpt lat="49.33022" lon="0.97944">
        <ele>56.37</ele>
        <time>2018-08-18T08:45:56Z</time>
      </trkpt>
      <trkpt lat="49.33022" lon="0.97948">
        <ele>56.37</ele>
        <time>2018-08-18T08:45:57Z</time>
      </trkpt>
      <trkpt lat="49.33018" lon="0.97972">
        <ele>58.78</ele>
        <time>2018-08-18T08:46:04Z</time>
      </trkpt>
      <trkpt lat="49.33017" lon="0.97974">
        <ele>59.26</ele>
        <time>2018-08-18T08:46:05Z</time>
      </trkpt>
      <trkpt lat="49.33017" lon="0.97978">
        <ele>59.26</ele>
        <time>2018-08-18T08:46:06Z</time>
      </trkpt>
      <trkpt lat="49.33017" lon="0.97981">
        <ele>59.26</ele>
        <time>2018-08-18T08:46:07Z</time>
      </trkpt>
      <trkpt lat="49.33016" lon="0.97984">
        <ele>59.26</ele>
        <time>2018-08-18T08:46:08Z</time>
      </trkpt>
      <trkpt lat="49.33015" lon="0.97986">
        <ele>60.22</ele>
        <time>2018-08-18T08:46:09Z</time>
      </trkpt>
      <trkpt lat="49.33007" lon="0.98009">
        <ele>61.18</ele>
        <time>2018-08-18T08:46:18Z</time>
      </trkpt>
      <trkpt lat="49.33007" lon="0.98012">
        <ele>61.66</ele>
        <time>2018-08-18T08:46:19Z</time>
      </trkpt>
      <trkpt lat="49.33007" lon="0.98015">
        <ele>62.14</ele>
        <time>2018-08-18T08:46:20Z</time>
      </trkpt>
      <trkpt lat="49.33007" lon="0.98018">
        <ele>62.62</ele>
        <time>2018-08-18T08:46:21Z</time>
      </trkpt>
      <trkpt lat="49.33007" lon="0.98021">
        <ele>63.1</ele>
        <time>2018-08-18T08:46:22Z</time>
      </trkpt>
      <trkpt lat="49.33007" lon="0.98024">
        <ele>63.1</ele>
        <time>2018-08-18T08:46:23Z</time>
      </trkpt>
      <trkpt lat="49.33007" lon="0.98027">
        <ele>63.58</ele>
        <time>2018-08-18T08:46:24Z</time>
      </trkpt>
      <trkpt lat="49.33008" lon="0.98029">
        <ele>63.58</ele>
        <time>2018-08-18T08:46:25Z</time>
      </trkpt>
      <trkpt lat="49.33007" lon="0.98031">
        <ele>63.58</ele>
        <time>2018-08-18T08:46:26Z</time>
      </trkpt>
      <trkpt lat="49.33003" lon="0.98049">
        <ele>64.55</ele>
        <time>2018-08-18T08:46:32Z</time>
      </trkpt>
      <trkpt lat="49.32999" lon="0.98061">
        <ele>65.03</ele>
        <time>2018-08-18T08:46:36Z</time>
      </trkpt>
      <trkpt lat="49.32997" lon="0.98065">
        <ele>64.07</ele>
        <time>2018-08-18T08:46:37Z</time>
      </trkpt>
      <trkpt lat="49.32996" lon="0.98069">
        <ele>64.07</ele>
        <time>2018-08-18T08:46:38Z</time>
      </trkpt>
      <trkpt lat="49.32994" lon="0.98073">
        <ele>64.55</ele>
        <time>2018-08-18T08:46:39Z</time>
      </trkpt>
      <trkpt lat="49.32994" lon="0.98076">
        <ele>64.55</ele>
        <time>2018-08-18T08:46:40Z</time>
      </trkpt>
      <trkpt lat="49.32981" lon="0.98117">
        <ele>64.07</ele>
        <time>2018-08-18T08:46:51Z</time>
      </trkpt>
      <trkpt lat="49.32977" lon="0.98136">
        <ele>63.58</ele>
        <time>2018-08-18T08:46:56Z</time>
      </trkpt>
      <trkpt lat="49.32978" lon="0.98144">
        <ele>64.55</ele>
        <time>2018-08-18T08:46:59Z</time>
      </trkpt>
      <trkpt lat="49.32976" lon="0.98149">
        <ele>64.55</ele>
        <time>2018-08-18T08:47:00Z</time>
      </trkpt>
      <trkpt lat="49.32974" lon="0.98154">
        <ele>64.07</ele>
        <time>2018-08-18T08:47:01Z</time>
      </trkpt>
      <trkpt lat="49.32969" lon="0.98164">
        <ele>65.03</ele>
        <time>2018-08-18T08:47:06Z</time>
      </trkpt>
      <trkpt lat="49.32966" lon="0.98169">
        <ele>65.03</ele>
        <time>2018-08-18T08:47:08Z</time>
      </trkpt>
      <trkpt lat="49.32962" lon="0.98176">
        <ele>64.07</ele>
        <time>2018-08-18T08:47:12Z</time>
      </trkpt>
      <trkpt lat="49.3296" lon="0.98177">
        <ele>64.07</ele>
        <time>2018-08-18T08:47:13Z</time>
      </trkpt>
      <trkpt lat="49.32952" lon="0.98168">
        <ele>62.62</ele>
        <time>2018-08-18T08:47:18Z</time>
      </trkpt>
      <trkpt lat="49.32948" lon="0.9816">
        <ele>62.14</ele>
        <time>2018-08-18T08:47:22Z</time>
      </trkpt>
      <trkpt lat="49.32948" lon="0.9814">
        <ele>59.74</ele>
        <time>2018-08-18T08:47:27Z</time>
      </trkpt>
      <trkpt lat="49.32946" lon="0.98135">
        <ele>59.26</ele>
        <time>2018-08-18T08:47:29Z</time>
      </trkpt>
      <trkpt lat="49.32944" lon="0.98122">
        <ele>56.86</ele>
        <time>2018-08-18T08:47:35Z</time>
      </trkpt>
      <trkpt lat="49.32952" lon="0.98102">
        <ele>54.93</ele>
        <time>2018-08-18T08:47:39Z</time>
      </trkpt>
      <trkpt lat="49.32952" lon="0.98095">
        <ele>54.45</ele>
        <time>2018-08-18T08:47:40Z</time>
      </trkpt>
      <trkpt lat="49.32953" lon="0.9805">
        <ele>52.53</ele>
        <time>2018-08-18T08:47:53Z</time>
      </trkpt>
      <trkpt lat="49.32945" lon="0.98031">
        <ele>55.41</ele>
        <time>2018-08-18T08:48:01Z</time>
      </trkpt>
      <trkpt lat="49.32944" lon="0.98029">
        <ele>55.41</ele>
        <time>2018-08-18T08:48:02Z</time>
      </trkpt>
      <trkpt lat="49.32943" lon="0.98004">
        <ele>55.89</ele>
        <time>2018-08-18T08:48:07Z</time>
      </trkpt>
      <trkpt lat="49.32937" lon="0.97991">
        <ele>57.82</ele>
        <time>2018-08-18T08:48:12Z</time>
      </trkpt>
      <trkpt lat="49.32927" lon="0.97989">
        <ele>61.18</ele>
        <time>2018-08-18T08:48:21Z</time>
      </trkpt>
      <trkpt lat="49.32923" lon="0.97982">
        <ele>61.66</ele>
        <time>2018-08-18T08:48:26Z</time>
      </trkpt>
      <trkpt lat="49.32919" lon="0.97979">
        <ele>61.18</ele>
        <time>2018-08-18T08:48:27Z</time>
      </trkpt>
      <trkpt lat="49.32911" lon="0.97975">
        <ele>61.66</ele>
        <time>2018-08-18T08:48:33Z</time>
      </trkpt>
      <trkpt lat="49.32915" lon="0.97968">
        <ele>62.14</ele>
        <time>2018-08-18T08:48:39Z</time>
      </trkpt>
      <trkpt lat="49.32914" lon="0.97956">
        <ele>62.62</ele>
        <time>2018-08-18T08:48:44Z</time>
      </trkpt>
      <trkpt lat="49.32921" lon="0.97945">
        <ele>65.99</ele>
        <time>2018-08-18T08:48:55Z</time>
      </trkpt>
      <trkpt lat="49.32922" lon="0.97942">
        <ele>65.99</ele>
        <time>2018-08-18T08:48:56Z</time>
      </trkpt>
      <trkpt lat="49.32922" lon="0.97924">
        <ele>65.51</ele>
        <time>2018-08-18T08:49:01Z</time>
      </trkpt>
      <trkpt lat="49.32924" lon="0.97923">
        <ele>65.51</ele>
        <time>2018-08-18T08:49:02Z</time>
      </trkpt>
      <trkpt lat="49.3293" lon="0.97909">
        <ele>63.58</ele>
        <time>2018-08-18T08:49:06Z</time>
      </trkpt>
      <trkpt lat="49.32923" lon="0.97875">
        <ele>63.1</ele>
        <time>2018-08-18T08:49:13Z</time>
      </trkpt>
      <trkpt lat="49.32918" lon="0.97862">
        <ele>62.62</ele>
        <time>2018-08-18T08:49:16Z</time>
      </trkpt>
      <trkpt lat="49.32919" lon="0.97853">
        <ele>62.62</ele>
        <time>2018-08-18T08:49:17Z</time>
      </trkpt>
      <trkpt lat="49.32919" lon="0.97833">
        <ele>61.18</ele>
        <time>2018-08-18T08:49:20Z</time>
      </trkpt>
      <trkpt lat="49.32911" lon="0.97807">
        <ele>59.74</ele>
        <time>2018-08-18T08:49:24Z</time>
      </trkpt>
      <trkpt lat="49.32905" lon="0.97798">
        <ele>58.3</ele>
        <time>2018-08-18T08:49:26Z</time>
      </trkpt>
      <trkpt lat="49.32901" lon="0.97779">
        <ele>55.89</ele>
        <time>2018-08-18T08:49:29Z</time>
      </trkpt>
      <trkpt lat="49.32902" lon="0.9777">
        <ele>55.41</ele>
        <time>2018-08-18T08:49:31Z</time>
      </trkpt>
      <trkpt lat="49.32917" lon="0.97769">
        <ele>53.49</ele>
        <time>2018-08-18T08:49:36Z</time>
      </trkpt>
      <trkpt lat="49.32928" lon="0.97779">
        <ele>52.05</ele>
        <time>2018-08-18T08:49:40Z</time>
      </trkpt>
      <trkpt lat="49.32932" lon="0.9778">
        <ele>50.61</ele>
        <time>2018-08-18T08:49:41Z</time>
      </trkpt>
      <trkpt lat="49.32936" lon="0.97784">
        <ele>49.16</ele>
        <time>2018-08-18T08:49:42Z</time>
      </trkpt>
      <trkpt lat="49.3296" lon="0.97801">
        <ele>45.8</ele>
        <time>2018-08-18T08:49:46Z</time>
      </trkpt>
      <trkpt lat="49.32969" lon="0.9781">
        <ele>44.84</ele>
        <time>2018-08-18T08:49:47Z</time>
      </trkpt>
      <trkpt lat="49.32895" lon="0.97693">
        <ele>42.44</ele>
        <time>2018-08-18T08:49:51Z</time>
      </trkpt>
      <trkpt lat="49.32885" lon="0.97677">
        <ele>41.95</ele>
        <time>2018-08-18T08:49:55Z</time>
      </trkpt>
      <trkpt lat="49.32883" lon="0.97673">
        <ele>41.47</ele>
        <time>2018-08-18T08:49:56Z</time>
      </trkpt>
      <trkpt lat="49.32868" lon="0.97661">
        <ele>42.44</ele>
        <time>2018-08-18T08:50:02Z</time>
      </trkpt>
      <trkpt lat="49.32865" lon="0.97651">
        <ele>42.92</ele>
        <time>2018-08-18T08:50:05Z</time>
      </trkpt>
      <trkpt lat="49.32864" lon="0.9763">
        <ele>40.99</ele>
        <time>2018-08-18T08:50:11Z</time>
      </trkpt>
      <trkpt lat="49.32855" lon="0.97616">
        <ele>40.99</ele>
        <time>2018-08-18T08:50:13Z</time>
      </trkpt>
      <trkpt lat="49.32857" lon="0.97589">
        <ele>39.55</ele>
        <time>2018-08-18T08:50:19Z</time>
      </trkpt>
      <trkpt lat="49.32858" lon="0.97583">
        <ele>39.07</ele>
        <time>2018-08-18T08:50:21Z</time>
      </trkpt>
      <trkpt lat="49.32845" lon="0.97548">
        <ele>40.51</ele>
        <time>2018-08-18T08:50:34Z</time>
      </trkpt>
      <trkpt lat="49.32837" lon="0.97538">
        <ele>40.03</ele>
        <time>2018-08-18T08:50:36Z</time>
      </trkpt>
      <trkpt lat="49.32829" lon="0.97519">
        <ele>38.11</ele>
        <time>2018-08-18T08:50:39Z</time>
      </trkpt>
      <trkpt lat="49.32828" lon="0.97513">
        <ele>37.15</ele>
        <time>2018-08-18T08:50:40Z</time>
      </trkpt>
      <trkpt lat="49.32823" lon="0.97504">
        <ele>36.67</ele>
        <time>2018-08-18T08:50:41Z</time>
      </trkpt>
      <trkpt lat="49.32805" lon="0.97481">
        <ele>36.19</ele>
        <time>2018-08-18T08:50:44Z</time>
      </trkpt>
      <trkpt lat="49.32789" lon="0.9746">
        <ele>34.74</ele>
        <time>2018-08-18T08:50:49Z</time>
      </trkpt>
      <trkpt lat="49.3278" lon="0.9746">
        <ele>36.19</ele>
        <time>2018-08-18T08:50:54Z</time>
      </trkpt>
      <trkpt lat="49.32773" lon="0.97466">
        <ele>37.63</ele>
        <time>2018-08-18T08:50:59Z</time>
      </trkpt>
      <trkpt lat="49.32766" lon="0.97463">
        <ele>35.71</ele>
        <time>2018-08-18T08:51:02Z</time>
      </trkpt>
      <trkpt lat="49.32765" lon="0.97462">
        <ele>35.71</ele>
        <time>2018-08-18T08:51:03Z</time>
      </trkpt>
      <trkpt lat="49.32762" lon="0.97467">
        <ele>35.71</ele>
        <time>2018-08-18T08:51:05Z</time>
      </trkpt>
      <trkpt lat="49.32764" lon="0.9747">
        <ele>36.67</ele>
        <time>2018-08-18T08:51:07Z</time>
      </trkpt>
      <trkpt lat="49.32764" lon="0.97477">
        <ele>38.11</ele>
        <time>2018-08-18T08:51:10Z</time>
      </trkpt>
      <trkpt lat="49.3276" lon="0.97487">
        <ele>37.63</ele>
        <time>2018-08-18T08:51:14Z</time>
      </trkpt>
      <trkpt lat="49.3276" lon="0.97504">
        <ele>39.07</ele>
        <time>2018-08-18T08:51:19Z</time>
      </trkpt>
      <trkpt lat="49.3276" lon="0.97526">
        <ele>40.03</ele>
        <time>2018-08-18T08:51:25Z</time>
      </trkpt>
      <trkpt lat="49.32763" lon="0.97539">
        <ele>40.51</ele>
        <time>2018-08-18T08:51:29Z</time>
      </trkpt>
      <trkpt lat="49.32756" lon="0.9755">
        <ele>39.55</ele>
        <time>2018-08-18T08:51:33Z</time>
      </trkpt>
      <trkpt lat="49.32753" lon="0.97567">
        <ele>40.03</ele>
        <time>2018-08-18T08:51:39Z</time>
      </trkpt>
      <trkpt lat="49.32752" lon="0.97581">
        <ele>40.99</ele>
        <time>2018-08-18T08:51:46Z</time>
      </trkpt>
      <trkpt lat="49.3275" lon="0.97582">
        <ele>40.99</ele>
        <time>2018-08-18T08:51:47Z</time>
      </trkpt>
      <trkpt lat="49.3275" lon="0.97585">
        <ele>40.51</ele>
        <time>2018-08-18T08:51:48Z</time>
      </trkpt>
      <trkpt lat="49.32752" lon="0.97598">
        <ele>39.07</ele>
        <time>2018-08-18T08:51:51Z</time>
      </trkpt>
      <trkpt lat="49.32801" lon="0.97676">
        <ele>41.47</ele>
        <time>2018-08-18T08:52:04Z</time>
      </trkpt>
      <trkpt lat="49.32802" lon="0.97679">
        <ele>41.95</ele>
        <time>2018-08-18T08:52:05Z</time>
      </trkpt>
      <trkpt lat="49.32805" lon="0.97682">
        <ele>42.92</ele>
        <time>2018-08-18T08:52:07Z</time>
      </trkpt>
      <trkpt lat="49.32807" lon="0.97687">
        <ele>42.92</ele>
        <time>2018-08-18T08:52:09Z</time>
      </trkpt>
      <trkpt lat="49.32815" lon="0.97699">
        <ele>44.84</ele>
        <time>2018-08-18T08:52:14Z</time>
      </trkpt>
      <trkpt lat="49.32822" lon="0.97719">
        <ele>45.32</ele>
        <time>2018-08-18T08:52:19Z</time>
      </trkpt>
      <trkpt lat="49.32829" lon="0.97727">
        <ele>45.8</ele>
        <time>2018-08-18T08:52:24Z</time>
      </trkpt>
      <trkpt lat="49.32829" lon="0.97727">
        <ele>46.76</ele>
        <time>2018-08-18T08:52:25Z</time>
      </trkpt>
      <trkpt lat="49.32831" lon="0.97728">
        <ele>46.76</ele>
        <time>2018-08-18T08:52:27Z</time>
      </trkpt>
      <trkpt lat="49.3283" lon="0.97728">
        <ele>47.24</ele>
        <time>2018-08-18T08:52:28Z</time>
      </trkpt>
      <trkpt lat="49.32834" lon="0.97722">
        <ele>49.16</ele>
        <time>2018-08-18T08:52:33Z</time>
      </trkpt>
      <trkpt lat="49.32839" lon="0.9772">
        <ele>50.13</ele>
        <time>2018-08-18T08:52:36Z</time>
      </trkpt>
      <trkpt lat="49.32846" lon="0.9771">
        <ele>51.09</ele>
        <time>2018-08-18T08:52:42Z</time>
      </trkpt>
      <trkpt lat="49.32849" lon="0.97712">
        <ele>52.05</ele>
        <time>2018-08-18T08:52:45Z</time>
      </trkpt>
      <trkpt lat="49.32851" lon="0.97712">
        <ele>51.57</ele>
        <time>2018-08-18T08:52:48Z</time>
      </trkpt>
      <trkpt lat="49.32864" lon="0.97756">
        <ele>53.97</ele>
        <time>2018-08-18T08:53:03Z</time>
      </trkpt>
      <trkpt lat="49.32863" lon="0.97761">
        <ele>54.45</ele>
        <time>2018-08-18T08:53:05Z</time>
      </trkpt>
      <trkpt lat="49.32867" lon="0.97776">
        <ele>55.41</ele>
        <time>2018-08-18T08:53:09Z</time>
      </trkpt>
      <trkpt lat="49.3287" lon="0.97803">
        <ele>56.37</ele>
        <time>2018-08-18T08:53:17Z</time>
      </trkpt>
      <trkpt lat="49.3286" lon="0.97825">
        <ele>55.89</ele>
        <time>2018-08-18T08:53:23Z</time>
      </trkpt>
      <trkpt lat="49.3286" lon="0.97832">
        <ele>55.89</ele>
        <time>2018-08-18T08:53:25Z</time>
      </trkpt>
      <trkpt lat="49.32855" lon="0.97843">
        <ele>54.93</ele>
        <time>2018-08-18T08:53:28Z</time>
      </trkpt>
      <trkpt lat="49.32856" lon="0.97855">
        <ele>56.37</ele>
        <time>2018-08-18T08:53:32Z</time>
      </trkpt>
      <trkpt lat="49.32857" lon="0.97859">
        <ele>56.37</ele>
        <time>2018-08-18T08:53:33Z</time>
      </trkpt>
      <trkpt lat="49.32859" lon="0.97871">
        <ele>57.34</ele>
        <time>2018-08-18T08:53:35Z</time>
      </trkpt>
      <trkpt lat="49.32858" lon="0.97877">
        <ele>56.86</ele>
        <time>2018-08-18T08:53:37Z</time>
      </trkpt>
      <trkpt lat="49.3285" lon="0.97901">
        <ele>54.93</ele>
        <time>2018-08-18T08:53:43Z</time>
      </trkpt>
      <trkpt lat="49.32846" lon="0.97925">
        <ele>55.89</ele>
        <time>2018-08-18T08:53:49Z</time>
      </trkpt>
      <trkpt lat="49.32837" lon="0.9797">
        <ele>55.89</ele>
        <time>2018-08-18T08:53:59Z</time>
      </trkpt>
      <trkpt lat="49.32814" lon="0.98025">
        <ele>52.53</ele>
        <time>2018-08-18T08:54:10Z</time>
      </trkpt>
      <trkpt lat="49.32813" lon="0.98026">
        <ele>51.57</ele>
        <time>2018-08-18T08:54:11Z</time>
      </trkpt>
      <trkpt lat="49.32798" lon="0.98055">
        <ele>48.2</ele>
        <time>2018-08-18T08:54:19Z</time>
      </trkpt>
      <trkpt lat="49.32792" lon="0.98055">
        <ele>48.68</ele>
        <time>2018-08-18T08:54:20Z</time>
      </trkpt>
      <trkpt lat="49.32788" lon="0.98055">
        <ele>48.2</ele>
        <time>2018-08-18T08:54:21Z</time>
      </trkpt>
      <trkpt lat="49.32783" lon="0.98058">
        <ele>47.24</ele>
        <time>2018-08-18T08:54:22Z</time>
      </trkpt>
      <trkpt lat="49.32778" lon="0.9806">
        <ele>46.76</ele>
        <time>2018-08-18T08:54:23Z</time>
      </trkpt>
      <trkpt lat="49.32773" lon="0.98064">
        <ele>45.8</ele>
        <time>2018-08-18T08:54:24Z</time>
      </trkpt>
      <trkpt lat="49.3277" lon="0.98068">
        <ele>45.32</ele>
        <time>2018-08-18T08:54:25Z</time>
      </trkpt>
      <trkpt lat="49.32768" lon="0.98072">
        <ele>45.32</ele>
        <time>2018-08-18T08:54:26Z</time>
      </trkpt>
      <trkpt lat="49.32765" lon="0.98076">
        <ele>45.32</ele>
        <time>2018-08-18T08:54:27Z</time>
      </trkpt>
      <trkpt lat="49.32762" lon="0.9808">
        <ele>44.36</ele>
        <time>2018-08-18T08:54:28Z</time>
      </trkpt>
      <trkpt lat="49.32758" lon="0.98085">
        <ele>44.36</ele>
        <time>2018-08-18T08:54:29Z</time>
      </trkpt>
      <trkpt lat="49.32755" lon="0.9809">
        <ele>44.36</ele>
        <time>2018-08-18T08:54:30Z</time>
      </trkpt>
      <trkpt lat="49.32751" lon="0.98093">
        <ele>43.88</ele>
        <time>2018-08-18T08:54:31Z</time>
      </trkpt>
      <trkpt lat="49.32747" lon="0.98097">
        <ele>43.4</ele>
        <time>2018-08-18T08:54:32Z</time>
      </trkpt>
      <trkpt lat="49.32743" lon="0.98102">
        <ele>42.44</ele>
        <time>2018-08-18T08:54:33Z</time>
      </trkpt>
      <trkpt lat="49.32739" lon="0.98107">
        <ele>42.44</ele>
        <time>2018-08-18T08:54:34Z</time>
      </trkpt>
      <trkpt lat="49.32736" lon="0.98112">
        <ele>42.44</ele>
        <time>2018-08-18T08:54:35Z</time>
      </trkpt>
      <trkpt lat="49.32732" lon="0.98117">
        <ele>41.47</ele>
        <time>2018-08-18T08:54:36Z</time>
      </trkpt>
      <trkpt lat="49.32728" lon="0.98121">
        <ele>41.47</ele>
        <time>2018-08-18T08:54:37Z</time>
      </trkpt>
      <trkpt lat="49.32725" lon="0.98123">
        <ele>41.47</ele>
        <time>2018-08-18T08:54:38Z</time>
      </trkpt>
      <trkpt lat="49.32721" lon="0.98125">
        <ele>40.51</ele>
        <time>2018-08-18T08:54:39Z</time>
      </trkpt>
      <trkpt lat="49.32717" lon="0.9813">
        <ele>40.03</ele>
        <time>2018-08-18T08:54:40Z</time>
      </trkpt>
      <trkpt lat="49.32714" lon="0.98134">
        <ele>39.55</ele>
        <time>2018-08-18T08:54:41Z</time>
      </trkpt>
      <trkpt lat="49.32712" lon="0.9814">
        <ele>40.03</ele>
        <time>2018-08-18T08:54:42Z</time>
      </trkpt>
      <trkpt lat="49.3271" lon="0.98145">
        <ele>40.51</ele>
        <time>2018-08-18T08:54:43Z</time>
      </trkpt>
      <trkpt lat="49.32709" lon="0.9815">
        <ele>40.99</ele>
        <time>2018-08-18T08:54:44Z</time>
      </trkpt>
      <trkpt lat="49.32708" lon="0.98154">
        <ele>40.99</ele>
        <time>2018-08-18T08:54:45Z</time>
      </trkpt>
      <trkpt lat="49.32707" lon="0.98158">
        <ele>41.95</ele>
        <time>2018-08-18T08:54:46Z</time>
      </trkpt>
      <trkpt lat="49.32699" lon="0.98175">
        <ele>40.51</ele>
        <time>2018-08-18T08:54:50Z</time>
      </trkpt>
      <trkpt lat="49.32696" lon="0.9818">
        <ele>40.51</ele>
        <time>2018-08-18T08:54:51Z</time>
      </trkpt>
      <trkpt lat="49.32693" lon="0.98184">
        <ele>40.51</ele>
        <time>2018-08-18T08:54:52Z</time>
      </trkpt>
      <trkpt lat="49.32689" lon="0.98191">
        <ele>40.99</ele>
        <time>2018-08-18T08:54:55Z</time>
      </trkpt>
      <trkpt lat="49.32687" lon="0.98195">
        <ele>41.95</ele>
        <time>2018-08-18T08:54:56Z</time>
      </trkpt>
      <trkpt lat="49.32685" lon="0.98197">
        <ele>42.44</ele>
        <time>2018-08-18T08:54:57Z</time>
      </trkpt>
      <trkpt lat="49.32677" lon="0.98201">
        <ele>42.44</ele>
        <time>2018-08-18T08:55:00Z</time>
      </trkpt>
      <trkpt lat="49.32675" lon="0.98204">
        <ele>42.44</ele>
        <time>2018-08-18T08:55:01Z</time>
      </trkpt>
      <trkpt lat="49.32673" lon="0.98208">
        <ele>42.92</ele>
        <time>2018-08-18T08:55:02Z</time>
      </trkpt>
      <trkpt lat="49.3267" lon="0.98212">
        <ele>43.4</ele>
        <time>2018-08-18T08:55:03Z</time>
      </trkpt>
      <trkpt lat="49.32668" lon="0.98214">
        <ele>43.88</ele>
        <time>2018-08-18T08:55:04Z</time>
      </trkpt>
      <trkpt lat="49.3264" lon="0.98244">
        <ele>46.28</ele>
        <time>2018-08-18T08:55:17Z</time>
      </trkpt>
      <trkpt lat="49.3262" lon="0.98258">
        <ele>46.76</ele>
        <time>2018-08-18T08:55:25Z</time>
      </trkpt>
      <trkpt lat="49.32618" lon="0.98256">
        <ele>46.28</ele>
        <time>2018-08-18T08:55:26Z</time>
      </trkpt>
      <trkpt lat="49.32613" lon="0.98255">
        <ele>45.8</ele>
        <time>2018-08-18T08:55:28Z</time>
      </trkpt>
      <trkpt lat="49.32609" lon="0.98257">
        <ele>45.32</ele>
        <time>2018-08-18T08:55:29Z</time>
      </trkpt>
      <trkpt lat="49.32606" lon="0.98258">
        <ele>45.32</ele>
        <time>2018-08-18T08:55:30Z</time>
      </trkpt>
      <trkpt lat="49.32602" lon="0.98258">
        <ele>44.84</ele>
        <time>2018-08-18T08:55:31Z</time>
      </trkpt>
      <trkpt lat="49.32598" lon="0.98259">
        <ele>44.36</ele>
        <time>2018-08-18T08:55:32Z</time>
      </trkpt>
      <trkpt lat="49.32594" lon="0.9826">
        <ele>44.36</ele>
        <time>2018-08-18T08:55:33Z</time>
      </trkpt>
      <trkpt lat="49.3259" lon="0.98262">
        <ele>44.36</ele>
        <time>2018-08-18T08:55:34Z</time>
      </trkpt>
      <trkpt lat="49.32559" lon="0.98279">
        <ele>40.99</ele>
        <time>2018-08-18T08:55:43Z</time>
      </trkpt>
      <trkpt lat="49.32557" lon="0.98281">
        <ele>40.99</ele>
        <time>2018-08-18T08:55:47Z</time>
      </trkpt>
      <trkpt lat="49.32558" lon="0.9828">
        <ele>40.99</ele>
        <time>2018-08-18T08:55:48Z</time>
      </trkpt>
      <trkpt lat="49.32588" lon="0.98256">
        <ele>38.11</ele>
        <time>2018-08-18T08:56:01Z</time>
      </trkpt>
      <trkpt lat="49.32596" lon="0.98242">
        <ele>37.15</ele>
        <time>2018-08-18T08:56:04Z</time>
      </trkpt>
      <trkpt lat="49.326" lon="0.98237">
        <ele>37.15</ele>
        <time>2018-08-18T08:56:05Z</time>
      </trkpt>
      <trkpt lat="49.32604" lon="0.98232">
        <ele>36.19</ele>
        <time>2018-08-18T08:56:06Z</time>
      </trkpt>
      <trkpt lat="49.32626" lon="0.98217">
        <ele>34.74</ele>
        <time>2018-08-18T08:56:10Z</time>
      </trkpt>
      <trkpt lat="49.32631" lon="0.98212">
        <ele>34.26</ele>
        <time>2018-08-18T08:56:11Z</time>
      </trkpt>
      <trkpt lat="49.32636" lon="0.98207">
        <ele>33.78</ele>
        <time>2018-08-18T08:56:12Z</time>
      </trkpt>
      <trkpt lat="49.32674" lon="0.98153">
        <ele>30.42</ele>
        <time>2018-08-18T08:56:20Z</time>
      </trkpt>
      <trkpt lat="49.32689" lon="0.98132">
        <ele>29.46</ele>
        <time>2018-08-18T08:56:23Z</time>
      </trkpt>
      <trkpt lat="49.32706" lon="0.98104">
        <ele>28.02</ele>
        <time>2018-08-18T08:56:27Z</time>
      </trkpt>
      <trkpt lat="49.32718" lon="0.98077">
        <ele>27.05</ele>
        <time>2018-08-18T08:56:30Z</time>
      </trkpt>
      <trkpt lat="49.32729" lon="0.98048">
        <ele>25.61</ele>
        <time>2018-08-18T08:56:33Z</time>
      </trkpt>
      <trkpt lat="49.32734" lon="0.9803">
        <ele>24.65</ele>
        <time>2018-08-18T08:56:35Z</time>
      </trkpt>
      <trkpt lat="49.32741" lon="0.98013">
        <ele>24.17</ele>
        <time>2018-08-18T08:56:37Z</time>
      </trkpt>
      <trkpt lat="49.32744" lon="0.98003">
        <ele>24.17</ele>
        <time>2018-08-18T08:56:38Z</time>
      </trkpt>
      <trkpt lat="49.32747" lon="0.97994">
        <ele>23.69</ele>
        <time>2018-08-18T08:56:39Z</time>
      </trkpt>
      <trkpt lat="49.3275" lon="0.97985">
        <ele>23.69</ele>
        <time>2018-08-18T08:56:40Z</time>
      </trkpt>
      <trkpt lat="49.32754" lon="0.97977">
        <ele>22.73</ele>
        <time>2018-08-18T08:56:41Z</time>
      </trkpt>
      <trkpt lat="49.32757" lon="0.97968">
        <ele>22.73</ele>
        <time>2018-08-18T08:56:42Z</time>
      </trkpt>
      <trkpt lat="49.32763" lon="0.9795">
        <ele>21.77</ele>
        <time>2018-08-18T08:56:44Z</time>
      </trkpt>
      <trkpt lat="49.32766" lon="0.9794">
        <ele>21.29</ele>
        <time>2018-08-18T08:56:45Z</time>
      </trkpt>
      <trkpt lat="49.32774" lon="0.97905">
        <ele>20.32</ele>
        <time>2018-08-18T08:56:49Z</time>
      </trkpt>
      <trkpt lat="49.32777" lon="0.97888">
        <ele>19.36</ele>
        <time>2018-08-18T08:56:51Z</time>
      </trkpt>
      <trkpt lat="49.32778" lon="0.97881">
        <ele>19.36</ele>
        <time>2018-08-18T08:56:52Z</time>
      </trkpt>
      <trkpt lat="49.32777" lon="0.97873">
        <ele>19.36</ele>
        <time>2018-08-18T08:56:53Z</time>
      </trkpt>
      <trkpt lat="49.32776" lon="0.97868">
        <ele>19.36</ele>
        <time>2018-08-18T08:56:54Z</time>
      </trkpt>
      <trkpt lat="49.32775" lon="0.97863">
        <ele>19.36</ele>
        <time>2018-08-18T08:56:55Z</time>
      </trkpt>
      <trkpt lat="49.32766" lon="0.97844">
        <ele>18.88</ele>
        <time>2018-08-18T08:56:59Z</time>
      </trkpt>
      <trkpt lat="49.32762" lon="0.9784">
        <ele>18.88</ele>
        <time>2018-08-18T08:57:00Z</time>
      </trkpt>
      <trkpt lat="49.32758" lon="0.97836">
        <ele>18.88</ele>
        <time>2018-08-18T08:57:01Z</time>
      </trkpt>
      <trkpt lat="49.32755" lon="0.97833">
        <ele>18.88</ele>
        <time>2018-08-18T08:57:02Z</time>
      </trkpt>
      <trkpt lat="49.32751" lon="0.9783">
        <ele>18.88</ele>
        <time>2018-08-18T08:57:03Z</time>
      </trkpt>
      <trkpt lat="49.32748" lon="0.97827">
        <ele>18.4</ele>
        <time>2018-08-18T08:57:04Z</time>
      </trkpt>
      <trkpt lat="49.32745" lon="0.97823">
        <ele>18.4</ele>
        <time>2018-08-18T08:57:05Z</time>
      </trkpt>
      <trkpt lat="49.32742" lon="0.97819">
        <ele>18.4</ele>
        <time>2018-08-18T08:57:06Z</time>
      </trkpt>
      <trkpt lat="49.32739" lon="0.97815">
        <ele>18.88</ele>
        <time>2018-08-18T08:57:07Z</time>
      </trkpt>
      <trkpt lat="49.32739" lon="0.97811">
        <ele>18.88</ele>
        <time>2018-08-18T08:57:08Z</time>
      </trkpt>
      <trkpt lat="49.32738" lon="0.97807">
        <ele>18.88</ele>
        <time>2018-08-18T08:57:09Z</time>
      </trkpt>
      <trkpt lat="49.32738" lon="0.97803">
        <ele>18.88</ele>
        <time>2018-08-18T08:57:10Z</time>
      </trkpt>
      <trkpt lat="49.32737" lon="0.97801">
        <ele>18.88</ele>
        <time>2018-08-18T08:57:11Z</time>
      </trkpt>
      <trkpt lat="49.3273" lon="0.97783">
        <ele>19.36</ele>
        <time>2018-08-18T08:57:17Z</time>
      </trkpt>
      <trkpt lat="49.32728" lon="0.97778">
        <ele>19.36</ele>
        <time>2018-08-18T08:57:18Z</time>
      </trkpt>
      <trkpt lat="49.32728" lon="0.97774">
        <ele>19.36</ele>
        <time>2018-08-18T08:57:19Z</time>
      </trkpt>
      <trkpt lat="49.32724" lon="0.97759">
        <ele>19.84</ele>
        <time>2018-08-18T08:57:22Z</time>
      </trkpt>
      <trkpt lat="49.3272" lon="0.97757">
        <ele>19.84</ele>
        <time>2018-08-18T08:57:23Z</time>
      </trkpt>
      <trkpt lat="49.32717" lon="0.97757">
        <ele>19.36</ele>
        <time>2018-08-18T08:57:24Z</time>
      </trkpt>
      <trkpt lat="49.32714" lon="0.97759">
        <ele>19.84</ele>
        <time>2018-08-18T08:57:25Z</time>
      </trkpt>
      <trkpt lat="49.32711" lon="0.97761">
        <ele>19.84</ele>
        <time>2018-08-18T08:57:26Z</time>
      </trkpt>
      <trkpt lat="49.32708" lon="0.97765">
        <ele>19.84</ele>
        <time>2018-08-18T08:57:27Z</time>
      </trkpt>
      <trkpt lat="49.32705" lon="0.97768">
        <ele>19.84</ele>
        <time>2018-08-18T08:57:28Z</time>
      </trkpt>
      <trkpt lat="49.32696" lon="0.97784">
        <ele>20.32</ele>
        <time>2018-08-18T08:57:32Z</time>
      </trkpt>
      <trkpt lat="49.32694" lon="0.97786">
        <ele>20.81</ele>
        <time>2018-08-18T08:57:33Z</time>
      </trkpt>
      <trkpt lat="49.32691" lon="0.97787">
        <ele>21.29</ele>
        <time>2018-08-18T08:57:34Z</time>
      </trkpt>
      <trkpt lat="49.32675" lon="0.97786">
        <ele>23.21</ele>
        <time>2018-08-18T08:57:40Z</time>
      </trkpt>
      <trkpt lat="49.32672" lon="0.97787">
        <ele>23.69</ele>
        <time>2018-08-18T08:57:41Z</time>
      </trkpt>
      <trkpt lat="49.3267" lon="0.97787">
        <ele>24.17</ele>
        <time>2018-08-18T08:57:42Z</time>
      </trkpt>
      <trkpt lat="49.32667" lon="0.97788">
        <ele>24.17</ele>
        <time>2018-08-18T08:57:43Z</time>
      </trkpt>
      <trkpt lat="49.32664" lon="0.97789">
        <ele>24.65</ele>
        <time>2018-08-18T08:57:44Z</time>
      </trkpt>
      <trkpt lat="49.32663" lon="0.9779">
        <ele>24.65</ele>
        <time>2018-08-18T08:57:45Z</time>
      </trkpt>
      <trkpt lat="49.32657" lon="0.97791">
        <ele>25.13</ele>
        <time>2018-08-18T08:57:47Z</time>
      </trkpt>
      <trkpt lat="49.32652" lon="0.97779">
        <ele>26.09</ele>
        <time>2018-08-18T08:57:50Z</time>
      </trkpt>
      <trkpt lat="49.32609" lon="0.97793">
        <ele>28.02</ele>
        <time>2018-08-18T08:58:06Z</time>
      </trkpt>
      <trkpt lat="49.32558" lon="0.97782">
        <ele>30.9</ele>
        <time>2018-08-18T08:58:22Z</time>
      </trkpt>
      <trkpt lat="49.32532" lon="0.97768">
        <ele>32.82</ele>
        <time>2018-08-18T08:58:33Z</time>
      </trkpt>
      <trkpt lat="49.32528" lon="0.97768">
        <ele>33.3</ele>
        <time>2018-08-18T08:58:34Z</time>
      </trkpt>
      <trkpt lat="49.32501" lon="0.97757">
        <ele>36.67</ele>
        <time>2018-08-18T08:58:43Z</time>
      </trkpt>
      <trkpt lat="49.32488" lon="0.97758">
        <ele>38.11</ele>
        <time>2018-08-18T08:58:51Z</time>
      </trkpt>
      <trkpt lat="49.32477" lon="0.97761">
        <ele>40.51</ele>
        <time>2018-08-18T08:59:03Z</time>
      </trkpt>
      <trkpt lat="49.32461" lon="0.97754">
        <ele>42.92</ele>
        <time>2018-08-18T08:59:12Z</time>
      </trkpt>
      <trkpt lat="49.32457" lon="0.97755">
        <ele>44.36</ele>
        <time>2018-08-18T08:59:16Z</time>
      </trkpt>
      <trkpt lat="49.32449" lon="0.97751">
        <ele>45.32</ele>
        <time>2018-08-18T08:59:20Z</time>
      </trkpt>
      <trkpt lat="49.32446" lon="0.97751">
        <ele>45.8</ele>
        <time>2018-08-18T08:59:22Z</time>
      </trkpt>
      <trkpt lat="49.32435" lon="0.97746">
        <ele>47.72</ele>
        <time>2018-08-18T08:59:29Z</time>
      </trkpt>
      <trkpt lat="49.32427" lon="0.97743">
        <ele>48.68</ele>
        <time>2018-08-18T08:59:33Z</time>
      </trkpt>
      <trkpt lat="49.32417" lon="0.97736">
        <ele>50.61</ele>
        <time>2018-08-18T08:59:42Z</time>
      </trkpt>
      <trkpt lat="49.32415" lon="0.97731">
        <ele>51.09</ele>
        <time>2018-08-18T08:59:45Z</time>
      </trkpt>
      <trkpt lat="49.32413" lon="0.97727">
        <ele>51.09</ele>
        <time>2018-08-18T08:59:47Z</time>
      </trkpt>
      <trkpt lat="49.32394" lon="0.97703">
        <ele>54.45</ele>
        <time>2018-08-18T09:00:03Z</time>
      </trkpt>
      <trkpt lat="49.32374" lon="0.97695">
        <ele>56.37</ele>
        <time>2018-08-18T09:00:14Z</time>
      </trkpt>
      <trkpt lat="49.3237" lon="0.97696">
        <ele>57.34</ele>
        <time>2018-08-18T09:00:18Z</time>
      </trkpt>
      <trkpt lat="49.32368" lon="0.97694">
        <ele>57.82</ele>
        <time>2018-08-18T09:00:21Z</time>
      </trkpt>
      <trkpt lat="49.32363" lon="0.97695">
        <ele>58.3</ele>
        <time>2018-08-18T09:00:25Z</time>
      </trkpt>
      <trkpt lat="49.32346" lon="0.97721">
        <ele>59.74</ele>
        <time>2018-08-18T09:00:39Z</time>
      </trkpt>
      <trkpt lat="49.32343" lon="0.97723">
        <ele>59.74</ele>
        <time>2018-08-18T09:00:40Z</time>
      </trkpt>
      <trkpt lat="49.32338" lon="0.97728">
        <ele>59.74</ele>
        <time>2018-08-18T09:00:43Z</time>
      </trkpt>
      <trkpt lat="49.32331" lon="0.97734">
        <ele>60.22</ele>
        <time>2018-08-18T09:00:46Z</time>
      </trkpt>
      <trkpt lat="49.32328" lon="0.97736">
        <ele>59.74</ele>
        <time>2018-08-18T09:00:47Z</time>
      </trkpt>
      <trkpt lat="49.32318" lon="0.97744">
        <ele>59.26</ele>
        <time>2018-08-18T09:00:52Z</time>
      </trkpt>
      <trkpt lat="49.32311" lon="0.97764">
        <ele>55.89</ele>
        <time>2018-08-18T09:00:57Z</time>
      </trkpt>
      <trkpt lat="49.32297" lon="0.97762">
        <ele>55.41</ele>
        <time>2018-08-18T09:00:58Z</time>
      </trkpt>
      <trkpt lat="49.3229" lon="0.97762">
        <ele>54.45</ele>
        <time>2018-08-18T09:00:59Z</time>
      </trkpt>
      <trkpt lat="49.3227" lon="0.97764">
        <ele>51.57</ele>
        <time>2018-08-18T09:01:02Z</time>
      </trkpt>
      <trkpt lat="49.32266" lon="0.97766">
        <ele>51.09</ele>
        <time>2018-08-18T09:01:03Z</time>
      </trkpt>
      <trkpt lat="49.32254" lon="0.97777">
        <ele>47.24</ele>
        <time>2018-08-18T09:01:07Z</time>
      </trkpt>
      <trkpt lat="49.32249" lon="0.97779">
        <ele>47.24</ele>
        <time>2018-08-18T09:01:08Z</time>
      </trkpt>
      <trkpt lat="49.32242" lon="0.97781">
        <ele>46.28</ele>
        <time>2018-08-18T09:01:09Z</time>
      </trkpt>
      <trkpt lat="49.32237" lon="0.97784">
        <ele>46.28</ele>
        <time>2018-08-18T09:01:10Z</time>
      </trkpt>
      <trkpt lat="49.32228" lon="0.9779">
        <ele>45.32</ele>
        <time>2018-08-18T09:01:12Z</time>
      </trkpt>
      <trkpt lat="49.3221" lon="0.97804">
        <ele>43.4</ele>
        <time>2018-08-18T09:01:16Z</time>
      </trkpt>
      <trkpt lat="49.3219" lon="0.9782">
        <ele>40.99</ele>
        <time>2018-08-18T09:01:20Z</time>
      </trkpt>
      <trkpt lat="49.3216" lon="0.97839">
        <ele>41.47</ele>
        <time>2018-08-18T09:01:29Z</time>
      </trkpt>
      <trkpt lat="49.32149" lon="0.97842">
        <ele>43.4</ele>
        <time>2018-08-18T09:01:34Z</time>
      </trkpt>
      <trkpt lat="49.32131" lon="0.97858">
        <ele>43.4</ele>
        <time>2018-08-18T09:01:41Z</time>
      </trkpt>
      <trkpt lat="49.32112" lon="0.97865">
        <ele>45.8</ele>
        <time>2018-08-18T09:01:46Z</time>
      </trkpt>
      <trkpt lat="49.32086" lon="0.97883">
        <ele>47.72</ele>
        <time>2018-08-18T09:01:56Z</time>
      </trkpt>
      <trkpt lat="49.32073" lon="0.97905">
        <ele>46.28</ele>
        <time>2018-08-18T09:02:02Z</time>
      </trkpt>
      <trkpt lat="49.3207" lon="0.9791">
        <ele>45.8</ele>
        <time>2018-08-18T09:02:03Z</time>
      </trkpt>
      <trkpt lat="49.32064" lon="0.97919">
        <ele>46.76</ele>
        <time>2018-08-18T09:02:05Z</time>
      </trkpt>
      <trkpt lat="49.32053" lon="0.97926">
        <ele>47.24</ele>
        <time>2018-08-18T09:02:09Z</time>
      </trkpt>
      <trkpt lat="49.3205" lon="0.97931">
        <ele>48.68</ele>
        <time>2018-08-18T09:02:11Z</time>
      </trkpt>
      <trkpt lat="49.32043" lon="0.97934">
        <ele>49.16</ele>
        <time>2018-08-18T09:02:14Z</time>
      </trkpt>
      <trkpt lat="49.32012" lon="0.97916">
        <ele>48.68</ele>
        <time>2018-08-18T09:02:26Z</time>
      </trkpt>
      <trkpt lat="49.32002" lon="0.97909">
        <ele>48.2</ele>
        <time>2018-08-18T09:02:28Z</time>
      </trkpt>
      <trkpt lat="49.31996" lon="0.97907">
        <ele>46.76</ele>
        <time>2018-08-18T09:02:30Z</time>
      </trkpt>
      <trkpt lat="49.31986" lon="0.97907">
        <ele>46.76</ele>
        <time>2018-08-18T09:02:32Z</time>
      </trkpt>
      <trkpt lat="49.31939" lon="0.97912">
        <ele>49.16</ele>
        <time>2018-08-18T09:02:44Z</time>
      </trkpt>
      <trkpt lat="49.31928" lon="0.97918">
        <ele>49.65</ele>
        <time>2018-08-18T09:02:47Z</time>
      </trkpt>
      <trkpt lat="49.3191" lon="0.97927">
        <ele>49.16</ele>
        <time>2018-08-18T09:02:53Z</time>
      </trkpt>
      <trkpt lat="49.31884" lon="0.97937">
        <ele>49.65</ele>
        <time>2018-08-18T09:03:01Z</time>
      </trkpt>
      <trkpt lat="49.31866" lon="0.97954">
        <ele>49.65</ele>
        <time>2018-08-18T09:03:06Z</time>
      </trkpt>
      <trkpt lat="49.31862" lon="0.97955">
        <ele>49.65</ele>
        <time>2018-08-18T09:03:07Z</time>
      </trkpt>
      <trkpt lat="49.31857" lon="0.97965">
        <ele>49.65</ele>
        <time>2018-08-18T09:03:10Z</time>
      </trkpt>
      <trkpt lat="49.31844" lon="0.97969">
        <ele>48.68</ele>
        <time>2018-08-18T09:03:13Z</time>
      </trkpt>
      <trkpt lat="49.31839" lon="0.97974">
        <ele>48.68</ele>
        <time>2018-08-18T09:03:15Z</time>
      </trkpt>
      <trkpt lat="49.3183" lon="0.98008">
        <ele>47.72</ele>
        <time>2018-08-18T09:03:21Z</time>
      </trkpt>
      <trkpt lat="49.31812" lon="0.98049">
        <ele>46.28</ele>
        <time>2018-08-18T09:03:30Z</time>
      </trkpt>
      <trkpt lat="49.31791" lon="0.98062">
        <ele>47.72</ele>
        <time>2018-08-18T09:03:39Z</time>
      </trkpt>
      <trkpt lat="49.31784" lon="0.98069">
        <ele>47.24</ele>
        <time>2018-08-18T09:03:54Z</time>
      </trkpt>
      <trkpt lat="49.31768" lon="0.98082">
        <ele>45.8</ele>
        <time>2018-08-18T09:04:13Z</time>
      </trkpt>
      <trkpt lat="49.31762" lon="0.98087">
        <ele>44.84</ele>
        <time>2018-08-18T09:04:32Z</time>
      </trkpt>
      <trkpt lat="49.31754" lon="0.98099">
        <ele>45.8</ele>
        <time>2018-08-18T09:04:48Z</time>
      </trkpt>
      <trkpt lat="49.31751" lon="0.98112">
        <ele>44.84</ele>
        <time>2018-08-18T09:04:53Z</time>
      </trkpt>
      <trkpt lat="49.31747" lon="0.98123">
        <ele>45.32</ele>
        <time>2018-08-18T09:04:58Z</time>
      </trkpt>
      <trkpt lat="49.31742" lon="0.98133">
        <ele>45.8</ele>
        <time>2018-08-18T09:05:03Z</time>
      </trkpt>
      <trkpt lat="49.31725" lon="0.98164">
        <ele>47.24</ele>
        <time>2018-08-18T09:05:16Z</time>
      </trkpt>
      <trkpt lat="49.31724" lon="0.98167">
        <ele>47.72</ele>
        <time>2018-08-18T09:05:17Z</time>
      </trkpt>
      <trkpt lat="49.31712" lon="0.98197">
        <ele>48.68</ele>
        <time>2018-08-18T09:05:25Z</time>
      </trkpt>
      <trkpt lat="49.31709" lon="0.98203">
        <ele>48.68</ele>
        <time>2018-08-18T09:05:27Z</time>
      </trkpt>
      <trkpt lat="49.31707" lon="0.98207">
        <ele>49.65</ele>
        <time>2018-08-18T09:05:28Z</time>
      </trkpt>
      <trkpt lat="49.31701" lon="0.9821">
        <ele>50.61</ele>
        <time>2018-08-18T09:05:30Z</time>
      </trkpt>
      <trkpt lat="49.31695" lon="0.98226">
        <ele>49.16</ele>
        <time>2018-08-18T09:05:35Z</time>
      </trkpt>
      <trkpt lat="49.31684" lon="0.98238">
        <ele>50.13</ele>
        <time>2018-08-18T09:05:39Z</time>
      </trkpt>
      <trkpt lat="49.31676" lon="0.98254">
        <ele>50.13</ele>
        <time>2018-08-18T09:05:42Z</time>
      </trkpt>
      <trkpt lat="49.31664" lon="0.98268">
        <ele>52.05</ele>
        <time>2018-08-18T09:05:45Z</time>
      </trkpt>
      <trkpt lat="49.31644" lon="0.98293">
        <ele>55.41</ele>
        <time>2018-08-18T09:05:53Z</time>
      </trkpt>
      <trkpt lat="49.31635" lon="0.98307">
        <ele>57.34</ele>
        <time>2018-08-18T09:06:00Z</time>
      </trkpt>
      <trkpt lat="49.31634" lon="0.98312">
        <ele>57.82</ele>
        <time>2018-08-18T09:06:02Z</time>
      </trkpt>
      <trkpt lat="49.31632" lon="0.98314">
        <ele>58.3</ele>
        <time>2018-08-18T09:06:03Z</time>
      </trkpt>
      <trkpt lat="49.3163" lon="0.98316">
        <ele>58.3</ele>
        <time>2018-08-18T09:06:04Z</time>
      </trkpt>
      <trkpt lat="49.31623" lon="0.98331">
        <ele>59.26</ele>
        <time>2018-08-18T09:06:09Z</time>
      </trkpt>
      <trkpt lat="49.31625" lon="0.98333">
        <ele>58.78</ele>
        <time>2018-08-18T09:06:10Z</time>
      </trkpt>
      <trkpt lat="49.31626" lon="0.98335">
        <ele>57.82</ele>
        <time>2018-08-18T09:06:11Z</time>
      </trkpt>
      <trkpt lat="49.31627" lon="0.98351">
        <ele>58.78</ele>
        <time>2018-08-18T09:06:19Z</time>
      </trkpt>
      <trkpt lat="49.31624" lon="0.98353">
        <ele>59.26</ele>
        <time>2018-08-18T09:06:20Z</time>
      </trkpt>
      <trkpt lat="49.31621" lon="0.98355">
        <ele>59.74</ele>
        <time>2018-08-18T09:06:22Z</time>
      </trkpt>
      <trkpt lat="49.31614" lon="0.98358">
        <ele>59.74</ele>
        <time>2018-08-18T09:06:25Z</time>
      </trkpt>
      <trkpt lat="49.31604" lon="0.98381">
        <ele>58.78</ele>
        <time>2018-08-18T09:06:32Z</time>
      </trkpt>
      <trkpt lat="49.31611" lon="0.98394">
        <ele>55.41</ele>
        <time>2018-08-18T09:06:36Z</time>
      </trkpt>
      <trkpt lat="49.31618" lon="0.98399">
        <ele>54.45</ele>
        <time>2018-08-18T09:06:38Z</time>
      </trkpt>
      <trkpt lat="49.3162" lon="0.98406">
        <ele>53.97</ele>
        <time>2018-08-18T09:06:40Z</time>
      </trkpt>
      <trkpt lat="49.3162" lon="0.98414">
        <ele>53.49</ele>
        <time>2018-08-18T09:06:42Z</time>
      </trkpt>
      <trkpt lat="49.31618" lon="0.98417">
        <ele>53.49</ele>
        <time>2018-08-18T09:06:45Z</time>
      </trkpt>
      <trkpt lat="49.31615" lon="0.98434">
        <ele>52.53</ele>
        <time>2018-08-18T09:06:50Z</time>
      </trkpt>
      <trkpt lat="49.31621" lon="0.98445">
        <ele>52.05</ele>
        <time>2018-08-18T09:06:53Z</time>
      </trkpt>
      <trkpt lat="49.3163" lon="0.98465">
        <ele>51.57</ele>
        <time>2018-08-18T09:06:58Z</time>
      </trkpt>
      <trkpt lat="49.31631" lon="0.98468">
        <ele>51.09</ele>
        <time>2018-08-18T09:07:00Z</time>
      </trkpt>
      <trkpt lat="49.31634" lon="0.98481">
        <ele>50.61</ele>
        <time>2018-08-18T09:07:05Z</time>
      </trkpt>
      <trkpt lat="49.31623" lon="0.98483">
        <ele>50.61</ele>
        <time>2018-08-18T09:07:09Z</time>
      </trkpt>
      <trkpt lat="49.31612" lon="0.98493">
        <ele>49.65</ele>
        <time>2018-08-18T09:07:14Z</time>
      </trkpt>
      <trkpt lat="49.31601" lon="0.98501">
        <ele>50.13</ele>
        <time>2018-08-18T09:07:17Z</time>
      </trkpt>
      <trkpt lat="49.31594" lon="0.98491">
        <ele>50.61</ele>
        <time>2018-08-18T09:07:21Z</time>
      </trkpt>
      <trkpt lat="49.31572" lon="0.98493">
        <ele>51.09</ele>
        <time>2018-08-18T09:07:31Z</time>
      </trkpt>
      <trkpt lat="49.31569" lon="0.98497">
        <ele>49.65</ele>
        <time>2018-08-18T09:07:32Z</time>
      </trkpt>
      <trkpt lat="49.31565" lon="0.98498">
        <ele>49.65</ele>
        <time>2018-08-18T09:07:33Z</time>
      </trkpt>
      <trkpt lat="49.31561" lon="0.98498">
        <ele>49.16</ele>
        <time>2018-08-18T09:07:34Z</time>
      </trkpt>
      <trkpt lat="49.31557" lon="0.98497">
        <ele>49.65</ele>
        <time>2018-08-18T09:07:35Z</time>
      </trkpt>
      <trkpt lat="49.31554" lon="0.98494">
        <ele>49.65</ele>
        <time>2018-08-18T09:07:36Z</time>
      </trkpt>
      <trkpt lat="49.31551" lon="0.98491">
        <ele>49.65</ele>
        <time>2018-08-18T09:07:37Z</time>
      </trkpt>
      <trkpt lat="49.31547" lon="0.9849">
        <ele>50.13</ele>
        <time>2018-08-18T09:07:38Z</time>
      </trkpt>
      <trkpt lat="49.31544" lon="0.98489">
        <ele>50.13</ele>
        <time>2018-08-18T09:07:39Z</time>
      </trkpt>
      <trkpt lat="49.31542" lon="0.98486">
        <ele>51.09</ele>
        <time>2018-08-18T09:07:40Z</time>
      </trkpt>
      <trkpt lat="49.31538" lon="0.98483">
        <ele>51.09</ele>
        <time>2018-08-18T09:07:42Z</time>
      </trkpt>
      <trkpt lat="49.31526" lon="0.98484">
        <ele>52.05</ele>
        <time>2018-08-18T09:07:47Z</time>
      </trkpt>
      <trkpt lat="49.31524" lon="0.98483">
        <ele>52.05</ele>
        <time>2018-08-18T09:07:48Z</time>
      </trkpt>
      <trkpt lat="49.31522" lon="0.98482">
        <ele>51.57</ele>
        <time>2018-08-18T09:07:49Z</time>
      </trkpt>
      <trkpt lat="49.31519" lon="0.98482">
        <ele>51.57</ele>
        <time>2018-08-18T09:07:50Z</time>
      </trkpt>
      <trkpt lat="49.31516" lon="0.98483">
        <ele>51.57</ele>
        <time>2018-08-18T09:07:51Z</time>
      </trkpt>
      <trkpt lat="49.31513" lon="0.98485">
        <ele>51.09</ele>
        <time>2018-08-18T09:07:52Z</time>
      </trkpt>
      <trkpt lat="49.3151" lon="0.98488">
        <ele>51.09</ele>
        <time>2018-08-18T09:07:53Z</time>
      </trkpt>
      <trkpt lat="49.31484" lon="0.98511">
        <ele>51.09</ele>
        <time>2018-08-18T09:08:01Z</time>
      </trkpt>
      <trkpt lat="49.31481" lon="0.98519">
        <ele>51.57</ele>
        <time>2018-08-18T09:08:03Z</time>
      </trkpt>
      <trkpt lat="49.31482" lon="0.98526">
        <ele>51.57</ele>
        <time>2018-08-18T09:08:06Z</time>
      </trkpt>
      <trkpt lat="49.31483" lon="0.98529">
        <ele>50.13</ele>
        <time>2018-08-18T09:08:08Z</time>
      </trkpt>
      <trkpt lat="49.31484" lon="0.9853">
        <ele>48.2</ele>
        <time>2018-08-18T09:08:09Z</time>
      </trkpt>
      <trkpt lat="49.31485" lon="0.9853">
        <ele>46.76</ele>
        <time>2018-08-18T09:08:10Z</time>
      </trkpt>
      <trkpt lat="49.31486" lon="0.98529">
        <ele>44.36</ele>
        <time>2018-08-18T09:08:11Z</time>
      </trkpt>
      <trkpt lat="49.31492" lon="0.98523">
        <ele>43.4</ele>
        <time>2018-08-18T09:08:12Z</time>
      </trkpt>
      <trkpt lat="49.31496" lon="0.98521">
        <ele>42.92</ele>
        <time>2018-08-18T09:08:13Z</time>
      </trkpt>
      <trkpt lat="49.31505" lon="0.98516">
        <ele>41.47</ele>
        <time>2018-08-18T09:08:15Z</time>
      </trkpt>
      <trkpt lat="49.31521" lon="0.98512">
        <ele>40.03</ele>
        <time>2018-08-18T09:08:18Z</time>
      </trkpt>
      <trkpt lat="49.31526" lon="0.98513">
        <ele>40.03</ele>
        <time>2018-08-18T09:08:19Z</time>
      </trkpt>
      <trkpt lat="49.31537" lon="0.98514">
        <ele>39.55</ele>
        <time>2018-08-18T09:08:21Z</time>
      </trkpt>
      <trkpt lat="49.31554" lon="0.98517">
        <ele>39.07</ele>
        <time>2018-08-18T09:08:24Z</time>
      </trkpt>
      <trkpt lat="49.31585" lon="0.9853">
        <ele>37.15</ele>
        <time>2018-08-18T09:08:29Z</time>
      </trkpt>
      <trkpt lat="49.31607" lon="0.9854">
        <ele>36.19</ele>
        <time>2018-08-18T09:08:32Z</time>
      </trkpt>
      <trkpt lat="49.31615" lon="0.9854">
        <ele>35.23</ele>
        <time>2018-08-18T09:08:33Z</time>
      </trkpt>
      <trkpt lat="49.31622" lon="0.98539">
        <ele>34.26</ele>
        <time>2018-08-18T09:08:34Z</time>
      </trkpt>
      <trkpt lat="49.31628" lon="0.98539">
        <ele>34.26</ele>
        <time>2018-08-18T09:08:35Z</time>
      </trkpt>
      <trkpt lat="49.31636" lon="0.98537">
        <ele>34.26</ele>
        <time>2018-08-18T09:08:36Z</time>
      </trkpt>
      <trkpt lat="49.3164" lon="0.98538">
        <ele>35.23</ele>
        <time>2018-08-18T09:08:37Z</time>
      </trkpt>
      <trkpt lat="49.31643" lon="0.98541">
        <ele>34.74</ele>
        <time>2018-08-18T09:08:38Z</time>
      </trkpt>
      <trkpt lat="49.31647" lon="0.98545">
        <ele>34.26</ele>
        <time>2018-08-18T09:08:39Z</time>
      </trkpt>
      <trkpt lat="49.3165" lon="0.9855">
        <ele>33.78</ele>
        <time>2018-08-18T09:08:40Z</time>
      </trkpt>
      <trkpt lat="49.31654" lon="0.98553">
        <ele>33.3</ele>
        <time>2018-08-18T09:08:41Z</time>
      </trkpt>
      <trkpt lat="49.31658" lon="0.98559">
        <ele>32.82</ele>
        <time>2018-08-18T09:08:42Z</time>
      </trkpt>
      <trkpt lat="49.31662" lon="0.98565">
        <ele>32.82</ele>
        <time>2018-08-18T09:08:43Z</time>
      </trkpt>
      <trkpt lat="49.31667" lon="0.9857">
        <ele>32.34</ele>
        <time>2018-08-18T09:08:44Z</time>
      </trkpt>
      <trkpt lat="49.3168" lon="0.98587">
        <ele>30.9</ele>
        <time>2018-08-18T09:08:47Z</time>
      </trkpt>
      <trkpt lat="49.31698" lon="0.98629">
        <ele>28.98</ele>
        <time>2018-08-18T09:08:52Z</time>
      </trkpt>
      <trkpt lat="49.31701" lon="0.98636">
        <ele>28.98</ele>
        <time>2018-08-18T09:08:53Z</time>
      </trkpt>
      <trkpt lat="49.3171" lon="0.98656">
        <ele>27.53</ele>
        <time>2018-08-18T09:08:56Z</time>
      </trkpt>
      <trkpt lat="49.31713" lon="0.98664">
        <ele>27.53</ele>
        <time>2018-08-18T09:08:57Z</time>
      </trkpt>
      <trkpt lat="49.3174" lon="0.98709">
        <ele>26.57</ele>
        <time>2018-08-18T09:09:07Z</time>
      </trkpt>
      <trkpt lat="49.31742" lon="0.98711">
        <ele>26.57</ele>
        <time>2018-08-18T09:09:08Z</time>
      </trkpt>
      <trkpt lat="49.31744" lon="0.98713">
        <ele>26.09</ele>
        <time>2018-08-18T09:09:09Z</time>
      </trkpt>
      <trkpt lat="49.31746" lon="0.98713">
        <ele>26.09</ele>
        <time>2018-08-18T09:09:10Z</time>
      </trkpt>
      <trkpt lat="49.31748" lon="0.98712">
        <ele>26.57</ele>
        <time>2018-08-18T09:09:11Z</time>
      </trkpt>
      <trkpt lat="49.31749" lon="0.98709">
        <ele>26.57</ele>
        <time>2018-08-18T09:09:13Z</time>
      </trkpt>
      <trkpt lat="49.31749" lon="0.98706">
        <ele>26.57</ele>
        <time>2018-08-18T09:09:14Z</time>
      </trkpt>
      <trkpt lat="49.31749" lon="0.98704">
        <ele>27.05</ele>
        <time>2018-08-18T09:09:15Z</time>
      </trkpt>
      <trkpt lat="49.31748" lon="0.98695">
        <ele>28.02</ele>
        <time>2018-08-18T09:09:19Z</time>
      </trkpt>
      <trkpt lat="49.31748" lon="0.98693">
        <ele>28.5</ele>
        <time>2018-08-18T09:09:20Z</time>
      </trkpt>
      <trkpt lat="49.31748" lon="0.9869">
        <ele>28.98</ele>
        <time>2018-08-18T09:09:21Z</time>
      </trkpt>
      <trkpt lat="49.31748" lon="0.98687">
        <ele>28.98</ele>
        <time>2018-08-18T09:09:22Z</time>
      </trkpt>
      <trkpt lat="49.31749" lon="0.98685">
        <ele>29.46</ele>
        <time>2018-08-18T09:09:23Z</time>
      </trkpt>
      <trkpt lat="49.31748" lon="0.98681">
        <ele>29.94</ele>
        <time>2018-08-18T09:09:24Z</time>
      </trkpt>
      <trkpt lat="49.31748" lon="0.98678">
        <ele>30.42</ele>
        <time>2018-08-18T09:09:25Z</time>
      </trkpt>
      <trkpt lat="49.31747" lon="0.98675">
        <ele>30.9</ele>
        <time>2018-08-18T09:09:26Z</time>
      </trkpt>
      <trkpt lat="49.31747" lon="0.98673">
        <ele>31.38</ele>
        <time>2018-08-18T09:09:27Z</time>
      </trkpt>
      <trkpt lat="49.31747" lon="0.9867">
        <ele>31.86</ele>
        <time>2018-08-18T09:09:28Z</time>
      </trkpt>
      <trkpt lat="49.31747" lon="0.98667">
        <ele>31.86</ele>
        <time>2018-08-18T09:09:29Z</time>
      </trkpt>
      <trkpt lat="49.31747" lon="0.98665">
        <ele>32.34</ele>
        <time>2018-08-18T09:09:30Z</time>
      </trkpt>
      <trkpt lat="49.31747" lon="0.98662">
        <ele>32.82</ele>
        <time>2018-08-18T09:09:31Z</time>
      </trkpt>
      <trkpt lat="49.31747" lon="0.98659">
        <ele>33.3</ele>
        <time>2018-08-18T09:09:32Z</time>
      </trkpt>
      <trkpt lat="49.31746" lon="0.98657">
        <ele>33.3</ele>
        <time>2018-08-18T09:09:33Z</time>
      </trkpt>
      <trkpt lat="49.31746" lon="0.98652">
        <ele>33.78</ele>
        <time>2018-08-18T09:09:36Z</time>
      </trkpt>
      <trkpt lat="49.31745" lon="0.98647">
        <ele>34.26</ele>
        <time>2018-08-18T09:09:38Z</time>
      </trkpt>
      <trkpt lat="49.31744" lon="0.98643">
        <ele>34.74</ele>
        <time>2018-08-18T09:09:40Z</time>
      </trkpt>
      <trkpt lat="49.31741" lon="0.98615">
        <ele>35.23</ele>
        <time>2018-08-18T09:09:47Z</time>
      </trkpt>
      <trkpt lat="49.31741" lon="0.98612">
        <ele>35.71</ele>
        <time>2018-08-18T09:09:48Z</time>
      </trkpt>
      <trkpt lat="49.3174" lon="0.98609">
        <ele>35.71</ele>
        <time>2018-08-18T09:09:49Z</time>
      </trkpt>
      <trkpt lat="49.3174" lon="0.98605">
        <ele>35.23</ele>
        <time>2018-08-18T09:09:50Z</time>
      </trkpt>
      <trkpt lat="49.3174" lon="0.986">
        <ele>35.23</ele>
        <time>2018-08-18T09:09:51Z</time>
      </trkpt>
      <trkpt lat="49.3174" lon="0.98592">
        <ele>35.23</ele>
        <time>2018-08-18T09:09:53Z</time>
      </trkpt>
      <trkpt lat="49.31739" lon="0.98588">
        <ele>35.71</ele>
        <time>2018-08-18T09:09:54Z</time>
      </trkpt>
      <trkpt lat="49.3174" lon="0.98585">
        <ele>35.71</ele>
        <time>2018-08-18T09:09:55Z</time>
      </trkpt>
      <trkpt lat="49.3174" lon="0.98581">
        <ele>35.71</ele>
        <time>2018-08-18T09:09:56Z</time>
      </trkpt>
      <trkpt lat="49.31741" lon="0.98577">
        <ele>35.71</ele>
        <time>2018-08-18T09:09:57Z</time>
      </trkpt>
      <trkpt lat="49.31741" lon="0.98573">
        <ele>35.71</ele>
        <time>2018-08-18T09:09:58Z</time>
      </trkpt>
      <trkpt lat="49.31743" lon="0.98548">
        <ele>34.26</ele>
        <time>2018-08-18T09:10:02Z</time>
      </trkpt>
      <trkpt lat="49.31744" lon="0.98541">
        <ele>34.26</ele>
        <time>2018-08-18T09:10:03Z</time>
      </trkpt>
      <trkpt lat="49.31744" lon="0.98536">
        <ele>33.78</ele>
        <time>2018-08-18T09:10:04Z</time>
      </trkpt>
      <trkpt lat="49.31745" lon="0.98532">
        <ele>33.78</ele>
        <time>2018-08-18T09:10:05Z</time>
      </trkpt>
      <trkpt lat="49.31745" lon="0.98528">
        <ele>33.78</ele>
        <time>2018-08-18T09:10:06Z</time>
      </trkpt>
      <trkpt lat="49.31745" lon="0.98525">
        <ele>33.3</ele>
        <time>2018-08-18T09:10:07Z</time>
      </trkpt>
      <trkpt lat="49.31751" lon="0.98502">
        <ele>31.86</ele>
        <time>2018-08-18T09:10:21Z</time>
      </trkpt>
      <trkpt lat="49.31756" lon="0.98491">
        <ele>30.42</ele>
        <time>2018-08-18T09:10:26Z</time>
      </trkpt>
      <trkpt lat="49.31761" lon="0.98489">
        <ele>26.09</ele>
        <time>2018-08-18T09:10:28Z</time>
      </trkpt>
      <trkpt lat="49.31764" lon="0.98491">
        <ele>23.69</ele>
        <time>2018-08-18T09:10:29Z</time>
      </trkpt>
      <trkpt lat="49.31767" lon="0.98495">
        <ele>22.25</ele>
        <time>2018-08-18T09:10:30Z</time>
      </trkpt>
      <trkpt lat="49.31771" lon="0.98499">
        <ele>20.32</ele>
        <time>2018-08-18T09:10:31Z</time>
      </trkpt>
      <trkpt lat="49.31775" lon="0.98503">
        <ele>17.92</ele>
        <time>2018-08-18T09:10:32Z</time>
      </trkpt>
      <trkpt lat="49.31785" lon="0.98509">
        <ele>11.19</ele>
        <time>2018-08-18T09:10:34Z</time>
      </trkpt>
      <trkpt lat="49.31794" lon="0.98511">
        <ele>9.75</ele>
        <time>2018-08-18T09:10:36Z</time>
      </trkpt>
      <trkpt lat="49.31802" lon="0.98512">
        <ele>9.75</ele>
        <time>2018-08-18T09:10:38Z</time>
      </trkpt>
      <trkpt lat="49.31812" lon="0.98506">
        <ele>10.71</ele>
        <time>2018-08-18T09:10:42Z</time>
      </trkpt>
      <trkpt lat="49.31812" lon="0.98498">
        <ele>10.71</ele>
        <time>2018-08-18T09:10:43Z</time>
      </trkpt>
      <trkpt lat="49.31813" lon="0.9849">
        <ele>10.71</ele>
        <time>2018-08-18T09:10:45Z</time>
      </trkpt>
      <trkpt lat="49.31812" lon="0.98487">
        <ele>11.19</ele>
        <time>2018-08-18T09:10:48Z</time>
      </trkpt>
      <trkpt lat="49.31815" lon="0.98486">
        <ele>10.71</ele>
        <time>2018-08-18T09:10:51Z</time>
      </trkpt>
      <trkpt lat="49.3182" lon="0.98486">
        <ele>12.15</ele>
        <time>2018-08-18T09:10:54Z</time>
      </trkpt>
      <trkpt lat="49.31829" lon="0.98487">
        <ele>16</ele>
        <time>2018-08-18T09:11:01Z</time>
      </trkpt>
      <trkpt lat="49.31838" lon="0.98491">
        <ele>18.88</ele>
        <time>2018-08-18T09:11:08Z</time>
      </trkpt>
      <trkpt lat="49.31849" lon="0.98496">
        <ele>22.25</ele>
        <time>2018-08-18T09:11:17Z</time>
      </trkpt>
      <trkpt lat="49.31859" lon="0.98498">
        <ele>24.17</ele>
        <time>2018-08-18T09:11:24Z</time>
      </trkpt>
      <trkpt lat="49.31875" lon="0.98498">
        <ele>27.53</ele>
        <time>2018-08-18T09:11:36Z</time>
      </trkpt>
      <trkpt lat="49.31893" lon="0.98494">
        <ele>30.9</ele>
        <time>2018-08-18T09:11:49Z</time>
      </trkpt>
      <trkpt lat="49.31918" lon="0.98484">
        <ele>34.26</ele>
        <time>2018-08-18T09:12:04Z</time>
      </trkpt>
      <trkpt lat="49.31927" lon="0.98482">
        <ele>35.23</ele>
        <time>2018-08-18T09:12:11Z</time>
      </trkpt>
      <trkpt lat="49.31946" lon="0.98477">
        <ele>37.15</ele>
        <time>2018-08-18T09:12:24Z</time>
      </trkpt>
      <trkpt lat="49.3195" lon="0.98475">
        <ele>37.63</ele>
        <time>2018-08-18T09:12:26Z</time>
      </trkpt>
      <trkpt lat="49.31956" lon="0.98471">
        <ele>38.11</ele>
        <time>2018-08-18T09:12:31Z</time>
      </trkpt>
      <trkpt lat="49.31961" lon="0.98472">
        <ele>39.07</ele>
        <time>2018-08-18T09:12:33Z</time>
      </trkpt>
      <trkpt lat="49.31966" lon="0.9847">
        <ele>39.07</ele>
        <time>2018-08-18T09:12:36Z</time>
      </trkpt>
      <trkpt lat="49.31989" lon="0.98461">
        <ele>41.47</ele>
        <time>2018-08-18T09:12:53Z</time>
      </trkpt>
      <trkpt lat="49.32021" lon="0.98456">
        <ele>42.92</ele>
        <time>2018-08-18T09:13:09Z</time>
      </trkpt>
      <trkpt lat="49.32051" lon="0.98455">
        <ele>43.88</ele>
        <time>2018-08-18T09:13:21Z</time>
      </trkpt>
      <trkpt lat="49.32064" lon="0.9846">
        <ele>43.4</ele>
        <time>2018-08-18T09:13:25Z</time>
      </trkpt>
      <trkpt lat="49.3208" lon="0.98487">
        <ele>41.47</ele>
        <time>2018-08-18T09:13:33Z</time>
      </trkpt>
      <trkpt lat="49.32084" lon="0.9849">
        <ele>41.47</ele>
        <time>2018-08-18T09:13:34Z</time>
      </trkpt>
      <trkpt lat="49.32118" lon="0.98518">
        <ele>42.92</ele>
        <time>2018-08-18T09:13:45Z</time>
      </trkpt>
      <trkpt lat="49.32132" lon="0.98548">
        <ele>42.92</ele>
        <time>2018-08-18T09:13:54Z</time>
      </trkpt>
      <trkpt lat="49.32133" lon="0.98553">
        <ele>42.92</ele>
        <time>2018-08-18T09:13:55Z</time>
      </trkpt>
      <trkpt lat="49.32135" lon="0.98558">
        <ele>42.92</ele>
        <time>2018-08-18T09:13:56Z</time>
      </trkpt>
      <trkpt lat="49.32156" lon="0.98598">
        <ele>41.47</ele>
        <time>2018-08-18T09:14:05Z</time>
      </trkpt>
      <trkpt lat="49.32164" lon="0.9861">
        <ele>39.55</ele>
        <time>2018-08-18T09:14:07Z</time>
      </trkpt>
      <trkpt lat="49.32168" lon="0.98614">
        <ele>39.07</ele>
        <time>2018-08-18T09:14:08Z</time>
      </trkpt>
      <trkpt lat="49.32177" lon="0.98622">
        <ele>36.67</ele>
        <time>2018-08-18T09:14:10Z</time>
      </trkpt>
      <trkpt lat="49.32186" lon="0.98628">
        <ele>34.26</ele>
        <time>2018-08-18T09:14:12Z</time>
      </trkpt>
      <trkpt lat="49.3219" lon="0.98632">
        <ele>33.3</ele>
        <time>2018-08-18T09:14:13Z</time>
      </trkpt>
      <trkpt lat="49.32194" lon="0.98637">
        <ele>32.34</ele>
        <time>2018-08-18T09:14:14Z</time>
      </trkpt>
      <trkpt lat="49.32197" lon="0.98643">
        <ele>30.9</ele>
        <time>2018-08-18T09:14:15Z</time>
      </trkpt>
      <trkpt lat="49.32199" lon="0.98649">
        <ele>29.94</ele>
        <time>2018-08-18T09:14:16Z</time>
      </trkpt>
      <trkpt lat="49.32202" lon="0.98654">
        <ele>28.98</ele>
        <time>2018-08-18T09:14:17Z</time>
      </trkpt>
      <trkpt lat="49.32205" lon="0.9866">
        <ele>28.5</ele>
        <time>2018-08-18T09:14:18Z</time>
      </trkpt>
      <trkpt lat="49.32208" lon="0.98674">
        <ele>28.98</ele>
        <time>2018-08-18T09:14:21Z</time>
      </trkpt>
      <trkpt lat="49.32205" lon="0.98677">
        <ele>28.98</ele>
        <time>2018-08-18T09:14:22Z</time>
      </trkpt>
      <trkpt lat="49.3218" lon="0.98698">
        <ele>27.05</ele>
        <time>2018-08-18T09:14:29Z</time>
      </trkpt>
      <trkpt lat="49.32163" lon="0.98735">
        <ele>24.65</ele>
        <time>2018-08-18T09:14:35Z</time>
      </trkpt>
      <trkpt lat="49.32159" lon="0.98742">
        <ele>23.69</ele>
        <time>2018-08-18T09:14:36Z</time>
      </trkpt>
      <trkpt lat="49.32156" lon="0.98749">
        <ele>23.21</ele>
        <time>2018-08-18T09:14:37Z</time>
      </trkpt>
      <trkpt lat="49.32139" lon="0.98815">
        <ele>24.17</ele>
        <time>2018-08-18T09:14:48Z</time>
      </trkpt>
      <trkpt lat="49.3214" lon="0.98821">
        <ele>23.69</ele>
        <time>2018-08-18T09:14:49Z</time>
      </trkpt>
      <trkpt lat="49.32135" lon="0.98857">
        <ele>23.21</ele>
        <time>2018-08-18T09:14:56Z</time>
      </trkpt>
      <trkpt lat="49.32128" lon="0.98874">
        <ele>20.32</ele>
        <time>2018-08-18T09:15:00Z</time>
      </trkpt>
      <trkpt lat="49.32125" lon="0.98884">
        <ele>18.88</ele>
        <time>2018-08-18T09:15:02Z</time>
      </trkpt>
      <trkpt lat="49.32124" lon="0.9889">
        <ele>17.92</ele>
        <time>2018-08-18T09:15:03Z</time>
      </trkpt>
      <trkpt lat="49.3212" lon="0.98911">
        <ele>17.92</ele>
        <time>2018-08-18T09:15:07Z</time>
      </trkpt>
      <trkpt lat="49.32118" lon="0.98917">
        <ele>17.92</ele>
        <time>2018-08-18T09:15:08Z</time>
      </trkpt>
      <trkpt lat="49.32117" lon="0.9892">
        <ele>17.92</ele>
        <time>2018-08-18T09:15:09Z</time>
      </trkpt>
      <trkpt lat="49.32115" lon="0.98926">
        <ele>16.48</ele>
        <time>2018-08-18T09:15:11Z</time>
      </trkpt>
      <trkpt lat="49.32114" lon="0.98929">
        <ele>15.52</ele>
        <time>2018-08-18T09:15:12Z</time>
      </trkpt>
      <trkpt lat="49.32113" lon="0.98933">
        <ele>16</ele>
        <time>2018-08-18T09:15:13Z</time>
      </trkpt>
      <trkpt lat="49.32112" lon="0.98935">
        <ele>16</ele>
        <time>2018-08-18T09:15:14Z</time>
      </trkpt>
      <trkpt lat="49.32102" lon="0.98984">
        <ele>18.4</ele>
        <time>2018-08-18T09:15:26Z</time>
      </trkpt>
      <trkpt lat="49.321" lon="0.98987">
        <ele>17.44</ele>
        <time>2018-08-18T09:15:27Z</time>
      </trkpt>
      <trkpt lat="49.32098" lon="0.98991">
        <ele>16.96</ele>
        <time>2018-08-18T09:15:28Z</time>
      </trkpt>
      <trkpt lat="49.32096" lon="0.98995">
        <ele>16.96</ele>
        <time>2018-08-18T09:15:29Z</time>
      </trkpt>
      <trkpt lat="49.32094" lon="0.98999">
        <ele>16.48</ele>
        <time>2018-08-18T09:15:30Z</time>
      </trkpt>
      <trkpt lat="49.32089" lon="0.99003">
        <ele>14.56</ele>
        <time>2018-08-18T09:15:32Z</time>
      </trkpt>
      <trkpt lat="49.32087" lon="0.99006">
        <ele>13.6</ele>
        <time>2018-08-18T09:15:33Z</time>
      </trkpt>
      <trkpt lat="49.32074" lon="0.99034">
        <ele>11.67</ele>
        <time>2018-08-18T09:15:40Z</time>
      </trkpt>
      <trkpt lat="49.32069" lon="0.99035">
        <ele>10.71</ele>
        <time>2018-08-18T09:15:41Z</time>
      </trkpt>
      <trkpt lat="49.32064" lon="0.99036">
        <ele>9.75</ele>
        <time>2018-08-18T09:15:42Z</time>
      </trkpt>
      <trkpt lat="49.32059" lon="0.99039">
        <ele>8.31</ele>
        <time>2018-08-18T09:15:43Z</time>
      </trkpt>
      <trkpt lat="49.32054" lon="0.99041">
        <ele>7.35</ele>
        <time>2018-08-18T09:15:44Z</time>
      </trkpt>
      <trkpt lat="49.32049" lon="0.99044">
        <ele>6.39</ele>
        <time>2018-08-18T09:15:45Z</time>
      </trkpt>
      <trkpt lat="49.32045" lon="0.99049">
        <ele>6.39</ele>
        <time>2018-08-18T09:15:46Z</time>
      </trkpt>
      <trkpt lat="49.32042" lon="0.99054">
        <ele>6.39</ele>
        <time>2018-08-18T09:15:47Z</time>
      </trkpt>
      <trkpt lat="49.32039" lon="0.99061">
        <ele>6.39</ele>
        <time>2018-08-18T09:15:48Z</time>
      </trkpt>
      <trkpt lat="49.32037" lon="0.99068">
        <ele>6.39</ele>
        <time>2018-08-18T09:15:49Z</time>
      </trkpt>
      <trkpt lat="49.32034" lon="0.99074">
        <ele>6.39</ele>
        <time>2018-08-18T09:15:50Z</time>
      </trkpt>
      <trkpt lat="49.32032" lon="0.99079">
        <ele>6.39</ele>
        <time>2018-08-18T09:15:51Z</time>
      </trkpt>
      <trkpt lat="49.32029" lon="0.99084">
        <ele>6.39</ele>
        <time>2018-08-18T09:15:52Z</time>
      </trkpt>
      <trkpt lat="49.32027" lon="0.99091">
        <ele>6.39</ele>
        <time>2018-08-18T09:15:53Z</time>
      </trkpt>
      <trkpt lat="49.31974" lon="0.9919">
        <ele>6.87</ele>
        <time>2018-08-18T09:16:09Z</time>
      </trkpt>
      <trkpt lat="49.31963" lon="0.9921">
        <ele>8.31</ele>
        <time>2018-08-18T09:16:12Z</time>
      </trkpt>
      <trkpt lat="49.31949" lon="0.99239">
        <ele>7.83</ele>
        <time>2018-08-18T09:16:17Z</time>
      </trkpt>
      <trkpt lat="49.31919" lon="0.99314">
        <ele>9.75</ele>
        <time>2018-08-18T09:16:30Z</time>
      </trkpt>
      <trkpt lat="49.31916" lon="0.99314">
        <ele>9.75</ele>
        <time>2018-08-18T09:16:31Z</time>
      </trkpt>
      <trkpt lat="49.31915" lon="0.99311">
        <ele>9.75</ele>
        <time>2018-08-18T09:16:32Z</time>
      </trkpt>
      <trkpt lat="49.31914" lon="0.99308">
        <ele>9.27</ele>
        <time>2018-08-18T09:16:33Z</time>
      </trkpt>
      <trkpt lat="49.31916" lon="0.99299">
        <ele>8.31</ele>
        <time>2018-08-18T09:16:35Z</time>
      </trkpt>
      <trkpt lat="49.31914" lon="0.99295">
        <ele>8.31</ele>
        <time>2018-08-18T09:16:36Z</time>
      </trkpt>
      <trkpt lat="49.31911" lon="0.99295">
        <ele>7.83</ele>
        <time>2018-08-18T09:16:37Z</time>
      </trkpt>
      <trkpt lat="49.31853" lon="0.99297">
        <ele>11.19</ele>
        <time>2018-08-18T09:16:54Z</time>
      </trkpt>
      <trkpt lat="49.3185" lon="0.99299">
        <ele>11.19</ele>
        <time>2018-08-18T09:16:55Z</time>
      </trkpt>
      <trkpt lat="49.31848" lon="0.99303">
        <ele>11.67</ele>
        <time>2018-08-18T09:16:56Z</time>
      </trkpt>
      <trkpt lat="49.3184" lon="0.9932">
        <ele>12.63</ele>
        <time>2018-08-18T09:17:01Z</time>
      </trkpt>
      <trkpt lat="49.31838" lon="0.99325">
        <ele>12.15</ele>
        <time>2018-08-18T09:17:02Z</time>
      </trkpt>
      <trkpt lat="49.31836" lon="0.9933">
        <ele>12.15</ele>
        <time>2018-08-18T09:17:03Z</time>
      </trkpt>
      <trkpt lat="49.31817" lon="0.99375">
        <ele>11.67</ele>
        <time>2018-08-18T09:17:13Z</time>
      </trkpt>
      <trkpt lat="49.31814" lon="0.99377">
        <ele>11.67</ele>
        <time>2018-08-18T09:17:14Z</time>
      </trkpt>
      <trkpt lat="49.3181" lon="0.99378">
        <ele>11.67</ele>
        <time>2018-08-18T09:17:15Z</time>
      </trkpt>
      <trkpt lat="49.31807" lon="0.99378">
        <ele>11.67</ele>
        <time>2018-08-18T09:17:16Z</time>
      </trkpt>
      <trkpt lat="49.31805" lon="0.99379">
        <ele>11.67</ele>
        <time>2018-08-18T09:17:17Z</time>
      </trkpt>
      <trkpt lat="49.31807" lon="0.9938">
        <ele>11.67</ele>
        <time>2018-08-18T09:17:38Z</time>
      </trkpt>
    </trkseg>
  </trk>
</gpx>